
Distance (Route):
Temperature : 15.2°C
Humidity : 64.1%
Pressure : 919.0hPa| Receiver | Frames | First received | Last received |
|---|---|---|---|
| DO3MHA-11 | 494 | 2026-09-01 04:40:30 | 2026-09-01 06:16:29 |
| BAUMI2-15 | 230 | 2026-09-01 05:13:41 | 2026-09-01 06:10:19 |
| OE5MMP-10 | 172 | 2026-09-01 05:18:41 | 2026-09-01 06:08:11 |
| OE5DRO-10 | 160 | 2026-09-01 04:55:33 | 2026-09-01 06:14:59 |
| OE5DXL-15 | 158 | 2026-09-01 04:44:22 | 2026-09-01 06:17:59 |
| DG1MFX-10 | 150 | 2026-09-01 04:47:33 | 2026-09-01 06:17:04 |
| DO3MHA-12 | 141 | 2026-09-01 04:40:30 | 2026-09-01 06:16:02 |
| DL6DJ-15 | 122 | 2026-09-01 04:49:53 | 2026-09-01 06:09:38 |
| OE5WHR-10 | 118 | 2026-09-01 05:17:49 | 2026-09-01 06:13:33 |
| NBG1-10 | 111 | 2026-09-01 04:43:48 | 2026-09-01 06:10:53 |
| DB0UT-7 | 100 | 2026-09-01 04:56:08 | 2026-09-01 05:57:41 |
| DG1MJG | 92 | 2026-09-01 04:40:40 | 2026-09-01 06:05:14 |
| DF3TZ-5 | 36 | 2026-09-01 05:01:42 | 2026-09-01 05:24:59 |
| DF7PN | 26 | 2026-09-01 05:18:50 | 2026-09-01 05:49:54 |
| DO8TBO-1 | 25 | 2026-09-01 05:07:32 | 2026-09-01 05:48:05 |
| OE5HKT-10 | 23 | 2026-09-01 05:50:18 | 2026-09-01 06:03:42 |
| PG1ADW-2 | 20 | 2026-09-01 05:21:19 | 2026-09-01 06:01:43 |
| DK5PH-5 | 15 | 2026-09-01 05:29:34 | 2026-09-01 05:41:36 |
| DH7VM-15 | 13 | 2026-09-01 05:00:43 | 2026-09-01 05:54:23 |
| IN3HCDX | 13 | 2026-09-01 05:22:02 | 2026-09-01 06:01:33 |
| DN1GJH-1 | 12 | 2026-09-01 05:19:19 | 2026-09-01 05:29:44 |
| OE3JTB-15 | 10 | 2026-09-01 05:17:35 | 2026-09-01 06:11:43 |
| DB0ND-19 | 6 | 2026-09-01 04:48:05 | 2026-09-01 05:58:57 |
| DB0NH | 4 | 2026-09-01 04:49:31 | 2026-09-01 06:01:29 |
| DF2AP-13 | 4 | 2026-09-01 05:33:01 | 2026-09-01 05:40:12 |
| DF1GD-15 | 1 | 2026-09-01 05:25:28 | 2026-09-01 05:25:28 |
| IW2NTF | 1 | 2026-09-01 05:43:10 | 2026-09-01 05:43:10 |
| Receiver | Date | Latitude | Longitude | Direction | Speed | Altitude | Climb | Temperature | Humidity | Pressure | Voltage | Killtimer | Uptime | BKT | XDATA |
|---|---|---|---|---|---|---|---|---|---|---|---|---|---|---|---|
| OE5DXL-15 | 2026-09-01 06:17:59 | 47.81251 | 12.44173 | 90° | 22km/h | 945m | -7.8m/s | 15.2°C | 64.1% | 919.0hPa | 2.7V | 00:00:00 | 00:00:00 | 00:00:00 | |
| OE5DXL-15 | 2026-09-01 06:17:53 | 47.81251 | 12.44125 | 94° | 20km/h | 993m | -8.4m/s | 14.8°C | 65.5% | 913.7hPa | 2.7V | 00:00:00 | 00:00:00 | 00:00:00 | |
| OE5DXL-15 | 2026-09-01 06:17:47 | 47.81252 | 12.44079 | 89° | 20km/h | 1042m | -8.4m/s | 14.4°C | 67.2% | 908.4hPa | 2.7V | 02:12:00 | 00:00:00 | 00:00:00 | |
| OE5DXL-15 | 2026-09-01 06:17:41 | 47.81252 | 12.44035 | 89° | 18km/h | 1091m | -8.3m/s | 13.9°C | 68.9% | 903.4hPa | 2.7V | 00:00:00 | 00:00:00 | 00:00:00 | |
| OE5DXL-15 | 2026-09-01 06:17:35 | 47.81251 | 12.43992 | 89° | 18km/h | 1138m | -7.6m/s | 13.5°C | 70.7% | 898.3hPa | 2.7V | 00:00:00 | 00:00:00 | 00:00:00 | |
| OE5DXL-15 | 2026-09-01 06:17:29 | 47.81249 | 12.43951 | 86° | 18km/h | 1186m | -8.3m/s | 13.2°C | 71.8% | 893.2hPa | 2.7V | 02:12:00 | 00:00:00 | 00:00:00 | |
| OE5DXL-15 | 2026-09-01 06:17:23 | 47.81247 | 12.43910 | 84° | 18km/h | 1233m | -8.1m/s | 12.8°C | 73.1% | 888.2hPa | 2.7V | 00:00:00 | 00:00:00 | 00:00:00 | |
| OE5DXL-15 | 2026-09-01 06:17:17 | 47.81244 | 12.43868 | 86° | 20km/h | 1281m | -7.9m/s | 12.4°C | 74.6% | 883.0hPa | 2.7V | 00:00:00 | 00:00:00 | 00:00:00 | |
| OE5DXL-15 | 2026-09-01 06:17:11 | 47.81241 | 12.43824 | 80° | 20km/h | 1330m | -7.8m/s | 12.0°C | 76.3% | 878.2hPa | 2.7V | 02:12:00 | 00:00:00 | 00:00:00 | |
| OE5DXL-15 | 2026-09-01 06:17:05 | 47.81238 | 12.43779 | 84° | 22km/h | 1378m | -8.5m/s | 11.6°C | 77.8% | 873.2hPa | 2.6V | 00:00:00 | 00:00:00 | 00:00:00 | |
| DG1MFX-10 | 2026-09-01 06:17:04 | 47.81237 | 12.43771 | 83° | 22km/h | 1386m | -8.0m/s | 11.5°C | 77.1% | 872.3hPa | 2.6V | 02:13:00 | 00:00:00 | 00:00:00 | |
| OE5DXL-15 | 2026-09-01 06:16:59 | 47.81234 | 12.43730 | 85° | 24km/h | 1427m | -8.4m/s | 11.1°C | 79.2% | 868.0hPa | 2.6V | 00:00:00 | 00:00:00 | 00:00:00 | |
| OE5DXL-15 | 2026-09-01 06:16:53 | 47.81232 | 12.43678 | 88° | 24km/h | 1476m | -8.2m/s | 10.7°C | 79.9% | 862.9hPa | 2.6V | 02:13:00 | 00:00:00 | 00:00:00 | |
| OE5DXL-15 | 2026-09-01 06:16:47 | 47.81230 | 12.43623 | 85° | 26km/h | 1525m | -7.6m/s | 10.3°C | 81.4% | 858.1hPa | 2.7V | 00:00:00 | 00:00:00 | 00:00:00 | |
| DG1MFX-10 | 2026-09-01 06:16:43 | 47.81228 | 12.43594 | 88° | 27km/h | 1548m | -7.8m/s | 10.1°C | 81.1% | 855.5hPa | 2.7V | 02:13:00 | 00:00:00 | 00:00:00 | |
| OE5DXL-15 | 2026-09-01 06:16:41 | 47.81228 | 12.43564 | 91° | 31km/h | 1572m | -7.9m/s | 9.8°C | 83.2% | 853.0hPa | 2.7V | 00:00:00 | 00:00:00 | 00:00:00 | |
| DO3MHA-11 | 2026-09-01 06:16:29 | 47.81224 | 12.43430 | 88° | 33km/h | 1668m | -8.3m/s | 9.1°C | 84.2% | 843.2hPa | 2.7V | 02:13:00 | 01:47:19 | 00:00:00 | |
| DG1MFX-10 | 2026-09-01 06:16:23 | 47.81223 | 12.43369 | 87° | 33km/h | 1708m | -7.6m/s | 8.9°C | 84.0% | 839.2hPa | 2.6V | 02:13:00 | 00:00:00 | 00:00:00 | |
| DO3MHA-11 | 2026-09-01 06:16:23 | 47.81223 | 12.43357 | 86° | 33km/h | 1716m | -7.7m/s | 8.9°C | 84.0% | 838.3hPa | 2.6V | 00:00:00 | 01:47:13 | 00:00:00 | |
| OE5DXL-15 | 2026-09-01 06:16:22 | 47.81222 | 12.43345 | 86° | 33km/h | 1724m | -8.0m/s | 8.8°C | 81.7% | 837.2hPa | 2.6V | 02:13:00 | 00:00:00 | 00:00:00 | |
| DO3MHA-11 | 2026-09-01 06:16:14 | 47.81219 | 12.43245 | 89° | 33km/h | 1787m | -8.2m/s | 8.4°C | 81.7% | 830.9hPa | 2.7V | 00:00:00 | 01:47:04 | 00:00:00 | |
| DO3MHA-11 | 2026-09-01 06:16:06 | 47.81218 | 12.43145 | 90° | 33km/h | 1852m | -8.6m/s | 7.9°C | 81.5% | 824.5hPa | 2.7V | 02:13:00 | 01:46:56 | 00:00:00 | |
| DG1MFX-10 | 2026-09-01 06:16:03 | 47.81218 | 12.43120 | 92° | 35km/h | 1868m | -8.5m/s | 7.9°C | 80.6% | 823.0hPa | 2.7V | 02:14:00 | 00:00:00 | 00:00:00 | |
| DO3MHA-12 | 2026-09-01 06:16:02 | 47.81219 | 12.43095 | 90° | 35km/h | 1885m | -8.6m/s | 7.7°C | 80.9% | 821.2hPa | 2.7V | 00:00:00 | 01:46:52 | 00:00:00 | |
| OE5DXL-15 | 2026-09-01 06:16:02 | 47.81219 | 12.43095 | 90° | 37km/h | 1885m | -8.6m/s | 7.7°C | 80.9% | 821.2hPa | 2.7V | 00:00:00 | 00:00:00 | 00:00:00 | |
| DO3MHA-11 | 2026-09-01 06:16:01 | 47.81219 | 12.43082 | 89° | 35km/h | 1894m | -8.5m/s | 7.6°C | 84.8% | 820.3hPa | 2.7V | 00:00:00 | 01:46:51 | 00:00:00 | |
| DO3MHA-12 | 2026-09-01 06:15:57 | 47.81219 | 12.43031 | 91° | 35km/h | 1928m | -8.4m/s | 7.4°C | 83.4% | 817.1hPa | 2.7V | 00:00:00 | 01:46:47 | 00:00:00 | |
| DO3MHA-11 | 2026-09-01 06:15:56 | 47.81219 | 12.43018 | 93° | 35km/h | 1937m | -8.4m/s | 7.4°C | 83.2% | 816.2hPa | 2.7V | 00:00:00 | 01:46:46 | 00:00:00 | |
| DO3MHA-12 | 2026-09-01 06:15:52 | 47.81220 | 12.42966 | 92° | 37km/h | 1970m | -8.6m/s | 7.2°C | 83.0% | 812.9hPa | 2.7V | 02:14:00 | 01:46:42 | 00:00:00 | |
| DO3MHA-11 | 2026-09-01 06:15:51 | 47.81220 | 12.42953 | 94° | 37km/h | 1978m | -8.1m/s | 7.1°C | 81.3% | 812.0hPa | 2.6V | 02:14:00 | 01:46:41 | 00:00:00 | |
| DO3MHA-12 | 2026-09-01 06:15:47 | 47.81223 | 12.42897 | 94° | 38km/h | 2010m | -7.9m/s | 7.1°C | 68.7% | 808.9hPa | 2.7V | 00:00:00 | 01:46:37 | 00:00:00 | |
| DO3MHA-11 | 2026-09-01 06:15:46 | 47.81223 | 12.42884 | 96° | 38km/h | 2018m | -7.9m/s | 7.1°C | 66.5% | 808.2hPa | 2.7V | 00:00:00 | 01:46:36 | 00:00:00 | |
| DO3MHA-12 | 2026-09-01 06:15:42 | 47.81227 | 12.42825 | 96° | 40km/h | 2050m | -7.7m/s | 7.1°C | 62.4% | 805.1hPa | 2.7V | 00:00:00 | 01:46:32 | 00:00:00 | |
| DO3MHA-11 | 2026-09-01 06:15:41 | 47.81227 | 12.42811 | 95° | 40km/h | 2057m | -7.4m/s | 7.1°C | 62.7% | 804.3hPa | 2.7V | 00:00:00 | 01:46:31 | 00:00:00 | |
| DO3MHA-11 | 2026-09-01 06:15:36 | 47.81234 | 12.42738 | 100° | 40km/h | 2096m | -7.8m/s | 7.1°C | 59.5% | 800.4hPa | 2.7V | 02:14:00 | 01:46:26 | 00:00:00 | |
| DO3MHA-11 | 2026-09-01 06:15:31 | 47.81241 | 12.42663 | 98° | 40km/h | 2135m | -7.7m/s | 6.8°C | 64.3% | 796.6hPa | 2.7V | 00:00:00 | 01:46:21 | 00:00:00 | |
| DO3MHA-11 | 2026-09-01 06:15:26 | 47.81250 | 12.42589 | 101° | 42km/h | 2175m | -8.3m/s | 6.5°C | 66.5% | 792.8hPa | 2.7V | 00:00:00 | 01:46:16 | 00:00:00 | |
| OE5DXL-15 | 2026-09-01 06:15:22 | 47.81258 | 12.42528 | 100° | 42km/h | 2206m | -7.9m/s | 6.2°C | 70.3% | 789.8hPa | 2.7V | 02:14:00 | 00:00:00 | 00:00:00 | |
| DO3MHA-11 | 2026-09-01 06:15:21 | 47.81259 | 12.42513 | 99° | 42km/h | 2214m | -8.0m/s | 6.1°C | 71.5% | 788.9hPa | 2.7V | 02:14:00 | 01:46:11 | 00:00:00 | |
| DO3MHA-11 | 2026-09-01 06:15:16 | 47.81267 | 12.42436 | 100° | 42km/h | 2254m | -8.7m/s | 5.8°C | 73.8% | 785.1hPa | 2.7V | 00:00:00 | 01:46:06 | 00:00:00 | |
| DO3MHA-11 | 2026-09-01 06:15:11 | 47.81276 | 12.42357 | 99° | 44km/h | 2294m | -7.8m/s | 5.5°C | 75.3% | 781.4hPa | 2.7V | 00:00:00 | 01:46:01 | 00:00:00 | |
| DO3MHA-11 | 2026-09-01 06:15:06 | 47.81285 | 12.42277 | 100° | 44km/h | 2333m | -7.8m/s | 5.2°C | 76.2% | 777.5hPa | 2.7V | 02:14:00 | 01:45:56 | 00:00:00 | |
| DO3MHA-11 | 2026-09-01 06:15:01 | 47.81295 | 12.42195 | 102° | 46km/h | 2372m | -8.1m/s | 5.1°C | 74.1% | 773.9hPa | 2.7V | 00:00:00 | 01:45:51 | 00:00:00 | |
| DG1MFX-10 | 2026-09-01 06:15:00 | 47.81295 | 12.42195 | 103° | 46km/h | 2372m | -8.2m/s | 5.1°C | 72.9% | 773.9hPa | 2.7V | 02:15:00 | 00:00:00 | 00:00:00 | |
| OE5DRO-10 | 2026-09-01 06:14:59 | 47.81300 | 12.42161 | 103° | 46km/h | 2388m | -7.8m/s | 5.0°C | 74.5% | 772.3hPa | 2.7V | 00:00:00 | 00:00:00 | 00:00:00 | |
| DO3MHA-11 | 2026-09-01 06:14:56 | 47.81308 | 12.42111 | 104° | 46km/h | 2412m | -7.9m/s | 4.9°C | 72.3% | 770.3hPa | 2.7V | 00:00:00 | 01:45:46 | 00:00:00 | |
| OE5DRO-10 | 2026-09-01 06:14:52 | 47.81319 | 12.42043 | 103° | 46km/h | 2443m | -7.8m/s | 4.7°C | 71.8% | 767.1hPa | 2.7V | 00:00:00 | 00:00:00 | 00:00:00 | |
| DO3MHA-11 | 2026-09-01 06:14:51 | 47.81322 | 12.42027 | 104° | 46km/h | 2451m | -7.9m/s | 4.7°C | 71.8% | 766.3hPa | 2.7V | 02:15:00 | 01:45:41 | 00:00:00 | |
| DO3MHA-11 | 2026-09-01 06:14:46 | 47.81336 | 12.41943 | 106° | 47km/h | 2491m | -8.2m/s | 4.4°C | 68.5% | 762.6hPa | 2.6V | 00:00:00 | 01:45:36 | 00:00:00 | |
| OE5DRO-10 | 2026-09-01 06:14:45 | 47.81339 | 12.41926 | 104° | 47km/h | 2498m | -7.8m/s | 4.3°C | 68.6% | 761.9hPa | 2.6V | 02:15:00 | 00:00:00 | 00:00:00 | |
| OE5DXL-15 | 2026-09-01 06:14:42 | 47.81347 | 12.41874 | 104° | 49km/h | 2523m | -8.4m/s | 4.1°C | 67.1% | 759.6hPa | 2.7V | 00:00:00 | 00:00:00 | 00:00:00 | |
| DO3MHA-11 | 2026-09-01 06:14:41 | 47.81350 | 12.41857 | 104° | 47km/h | 2531m | -8.1m/s | 4.1°C | 66.1% | 758.9hPa | 2.7V | 00:00:00 | 01:45:31 | 00:00:00 | |
| DG1MFX-10 | 2026-09-01 06:14:40 | 47.81350 | 12.41857 | 104° | 47km/h | 2531m | -8.2m/s | 4.1°C | 65.0% | 758.9hPa | 2.7V | 02:15:00 | 00:00:00 | 00:00:00 | |
| OE5DRO-10 | 2026-09-01 06:14:38 | 47.81358 | 12.41804 | 103° | 49km/h | 2556m | -8.3m/s | 3.9°C | 64.6% | 756.6hPa | 2.7V | 00:00:00 | 00:00:00 | 00:00:00 | |
| DO3MHA-11 | 2026-09-01 06:14:36 | 47.81363 | 12.41768 | 103° | 51km/h | 2572m | -8.0m/s | 3.8°C | 65.9% | 755.1hPa | 2.7V | 02:15:00 | 01:45:26 | 00:00:00 | |
| DO3MHA-11 | 2026-09-01 06:14:31 | 47.81377 | 12.41676 | 101° | 49km/h | 2613m | -8.2m/s | 3.5°C | 68.1% | 751.5hPa | 2.6V | 00:00:00 | 01:45:21 | 00:00:00 | |
| DO3MHA-11 | 2026-09-01 06:14:26 | 47.81387 | 12.41584 | 99° | 49km/h | 2654m | -8.2m/s | 3.1°C | 71.0% | 747.7hPa | 2.6V | 00:00:00 | 01:45:16 | 00:00:00 | |
| OE5DXL-15 | 2026-09-01 06:14:22 | 47.81394 | 12.41511 | 97° | 49km/h | 2686m | -8.2m/s | 2.9°C | 72.9% | 744.6hPa | 2.6V | 02:15:00 | 00:00:00 | 00:00:00 | |
| DO3MHA-11 | 2026-09-01 06:14:21 | 47.81396 | 12.41492 | 97° | 49km/h | 2694m | -8.0m/s | 2.8°C | 73.3% | 743.9hPa | 2.7V | 02:15:00 | 01:45:11 | 00:00:00 | |
| DG1MFX-10 | 2026-09-01 06:14:19 | 47.81397 | 12.41473 | 97° | 49km/h | 2703m | -8.4m/s | 2.8°C | 72.5% | 743.2hPa | 2.6V | 02:16:00 | 00:00:00 | 00:00:00 | |
| DO3MHA-11 | 2026-09-01 06:14:16 | 47.81403 | 12.41399 | 96° | 49km/h | 2736m | -8.1m/s | 2.5°C | 75.9% | 740.2hPa | 2.6V | 00:00:00 | 01:45:06 | 00:00:00 | |
| OE5DRO-10 | 2026-09-01 06:14:15 | 47.81404 | 12.41380 | 96° | 49km/h | 2744m | -8.2m/s | 2.5°C | 76.9% | 739.4hPa | 2.6V | 02:15:00 | 00:00:00 | 00:00:00 | |
| DO3MHA-11 | 2026-09-01 06:14:11 | 47.81407 | 12.41307 | 93° | 49km/h | 2777m | -8.5m/s | 2.4°C | 72.7% | 736.5hPa | 2.7V | 00:00:00 | 01:45:01 | 00:00:00 | |
| DO3MHA-11 | 2026-09-01 06:14:06 | 47.81408 | 12.41213 | 90° | 49km/h | 2818m | -8.6m/s | 2.0°C | 73.5% | 732.7hPa | 2.7V | 02:15:00 | 01:44:56 | 00:00:00 | |
| DO3MHA-11 | 2026-09-01 06:14:01 | 47.81407 | 12.41120 | 89° | 49km/h | 2860m | -8.1m/s | 1.7°C | 75.5% | 728.8hPa | 2.7V | 00:00:00 | 01:44:51 | 00:00:00 | |
| OE5DRO-10 | 2026-09-01 06:13:59 | 47.81406 | 12.41083 | 87° | 49km/h | 2876m | -8.2m/s | 1.5°C | 74.6% | 727.3hPa | 2.7V | 00:00:00 | 00:00:00 | 00:00:00 | |
| DO3MHA-11 | 2026-09-01 06:13:56 | 47.81403 | 12.41028 | 84° | 49km/h | 2901m | -8.6m/s | 1.5°C | 73.2% | 725.0hPa | 2.7V | 00:00:00 | 01:44:46 | 00:00:00 | |
| OE5DXL-15 | 2026-09-01 06:13:52 | 47.81396 | 12.40956 | 81° | 53km/h | 2935m | -8.6m/s | 1.3°C | 73.4% | 722.0hPa | 2.7V | 00:00:00 | 00:00:00 | 00:00:00 | |
| DO3MHA-11 | 2026-09-01 06:13:51 | 47.81394 | 12.40937 | 81° | 51km/h | 2943m | -9.2m/s | 1.2°C | 73.5% | 721.3hPa | 2.7V | 02:16:00 | 01:44:41 | 00:00:00 | |
| DO3MHA-11 | 2026-09-01 06:13:46 | 47.81383 | 12.40844 | 78° | 53km/h | 2986m | -8.3m/s | 1.0°C | 74.8% | 717.6hPa | 2.6V | 00:00:00 | 01:44:36 | 00:00:00 | |
| OE5DRO-10 | 2026-09-01 06:13:43 | 47.81375 | 12.40787 | 79° | 53km/h | 3011m | -8.4m/s | 0.9°C | 76.6% | 715.2hPa | 2.6V | 00:00:00 | 00:00:00 | 00:00:00 | |
| DO3MHA-11 | 2026-09-01 06:13:41 | 47.81369 | 12.40749 | 78° | 53km/h | 3028m | -8.5m/s | 0.8°C | 75.7% | 713.7hPa | 2.6V | 00:00:00 | 01:44:31 | 00:00:00 | |
| DG1MFX-10 | 2026-09-01 06:13:38 | 47.81363 | 12.40710 | 78° | 53km/h | 3045m | -8.9m/s | 0.9°C | 70.9% | 712.3hPa | 2.6V | 02:17:00 | 00:00:00 | 00:00:00 | |
| DO3MHA-11 | 2026-09-01 06:13:36 | 47.81355 | 12.40651 | 78° | 55km/h | 3071m | -8.6m/s | 0.9°C | 66.7% | 710.0hPa | 2.6V | 02:16:00 | 01:44:26 | 00:00:00 | |
| OE5WHR-10 | 2026-09-01 06:13:33 | 47.81347 | 12.40592 | 80° | 47km/h | 3097m | -8.9m/s | 0.8°C | 64.5% | 707.8hPa | 2.7V | 00:00:00 | 01:44:23 | 00:00:00 | |
| DO3MHA-11 | 2026-09-01 06:13:31 | 47.81342 | 12.40552 | 81° | 55km/h | 3115m | -8.4m/s | 0.8°C | 60.7% | 706.2hPa | 2.7V | 00:00:00 | 01:44:21 | 00:00:00 | |
| OE5DRO-10 | 2026-09-01 06:13:27 | 47.81332 | 12.40470 | 80° | 53km/h | 3149m | -8.4m/s | 0.5°C | 58.9% | 703.1hPa | 2.7V | 02:16:00 | 00:00:00 | 00:00:00 | |
| DO3MHA-11 | 2026-09-01 06:13:26 | 47.81330 | 12.40450 | 80° | 53km/h | 3158m | -8.6m/s | 0.4°C | 58.9% | 702.4hPa | 2.6V | 00:00:00 | 01:44:16 | 00:00:00 | |
| OE5DXL-15 | 2026-09-01 06:13:22 | 47.81320 | 12.40371 | 82° | 51km/h | 3192m | -8.6m/s | 0.2°C | 55.7% | 699.4hPa | 2.6V | 00:00:00 | 00:00:00 | 00:00:00 | |
| DO3MHA-11 | 2026-09-01 06:13:21 | 47.81318 | 12.40351 | 80° | 53km/h | 3201m | -8.9m/s | 0.1°C | 55.0% | 698.5hPa | 2.6V | 02:16:00 | 01:44:11 | 00:00:00 | |
| DG1MFX-10 | 2026-09-01 06:13:18 | 47.81314 | 12.40311 | 81° | 53km/h | 3218m | -8.8m/s | 0.1°C | 51.0% | 697.1hPa | 2.7V | 02:17:00 | 00:00:00 | 00:00:00 | |
| DO3MHA-11 | 2026-09-01 06:13:16 | 47.81306 | 12.40253 | 81° | 51km/h | 3244m | -8.7m/s | 0.0°C | 48.7% | 694.7hPa | 2.7V | 00:00:00 | 01:44:06 | 00:00:00 | |
| DO3MHA-11 | 2026-09-01 06:13:11 | 47.81296 | 12.40158 | 82° | 49km/h | 3288m | -8.8m/s | -0.2°C | 46.3% | 691.0hPa | 2.7V | 00:00:00 | 01:44:01 | 00:00:00 | |
| DO3MHA-11 | 2026-09-01 06:13:06 | 47.81285 | 12.40065 | 82° | 49km/h | 3331m | -9.0m/s | -0.0°C | 38.2% | 687.3hPa | 2.7V | 02:16:00 | 01:43:56 | 00:00:00 | |
| DO3MHA-11 | 2026-09-01 06:13:01 | 47.81277 | 12.39974 | 85° | 49km/h | 3375m | -9.1m/s | -0.1°C | 39.3% | 683.4hPa | 2.7V | 00:00:00 | 01:43:51 | 00:00:00 | |
| DG1MFX-10 | 2026-09-01 06:12:57 | 47.81273 | 12.39918 | 85° | 49km/h | 3402m | -9.5m/s | 0.1°C | 38.7% | 681.1hPa | 2.7V | 02:17:00 | 00:00:00 | 00:00:00 | |
| DO3MHA-11 | 2026-09-01 06:12:56 | 47.81269 | 12.39881 | 85° | 49km/h | 3421m | -9.4m/s | 0.1°C | 33.1% | 679.7hPa | 2.7V | 00:00:00 | 01:43:46 | 00:00:00 | |
| OE5DRO-10 | 2026-09-01 06:12:55 | 47.81269 | 12.39863 | 87° | 47km/h | 3430m | -9.5m/s | 0.1°C | 32.9% | 678.8hPa | 2.7V | 00:00:00 | 00:00:00 | 00:00:00 | |
| OE5DXL-15 | 2026-09-01 06:12:52 | 47.81265 | 12.39808 | 83° | 46km/h | 3456m | -9.0m/s | -0.0°C | 32.5% | 676.5hPa | 2.7V | 02:17:00 | 01:43:42 | 00:00:00 | |
| DO3MHA-11 | 2026-09-01 06:12:51 | 47.81263 | 12.39790 | 83° | 47km/h | 3465m | -8.7m/s | -0.1°C | 32.4% | 675.7hPa | 2.7V | 02:17:00 | 01:43:41 | 00:00:00 | |
| DO3MHA-11 | 2026-09-01 06:12:46 | 47.81258 | 12.39701 | 88° | 47km/h | 3510m | -9.2m/s | -0.3°C | 33.4% | 672.0hPa | 2.7V | 00:00:00 | 01:43:36 | 00:00:00 | |
| DO3MHA-11 | 2026-09-01 06:12:41 | 47.81254 | 12.39613 | 85° | 46km/h | 3554m | -8.6m/s | -0.4°C | 29.6% | 668.4hPa | 2.7V | 00:00:00 | 01:43:31 | 00:00:00 | |
| OE5DRO-10 | 2026-09-01 06:12:39 | 47.81252 | 12.39579 | 88° | 46km/h | 3571m | -9.0m/s | -0.5°C | 29.0% | 666.8hPa | 2.7V | 02:17:00 | 00:00:00 | 00:00:00 | |
| DG1MFX-10 | 2026-09-01 06:12:37 | 47.81251 | 12.39562 | 88° | 46km/h | 3580m | -9.4m/s | -0.6°C | 27.1% | 666.2hPa | 2.7V | 02:18:00 | 00:00:00 | 00:00:00 | |
| DO3MHA-11 | 2026-09-01 06:12:36 | 47.81249 | 12.39527 | 85° | 46km/h | 3598m | -8.9m/s | -0.7°C | 27.1% | 664.6hPa | 2.7V | 02:17:00 | 01:43:26 | 00:00:00 | |
| DO3MHA-11 | 2026-09-01 06:12:31 | 47.81246 | 12.39443 | 87° | 44km/h | 3642m | -9.3m/s | -1.1°C | 27.2% | 661.1hPa | 2.7V | 00:00:00 | 01:43:21 | 00:00:00 | |
| DO3MHA-12 | 2026-09-01 06:12:27 | 47.81242 | 12.39360 | 87° | 46km/h | 3686m | -9.3m/s | -1.3°C | 27.0% | 657.4hPa | 2.7V | 00:00:00 | 01:43:16 | 00:00:00 | |
| DO3MHA-11 | 2026-09-01 06:12:26 | 47.81242 | 12.39360 | 87° | 46km/h | 3686m | -9.3m/s | -1.3°C | 27.0% | 657.4hPa | 2.7V | 00:00:00 | 01:43:16 | 00:00:00 | |
| OE5WHR-10 | 2026-09-01 06:12:24 | 47.81240 | 12.39326 | 85° | 46km/h | 3704m | -8.8m/s | -1.4°C | 26.4% | 655.9hPa | 2.7V | 02:17:00 | 00:00:00 | 00:00:00 | |
| OE5DRO-10 | 2026-09-01 06:12:23 | 47.81239 | 12.39308 | 85° | 46km/h | 3713m | -8.6m/s | -1.4°C | 27.4% | 655.2hPa | 2.6V | 00:00:00 | 00:00:00 | 00:00:00 | |
| OE5DXL-15 | 2026-09-01 06:12:22 | 47.81238 | 12.39292 | 85° | 47km/h | 3722m | -9.0m/s | -1.5°C | 27.5% | 654.4hPa | 2.6V | 00:00:00 | 00:00:00 | 00:00:00 | |
| DO3MHA-11 | 2026-09-01 06:12:21 | 47.81237 | 12.39275 | 86° | 46km/h | 3730m | -8.8m/s | -1.6°C | 27.6% | 653.7hPa | 2.6V | 02:17:00 | 01:43:11 | 00:00:00 | |
| DG1MFX-10 | 2026-09-01 06:12:17 | 47.81234 | 12.39224 | 84° | 44km/h | 3756m | -8.6m/s | -1.9°C | 27.2% | 651.7hPa | 2.7V | 02:18:00 | 00:00:00 | 00:00:00 | |
| DO3MHA-11 | 2026-09-01 06:12:16 | 47.81231 | 12.39190 | 83° | 46km/h | 3773m | -8.6m/s | -1.9°C | 27.1% | 650.2hPa | 2.7V | 00:00:00 | 01:43:06 | 00:00:00 | |
| DO3MHA-12 | 2026-09-01 06:12:11 | 47.81223 | 12.39104 | 85° | 47km/h | 3815m | -8.7m/s | -2.3°C | 28.6% | 646.8hPa | 2.7V | 00:00:00 | 01:43:01 | 00:00:00 | |
| DO3MHA-11 | 2026-09-01 06:12:10 | 47.81222 | 12.39086 | 83° | 47km/h | 3824m | -8.7m/s | -2.4°C | 28.7% | 646.0hPa | 2.7V | 00:00:00 | 01:43:00 | 00:00:00 | |
| OE5DRO-10 | 2026-09-01 06:12:07 | 47.81217 | 12.39032 | 82° | 49km/h | 3849m | -8.6m/s | -2.6°C | 29.9% | 644.0hPa | 2.7V | 00:00:00 | 00:00:00 | 00:00:00 | |
| DO3MHA-12 | 2026-09-01 06:12:06 | 47.81215 | 12.39014 | 83° | 49km/h | 3858m | -8.6m/s | -2.7°C | 30.5% | 643.3hPa | 2.7V | 02:17:00 | 01:42:56 | 00:00:00 | |
| DO3MHA-11 | 2026-09-01 06:12:05 | 47.81214 | 12.38997 | 85° | 49km/h | 3866m | -8.7m/s | -2.8°C | 30.8% | 642.6hPa | 2.7V | 02:17:00 | 01:42:55 | 00:00:00 | |
| DO3MHA-12 | 2026-09-01 06:12:01 | 47.81208 | 12.38923 | 84° | 49km/h | 3901m | -8.8m/s | -3.1°C | 31.5% | 639.8hPa | 2.7V | 00:00:00 | 01:42:51 | 00:00:00 | |
| DO3MHA-11 | 2026-09-01 06:12:00 | 47.81206 | 12.38905 | 84° | 49km/h | 3909m | -8.2m/s | -3.2°C | 31.6% | 639.2hPa | 2.7V | 00:00:00 | 01:42:50 | 00:00:00 | |
| DO3MHA-12 | 2026-09-01 06:11:56 | 47.81201 | 12.38831 | 83° | 49km/h | 3944m | -8.8m/s | -3.5°C | 32.1% | 636.5hPa | 2.7V | 00:00:00 | 01:42:46 | 00:00:00 | |
| DO3MHA-11 | 2026-09-01 06:11:55 | 47.81200 | 12.38813 | 85° | 49km/h | 3952m | -8.9m/s | -3.5°C | 31.7% | 635.7hPa | 2.7V | 00:00:00 | 01:42:45 | 00:00:00 | |
| OE5WHR-10 | 2026-09-01 06:11:54 | 47.81199 | 12.38794 | 84° | 49km/h | 3961m | -8.1m/s | -3.6°C | 31.4% | 635.0hPa | 2.7V | 00:00:00 | 00:00:00 | 00:00:00 | |
| OE5DXL-15 | 2026-09-01 06:11:52 | 47.81196 | 12.38758 | 85° | 53km/h | 3978m | -8.6m/s | -3.7°C | 31.5% | 633.7hPa | 2.7V | 00:00:00 | 00:00:00 | 00:00:00 | |
| DO3MHA-12 | 2026-09-01 06:11:51 | 47.81195 | 12.38739 | 84° | 49km/h | 3986m | -8.8m/s | -3.8°C | 32.1% | 632.9hPa | 2.7V | 02:18:00 | 01:42:41 | 00:00:00 | |
| DO3MHA-11 | 2026-09-01 06:11:50 | 47.81194 | 12.38721 | 86° | 49km/h | 3995m | -8.8m/s | -3.9°C | 32.5% | 632.3hPa | 2.7V | 02:18:00 | 01:42:40 | 00:00:00 | |
| DO3MHA-12 | 2026-09-01 06:11:46 | 47.81190 | 12.38647 | 86° | 51km/h | 4029m | -8.4m/s | -4.2°C | 33.5% | 629.4hPa | 2.6V | 00:00:00 | 01:42:36 | 00:00:00 | |
| DO3MHA-11 | 2026-09-01 06:11:45 | 47.81189 | 12.38628 | 88° | 51km/h | 4037m | -9.1m/s | -4.3°C | 34.2% | 628.9hPa | 2.6V | 00:00:00 | 01:42:35 | 00:00:00 | |
| OE3JTB-15 | 2026-09-01 06:11:43 | 47.81187 | 12.38591 | 86° | 51km/h | 4055m | -8.8m/s | -4.4°C | 34.8% | 627.5hPa | 2.6V | 00:00:00 | 00:00:00 | 00:00:00 | |
| DO3MHA-12 | 2026-09-01 06:11:41 | 47.81185 | 12.38553 | 85° | 51km/h | 4073m | -8.8m/s | -4.6°C | 35.6% | 626.0hPa | 2.6V | 00:00:00 | 01:42:31 | 00:00:00 | |
| DO3MHA-11 | 2026-09-01 06:11:40 | 47.81184 | 12.38534 | 87° | 51km/h | 4082m | -9.3m/s | -4.6°C | 37.0% | 625.2hPa | 2.6V | 00:00:00 | 01:42:30 | 00:00:00 | |
| OE5WHR-10 | 2026-09-01 06:11:37 | 47.81181 | 12.38476 | 86° | 55km/h | 4108m | -8.6m/s | -4.9°C | 35.8% | 623.1hPa | 2.6V | 00:00:00 | 01:42:27 | 00:00:00 | |
| DO3MHA-12 | 2026-09-01 06:11:36 | 47.81180 | 12.38456 | 87° | 53km/h | 4117m | -8.8m/s | -4.9°C | 34.6% | 622.5hPa | 2.6V | 02:18:00 | 01:42:26 | 00:00:00 | |
| DO3MHA-11 | 2026-09-01 06:11:35 | 47.81180 | 12.38437 | 86° | 53km/h | 4125m | -8.7m/s | -5.0°C | 34.9% | 621.7hPa | 2.7V | 02:18:00 | 01:42:25 | 00:00:00 | |
| DO3MHA-12 | 2026-09-01 06:11:31 | 47.81176 | 12.38357 | 87° | 55km/h | 4159m | -8.9m/s | -5.3°C | 35.9% | 619.1hPa | 2.7V | 00:00:00 | 01:42:21 | 00:00:00 | |
| DO3MHA-11 | 2026-09-01 06:11:30 | 47.81175 | 12.38336 | 86° | 55km/h | 4168m | -9.0m/s | -5.3°C | 35.4% | 618.4hPa | 2.7V | 00:00:00 | 01:42:20 | 00:00:00 | |
| DO3MHA-12 | 2026-09-01 06:11:26 | 47.81171 | 12.38254 | 86° | 57km/h | 4203m | -9.1m/s | -5.6°C | 37.8% | 615.6hPa | 2.7V | 00:00:00 | 01:42:16 | 00:00:00 | |
| DO3MHA-11 | 2026-09-01 06:11:25 | 47.81171 | 12.38233 | 89° | 55km/h | 4212m | -9.7m/s | -5.7°C | 36.7% | 615.0hPa | 2.7V | 00:00:00 | 01:42:15 | 00:00:00 | |
| OE5DXL-15 | 2026-09-01 06:11:22 | 47.81169 | 12.38170 | 87° | 55km/h | 4239m | -8.5m/s | -5.9°C | 39.0% | 612.9hPa | 2.7V | 02:18:00 | 00:00:00 | 00:00:00 | |
| DO3MHA-12 | 2026-09-01 06:11:21 | 47.81168 | 12.38149 | 89° | 57km/h | 4247m | -8.6m/s | -5.9°C | 39.6% | 612.2hPa | 2.7V | 02:18:00 | 01:42:11 | 00:00:00 | |
| OE5WHR-10 | 2026-09-01 06:11:20 | 47.81168 | 12.38128 | 87° | 53km/h | 4256m | -9.2m/s | -6.0°C | 39.7% | 611.5hPa | 2.7V | 02:18:00 | 00:00:00 | 00:00:00 | |
| OE5DRO-10 | 2026-09-01 06:11:19 | 47.81167 | 12.38107 | 89° | 57km/h | 4265m | -9.1m/s | -6.1°C | 39.5% | 610.8hPa | 2.6V | 00:00:00 | 00:00:00 | 00:00:00 | |
| DO3MHA-12 | 2026-09-01 06:11:16 | 47.81165 | 12.38042 | 87° | 57km/h | 4291m | -8.5m/s | -6.3°C | 40.0% | 608.9hPa | 2.6V | 00:00:00 | 01:42:06 | 00:00:00 | |
| DG1MFX-10 | 2026-09-01 06:11:15 | 47.81165 | 12.38042 | 88° | 57km/h | 4291m | -8.5m/s | -6.3°C | 38.7% | 608.9hPa | 2.6V | 02:18:00 | 00:00:00 | 00:00:00 | |
| DO3MHA-12 | 2026-09-01 06:11:11 | 47.81160 | 12.37936 | 86° | 55km/h | 4332m | -8.8m/s | -6.5°C | 38.0% | 605.6hPa | 2.6V | 00:00:00 | 01:42:01 | 00:00:00 | |
| DO3MHA-11 | 2026-09-01 06:11:10 | 47.81159 | 12.37916 | 85° | 55km/h | 4341m | -8.8m/s | -6.6°C | 37.5% | 605.0hPa | 2.6V | 00:00:00 | 01:42:00 | 00:00:00 | |
| DO3MHA-12 | 2026-09-01 06:11:06 | 47.81154 | 12.37835 | 85° | 55km/h | 4374m | -8.3m/s | -6.8°C | 34.6% | 602.4hPa | 2.6V | 02:18:00 | 01:41:56 | 00:00:00 | |
| DO3MHA-11 | 2026-09-01 06:11:05 | 47.81152 | 12.37814 | 85° | 53km/h | 4382m | -8.1m/s | -6.9°C | 33.6% | 601.7hPa | 2.6V | 02:18:00 | 01:41:55 | 00:00:00 | |
| OE5DRO-10 | 2026-09-01 06:11:03 | 47.81149 | 12.37774 | 83° | 51km/h | 4399m | -8.1m/s | -6.9°C | 29.6% | 600.3hPa | 2.7V | 02:19:00 | 00:00:00 | 00:00:00 | |
| DO3MHA-12 | 2026-09-01 06:11:01 | 47.81146 | 12.37735 | 86° | 51km/h | 4414m | -8.4m/s | -7.0°C | 27.3% | 599.2hPa | 2.6V | 00:00:00 | 01:41:51 | 00:00:00 | |
| DO3MHA-11 | 2026-09-01 06:11:00 | 47.81145 | 12.37715 | 85° | 51km/h | 4423m | -8.2m/s | -7.0°C | 27.4% | 598.6hPa | 2.6V | 00:00:00 | 01:41:50 | 00:00:00 | |
| DO3MHA-12 | 2026-09-01 06:10:56 | 47.81141 | 12.37640 | 84° | 51km/h | 4455m | -7.9m/s | -6.0°C | 13.5% | 596.1hPa | 2.6V | 00:00:00 | 01:41:46 | 00:00:00 | |
| NBG1-10 | 2026-09-01 06:10:53 | 47.81136 | 12.37584 | 85° | 53km/h | 4480m | -8.1m/s | -5.7°C | 9.0% | 594.1hPa | 2.6V | 02:19:00 | 01:41:43 | 00:00:00 | |
| OE5DXL-15 | 2026-09-01 06:10:52 | 47.81135 | 12.37565 | 84° | 55km/h | 4488m | -8.3m/s | -5.5°C | 4.8% | 593.5hPa | 2.7V | 00:00:00 | 00:00:00 | 00:00:00 | |
| DO3MHA-12 | 2026-09-01 06:10:51 | 47.81134 | 12.37546 | 86° | 51km/h | 4496m | -8.6m/s | -5.4°C | 4.1% | 592.8hPa | 2.7V | 02:19:00 | 01:41:41 | 00:00:00 | |
| DO3MHA-11 | 2026-09-01 06:10:50 | 47.81133 | 12.37527 | 87° | 51km/h | 4505m | -8.4m/s | -5.4°C | 4.2% | 592.3hPa | 2.7V | 02:19:00 | 01:41:40 | 00:00:00 | |
| OE5DRO-10 | 2026-09-01 06:10:47 | 47.81131 | 12.37470 | 87° | 53km/h | 4530m | -8.9m/s | -5.6°C | 5.0% | 590.3hPa | 2.6V | 00:00:00 | 00:00:00 | 00:00:00 | |
| DO3MHA-12 | 2026-09-01 06:10:46 | 47.81131 | 12.37451 | 90° | 51km/h | 4539m | -9.0m/s | -5.7°C | 5.3% | 589.7hPa | 2.6V | 00:00:00 | 01:41:36 | 00:00:00 | |
| DO3MHA-11 | 2026-09-01 06:10:45 | 47.81131 | 12.37432 | 89° | 53km/h | 4547m | -8.0m/s | -5.8°C | 6.0% | 589.1hPa | 2.6V | 00:00:00 | 01:41:35 | 00:00:00 | |
| OE3JTB-15 | 2026-09-01 06:10:44 | 47.81130 | 12.37413 | 89° | 55km/h | 4556m | -7.8m/s | -5.8°C | 7.7% | 588.4hPa | 2.6V | 00:00:00 | 01:41:34 | 00:00:00 | |
| DO3MHA-12 | 2026-09-01 06:10:41 | 47.81130 | 12.37354 | 89° | 55km/h | 4579m | -8.1m/s | -5.8°C | 9.4% | 586.7hPa | 2.6V | 00:00:00 | 01:41:31 | 00:00:00 | |
| DO3MHA-11 | 2026-09-01 06:10:40 | 47.81130 | 12.37333 | 90° | 55km/h | 4587m | -8.1m/s | -5.7°C | 7.5% | 586.0hPa | 2.6V | 00:00:00 | 01:41:30 | 00:00:00 | |
| OE5WHR-10 | 2026-09-01 06:10:38 | 47.81129 | 12.37292 | 90° | 55km/h | 4603m | -8.4m/s | -5.8°C | 6.4% | 584.8hPa | 2.6V | 00:00:00 | 01:41:28 | 00:00:00 | |
| DO3MHA-12 | 2026-09-01 06:10:36 | 47.81130 | 12.37252 | 91° | 57km/h | 4620m | -8.1m/s | -5.7°C | 5.4% | 583.7hPa | 2.6V | 02:19:00 | 01:41:26 | 00:00:00 | |
| DO3MHA-11 | 2026-09-01 06:10:35 | 47.81130 | 12.37231 | 90° | 57km/h | 4628m | -8.5m/s | -5.7°C | 4.2% | 583.0hPa | 2.6V | 02:19:00 | 01:41:25 | 00:00:00 | |
| DG1MFX-10 | 2026-09-01 06:10:33 | 47.81130 | 12.37210 | 91° | 57km/h | 4636m | -8.2m/s | -5.7°C | 3.9% | 582.5hPa | 2.7V | 02:19:00 | 00:00:00 | 00:00:00 | |
| DO3MHA-12 | 2026-09-01 06:10:31 | 47.81130 | 12.37147 | 91° | 57km/h | 4659m | -7.8m/s | -5.6°C | 4.2% | 580.7hPa | 2.7V | 00:00:00 | 01:41:21 | 00:00:00 | |
| DO3MHA-11 | 2026-09-01 06:10:30 | 47.81130 | 12.37126 | 90° | 57km/h | 4667m | -8.2m/s | -5.6°C | 4.1% | 580.1hPa | 2.7V | 00:00:00 | 01:41:20 | 00:00:00 | |
| DO3MHA-12 | 2026-09-01 06:10:26 | 47.81130 | 12.37042 | 90° | 55km/h | 4699m | -8.4m/s | -5.6°C | 3.4% | 577.7hPa | 2.7V | 00:00:00 | 01:41:16 | 00:00:00 | |
| DO3MHA-11 | 2026-09-01 06:10:25 | 47.81130 | 12.37021 | 90° | 55km/h | 4707m | -8.4m/s | -5.5°C | 3.2% | 577.2hPa | 2.7V | 00:00:00 | 01:41:15 | 00:00:00 | |
| OE5DXL-15 | 2026-09-01 06:10:22 | 47.81130 | 12.36958 | 92° | 55km/h | 4732m | -8.8m/s | -5.6°C | 2.9% | 575.3hPa | 2.7V | 00:00:00 | 00:00:00 | 00:00:00 | |
| DO3MHA-12 | 2026-09-01 06:10:21 | 47.81130 | 12.36938 | 90° | 57km/h | 4741m | -8.2m/s | -5.7°C | 3.0% | 574.7hPa | 2.7V | 02:19:00 | 01:41:11 | 00:00:00 | |
| DO3MHA-11 | 2026-09-01 06:10:20 | 47.81130 | 12.36917 | 89° | 57km/h | 4749m | -8.6m/s | -5.7°C | 3.0% | 574.1hPa | 2.7V | 02:19:00 | 01:41:10 | 00:00:00 | |
| BAUMI2-15 | 2026-09-01 06:10:19 | 47.81130 | 12.36896 | 90° | 57km/h | 4758m | -9.0m/s | -5.7°C | 2.9% | 573.5hPa | 2.7V | 00:00:00 | 01:41:09 | 00:00:00 | |
| DO3MHA-12 | 2026-09-01 06:10:16 | 47.81130 | 12.36833 | 93° | 55km/h | 4784m | -8.9m/s | -5.7°C | 2.7% | 571.6hPa | 2.7V | 00:00:00 | 01:41:06 | 00:00:00 | |
| DO3MHA-11 | 2026-09-01 06:10:15 | 47.81131 | 12.36813 | 92° | 55km/h | 4792m | -8.4m/s | -5.7°C | 2.8% | 571.0hPa | 2.7V | 00:00:00 | 01:41:05 | 00:00:00 | |
| BAUMI2-15 | 2026-09-01 06:10:14 | 47.81131 | 12.36793 | 91° | 55km/h | 4801m | -8.9m/s | -5.7°C | 2.8% | 570.4hPa | 2.7V | 02:19:00 | 01:41:04 | 00:00:00 | |
| DG1MFX-10 | 2026-09-01 06:10:12 | 47.81131 | 12.36773 | 92° | 55km/h | 4810m | -8.6m/s | -5.8°C | 2.7% | 569.8hPa | 2.6V | 02:20:00 | 00:00:00 | 00:00:00 | |
| DO3MHA-12 | 2026-09-01 06:10:11 | 47.81132 | 12.36730 | 92° | 55km/h | 4827m | -8.7m/s | -5.9°C | 2.9% | 568.5hPa | 2.6V | 00:00:00 | 01:41:01 | 00:00:00 | |
| DO3MHA-11 | 2026-09-01 06:10:10 | 47.81133 | 12.36709 | 94° | 55km/h | 4836m | -8.6m/s | -6.0°C | 3.0% | 567.9hPa | 2.6V | 00:00:00 | 01:41:00 | 00:00:00 | |
| BAUMI2-15 | 2026-09-01 06:10:08 | 47.81134 | 12.36669 | 93° | 53km/h | 4853m | -8.5m/s | -6.1°C | 3.1% | 566.7hPa | 2.6V | 00:00:00 | 01:40:58 | 00:00:00 | |
| DO3MHA-12 | 2026-09-01 06:10:06 | 47.81135 | 12.36628 | 92° | 55km/h | 4869m | -8.4m/s | -6.2°C | 3.2% | 565.5hPa | 2.6V | 02:19:00 | 01:40:56 | 00:00:00 | |
| DO3MHA-11 | 2026-09-01 06:10:05 | 47.81136 | 12.36607 | 93° | 55km/h | 4878m | -8.6m/s | -6.3°C | 3.1% | 565.0hPa | 2.7V | 02:19:00 | 01:40:55 | 00:00:00 | |
| BAUMI2-15 | 2026-09-01 06:10:03 | 47.81137 | 12.36566 | 92° | 53km/h | 4895m | -8.6m/s | -6.4°C | 3.1% | 563.6hPa | 2.7V | 00:00:00 | 01:40:53 | 00:00:00 | |
| DO3MHA-12 | 2026-09-01 06:10:01 | 47.81138 | 12.36524 | 93° | 55km/h | 4911m | -7.8m/s | -6.5°C | 3.2% | 562.4hPa | 2.7V | 00:00:00 | 01:40:51 | 00:00:00 | |
| DO3MHA-11 | 2026-09-01 06:10:00 | 47.81139 | 12.36503 | 94° | 55km/h | 4919m | -8.2m/s | -6.6°C | 3.2% | 561.9hPa | 2.7V | 00:00:00 | 01:40:50 | 00:00:00 | |
| OE5DRO-10 | 2026-09-01 06:09:59 | 47.81140 | 12.36482 | 93° | 53km/h | 4926m | -7.5m/s | -6.6°C | 3.2% | 561.3hPa | 2.7V | 00:00:00 | 00:00:00 | 00:00:00 | |
| OE5WHR-10 | 2026-09-01 06:09:58 | 47.81140 | 12.36462 | 93° | 53km/h | 4934m | -7.4m/s | -6.6°C | 3.2% | 560.7hPa | 2.7V | 00:00:00 | 00:00:00 | 00:00:00 | |
| DO3MHA-11 | 2026-09-01 06:09:55 | 47.81142 | 12.36401 | 95° | 53km/h | 4956m | -7.3m/s | -6.5°C | 3.5% | 559.0hPa | 2.7V | 00:00:00 | 01:40:45 | 00:00:00 | |
| OE5DXL-15 | 2026-09-01 06:09:52 | 47.81146 | 12.36341 | 96° | 53km/h | 4977m | -7.3m/s | -6.6°C | 3.6% | 557.6hPa | 2.7V | 02:20:00 | 00:00:00 | 00:00:00 | |
| DO3MHA-11 | 2026-09-01 06:09:50 | 47.81147 | 12.36302 | 93° | 53km/h | 4992m | -7.7m/s | -6.7°C | 3.5% | 556.5hPa | 2.6V | 02:20:00 | 01:40:40 | 00:00:00 | |
| BAUMI2-15 | 2026-09-01 06:09:49 | 47.81148 | 12.36282 | 93° | 55km/h | 4999m | -7.3m/s | -6.7°C | 3.5% | 555.9hPa | 2.6V | 02:20:00 | 01:40:39 | 00:00:00 | |
| NBG1-10 | 2026-09-01 06:09:47 | 47.81148 | 12.36242 | 92° | 53km/h | 5013m | -7.2m/s | -6.8°C | 3.5% | 554.9hPa | 2.6V | 00:00:00 | 01:40:37 | 00:00:00 | |
| OE5DRO-10 | 2026-09-01 06:09:43 | 47.81149 | 12.36165 | 92° | 53km/h | 5042m | -7.2m/s | -7.0°C | 3.4% | 552.8hPa | 2.6V | 00:00:00 | 00:00:00 | 00:00:00 | |
| DL6DJ-15 | 2026-09-01 06:09:38 | 47.81152 | 12.36049 | 92° | 51km/h | 5085m | -7.5m/s | -7.3°C | 3.2% | 549.9hPa | 2.6V | 00:00:00 | 00:00:00 | 00:00:00 | |
| OE5WHR-10 | 2026-09-01 06:09:37 | 47.81152 | 12.36049 | 93° | 57km/h | 5085m | -7.4m/s | -7.2°C | 3.4% | 549.9hPa | 2.6V | 00:00:00 | 01:40:27 | 00:00:00 | |
| OE3JTB-15 | 2026-09-01 06:09:35 | 47.81153 | 12.36011 | 94° | 55km/h | 5099m | -7.0m/s | -7.3°C | 3.5% | 548.9hPa | 2.6V | 00:00:00 | 00:00:00 | 00:00:00 | |
| DO3MHA-11 | 2026-09-01 06:09:32 | 47.81156 | 12.35953 | 95° | 53km/h | 5120m | -7.3m/s | -7.5°C | 3.6% | 547.5hPa | 2.6V | 00:00:00 | 01:40:22 | 00:00:00 | |
| DG1MFX-10 | 2026-09-01 06:09:31 | 47.81156 | 12.35953 | 95° | 53km/h | 5120m | -7.3m/s | -7.5°C | 3.3% | 547.5hPa | 2.6V | 02:20:00 | 00:00:00 | 00:00:00 | |
| OE5DRO-10 | 2026-09-01 06:09:27 | 47.81158 | 12.35853 | 91° | 55km/h | 5156m | -7.0m/s | -7.7°C | 3.6% | 545.1hPa | 2.6V | 02:20:00 | 00:00:00 | 00:00:00 | |
| OE5DXL-15 | 2026-09-01 06:09:22 | 47.81160 | 12.35750 | 92° | 57km/h | 5191m | -7.0m/s | -7.8°C | 2.8% | 542.5hPa | 2.7V | 00:00:00 | 00:00:00 | 00:00:00 | |
| DO3MHA-11 | 2026-09-01 06:09:20 | 47.81162 | 12.35710 | 94° | 57km/h | 5206m | -7.4m/s | -7.8°C | 2.5% | 541.5hPa | 2.7V | 00:00:00 | 01:40:10 | 00:00:00 | |
| DO3MHA-12 | 2026-09-01 06:09:19 | 47.81162 | 12.35689 | 94° | 58km/h | 5213m | -7.6m/s | -7.9°C | 2.5% | 541.1hPa | 2.7V | 00:00:00 | 01:40:09 | 00:00:00 | |
| NBG1-10 | 2026-09-01 06:09:14 | 47.81168 | 12.35584 | 95° | 58km/h | 5248m | -6.6m/s | -7.9°C | 2.7% | 538.6hPa | 2.7V | 02:20:00 | 01:40:04 | 00:00:00 | |
| OE5DRO-10 | 2026-09-01 06:09:11 | 47.81171 | 12.35519 | 93° | 58km/h | 5266m | -6.4m/s | -8.0°C | 2.7% | 537.3hPa | 2.6V | 00:00:00 | 00:00:00 | 00:00:00 | |
| DO3MHA-11 | 2026-09-01 06:09:10 | 47.81171 | 12.35496 | 93° | 58km/h | 5272m | -5.8m/s | -8.0°C | 2.8% | 536.8hPa | 2.6V | 02:20:00 | 01:40:00 | 00:00:00 | |
| DO3MHA-12 | 2026-09-01 06:09:09 | 47.81172 | 12.35473 | 94° | 58km/h | 5276m | -2.9m/s | -8.0°C | 2.8% | 536.5hPa | 2.7V | 02:20:00 | 01:39:59 | 00:00:00 | |
| DL6DJ-15 | 2026-09-01 06:09:07 | 47.81175 | 12.35405 | 93° | 58km/h | 5286m | -3.6m/s | -8.1°C | 2.6% | 535.9hPa | 2.6V | 00:00:00 | 00:00:00 | 00:00:00 | |
| OE5WHR-10 | 2026-09-01 06:09:01 | 47.81181 | 12.35297 | 95° | 57km/h | 5309m | -5.7m/s | -8.0°C | 3.6% | 534.3hPa | 2.6V | 02:21:00 | 00:00:00 | 00:00:00 | |
| DO3MHA-11 | 2026-09-01 06:09:00 | 47.81182 | 12.35277 | 94° | 58km/h | 5314m | -4.2m/s | -8.0°C | 3.7% | 534.0hPa | 2.7V | 00:00:00 | 01:39:50 | 00:00:00 | |
| DO3MHA-12 | 2026-09-01 06:08:59 | 47.81183 | 12.35256 | 95° | 58km/h | 5317m | -3.0m/s | -8.0°C | 4.2% | 533.8hPa | 2.7V | 00:00:00 | 01:39:49 | 00:00:00 | |
| OE5DRO-10 | 2026-09-01 06:08:55 | 47.81186 | 12.35169 | 95° | 58km/h | 5330m | -3.3m/s | -8.1°C | 8.6% | 533.0hPa | 2.7V | 00:00:00 | 00:00:00 | 00:00:00 | |
| OE5DXL-15 | 2026-09-01 06:08:52 | 47.81190 | 12.35103 | 96° | 57km/h | 5339m | -3.0m/s | -8.0°C | 9.7% | 532.3hPa | 2.7V | 00:00:00 | 00:00:00 | 00:00:00 | |
| DO3MHA-11 | 2026-09-01 06:08:50 | 47.81193 | 12.35059 | 96° | 57km/h | 5346m | -3.7m/s | -8.1°C | 10.6% | 531.7hPa | 2.7V | 00:00:00 | 01:39:40 | 00:00:00 | |
| DO3MHA-12 | 2026-09-01 06:08:49 | 47.81194 | 12.35038 | 95° | 57km/h | 5350m | -4.3m/s | -8.1°C | 10.8% | 531.5hPa | 2.7V | 00:00:00 | 01:39:39 | 00:00:00 | |
| NBG1-10 | 2026-09-01 06:08:41 | 47.81204 | 12.34867 | 94° | 55km/h | 5385m | -3.5m/s | -8.4°C | 15.1% | 529.2hPa | 2.7V | 00:00:00 | 01:39:31 | 00:00:00 | |
| DO3MHA-11 | 2026-09-01 06:08:40 | 47.81205 | 12.34845 | 94° | 57km/h | 5389m | -3.3m/s | -8.4°C | 15.6% | 528.8hPa | 2.7V | 02:21:00 | 01:39:30 | 00:00:00 | |
| DO3MHA-12 | 2026-09-01 06:08:39 | 47.81206 | 12.34823 | 94° | 57km/h | 5392m | -3.1m/s | -8.4°C | 16.1% | 528.6hPa | 2.6V | 02:21:00 | 01:39:29 | 00:00:00 | |
| OE3JTB-15 | 2026-09-01 06:08:36 | 47.81210 | 12.34756 | 96° | 55km/h | 5402m | -3.5m/s | -8.5°C | 16.1% | 527.9hPa | 2.7V | 02:21:00 | 00:00:00 | 00:00:00 | |
| OE5WHR-10 | 2026-09-01 06:08:32 | 47.81217 | 12.34672 | 98° | 57km/h | 5415m | -5.4m/s | -8.6°C | 16.2% | 527.1hPa | 2.7V | 00:00:00 | 00:00:00 | 00:00:00 | |
| DO3MHA-11 | 2026-09-01 06:08:30 | 47.81221 | 12.34632 | 98° | 57km/h | 5423m | -4.3m/s | -8.7°C | 16.2% | 526.4hPa | 2.7V | 00:00:00 | 01:39:20 | 00:00:00 | |
| DO3MHA-12 | 2026-09-01 06:08:29 | 47.81223 | 12.34611 | 97° | 57km/h | 5427m | -3.5m/s | -8.7°C | 16.4% | 526.1hPa | 2.7V | 00:00:00 | 01:39:19 | 00:00:00 | |
| OE5DRO-10 | 2026-09-01 06:08:23 | 47.81234 | 12.34483 | 98° | 53km/h | 5455m | -3.8m/s | -8.8°C | 18.6% | 524.4hPa | 2.7V | 00:00:00 | 00:00:00 | 00:00:00 | |
| OE5DXL-15 | 2026-09-01 06:08:22 | 47.81236 | 12.34462 | 98° | 53km/h | 5458m | -3.5m/s | -8.9°C | 18.4% | 524.1hPa | 2.7V | 02:21:00 | 00:00:00 | 00:00:00 | |
| DO3MHA-11 | 2026-09-01 06:08:20 | 47.81240 | 12.34421 | 98° | 53km/h | 5466m | -3.5m/s | -8.9°C | 18.4% | 523.6hPa | 2.6V | 00:00:00 | 01:39:10 | 00:00:00 | |
| DO3MHA-12 | 2026-09-01 06:08:19 | 47.81242 | 12.34400 | 100° | 53km/h | 5469m | -3.2m/s | -8.9°C | 19.2% | 523.3hPa | 2.6V | 00:00:00 | 01:39:09 | 00:00:00 | |
| OE5WHR-10 | 2026-09-01 06:08:15 | 47.81251 | 12.34321 | 99° | 53km/h | 5494m | -6.8m/s | -9.0°C | 19.4% | 521.7hPa | 2.6V | 00:00:00 | 01:39:05 | 00:00:00 | |
| OE5MMP-10 | 2026-09-01 06:08:11 | 47.81258 | 12.34243 | 98° | 58km/h | 5517m | -5.3m/s | -9.1°C | 19.6% | 520.2hPa | 2.6V | 02:21:00 | 01:39:01 | 00:00:00 | |
| DO3MHA-11 | 2026-09-01 06:08:10 | 47.81259 | 12.34224 | 98° | 53km/h | 5522m | -4.5m/s | -9.1°C | 19.7% | 519.8hPa | 2.6V | 02:21:00 | 01:39:00 | 00:00:00 | |
| DO3MHA-12 | 2026-09-01 06:08:09 | 47.81261 | 12.34204 | 98° | 53km/h | 5527m | -5.4m/s | -9.1°C | 19.7% | 519.4hPa | 2.7V | 02:21:00 | 01:38:59 | 00:00:00 | |
| NBG1-10 | 2026-09-01 06:08:08 | 47.81263 | 12.34184 | 99° | 53km/h | 5532m | -5.3m/s | -9.1°C | 19.8% | 519.1hPa | 2.7V | 00:00:00 | 01:38:58 | 00:00:00 | |
| OE5DRO-10 | 2026-09-01 06:08:07 | 47.81265 | 12.34164 | 100° | 53km/h | 5537m | -5.5m/s | -9.2°C | 20.0% | 518.8hPa | 2.7V | 00:00:00 | 00:00:00 | 00:00:00 | |
| DL6DJ-15 | 2026-09-01 06:08:05 | 47.81272 | 12.34105 | 100° | 53km/h | 5551m | -4.5m/s | -9.3°C | 19.7% | 517.9hPa | 2.7V | 00:00:00 | 00:00:00 | 00:00:00 | |
| DO3MHA-11 | 2026-09-01 06:08:00 | 47.81284 | 12.34027 | 106° | 53km/h | 5568m | -3.8m/s | -9.3°C | 21.7% | 516.6hPa | 2.7V | 00:00:00 | 01:38:50 | 00:00:00 | |
| DO3MHA-12 | 2026-09-01 06:07:59 | 47.81288 | 12.34008 | 107° | 53km/h | 5573m | -4.5m/s | -9.4°C | 21.4% | 516.5hPa | 2.7V | 00:00:00 | 01:38:49 | 00:00:00 | |
| OE5WHR-10 | 2026-09-01 06:07:58 | 47.81292 | 12.33989 | 107° | 53km/h | 5577m | -3.7m/s | -9.4°C | 21.5% | 516.1hPa | 2.7V | 02:22:00 | 00:00:00 | 00:00:00 | |
| OE5DXL-15 | 2026-09-01 06:07:52 | 47.81314 | 12.33875 | 105° | 57km/h | 5601m | -5.1m/s | -9.5°C | 24.2% | 514.6hPa | 2.6V | 00:00:00 | 00:00:00 | 00:00:00 | |
| OE5DRO-10 | 2026-09-01 06:07:51 | 47.81318 | 12.33855 | 107° | 53km/h | 5606m | -4.5m/s | -9.6°C | 24.5% | 514.3hPa | 2.6V | 02:22:00 | 00:00:00 | 00:00:00 | |
| DO3MHA-11 | 2026-09-01 06:07:50 | 47.81322 | 12.33836 | 107° | 53km/h | 5610m | -3.5m/s | -9.6°C | 24.7% | 513.9hPa | 2.6V | 00:00:00 | 01:38:40 | 00:00:00 | |
| DO3MHA-12 | 2026-09-01 06:07:49 | 47.81325 | 12.33818 | 106° | 53km/h | 5615m | -5.4m/s | -9.6°C | 24.8% | 513.7hPa | 2.6V | 00:00:00 | 01:38:39 | 00:00:00 | |
| DG1MFX-10 | 2026-09-01 06:07:48 | 47.81325 | 12.33817 | 107° | 53km/h | 5615m | -5.5m/s | -9.7°C | 23.8% | 513.7hPa | 2.6V | 02:22:00 | 00:00:00 | 00:00:00 | |
| OE5WHR-10 | 2026-09-01 06:07:41 | 47.81353 | 12.33665 | 105° | 58km/h | 5649m | -4.2m/s | -9.8°C | 30.2% | 511.3hPa | 2.6V | 00:00:00 | 00:00:00 | 00:00:00 | |
| DO3MHA-11 | 2026-09-01 06:07:40 | 47.81357 | 12.33645 | 105° | 57km/h | 5653m | -3.9m/s | -9.8°C | 30.5% | 511.0hPa | 2.6V | 02:22:00 | 01:38:30 | 00:00:00 | |
| DO3MHA-12 | 2026-09-01 06:07:39 | 47.81360 | 12.33625 | 105° | 58km/h | 5657m | -3.9m/s | -9.8°C | 30.8% | 510.8hPa | 2.7V | 02:22:00 | 01:38:29 | 00:00:00 | |
| BAUMI2-15 | 2026-09-01 06:07:36 | 47.81371 | 12.33563 | 105° | 58km/h | 5670m | -4.2m/s | -9.9°C | 31.8% | 509.9hPa | 2.6V | 00:00:00 | 01:38:26 | 00:00:00 | |
| NBG1-10 | 2026-09-01 06:07:35 | 47.81375 | 12.33542 | 105° | 60km/h | 5674m | -3.6m/s | -10.0°C | 32.6% | 509.7hPa | 2.6V | 02:22:00 | 01:38:25 | 00:00:00 | |
| DL6DJ-15 | 2026-09-01 06:07:33 | 47.81382 | 12.33500 | 105° | 58km/h | 5681m | -4.0m/s | -10.1°C | 32.9% | 509.1hPa | 2.6V | 00:00:00 | 00:00:00 | 00:00:00 | |
| BAUMI2-15 | 2026-09-01 06:07:31 | 47.81391 | 12.33458 | 107° | 58km/h | 5689m | -2.7m/s | -10.1°C | 35.4% | 508.5hPa | 2.6V | 00:00:00 | 01:38:21 | 00:00:00 | |
| DO3MHA-11 | 2026-09-01 06:07:30 | 47.81395 | 12.33437 | 107° | 58km/h | 5692m | -3.7m/s | -10.1°C | 35.5% | 508.3hPa | 2.6V | 00:00:00 | 01:38:20 | 00:00:00 | |
| DO3MHA-12 | 2026-09-01 06:07:29 | 47.81399 | 12.33416 | 107° | 58km/h | 5696m | -4.2m/s | -10.2°C | 35.5% | 508.0hPa | 2.6V | 00:00:00 | 01:38:19 | 00:00:00 | |
| DG1MFX-10 | 2026-09-01 06:07:28 | 47.81399 | 12.33416 | 108° | 58km/h | 5696m | -4.2m/s | -10.2°C | 34.0% | 508.1hPa | 2.6V | 02:23:00 | 00:00:00 | 00:00:00 | |
| BAUMI2-15 | 2026-09-01 06:07:26 | 47.81411 | 12.33351 | 106° | 58km/h | 5709m | -4.3m/s | -10.3°C | 35.4% | 507.2hPa | 2.6V | 02:22:00 | 01:38:16 | 00:00:00 | |
| OE5WHR-10 | 2026-09-01 06:07:24 | 47.81419 | 12.33308 | 104° | 62km/h | 5717m | -4.8m/s | -10.3°C | 34.4% | 506.6hPa | 2.6V | 00:00:00 | 01:38:14 | 00:00:00 | |
| OE5DXL-15 | 2026-09-01 06:07:22 | 47.81425 | 12.33265 | 103° | 62km/h | 5726m | -4.5m/s | -10.4°C | 32.5% | 506.1hPa | 2.6V | 00:00:00 | 00:00:00 | 00:00:00 | |
| BAUMI2-15 | 2026-09-01 06:07:21 | 47.81429 | 12.33243 | 101° | 60km/h | 5731m | -4.6m/s | -10.4°C | 32.3% | 505.8hPa | 2.6V | 00:00:00 | 01:38:11 | 00:00:00 | |
| DO3MHA-12 | 2026-09-01 06:07:19 | 47.81434 | 12.33199 | 102° | 62km/h | 5740m | -4.2m/s | -10.5°C | 31.9% | 505.2hPa | 2.6V | 00:00:00 | 01:38:09 | 00:00:00 | |
| OE5DRO-10 | 2026-09-01 06:07:17 | 47.81444 | 12.33132 | 104° | 64km/h | 5756m | -5.8m/s | -10.6°C | 31.9% | 504.2hPa | 2.6V | 00:00:00 | 00:00:00 | 00:00:00 | |
| BAUMI2-15 | 2026-09-01 06:07:16 | 47.81444 | 12.33132 | 104° | 62km/h | 5756m | -5.8m/s | -10.6°C | 31.9% | 504.2hPa | 2.6V | 00:00:00 | 01:38:06 | 00:00:00 | |
| DO3MHA-11 | 2026-09-01 06:07:10 | 47.81469 | 12.32999 | 107° | 64km/h | 5802m | -8.5m/s | -10.9°C | 37.0% | 501.2hPa | 2.6V | 02:22:00 | 01:38:00 | 00:00:00 | |
| DO3MHA-12 | 2026-09-01 06:07:09 | 47.81473 | 12.32977 | 106° | 64km/h | 5811m | -8.1m/s | -10.9°C | 36.7% | 500.7hPa | 2.7V | 02:22:00 | 01:37:59 | 00:00:00 | |
| DG1MFX-10 | 2026-09-01 06:07:07 | 47.81477 | 12.32954 | 106° | 62km/h | 5818m | -8.0m/s | -11.0°C | 35.0% | 500.2hPa | 2.7V | 02:23:00 | 00:00:00 | 00:00:00 | |
| BAUMI2-15 | 2026-09-01 06:07:06 | 47.81486 | 12.32909 | 107° | 64km/h | 5834m | -8.7m/s | -11.1°C | 34.9% | 499.1hPa | 2.7V | 00:00:00 | 01:37:56 | 00:00:00 | |
| OE5WHR-10 | 2026-09-01 06:07:03 | 47.81499 | 12.32839 | 105° | 66km/h | 5859m | -8.4m/s | -11.1°C | 34.4% | 497.6hPa | 2.7V | 02:23:00 | 00:00:00 | 00:00:00 | |
| NBG1-10 | 2026-09-01 06:07:02 | 47.81503 | 12.32817 | 106° | 69km/h | 5867m | -8.6m/s | -11.1°C | 33.1% | 497.0hPa | 2.6V | 00:00:00 | 01:37:52 | 00:00:00 | |
| BAUMI2-15 | 2026-09-01 06:07:01 | 47.81507 | 12.32793 | 105° | 66km/h | 5875m | -8.3m/s | -11.1°C | 31.9% | 496.4hPa | 2.6V | 00:00:00 | 01:37:51 | 00:00:00 | |
| DO3MHA-11 | 2026-09-01 06:07:00 | 47.81512 | 12.32769 | 105° | 66km/h | 5883m | -8.2m/s | -11.2°C | 31.1% | 495.9hPa | 2.6V | 00:00:00 | 01:37:50 | 00:00:00 | |
| DO3MHA-12 | 2026-09-01 06:06:59 | 47.81516 | 12.32746 | 105° | 66km/h | 5891m | -8.6m/s | -11.2°C | 31.0% | 495.4hPa | 2.6V | 00:00:00 | 01:37:49 | 00:00:00 | |
| OE5DRO-10 | 2026-09-01 06:06:58 | 47.81527 | 12.32675 | 102° | 68km/h | 5918m | -9.1m/s | -11.4°C | 31.9% | 493.7hPa | 2.6V | 02:23:00 | 00:00:00 | 00:00:00 | |
| BAUMI2-15 | 2026-09-01 06:06:56 | 47.81527 | 12.32675 | 102° | 66km/h | 5918m | -9.1m/s | -11.4°C | 31.9% | 493.7hPa | 2.6V | 02:23:00 | 01:37:46 | 00:00:00 | |
| OE5DXL-15 | 2026-09-01 06:06:52 | 47.81541 | 12.32578 | 101° | 68km/h | 5953m | -8.4m/s | -11.7°C | 31.8% | 491.5hPa | 2.7V | 02:23:00 | 00:00:00 | 00:00:00 | |
| BAUMI2-15 | 2026-09-01 06:06:51 | 47.81544 | 12.32554 | 102° | 68km/h | 5961m | -8.6m/s | -11.7°C | 31.7% | 490.9hPa | 2.7V | 00:00:00 | 01:37:41 | 00:00:00 | |
| DO3MHA-11 | 2026-09-01 06:06:50 | 47.81548 | 12.32530 | 103° | 68km/h | 5970m | -9.3m/s | -11.8°C | 31.5% | 490.4hPa | 2.7V | 00:00:00 | 01:37:40 | 00:00:00 | |
| DO3MHA-12 | 2026-09-01 06:06:49 | 47.81551 | 12.32506 | 101° | 68km/h | 5979m | -8.7m/s | -11.8°C | 30.9% | 489.7hPa | 2.7V | 00:00:00 | 01:37:39 | 00:00:00 | |
| DG1MFX-10 | 2026-09-01 06:06:47 | 47.81554 | 12.32481 | 101° | 66km/h | 5987m | -8.9m/s | -11.9°C | 29.1% | 489.4hPa | 2.7V | 02:23:00 | 00:00:00 | 00:00:00 | |
| BAUMI2-15 | 2026-09-01 06:06:45 | 47.81563 | 12.32407 | 100° | 68km/h | 6012m | -8.6m/s | -12.1°C | 29.5% | 487.6hPa | 2.7V | 00:00:00 | 01:37:35 | 00:00:00 | |
| OE5WHR-10 | 2026-09-01 06:06:42 | 47.81571 | 12.32333 | 100° | 68km/h | 6038m | -8.5m/s | -12.3°C | 28.7% | 486.0hPa | 2.7V | 00:00:00 | 00:00:00 | 00:00:00 | |
| DO3MHA-11 | 2026-09-01 06:06:40 | 47.81576 | 12.32283 | 99° | 68km/h | 6054m | -8.3m/s | -12.3°C | 27.7% | 485.1hPa | 2.7V | 02:23:00 | 01:37:30 | 00:00:00 | |
| DO3MHA-12 | 2026-09-01 06:06:39 | 47.81579 | 12.32258 | 99° | 68km/h | 6062m | -8.5m/s | -12.4°C | 26.8% | 484.5hPa | 2.7V | 02:23:00 | 01:37:29 | 00:00:00 | |
| OE5DRO-10 | 2026-09-01 06:06:35 | 47.81592 | 12.32133 | 100° | 68km/h | 6104m | -8.6m/s | -12.7°C | 27.0% | 481.8hPa | 2.7V | 00:00:00 | 00:00:00 | 00:00:00 | |
| BAUMI2-15 | 2026-09-01 06:06:34 | 47.81592 | 12.32133 | 100° | 68km/h | 6104m | -8.6m/s | -12.7°C | 27.0% | 481.8hPa | 2.7V | 00:00:00 | 01:37:24 | 00:00:00 | |
| DL6DJ-15 | 2026-09-01 06:06:31 | 47.81599 | 12.32059 | 97° | 68km/h | 6129m | -8.5m/s | -13.0°C | 24.4% | 480.4hPa | 2.7V | 00:00:00 | 00:00:00 | 00:00:00 | |
| DO3MHA-11 | 2026-09-01 06:06:30 | 47.81601 | 12.32034 | 98° | 68km/h | 6137m | -7.9m/s | -13.0°C | 25.9% | 479.8hPa | 2.7V | 00:00:00 | 01:37:20 | 00:00:00 | |
| DO3MHA-12 | 2026-09-01 06:06:29 | 47.81604 | 12.32008 | 98° | 68km/h | 6145m | -8.1m/s | -13.0°C | 26.0% | 479.3hPa | 2.7V | 00:00:00 | 01:37:19 | 00:00:00 | |
| DG1MFX-10 | 2026-09-01 06:06:27 | 47.81606 | 12.31983 | 98° | 68km/h | 6153m | -8.0m/s | -13.2°C | 24.5% | 478.8hPa | 2.7V | 02:23:00 | 00:00:00 | 00:00:00 | |
| BAUMI2-15 | 2026-09-01 06:06:24 | 47.81615 | 12.31882 | 98° | 68km/h | 6185m | -8.3m/s | -13.4°C | 26.9% | 476.8hPa | 2.7V | 02:23:00 | 01:37:14 | 00:00:00 | |
| OE5DXL-15 | 2026-09-01 06:06:22 | 47.81620 | 12.31833 | 97° | 69km/h | 6201m | -8.0m/s | -13.6°C | 27.3% | 475.8hPa | 2.7V | 00:00:00 | 00:00:00 | 00:00:00 | |
| OE5WHR-10 | 2026-09-01 06:06:21 | 47.81622 | 12.31808 | 97° | 69km/h | 6209m | -7.8m/s | -13.6°C | 28.3% | 475.2hPa | 2.7V | 00:00:00 | 01:37:11 | 00:00:00 | |
| DO3MHA-11 | 2026-09-01 06:06:20 | 47.81624 | 12.31783 | 97° | 68km/h | 6217m | -8.2m/s | -13.7°C | 29.3% | 474.7hPa | 2.7V | 00:00:00 | 01:37:10 | 00:00:00 | |
| DO3MHA-12 | 2026-09-01 06:06:19 | 47.81625 | 12.31758 | 96° | 68km/h | 6225m | -7.7m/s | -13.8°C | 29.9% | 474.2hPa | 2.7V | 00:00:00 | 01:37:09 | 00:00:00 | |
| BAUMI2-15 | 2026-09-01 06:06:18 | 47.81627 | 12.31733 | 95° | 68km/h | 6232m | -7.7m/s | -13.8°C | 30.4% | 473.8hPa | 2.7V | 00:00:00 | 01:37:08 | 00:00:00 | |
| OE5DRO-10 | 2026-09-01 06:06:16 | 47.81630 | 12.31682 | 95° | 69km/h | 6248m | -8.2m/s | -14.0°C | 29.3% | 472.7hPa | 2.7V | 00:00:00 | 00:00:00 | 00:00:00 | |
| BAUMI2-15 | 2026-09-01 06:06:13 | 47.81633 | 12.31605 | 94° | 69km/h | 6272m | -7.9m/s | -14.2°C | 29.5% | 471.3hPa | 2.7V | 00:00:00 | 01:37:03 | 00:00:00 | |
| DO3MHA-11 | 2026-09-01 06:06:10 | 47.81637 | 12.31527 | 95° | 69km/h | 6296m | -8.1m/s | -14.3°C | 28.6% | 469.8hPa | 2.7V | 02:23:00 | 01:37:00 | 00:00:00 | |
| DO3MHA-12 | 2026-09-01 06:06:09 | 47.81638 | 12.31501 | 93° | 71km/h | 6304m | -8.3m/s | -14.4°C | 27.4% | 469.3hPa | 2.7V | 02:23:00 | 01:36:59 | 00:00:00 | |
| BAUMI2-15 | 2026-09-01 06:06:08 | 47.81639 | 12.31475 | 93° | 69km/h | 6311m | -8.0m/s | -14.4°C | 27.0% | 468.7hPa | 2.7V | 02:23:00 | 01:36:58 | 00:00:00 | |
| DG1MFX-10 | 2026-09-01 06:06:06 | 47.81640 | 12.31449 | 93° | 69km/h | 6319m | -8.1m/s | -14.4°C | 25.5% | 468.3hPa | 2.7V | 02:23:00 | 00:00:00 | 00:00:00 | |
| BAUMI2-15 | 2026-09-01 06:06:03 | 47.81642 | 12.31344 | 92° | 71km/h | 6350m | -7.7m/s | -14.6°C | 27.2% | 466.4hPa | 2.7V | 00:00:00 | 01:36:53 | 00:00:00 | |
| DO3MHA-11 | 2026-09-01 06:06:00 | 47.81645 | 12.31264 | 93° | 71km/h | 6373m | -8.1m/s | -14.8°C | 27.9% | 465.0hPa | 2.7V | 00:00:00 | 01:36:50 | 00:00:00 | |
| DO3MHA-12 | 2026-09-01 06:05:59 | 47.81645 | 12.31238 | 93° | 71km/h | 6381m | -7.6m/s | -14.9°C | 28.1% | 464.5hPa | 2.7V | 00:00:00 | 01:36:49 | 00:00:00 | |
| OE5MMP-10 | 2026-09-01 06:05:58 | 47.81646 | 12.31211 | 92° | 71km/h | 6389m | -7.7m/s | -15.0°C | 28.2% | 464.0hPa | 2.7V | 02:24:00 | 01:36:48 | 00:00:00 | |
| NBG1-10 | 2026-09-01 06:05:57 | 47.81646 | 12.31185 | 92° | 71km/h | 6396m | -8.0m/s | -15.0°C | 28.5% | 463.5hPa | 2.7V | 00:00:00 | 01:36:47 | 00:00:00 | |
| OE3JTB-15 | 2026-09-01 06:05:54 | 47.81648 | 12.31103 | 93° | 71km/h | 6419m | -8.1m/s | 0°C | 0% | 0hPa | 2.7V | 00:00:00 | 01:36:44 | 00:00:00 | |
| BAUMI2-15 | 2026-09-01 06:05:53 | 47.81649 | 12.31077 | 93° | 71km/h | 6427m | -8.0m/s | -15.3°C | 29.0% | 461.7hPa | 2.7V | 02:24:00 | 01:36:43 | 00:00:00 | |
| OE5DXL-15 | 2026-09-01 06:05:52 | 47.81649 | 12.31050 | 92° | 71km/h | 6435m | -8.2m/s | -15.4°C | 28.3% | 461.3hPa | 2.7V | 00:00:00 | 00:00:00 | 00:00:00 | |
| DO3MHA-11 | 2026-09-01 06:05:50 | 47.81650 | 12.30997 | 91° | 71km/h | 6450m | -8.4m/s | -15.5°C | 27.2% | 460.2hPa | 2.7V | 00:00:00 | 01:36:40 | 00:00:00 | |
| DO3MHA-12 | 2026-09-01 06:05:49 | 47.81650 | 12.30970 | 91° | 71km/h | 6458m | -7.8m/s | -15.6°C | 27.0% | 459.8hPa | 2.7V | 00:00:00 | 01:36:39 | 00:00:00 | |
| OE5MMP-10 | 2026-09-01 06:05:48 | 47.81651 | 12.30943 | 92° | 69km/h | 6466m | -7.8m/s | -15.6°C | 27.0% | 459.3hPa | 2.7V | 00:00:00 | 01:36:38 | 00:00:00 | |
| DG1MFX-10 | 2026-09-01 06:05:46 | 47.81651 | 12.30916 | 93° | 69km/h | 6474m | -7.7m/s | -15.7°C | 25.3% | 458.9hPa | 2.7V | 02:24:00 | 00:00:00 | 00:00:00 | |
| BAUMI2-15 | 2026-09-01 06:05:43 | 47.81653 | 12.30811 | 92° | 71km/h | 6503m | -7.4m/s | -15.9°C | 25.6% | 457.0hPa | 2.7V | 00:00:00 | 01:36:33 | 00:00:00 | |
| DO3MHA-11 | 2026-09-01 06:05:40 | 47.81655 | 12.30731 | 94° | 71km/h | 6526m | -8.0m/s | -16.1°C | 24.7% | 455.6hPa | 2.7V | 02:24:00 | 01:36:30 | 00:00:00 | |
| OE5WHR-10 | 2026-09-01 06:05:39 | 47.81656 | 12.30705 | 94° | 73km/h | 6534m | -7.9m/s | -16.2°C | 24.5% | 455.2hPa | 2.7V | 00:00:00 | 00:00:00 | 00:00:00 | |
| OE5MMP-10 | 2026-09-01 06:05:38 | 47.81657 | 12.30679 | 93° | 71km/h | 6542m | -7.7m/s | -16.2°C | 24.7% | 454.7hPa | 2.7V | 00:00:00 | 01:36:28 | 00:00:00 | |
| DO3MHA-11 | 2026-09-01 06:05:30 | 47.81662 | 12.30463 | 91° | 73km/h | 6602m | -7.6m/s | -16.7°C | 22.2% | 451.1hPa | 2.7V | 00:00:00 | 01:36:20 | 00:00:00 | |
| DO3MHA-12 | 2026-09-01 06:05:29 | 47.81662 | 12.30436 | 91° | 73km/h | 6610m | -7.9m/s | -16.8°C | 22.1% | 450.6hPa | 2.7V | 00:00:00 | 01:36:19 | 00:00:00 | |
| OE3JTB-15 | 2026-09-01 06:05:25 | 47.81665 | 12.30327 | 92° | 75km/h | 6640m | -8.2m/s | 0°C | 0% | 0hPa | 2.7V | 02:24:00 | 00:00:00 | 00:00:00 | |
| NBG1-10 | 2026-09-01 06:05:24 | 47.81665 | 12.30299 | 92° | 75km/h | 6648m | -7.2m/s | -17.0°C | 20.8% | 448.3hPa | 2.7V | 02:24:00 | 01:36:14 | 00:00:00 | |
| OE5DXL-15 | 2026-09-01 06:05:22 | 47.81667 | 12.30244 | 92° | 75km/h | 6663m | -7.5m/s | -17.1°C | 21.2% | 447.4hPa | 2.7V | 02:24:00 | 00:00:00 | 00:00:00 | |
| DO3MHA-11 | 2026-09-01 06:05:20 | 47.81667 | 12.30189 | 91° | 75km/h | 6678m | -7.7m/s | -17.2°C | 24.1% | 446.5hPa | 2.6V | 00:00:00 | 01:36:10 | 00:00:00 | |
| OE5DRO-10 | 2026-09-01 06:05:19 | 47.81668 | 12.30133 | 90° | 75km/h | 6693m | -7.6m/s | -17.3°C | 24.0% | 445.6hPa | 2.6V | 00:00:00 | 00:00:00 | 00:00:00 | |
| OE5WHR-10 | 2026-09-01 06:05:18 | 47.81668 | 12.30133 | 90° | 75km/h | 6693m | -7.6m/s | -17.3°C | 24.0% | 445.6hPa | 2.6V | 00:00:00 | 01:36:08 | 00:00:00 | |
| DG1MJG | 2026-09-01 06:05:14 | 47.81668 | 12.30049 | 91° | 75km/h | 6716m | -7.7m/s | -17.5°C | 21.2% | 444.4hPa | 2.6V | 00:00:00 | 00:00:00 | 00:00:00 | |
| DO3MHA-11 | 2026-09-01 06:05:10 | 47.81669 | 12.29908 | 92° | 73km/h | 6752m | -7.4m/s | -17.7°C | 20.9% | 442.1hPa | 2.6V | 02:24:00 | 01:36:00 | 00:00:00 | |
| DO3MHA-12 | 2026-09-01 06:05:09 | 47.81670 | 12.29880 | 92° | 73km/h | 6760m | -7.3m/s | -17.7°C | 18.7% | 441.7hPa | 2.6V | 02:24:00 | 01:35:59 | 00:00:00 | |
| DG1MFX-10 | 2026-09-01 06:05:04 | 47.81671 | 12.29772 | 92° | 71km/h | 6789m | -8.5m/s | -18.0°C | 14.6% | 440.1hPa | 2.7V | 02:25:00 | 00:00:00 | 00:00:00 | |
| DL6DJ-15 | 2026-09-01 06:04:58 | 47.81673 | 12.29575 | 91° | 77km/h | 6842m | -6.4m/s | -18.5°C | 16.9% | 436.9hPa | 2.7V | 00:00:00 | 00:00:00 | 00:00:00 | |
| OE5WHR-10 | 2026-09-01 06:04:57 | 47.81673 | 12.29545 | 91° | 71km/h | 6848m | -6.2m/s | -18.5°C | 18.3% | 436.5hPa | 2.7V | 02:25:00 | 00:00:00 | 00:00:00 | |
| OE5DXL-15 | 2026-09-01 06:04:52 | 47.81674 | 12.29404 | 90° | 71km/h | 6882m | -6.4m/s | -18.8°C | 23.6% | 434.4hPa | 2.7V | 00:00:00 | 00:00:00 | 00:00:00 | |
| NBG1-10 | 2026-09-01 06:04:51 | 47.81674 | 12.29378 | 89° | 71km/h | 6889m | -6.3m/s | -18.9°C | 24.1% | 434.2hPa | 2.7V | 00:00:00 | 01:35:41 | 00:00:00 | |
| DO3MHA-11 | 2026-09-01 06:04:50 | 47.81673 | 12.29351 | 89° | 69km/h | 6895m | -5.0m/s | -18.9°C | 24.4% | 433.7hPa | 2.7V | 00:00:00 | 01:35:40 | 00:00:00 | |
| OE5MMP-10 | 2026-09-01 06:04:49 | 47.81673 | 12.29325 | 89° | 71km/h | 6899m | -5.0m/s | -18.9°C | 23.0% | 433.4hPa | 2.7V | 02:25:00 | 01:35:39 | 00:00:00 | |
| DG1MFX-10 | 2026-09-01 06:04:43 | 47.81670 | 12.29197 | 90° | 68km/h | 6928m | -5.9m/s | -19.2°C | 20.6% | 431.8hPa | 2.7V | 02:25:00 | 00:00:00 | 00:00:00 | |
| DO3MHA-11 | 2026-09-01 06:04:40 | 47.81672 | 12.29091 | 94° | 73km/h | 6952m | -6.3m/s | -19.4°C | 21.0% | 430.5hPa | 2.7V | 02:25:00 | 01:35:30 | 00:00:00 | |
| DO3MHA-12 | 2026-09-01 06:04:39 | 47.81674 | 12.29062 | 95° | 71km/h | 6958m | -6.9m/s | -19.5°C | 20.5% | 430.0hPa | 2.6V | 02:25:00 | 01:35:29 | 00:00:00 | |
| OE5MMP-10 | 2026-09-01 06:04:36 | 47.81677 | 12.28979 | 94° | 71km/h | 6979m | -6.5m/s | -19.7°C | 19.7% | 428.9hPa | 2.7V | 00:00:00 | 01:35:26 | 00:00:00 | |
| DO3MHA-11 | 2026-09-01 06:04:30 | 47.81684 | 12.28819 | 94° | 71km/h | 7016m | -5.7m/s | -20.0°C | 19.8% | 426.7hPa | 2.7V | 00:00:00 | 01:35:20 | 00:00:00 | |
| DO3MHA-12 | 2026-09-01 06:04:29 | 47.81685 | 12.28794 | 94° | 71km/h | 7021m | -5.1m/s | -20.0°C | 19.8% | 426.4hPa | 2.7V | 00:00:00 | 01:35:19 | 00:00:00 | |
| DL6DJ-15 | 2026-09-01 06:04:27 | 47.81688 | 12.28742 | 94° | 69km/h | 7031m | -4.2m/s | -20.2°C | 18.4% | 425.8hPa | 2.7V | 00:00:00 | 00:00:00 | 00:00:00 | |
| DG1MFX-10 | 2026-09-01 06:04:23 | 47.81692 | 12.28661 | 96° | 73km/h | 7044m | -4.2m/s | -20.3°C | 18.5% | 425.0hPa | 2.7V | 02:25:00 | 00:00:00 | 00:00:00 | |
| OE5DXL-15 | 2026-09-01 06:04:22 | 47.81695 | 12.28606 | 95° | 73km/h | 7053m | -4.4m/s | -20.3°C | 19.9% | 424.5hPa | 2.7V | 00:00:00 | 00:00:00 | 00:00:00 | |
| OE5DRO-10 | 2026-09-01 06:04:21 | 47.81697 | 12.28579 | 95° | 73km/h | 7058m | -4.8m/s | -20.4°C | 19.9% | 424.3hPa | 2.7V | 00:00:00 | 00:00:00 | 00:00:00 | |
| DO3MHA-11 | 2026-09-01 06:04:20 | 47.81698 | 12.28552 | 96° | 71km/h | 7063m | -4.6m/s | -20.4°C | 19.9% | 424.0hPa | 2.7V | 00:00:00 | 01:35:10 | 00:00:00 | |
| DO3MHA-12 | 2026-09-01 06:04:19 | 47.81700 | 12.28526 | 96° | 71km/h | 7067m | -4.8m/s | -20.5°C | 19.9% | 423.7hPa | 2.7V | 00:00:00 | 01:35:09 | 00:00:00 | |
| OE5WHR-10 | 2026-09-01 06:04:15 | 47.81706 | 12.28423 | 96° | 73km/h | 7086m | -4.6m/s | -20.6°C | 19.1% | 422.6hPa | 2.7V | 00:00:00 | 01:35:05 | 00:00:00 | |
| NBG1-10 | 2026-09-01 06:04:14 | 47.81708 | 12.28397 | 97° | 75km/h | 7091m | -5.1m/s | -20.6°C | 18.9% | 422.4hPa | 2.7V | 00:00:00 | 01:35:04 | 00:00:00 | |
| DO3MHA-12 | 2026-09-01 06:04:09 | 47.81716 | 12.28259 | 93° | 75km/h | 7118m | -6.2m/s | -20.9°C | 19.0% | 420.8hPa | 2.7V | 02:25:00 | 01:34:59 | 00:00:00 | |
| OE5MMP-10 | 2026-09-01 06:04:04 | 47.81722 | 12.28117 | 95° | 73km/h | 7151m | -8.8m/s | -21.1°C | 20.5% | 419.1hPa | 2.7V | 00:00:00 | 01:34:54 | 00:00:00 | |
| DG1MFX-10 | 2026-09-01 06:04:03 | 47.81722 | 12.28117 | 95° | 75km/h | 7151m | -8.9m/s | -21.2°C | 19.0% | 419.1hPa | 2.7V | 02:26:00 | 00:00:00 | 00:00:00 | |
| DL6DJ-15 | 2026-09-01 06:03:56 | 47.81730 | 12.27895 | 92° | 73km/h | 7212m | -6.9m/s | -21.6°C | 30.0% | 415.6hPa | 2.7V | 00:00:00 | 00:00:00 | 00:00:00 | |
| OE5WHR-10 | 2026-09-01 06:03:54 | 47.81733 | 12.27840 | 95° | 75km/h | 7223m | -4.1m/s | -21.6°C | 31.8% | 414.9hPa | 2.7V | 02:26:00 | 00:00:00 | 00:00:00 | |
| OE5DXL-15 | 2026-09-01 06:03:52 | 47.81736 | 12.27784 | 96° | 75km/h | 7233m | -5.6m/s | -21.7°C | 32.3% | 414.4hPa | 2.6V | 02:26:00 | 00:00:00 | 00:00:00 | |
| DO3MHA-11 | 2026-09-01 06:03:50 | 47.81739 | 12.27727 | 95° | 75km/h | 7244m | -5.1m/s | -21.8°C | 33.1% | 413.9hPa | 2.7V | 00:00:00 | 01:34:40 | 00:00:00 | |
| DO3MHA-12 | 2026-09-01 06:03:49 | 47.81740 | 12.27698 | 94° | 75km/h | 7248m | -4.3m/s | -21.8°C | 33.1% | 413.5hPa | 2.7V | 00:00:00 | 01:34:39 | 00:00:00 | |
| OE5MMP-10 | 2026-09-01 06:03:44 | 47.81744 | 12.27556 | 92° | 73km/h | 7272m | -4.6m/s | -22.1°C | 35.6% | 412.2hPa | 2.7V | 02:26:00 | 01:34:34 | 00:00:00 | |
| OE5DRO-10 | 2026-09-01 06:03:43 | 47.81745 | 12.27528 | 93° | 75km/h | 7276m | -4.6m/s | -22.1°C | 36.2% | 411.9hPa | 2.6V | 00:00:00 | 00:00:00 | 00:00:00 | |
| OE5HKT-10 | 2026-09-01 06:03:42 | 47.81746 | 12.27500 | 93° | 77km/h | 7281m | -4.9m/s | -22.2°C | 36.0% | 411.7hPa | 2.6V | 02:26:00 | 00:00:00 | 00:00:00 | |
| NBG1-10 | 2026-09-01 06:03:41 | 47.81746 | 12.27473 | 92° | 75km/h | 7286m | -4.9m/s | -22.2°C | 36.2% | 411.4hPa | 2.7V | 02:26:00 | 01:34:31 | 00:00:00 | |
| DO3MHA-11 | 2026-09-01 06:03:40 | 47.81747 | 12.27445 | 93° | 75km/h | 7291m | -4.9m/s | -22.2°C | 36.8% | 411.2hPa | 2.7V | 02:26:00 | 01:34:30 | 00:00:00 | |
| DO3MHA-12 | 2026-09-01 06:03:39 | 47.81748 | 12.27418 | 93° | 75km/h | 7296m | -4.9m/s | -22.3°C | 37.4% | 410.9hPa | 2.6V | 02:26:00 | 01:34:29 | 00:00:00 | |
| BAUMI2-15 | 2026-09-01 06:03:35 | 47.81750 | 12.27306 | 93° | 75km/h | 7315m | -5.0m/s | -22.5°C | 34.5% | 409.7hPa | 2.6V | 02:26:00 | 01:34:25 | 00:00:00 | |
| OE5MMP-10 | 2026-09-01 06:03:34 | 47.81751 | 12.27278 | 93° | 77km/h | 7319m | -4.9m/s | -22.5°C | 33.6% | 409.5hPa | 2.6V | 00:00:00 | 01:34:24 | 00:00:00 | |
| OE5WHR-10 | 2026-09-01 06:03:33 | 47.81752 | 12.27250 | 94° | 77km/h | 7324m | -4.7m/s | -22.5°C | 33.7% | 409.3hPa | 2.6V | 00:00:00 | 00:00:00 | 00:00:00 | |
| DO3MHA-11 | 2026-09-01 06:03:30 | 47.81756 | 12.27165 | 95° | 77km/h | 7342m | -6.7m/s | -22.7°C | 37.9% | 408.3hPa | 2.6V | 00:00:00 | 01:34:20 | 00:00:00 | |
| DO3MHA-12 | 2026-09-01 06:03:29 | 47.81757 | 12.27136 | 94° | 77km/h | 7348m | -6.8m/s | -22.7°C | 38.2% | 408.0hPa | 2.6V | 00:00:00 | 01:34:19 | 00:00:00 | |
| DG1MJG | 2026-09-01 06:03:28 | 47.81757 | 12.27136 | 94° | 78km/h | 7348m | -6.8m/s | -22.8°C | 35.5% | 408.0hPa | 2.6V | 00:00:00 | 00:00:00 | 00:00:00 | |
| BAUMI2-15 | 2026-09-01 06:03:25 | 47.81760 | 12.27020 | 92° | 77km/h | 7376m | -6.2m/s | -23.0°C | 39.1% | 406.3hPa | 2.6V | 00:00:00 | 01:34:15 | 00:00:00 | |
| OE5MMP-10 | 2026-09-01 06:03:24 | 47.81760 | 12.26991 | 92° | 77km/h | 7383m | -6.5m/s | -23.0°C | 39.4% | 406.0hPa | 2.6V | 00:00:00 | 01:34:14 | 00:00:00 | |
| OE5DXL-15 | 2026-09-01 06:03:22 | 47.81761 | 12.26933 | 92° | 77km/h | 7394m | -5.6m/s | -23.1°C | 39.5% | 405.4hPa | 2.6V | 00:00:00 | 00:00:00 | 00:00:00 | |
| DO3MHA-11 | 2026-09-01 06:03:20 | 47.81763 | 12.26876 | 92° | 75km/h | 7405m | -4.9m/s | -23.2°C | 42.3% | 404.9hPa | 2.6V | 00:00:00 | 01:34:10 | 00:00:00 | |
| DO3MHA-12 | 2026-09-01 06:03:19 | 47.81763 | 12.26847 | 92° | 75km/h | 7410m | -4.9m/s | -23.2°C | 43.7% | 404.6hPa | 2.6V | 00:00:00 | 01:34:09 | 00:00:00 | |
| BAUMI2-15 | 2026-09-01 06:03:14 | 47.81767 | 12.26707 | 93° | 77km/h | 7435m | -6.0m/s | -23.4°C | 43.2% | 403.2hPa | 2.6V | 00:00:00 | 01:34:04 | 00:00:00 | |
| OE5WHR-10 | 2026-09-01 06:03:12 | 47.81768 | 12.26650 | 92° | 77km/h | 7447m | -5.5m/s | -23.6°C | 46.4% | 402.4hPa | 2.6V | 00:00:00 | 01:34:02 | 00:00:00 | |
| DO3MHA-11 | 2026-09-01 06:03:10 | 47.81769 | 12.26592 | 92° | 77km/h | 7459m | -6.2m/s | -23.7°C | 47.0% | 401.8hPa | 2.6V | 02:26:00 | 01:34:00 | 00:00:00 | |
| BAUMI2-15 | 2026-09-01 06:03:09 | 47.81770 | 12.26563 | 91° | 77km/h | 7465m | -6.1m/s | -23.7°C | 47.4% | 401.5hPa | 2.6V | 00:00:00 | 01:33:59 | 00:00:00 | |
| NBG1-10 | 2026-09-01 06:03:08 | 47.81770 | 12.26534 | 91° | 75km/h | 7470m | -5.0m/s | -23.8°C | 47.7% | 401.1hPa | 2.6V | 00:00:00 | 01:33:58 | 00:00:00 | |
| OE5DRO-10 | 2026-09-01 06:03:05 | 47.81772 | 12.26447 | 92° | 77km/h | 7487m | -7.9m/s | -23.9°C | 47.6% | 400.3hPa | 2.6V | 02:26:00 | 00:00:00 | 00:00:00 | |
| BAUMI2-15 | 2026-09-01 06:03:04 | 47.81772 | 12.26419 | 93° | 75km/h | 7494m | -6.4m/s | -24.0°C | 47.7% | 399.8hPa | 2.6V | 02:26:00 | 01:33:54 | 00:00:00 | |
| DG1MFX-10 | 2026-09-01 06:03:02 | 47.81773 | 12.26391 | 94° | 75km/h | 7500m | -5.3m/s | -24.1°C | 44.3% | 399.5hPa | 2.7V | 02:27:00 | 00:00:00 | 00:00:00 | |
| DL6DJ-15 | 2026-09-01 06:02:54 | 47.81777 | 12.26133 | 90° | 78km/h | 7550m | -5.4m/s | -24.6°C | 43.1% | 396.7hPa | 2.7V | 00:00:00 | 00:00:00 | 00:00:00 | |
| BAUMI2-15 | 2026-09-01 06:02:53 | 47.81777 | 12.26103 | 91° | 80km/h | 7556m | -5.2m/s | -24.5°C | 45.7% | 396.4hPa | 2.7V | 00:00:00 | 01:33:43 | 00:00:00 | |
| OE5DXL-15 | 2026-09-01 06:02:52 | 47.81777 | 12.26073 | 90° | 77km/h | 7561m | -5.3m/s | -24.6°C | 44.2% | 396.1hPa | 2.7V | 00:00:00 | 00:00:00 | 00:00:00 | |
| OE5WHR-10 | 2026-09-01 06:02:51 | 47.81777 | 12.26043 | 91° | 75km/h | 7566m | -5.6m/s | -24.6°C | 42.2% | 395.8hPa | 2.7V | 02:27:00 | 00:00:00 | 00:00:00 | |
| DO3MHA-11 | 2026-09-01 06:02:50 | 47.81777 | 12.26013 | 91° | 75km/h | 7572m | -6.0m/s | -24.7°C | 41.4% | 395.5hPa | 2.6V | 00:00:00 | 01:33:40 | 00:00:00 | |
| DO3MHA-12 | 2026-09-01 06:02:49 | 47.81777 | 12.25983 | 92° | 73km/h | 7577m | -5.1m/s | -24.7°C | 41.6% | 395.1hPa | 2.6V | 00:00:00 | 01:33:39 | 00:00:00 | |
| BAUMI2-15 | 2026-09-01 06:02:47 | 47.81778 | 12.25924 | 93° | 73km/h | 7589m | -5.4m/s | -24.8°C | 41.2% | 394.5hPa | 2.6V | 02:27:00 | 01:33:37 | 00:00:00 | |
| OE5DRO-10 | 2026-09-01 06:02:46 | 47.81779 | 12.25895 | 93° | 75km/h | 7594m | -5.1m/s | -24.8°C | 38.3% | 394.3hPa | 2.6V | 00:00:00 | 00:00:00 | 00:00:00 | |
| OE5HKT-10 | 2026-09-01 06:02:43 | 47.81783 | 12.25814 | 96° | 73km/h | 7611m | -6.0m/s | -25.0°C | 36.1% | 393.4hPa | 2.6V | 00:00:00 | 01:33:33 | 00:00:00 | |
| OE5MMP-10 | 2026-09-01 06:02:42 | 47.81785 | 12.25788 | 96° | 73km/h | 7616m | -6.1m/s | 0°C | 0% | 0hPa | 2.6V | 02:27:00 | 01:33:32 | 00:00:00 | |
| DO3MHA-11 | 2026-09-01 06:02:40 | 47.81788 | 12.25736 | 97° | 75km/h | 7628m | -6.3m/s | -25.1°C | 44.9% | 392.3hPa | 2.6V | 02:27:00 | 01:33:30 | 00:00:00 | |
| DO3MHA-12 | 2026-09-01 06:02:39 | 47.81791 | 12.25710 | 99° | 75km/h | 7634m | -6.1m/s | -25.2°C | 45.6% | 392.0hPa | 2.7V | 02:27:00 | 01:33:29 | 00:00:00 | |
| BAUMI2-15 | 2026-09-01 06:02:37 | 47.81796 | 12.25657 | 98° | 77km/h | 7647m | -6.2m/s | -25.3°C | 46.6% | 391.5hPa | 2.6V | 00:00:00 | 01:33:27 | 00:00:00 | |
| NBG1-10 | 2026-09-01 06:02:35 | 47.81801 | 12.25602 | 96° | 80km/h | 7662m | -7.5m/s | -25.4°C | 49.0% | 390.7hPa | 2.6V | 00:00:00 | 01:33:25 | 00:00:00 | |
| OE5MMP-10 | 2026-09-01 06:02:32 | 47.81805 | 12.25514 | 92° | 78km/h | 7682m | -6.7m/s | -25.5°C | 52.4% | 389.6hPa | 2.6V | 00:00:00 | 01:33:22 | 00:00:00 | |
| DO3MHA-11 | 2026-09-01 06:02:30 | 47.81806 | 12.25456 | 93° | 80km/h | 7696m | -5.7m/s | -25.7°C | 53.0% | 388.9hPa | 2.6V | 00:00:00 | 01:33:20 | 00:00:00 | |
| DO3MHA-12 | 2026-09-01 06:02:29 | 47.81808 | 12.25427 | 93° | 80km/h | 7702m | -7.0m/s | -25.7°C | 52.7% | 388.5hPa | 2.6V | 00:00:00 | 01:33:19 | 00:00:00 | |
| BAUMI2-15 | 2026-09-01 06:02:27 | 47.81810 | 12.25368 | 94° | 80km/h | 7719m | -9.5m/s | -25.9°C | 53.4% | 387.8hPa | 2.6V | 00:00:00 | 01:33:17 | 00:00:00 | |
| OE3JTB-15 | 2026-09-01 06:02:24 | 47.81814 | 12.25279 | 94° | 80km/h | 7744m | -8.4m/s | 0°C | 0% | 0hPa | 2.6V | 00:00:00 | 01:33:14 | 00:00:00 | |
| DL6DJ-15 | 2026-09-01 06:02:23 | 47.81817 | 12.25218 | 94° | 82km/h | 7761m | -8.4m/s | -26.3°C | 50.2% | 385.4hPa | 2.6V | 00:00:00 | 00:00:00 | 00:00:00 | |
| OE5MMP-10 | 2026-09-01 06:02:22 | 47.81817 | 12.25218 | 95° | 80km/h | 7761m | -8.4m/s | -26.3°C | 54.1% | 385.4hPa | 2.6V | 00:00:00 | 01:33:12 | 00:00:00 | |
| DG1MFX-10 | 2026-09-01 06:02:21 | 47.81817 | 12.25218 | 95° | 82km/h | 7761m | -8.4m/s | -26.3°C | 50.3% | 385.4hPa | 2.6V | 02:28:00 | 00:00:00 | 00:00:00 | |
| DO3MHA-11 | 2026-09-01 06:02:20 | 47.81820 | 12.25156 | 95° | 80km/h | 7778m | -8.7m/s | -26.4°C | 53.8% | 384.6hPa | 2.6V | 00:00:00 | 01:33:10 | 00:00:00 | |
| DO3MHA-12 | 2026-09-01 06:02:19 | 47.81821 | 12.25126 | 95° | 80km/h | 7786m | -7.9m/s | -26.5°C | 53.1% | 384.1hPa | 2.6V | 00:00:00 | 01:33:09 | 00:00:00 | |
| BAUMI2-15 | 2026-09-01 06:02:17 | 47.81825 | 12.25065 | 96° | 80km/h | 7803m | -9.0m/s | -26.6°C | 52.2% | 383.2hPa | 2.6V | 02:27:00 | 01:33:07 | 00:00:00 | |
| OE5MMP-10 | 2026-09-01 06:02:12 | 47.81833 | 12.24916 | 95° | 80km/h | 7839m | -6.3m/s | -26.9°C | 51.2% | 381.3hPa | 2.6V | 02:27:00 | 01:33:02 | 00:00:00 | |
| BAUMI2-15 | 2026-09-01 06:02:11 | 47.81834 | 12.24886 | 96° | 80km/h | 7845m | -6.8m/s | -26.9°C | 50.7% | 380.9hPa | 2.6V | 00:00:00 | 01:33:01 | 00:00:00 | |
| DO3MHA-11 | 2026-09-01 06:02:10 | 47.81836 | 12.24855 | 97° | 80km/h | 7852m | -7.2m/s | -27.0°C | 50.4% | 380.6hPa | 2.6V | 02:27:00 | 01:33:00 | 00:00:00 | |
| OE5WHR-10 | 2026-09-01 06:02:09 | 47.81839 | 12.24825 | 97° | 80km/h | 7859m | -6.6m/s | -27.0°C | 50.2% | 380.2hPa | 2.6V | 00:00:00 | 01:32:59 | 00:00:00 | |
| OE5DRO-10 | 2026-09-01 06:02:08 | 47.81841 | 12.24795 | 97° | 80km/h | 7866m | -6.3m/s | -27.1°C | 50.1% | 379.9hPa | 2.6V | 02:27:00 | 00:00:00 | 00:00:00 | |
| BAUMI2-15 | 2026-09-01 06:02:06 | 47.81847 | 12.24734 | 97° | 80km/h | 7878m | -6.1m/s | -27.2°C | 50.9% | 379.3hPa | 2.6V | 00:00:00 | 01:32:56 | 00:00:00 | |
| DG1MJG | 2026-09-01 06:02:02 | 47.81854 | 12.24644 | 98° | 80km/h | 7897m | -6.3m/s | -27.3°C | 44.3% | 378.4hPa | 2.6V | 02:28:00 | 00:00:00 | 00:00:00 | |
| DL6DJ-15 | 2026-09-01 06:01:52 | 47.81886 | 12.24283 | 100° | 82km/h | 7979m | -5.2m/s | -28.0°C | 43.6% | 373.9hPa | 2.6V | 00:00:00 | 00:00:00 | 00:00:00 | |
| DO3MHA-11 | 2026-09-01 06:01:50 | 47.81890 | 12.24253 | 101° | 80km/h | 7985m | -6.2m/s | -28.0°C | 47.2% | 373.6hPa | 2.6V | 00:00:00 | 01:32:40 | 00:00:00 | |
| DO3MHA-12 | 2026-09-01 06:01:49 | 47.81893 | 12.24222 | 100° | 80km/h | 7991m | -7.0m/s | -28.0°C | 47.0% | 373.3hPa | 2.6V | 00:00:00 | 01:32:39 | 00:00:00 | |
| OE5WHR-10 | 2026-09-01 06:01:48 | 47.81897 | 12.24191 | 99° | 78km/h | 7997m | -4.5m/s | -28.1°C | 47.1% | 373.0hPa | 2.6V | 02:28:00 | 00:00:00 | 00:00:00 | |
| BAUMI2-15 | 2026-09-01 06:01:44 | 47.81906 | 12.24072 | 95° | 78km/h | 8017m | -4.3m/s | -28.2°C | 48.1% | 372.0hPa | 2.7V | 02:28:00 | 01:32:34 | 00:00:00 | |
| PG1ADW-2 | 2026-09-01 06:01:43 | 47.81907 | 12.24042 | 96° | 77km/h | 8021m | -4.9m/s | -28.3°C | 48.5% | 371.7hPa | 2.6V | 02:28:00 | 01:32:33 | 00:00:00 | |
| OE5MMP-10 | 2026-09-01 06:01:42 | 47.81909 | 12.24013 | 96° | 78km/h | 8026m | -5.3m/s | -28.3°C | 48.2% | 371.5hPa | 2.6V | 02:28:00 | 01:32:32 | 00:00:00 | |
| DO3MHA-11 | 2026-09-01 06:01:40 | 47.81913 | 12.23954 | 96° | 78km/h | 8036m | -4.9m/s | -28.4°C | 47.4% | 371.1hPa | 2.7V | 02:28:00 | 01:32:30 | 00:00:00 | |
| DO3MHA-12 | 2026-09-01 06:01:39 | 47.81915 | 12.23925 | 97° | 78km/h | 8041m | -5.1m/s | -28.4°C | 47.1% | 370.8hPa | 2.7V | 02:28:00 | 01:32:29 | 00:00:00 | |
| OE5HKT-10 | 2026-09-01 06:01:37 | 47.81919 | 12.23867 | 97° | 77km/h | 8052m | -4.9m/s | -28.5°C | 47.0% | 370.2hPa | 2.6V | 00:00:00 | 00:00:00 | 00:00:00 | |
| IN3HCDX | 2026-09-01 06:01:33 | 47.81926 | 12.23779 | 98° | 78km/h | 8068m | -5.0m/s | -28.7°C | 43.1% | 369.5hPa | 2.6V | 00:00:00 | 00:00:00 | 00:00:00 | |
| DG1MJG | 2026-09-01 06:01:32 | 47.81932 | 12.23722 | 99° | 77km/h | 8078m | -5.3m/s | -28.7°C | 43.1% | 369.0hPa | 2.6V | 02:29:00 | 00:00:00 | 00:00:00 | |
| DO3MHA-11 | 2026-09-01 06:01:30 | 47.81938 | 12.23664 | 99° | 80km/h | 8088m | -4.8m/s | -28.8°C | 47.6% | 368.4hPa | 2.6V | 00:00:00 | 01:32:20 | 00:00:00 | |
| DB0NH | 2026-09-01 06:01:29 | 47.81940 | 12.23635 | 98° | 84km/h | 8093m | -4.8m/s | 0°C | 0% | 0hPa | 2.6V | 00:00:00 | 01:32:19 | 00:00:00 | |
| OE5WHR-10 | 2026-09-01 06:01:27 | 47.81944 | 12.23578 | 96° | 80km/h | 8103m | -5.3m/s | -28.9°C | 48.4% | 367.5hPa | 2.6V | 00:00:00 | 00:00:00 | 00:00:00 | |
| OE5DXL-15 | 2026-09-01 06:01:22 | 47.81951 | 12.23438 | 95° | 80km/h | 8128m | -5.4m/s | -29.2°C | 50.9% | 366.2hPa | 2.6V | 00:00:00 | 00:00:00 | 00:00:00 | |
| DL6DJ-15 | 2026-09-01 06:01:21 | 47.81954 | 12.23379 | 94° | 78km/h | 8139m | -5.1m/s | -29.3°C | 47.8% | 365.7hPa | 2.6V | 00:00:00 | 00:00:00 | 00:00:00 | |
| DG1MFX-10 | 2026-09-01 06:01:18 | 47.81956 | 12.23349 | 96° | 80km/h | 8145m | -5.2m/s | -29.3°C | 48.0% | 365.3hPa | 2.6V | 02:29:00 | 00:00:00 | 00:00:00 | |
| OE5HKT-10 | 2026-09-01 06:01:15 | 47.81965 | 12.23225 | 97° | 80km/h | 8165m | -5.8m/s | -29.5°C | 50.8% | 364.2hPa | 2.6V | 00:00:00 | 01:32:05 | 00:00:00 | |
| OE5MMP-10 | 2026-09-01 06:01:12 | 47.81972 | 12.23132 | 97° | 80km/h | 8180m | -4.7m/s | -29.6°C | 51.0% | 363.4hPa | 2.6V | 02:28:00 | 01:32:02 | 00:00:00 | |
| OE5DRO-10 | 2026-09-01 06:01:11 | 47.81974 | 12.23101 | 97° | 80km/h | 8184m | -5.4m/s | -29.7°C | 50.8% | 363.3hPa | 2.6V | 02:28:00 | 00:00:00 | 00:00:00 | |
| IN3HCDX | 2026-09-01 06:01:10 | 47.81974 | 12.23101 | 98° | 80km/h | 8184m | -5.4m/s | -29.7°C | 46.7% | 363.3hPa | 2.7V | 00:00:00 | 00:00:00 | 00:00:00 | |
| OE5WHR-10 | 2026-09-01 06:01:06 | 47.81988 | 12.22951 | 99° | 80km/h | 8210m | -4.2m/s | -29.9°C | 52.5% | 361.9hPa | 2.7V | 00:00:00 | 01:31:56 | 00:00:00 | |
| DO3MHA-11 | 2026-09-01 06:01:03 | 47.81998 | 12.22862 | 99° | 78km/h | 8225m | -5.3m/s | -30.1°C | 53.3% | 361.2hPa | 2.7V | 00:00:00 | 01:31:53 | 00:00:00 | |
| DL6DJ-15 | 2026-09-01 06:00:50 | 47.82028 | 12.22447 | 95° | 84km/h | 8297m | -5.4m/s | -30.8°C | 55.1% | 357.4hPa | 2.7V | 00:00:00 | 00:00:00 | 00:00:00 | |
| OE5WHR-10 | 2026-09-01 06:00:45 | 47.82037 | 12.22320 | 98° | 84km/h | 8320m | -5.6m/s | -30.9°C | 62.1% | 356.4hPa | 2.7V | 02:29:00 | 00:00:00 | 00:00:00 | |
| DO3MHA-11 | 2026-09-01 06:00:43 | 47.82042 | 12.22258 | 98° | 82km/h | 8329m | -5.9m/s | -31.0°C | 64.5% | 355.9hPa | 2.6V | 00:00:00 | 01:31:33 | 00:00:00 | |
| OE5MMP-10 | 2026-09-01 06:00:42 | 47.82045 | 12.22228 | 98° | 82km/h | 8335m | -5.5m/s | -31.1°C | 66.5% | 355.5hPa | 2.6V | 02:29:00 | 01:31:32 | 00:00:00 | |
| DG1MFX-10 | 2026-09-01 06:00:36 | 47.82056 | 12.22075 | 96° | 86km/h | 8373m | -11.0m/s | -31.4°C | 63.2% | 353.9hPa | 2.7V | 02:29:00 | 00:00:00 | 00:00:00 | |
| DO3MHA-11 | 2026-09-01 06:00:33 | 47.82064 | 12.21949 | 96° | 84km/h | 8416m | -10.0m/s | -31.7°C | 70.7% | 351.8hPa | 2.7V | 00:00:00 | 01:31:23 | 00:00:00 | |
| DO3MHA-12 | 2026-09-01 06:00:32 | 47.82066 | 12.21917 | 96° | 84km/h | 8425m | -10.0m/s | -31.8°C | 70.7% | 351.3hPa | 2.7V | 00:00:00 | 01:31:22 | 00:00:00 | |
| DG1MJG | 2026-09-01 06:00:31 | 47.82066 | 12.21917 | 96° | 86km/h | 8425m | -10.1m/s | -31.9°C | 65.2% | 351.4hPa | 2.7V | 02:29:00 | 00:00:00 | 00:00:00 | |
| OE5WHR-10 | 2026-09-01 06:00:24 | 47.82087 | 12.21668 | 98° | 84km/h | 8508m | -9.1m/s | -32.6°C | 74.9% | 347.1hPa | 2.7V | 00:00:00 | 00:00:00 | 00:00:00 | |
| DO3MHA-11 | 2026-09-01 06:00:23 | 47.82090 | 12.21637 | 98° | 84km/h | 8516m | -6.0m/s | -32.6°C | 76.5% | 346.7hPa | 2.7V | 02:29:00 | 01:31:13 | 00:00:00 | |
| OE5MMP-10 | 2026-09-01 06:00:22 | 47.82092 | 12.21606 | 98° | 84km/h | 8522m | -5.8m/s | -32.7°C | 76.7% | 346.4hPa | 2.6V | 00:00:00 | 01:31:12 | 00:00:00 | |
| NBG1-10 | 2026-09-01 06:00:19 | 47.82100 | 12.21510 | 97° | 86km/h | 8537m | -5.3m/s | -32.8°C | 77.4% | 345.6hPa | 2.6V | 02:29:00 | 01:31:09 | 00:00:00 | |
| DL6DJ-15 | 2026-09-01 06:00:18 | 47.82103 | 12.21478 | 96° | 86km/h | 8543m | -5.3m/s | -32.9°C | 71.2% | 345.4hPa | 2.6V | 00:00:00 | 00:00:00 | 00:00:00 | |
| DG1MFX-10 | 2026-09-01 06:00:15 | 47.82108 | 12.21414 | 97° | 86km/h | 8553m | -5.1m/s | -33.0°C | 70.3% | 344.9hPa | 2.6V | 02:29:00 | 00:00:00 | 00:00:00 | |
| OE5DRO-10 | 2026-09-01 06:00:14 | 47.82112 | 12.21352 | 97° | 86km/h | 8564m | -5.3m/s | -33.0°C | 74.0% | 344.4hPa | 2.6V | 02:29:00 | 00:00:00 | 00:00:00 | |
| DO3MHA-11 | 2026-09-01 06:00:13 | 47.82115 | 12.21321 | 98° | 84km/h | 8569m | -4.9m/s | -33.0°C | 72.6% | 344.0hPa | 2.7V | 00:00:00 | 01:31:03 | 00:00:00 | |
| DO3MHA-12 | 2026-09-01 06:00:12 | 47.82118 | 12.21290 | 99° | 84km/h | 8574m | -5.7m/s | -33.0°C | 71.0% | 343.8hPa | 2.7V | 02:29:00 | 01:31:02 | 00:00:00 | |
| DL6DJ-15 | 2026-09-01 05:59:47 | 47.82179 | 12.20485 | 96° | 86km/h | 8697m | -6.5m/s | -33.8°C | 59.6% | 337.9hPa | 2.6V | 00:00:00 | 00:00:00 | 00:00:00 | |
| NBG1-10 | 2026-09-01 05:59:46 | 47.82181 | 12.20453 | 96° | 86km/h | 8704m | -6.5m/s | -33.8°C | 65.6% | 337.6hPa | 2.6V | 00:00:00 | 01:30:36 | 00:00:00 | |
| DO3MHA-11 | 2026-09-01 05:59:43 | 47.82188 | 12.20357 | 96° | 86km/h | 8718m | -4.6m/s | -33.9°C | 65.5% | 336.8hPa | 2.6V | 00:00:00 | 01:30:33 | 00:00:00 | |
| OE5WHR-10 | 2026-09-01 05:59:42 | 47.82190 | 12.20325 | 96° | 86km/h | 8723m | -4.4m/s | -34.0°C | 65.2% | 336.6hPa | 2.6V | 02:30:00 | 00:00:00 | 00:00:00 | |
| BAUMI2-15 | 2026-09-01 05:59:38 | 47.82197 | 12.20197 | 95° | 88km/h | 8744m | -4.6m/s | -34.1°C | 63.7% | 335.5hPa | 2.6V | 00:00:00 | 01:30:28 | 00:00:00 | |
| OE5DRO-10 | 2026-09-01 05:59:36 | 47.82201 | 12.20132 | 96° | 86km/h | 8754m | -6.6m/s | -34.2°C | 63.2% | 335.1hPa | 2.6V | 00:00:00 | 00:00:00 | 00:00:00 | |
| DG1MFX-10 | 2026-09-01 05:59:35 | 47.82202 | 12.20132 | 97° | 88km/h | 8754m | -6.6m/s | -34.3°C | 57.7% | 335.1hPa | 2.6V | 02:30:00 | 00:00:00 | 00:00:00 | |
| DO3MHA-11 | 2026-09-01 05:59:33 | 47.82210 | 12.20034 | 99° | 84km/h | 8769m | -4.8m/s | -34.4°C | 64.1% | 334.4hPa | 2.6V | 00:00:00 | 01:30:23 | 00:00:00 | |
| DO3MHA-12 | 2026-09-01 05:59:32 | 47.82212 | 12.20002 | 98° | 84km/h | 8774m | -5.5m/s | -34.4°C | 64.5% | 334.1hPa | 2.6V | 00:00:00 | 01:30:22 | 00:00:00 | |
| DG1MJG | 2026-09-01 05:59:30 | 47.82215 | 12.19969 | 98° | 88km/h | 8779m | -4.5m/s | -34.5°C | 59.5% | 334.0hPa | 2.6V | 02:30:00 | 00:00:00 | 00:00:00 | |
| BAUMI2-15 | 2026-09-01 05:59:28 | 47.82223 | 12.19874 | 96° | 82km/h | 8793m | -4.5m/s | -34.6°C | 66.2% | 333.2hPa | 2.6V | 02:30:00 | 01:30:18 | 00:00:00 | |
| DO3MHA-11 | 2026-09-01 05:59:23 | 47.82230 | 12.19720 | 94° | 86km/h | 8819m | -6.3m/s | -34.8°C | 65.1% | 332.0hPa | 2.6V | 02:30:00 | 01:30:13 | 00:00:00 | |
| OE5DXL-15 | 2026-09-01 05:59:22 | 47.82232 | 12.19689 | 94° | 86km/h | 8825m | -5.7m/s | -34.9°C | 64.9% | 331.6hPa | 2.6V | 02:30:00 | 00:00:00 | 00:00:00 | |
| OE5WHR-10 | 2026-09-01 05:59:21 | 47.82233 | 12.19657 | 93° | 86km/h | 8831m | -6.0m/s | -34.9°C | 64.2% | 331.4hPa | 2.6V | 00:00:00 | 00:00:00 | 00:00:00 | |
| BAUMI2-15 | 2026-09-01 05:59:18 | 47.82235 | 12.19560 | 91° | 86km/h | 8850m | -6.9m/s | -35.0°C | 63.0% | 330.5hPa | 2.6V | 00:00:00 | 01:30:08 | 00:00:00 | |
| OE5DRO-10 | 2026-09-01 05:59:17 | 47.82235 | 12.19527 | 92° | 88km/h | 8856m | -5.2m/s | -35.1°C | 63.3% | 330.2hPa | 2.6V | 02:30:00 | 00:00:00 | 00:00:00 | |
| OE3JTB-15 | 2026-09-01 05:59:16 | 47.82236 | 12.19494 | 92° | 86km/h | 8861m | -6.4m/s | 0°C | 0% | 0hPa | 2.6V | 00:00:00 | 00:00:00 | 00:00:00 | |
| DG1MFX-10 | 2026-09-01 05:59:14 | 47.82236 | 12.19461 | 93° | 86km/h | 8867m | -5.5m/s | -35.2°C | 57.1% | 329.7hPa | 2.6V | 02:31:00 | 00:00:00 | 00:00:00 | |
| DO3MHA-11 | 2026-09-01 05:59:13 | 47.82239 | 12.19398 | 95° | 86km/h | 8877m | -5.5m/s | -35.1°C | 60.7% | 329.2hPa | 2.6V | 00:00:00 | 01:30:03 | 00:00:00 | |
| DO3MHA-12 | 2026-09-01 05:59:12 | 47.82240 | 12.19366 | 96° | 86km/h | 8882m | -5.3m/s | -35.1°C | 59.7% | 329.0hPa | 2.6V | 02:30:00 | 01:30:02 | 00:00:00 | |
| BAUMI2-15 | 2026-09-01 05:59:08 | 47.82250 | 12.19241 | 97° | 88km/h | 8903m | -4.8m/s | -35.2°C | 59.7% | 327.9hPa | 2.6V | 00:00:00 | 01:29:58 | 00:00:00 | |
| OE5HKT-10 | 2026-09-01 05:59:07 | 47.82253 | 12.19209 | 97° | 88km/h | 8907m | -4.3m/s | -35.3°C | 59.6% | 327.8hPa | 2.6V | 00:00:00 | 01:29:57 | 00:00:00 | |
| DO3MHA-11 | 2026-09-01 05:59:03 | 47.82260 | 12.19077 | 94° | 88km/h | 8926m | -5.7m/s | -35.4°C | 57.6% | 326.8hPa | 2.6V | 00:00:00 | 01:29:53 | 00:00:00 | |
| DB0ND-19 | 2026-09-01 05:58:57 | 47.82281 | 12.18652 | 93° | 86km/h | 9002m | -6.4m/s | -36.1°C | -1.0% | -1.0hPa | 2.6V | 00:00:00 | 00:00:00 | 00:00:00 | |
| DL6DJ-15 | 2026-09-01 05:58:45 | 47.82287 | 12.18490 | 92° | 86km/h | 9029m | -5.9m/s | -36.3°C | 52.5% | 322.1hPa | 2.6V | 00:00:00 | 00:00:00 | 00:00:00 | |
| DO3MHA-11 | 2026-09-01 05:58:43 | 47.82288 | 12.18424 | 92° | 86km/h | 9043m | -7.1m/s | -36.4°C | 59.1% | 321.5hPa | 2.6V | 00:00:00 | 01:29:33 | 00:00:00 | |
| DO3MHA-12 | 2026-09-01 05:58:42 | 47.82289 | 12.18391 | 92° | 86km/h | 9049m | -6.3m/s | -36.4°C | 60.2% | 321.2hPa | 2.6V | 02:31:00 | 01:29:32 | 00:00:00 | |
| NBG1-10 | 2026-09-01 05:58:40 | 47.82291 | 12.18325 | 93° | 86km/h | 9062m | -6.6m/s | -36.5°C | 60.6% | 320.6hPa | 2.7V | 02:31:00 | 01:29:30 | 00:00:00 | |
| OE5WHR-10 | 2026-09-01 05:58:39 | 47.82292 | 12.18292 | 92° | 86km/h | 9068m | -5.6m/s | -36.6°C | 61.0% | 320.4hPa | 2.6V | 02:31:00 | 00:00:00 | 00:00:00 | |
| BAUMI2-15 | 2026-09-01 05:58:38 | 47.82292 | 12.18260 | 92° | 86km/h | 9074m | -5.2m/s | -36.6°C | 61.1% | 320.1hPa | 2.7V | 00:00:00 | 01:29:28 | 00:00:00 | |
| DO3MHA-11 | 2026-09-01 05:58:33 | 47.82298 | 12.18100 | 94° | 86km/h | 9105m | -7.0m/s | -36.9°C | 60.1% | 318.7hPa | 2.7V | 00:00:00 | 01:29:23 | 00:00:00 | |
| DO3MHA-12 | 2026-09-01 05:58:32 | 47.82299 | 12.18068 | 95° | 86km/h | 9112m | -7.4m/s | -37.0°C | 60.4% | 318.4hPa | 2.7V | 00:00:00 | 01:29:22 | 00:00:00 | |
| DG1MJG | 2026-09-01 05:58:29 | 47.82303 | 12.18004 | 96° | 86km/h | 9125m | -6.7m/s | -37.2°C | 55.1% | 317.9hPa | 2.7V | 02:31:00 | 00:00:00 | 00:00:00 | |
| BAUMI2-15 | 2026-09-01 05:58:28 | 47.82306 | 12.17941 | 95° | 86km/h | 9138m | -6.4m/s | -37.2°C | 61.5% | 317.2hPa | 2.7V | 02:31:00 | 01:29:18 | 00:00:00 | |
| DB0ND-19 | 2026-09-01 05:58:26 | 47.82310 | 12.17846 | 90° | 84km/h | 9156m | -5.8m/s | 0°C | -1.0% | -1.0hPa | 2.6V | 00:00:00 | 00:00:00 | 00:00:00 | |
| OE5HKT-10 | 2026-09-01 05:58:25 | 47.82310 | 12.17846 | 91° | 84km/h | 9156m | -5.7m/s | -37.4°C | 62.1% | 316.3hPa | 2.6V | 00:00:00 | 00:00:00 | 00:00:00 | |
| DO3MHA-11 | 2026-09-01 05:58:23 | 47.82309 | 12.17781 | 90° | 88km/h | 9167m | -6.2m/s | -37.5°C | 62.6% | 315.7hPa | 2.6V | 02:31:00 | 01:29:13 | 00:00:00 | |
| OE5DXL-15 | 2026-09-01 05:58:22 | 47.82309 | 12.17748 | 90° | 84km/h | 9174m | -6.2m/s | -37.6°C | 63.0% | 315.5hPa | 2.7V | 00:00:00 | 00:00:00 | 00:00:00 | |
| OE5DRO-10 | 2026-09-01 05:58:20 | 47.82309 | 12.17682 | 91° | 84km/h | 9185m | -5.7m/s | -37.7°C | 63.7% | 315.0hPa | 2.7V | 02:31:00 | 00:00:00 | 00:00:00 | |
| OE5WHR-10 | 2026-09-01 05:58:18 | 47.82310 | 12.17617 | 92° | 84km/h | 9198m | -6.4m/s | -37.8°C | 64.1% | 314.4hPa | 2.6V | 00:00:00 | 00:00:00 | 00:00:00 | |
| DL6DJ-15 | 2026-09-01 05:58:14 | 47.82312 | 12.17487 | 91° | 86km/h | 9223m | -5.7m/s | -38.1°C | 59.1% | 313.3hPa | 2.6V | 00:00:00 | 00:00:00 | 00:00:00 | |
| DO3MHA-11 | 2026-09-01 05:58:13 | 47.82312 | 12.17454 | 91° | 82km/h | 9229m | -5.9m/s | -38.1°C | 65.9% | 313.0hPa | 2.6V | 00:00:00 | 01:29:03 | 00:00:00 | |
| OE5MMP-10 | 2026-09-01 05:58:12 | 47.82312 | 12.17422 | 91° | 82km/h | 9235m | -6.6m/s | -38.1°C | 65.9% | 312.7hPa | 2.6V | 02:31:00 | 01:29:02 | 00:00:00 | |
| DG1MFX-10 | 2026-09-01 05:58:11 | 47.82312 | 12.17422 | 91° | 86km/h | 9235m | -6.7m/s | -38.2°C | 59.5% | 312.8hPa | 2.7V | 02:32:00 | 00:00:00 | 00:00:00 | |
| BAUMI2-15 | 2026-09-01 05:58:08 | 47.82311 | 12.17298 | 89° | 80km/h | 9259m | -4.5m/s | -38.3°C | 65.3% | 311.6hPa | 2.7V | 00:00:00 | 01:28:58 | 00:00:00 | |
| NBG1-10 | 2026-09-01 05:58:07 | 47.82310 | 12.17268 | 89° | 86km/h | 9264m | -6.0m/s | -38.4°C | 65.3% | 311.4hPa | 2.7V | 00:00:00 | 01:28:57 | 00:00:00 | |
| OE5HKT-10 | 2026-09-01 05:58:04 | 47.82309 | 12.17179 | 90° | 86km/h | 9282m | -6.3m/s | -38.5°C | 64.8% | 310.6hPa | 2.7V | 00:00:00 | 01:28:54 | 00:00:00 | |
| DO3MHA-11 | 2026-09-01 05:58:03 | 47.82308 | 12.17148 | 90° | 86km/h | 9288m | -5.9m/s | -38.6°C | 65.2% | 310.3hPa | 2.7V | 00:00:00 | 01:28:53 | 00:00:00 | |
| DO3MHA-12 | 2026-09-01 05:58:02 | 47.82308 | 12.17116 | 90° | 86km/h | 9294m | -5.9m/s | -38.6°C | 65.1% | 310.1hPa | 2.7V | 00:00:00 | 01:28:52 | 00:00:00 | |
| OE5DRO-10 | 2026-09-01 05:58:01 | 47.82308 | 12.17084 | 90° | 86km/h | 9300m | -5.9m/s | -38.7°C | 65.4% | 309.7hPa | 2.7V | 00:00:00 | 00:00:00 | 00:00:00 | |
| DG1MJG | 2026-09-01 05:57:59 | 47.82307 | 12.17020 | 89° | 86km/h | 9313m | -5.6m/s | -38.9°C | 60.0% | 309.2hPa | 2.7V | 02:32:00 | 00:00:00 | 00:00:00 | |
| OE5WHR-10 | 2026-09-01 05:57:57 | 47.82306 | 12.16955 | 89° | 86km/h | 9324m | -6.6m/s | -38.9°C | 67.3% | 308.6hPa | 2.7V | 00:00:00 | 01:28:47 | 00:00:00 | |
| DO3MHA-11 | 2026-09-01 05:57:53 | 47.82304 | 12.16828 | 89° | 84km/h | 9349m | -6.1m/s | -39.1°C | 68.5% | 307.5hPa | 2.7V | 02:32:00 | 01:28:43 | 00:00:00 | |
| DO3MHA-12 | 2026-09-01 05:57:52 | 47.82303 | 12.16797 | 90° | 86km/h | 9356m | -6.5m/s | -39.2°C | 68.9% | 307.2hPa | 2.6V | 00:00:00 | 01:28:42 | 00:00:00 | |
| DG1MFX-10 | 2026-09-01 05:57:51 | 47.82303 | 12.16797 | 90° | 84km/h | 9356m | -6.5m/s | -39.3°C | 62.2% | 307.3hPa | 2.6V | 02:32:00 | 00:00:00 | 00:00:00 | |
| DO3MHA-11 | 2026-09-01 05:57:43 | 47.82294 | 12.16510 | 89° | 89km/h | 9409m | -6.4m/s | -39.7°C | 71.6% | 304.8hPa | 2.6V | 00:00:00 | 01:28:33 | 00:00:00 | |
| OE5MMP-10 | 2026-09-01 05:57:42 | 47.82293 | 12.16478 | 89° | 89km/h | 9415m | -6.1m/s | -39.7°C | 71.9% | 304.4hPa | 2.6V | 02:32:00 | 01:28:32 | 00:00:00 | |
| DB0UT-7 | 2026-09-01 05:57:41 | 47.82293 | 12.16445 | 89° | 91km/h | 9422m | -6.8m/s | -39.8°C | 71.9% | 304.2hPa | 2.6V | 00:00:00 | 00:00:00 | 00:00:00 | |
| OE3JTB-15 | 2026-09-01 05:57:38 | 47.82291 | 12.16345 | 89° | 89km/h | 9441m | -5.7m/s | 0°C | 0% | 0hPa | 2.6V | 00:00:00 | 01:28:28 | 00:00:00 | |
| OE5WHR-10 | 2026-09-01 05:57:36 | 47.82290 | 12.16278 | 88° | 93km/h | 9453m | -6.1m/s | -40.1°C | 70.7% | 302.8hPa | 2.6V | 02:32:00 | 00:00:00 | 00:00:00 | |
| NBG1-10 | 2026-09-01 05:57:34 | 47.82288 | 12.16211 | 88° | 91km/h | 9467m | -7.9m/s | -40.2°C | 69.3% | 302.2hPa | 2.6V | 00:00:00 | 01:28:24 | 00:00:00 | |
| DO3MHA-11 | 2026-09-01 05:57:33 | 47.82287 | 12.16178 | 87° | 89km/h | 9474m | -6.4m/s | -40.2°C | 68.9% | 301.9hPa | 2.6V | 00:00:00 | 01:28:23 | 00:00:00 | |
| DO3MHA-12 | 2026-09-01 05:57:32 | 47.82286 | 12.16144 | 88° | 91km/h | 9480m | -6.9m/s | -40.3°C | 67.6% | 301.6hPa | 2.6V | 00:00:00 | 01:28:22 | 00:00:00 | |
| DG1MFX-10 | 2026-09-01 05:57:30 | 47.82285 | 12.16111 | 89° | 89km/h | 9488m | -8.8m/s | -40.4°C | 59.3% | 301.3hPa | 2.6V | 02:33:00 | 00:00:00 | 00:00:00 | |
| DG1MJG | 2026-09-01 05:57:28 | 47.82283 | 12.16045 | 90° | 88km/h | 9502m | -6.9m/s | -40.4°C | 56.4% | 300.7hPa | 2.6V | 02:33:00 | 00:00:00 | 00:00:00 | |
| DO3MHA-11 | 2026-09-01 05:57:23 | 47.82288 | 12.15838 | 94° | 95km/h | 9541m | -6.2m/s | -40.5°C | 56.6% | 299.0hPa | 2.6V | 02:32:00 | 01:28:13 | 00:00:00 | |
| OE5DXL-15 | 2026-09-01 05:57:22 | 47.82289 | 12.15801 | 94° | 93km/h | 9547m | -6.4m/s | -40.5°C | 56.3% | 298.6hPa | 2.6V | 00:00:00 | 00:00:00 | 00:00:00 | |
| OE5HKT-10 | 2026-09-01 05:57:17 | 47.82290 | 12.15616 | 89° | 91km/h | 9577m | -5.5m/s | -40.7°C | 53.3% | 297.3hPa | 2.6V | 00:00:00 | 00:00:00 | 00:00:00 | |
| OE5WHR-10 | 2026-09-01 05:57:15 | 47.82289 | 12.15549 | 89° | 91km/h | 9588m | -5.7m/s | -40.7°C | 51.1% | 296.8hPa | 2.6V | 00:00:00 | 00:00:00 | 00:00:00 | |
| DO3MHA-11 | 2026-09-01 05:57:13 | 47.82288 | 12.15483 | 90° | 91km/h | 9601m | -7.3m/s | -40.8°C | 49.0% | 296.3hPa | 2.6V | 00:00:00 | 01:28:03 | 00:00:00 | |
| DO3MHA-12 | 2026-09-01 05:57:12 | 47.82288 | 12.15449 | 89° | 91km/h | 9608m | -6.7m/s | -40.8°C | 48.6% | 296.0hPa | 2.6V | 02:32:00 | 01:28:02 | 00:00:00 | |
| DB0UT-7 | 2026-09-01 05:57:11 | 47.82287 | 12.15416 | 89° | 91km/h | 9615m | -6.1m/s | -40.8°C | 47.6% | 295.7hPa | 2.6V | 02:32:00 | 01:28:01 | 00:00:00 | |
| DG1MFX-10 | 2026-09-01 05:57:09 | 47.82287 | 12.15382 | 90° | 89km/h | 9621m | -6.3m/s | -40.8°C | 40.9% | 295.5hPa | 2.6V | 02:33:00 | 00:00:00 | 00:00:00 | |
| OE5DRO-10 | 2026-09-01 05:57:04 | 47.82288 | 12.15173 | 91° | 93km/h | 9666m | -6.3m/s | -41.0°C | 43.0% | 293.6hPa | 2.6V | 00:00:00 | 00:00:00 | 00:00:00 | |
| DO3MHA-12 | 2026-09-01 05:57:02 | 47.82288 | 12.15104 | 91° | 93km/h | 9679m | -6.3m/s | -41.1°C | 42.7% | 293.0hPa | 2.6V | 00:00:00 | 01:27:52 | 00:00:00 | |
| NBG1-10 | 2026-09-01 05:57:01 | 47.82288 | 12.15069 | 90° | 93km/h | 9686m | -7.5m/s | -41.2°C | 42.8% | 292.8hPa | 2.6V | 02:33:00 | 01:27:51 | 00:00:00 | |
| DG1MJG | 2026-09-01 05:56:57 | 47.82288 | 12.14965 | 91° | 95km/h | 9706m | -6.4m/s | -41.4°C | 38.5% | 292.0hPa | 2.6V | 02:33:00 | 00:00:00 | 00:00:00 | |
| OE5HKT-10 | 2026-09-01 05:56:56 | 47.82289 | 12.14894 | 93° | 91km/h | 9719m | -7.3m/s | -41.4°C | 44.0% | 291.4hPa | 2.6V | 00:00:00 | 01:27:46 | 00:00:00 | |
| OE5WHR-10 | 2026-09-01 05:56:54 | 47.82290 | 12.14823 | 92° | 93km/h | 9732m | -6.3m/s | -41.5°C | 44.5% | 290.8hPa | 2.6V | 00:00:00 | 01:27:44 | 00:00:00 | |
| DO3MHA-11 | 2026-09-01 05:56:53 | 47.82291 | 12.14788 | 91° | 91km/h | 9738m | -5.2m/s | -41.6°C | 44.8% | 290.5hPa | 2.6V | 02:33:00 | 01:27:43 | 00:00:00 | |
| OE5MMP-10 | 2026-09-01 05:56:52 | 47.82291 | 12.14753 | 91° | 91km/h | 9745m | -8.4m/s | -41.6°C | 44.8% | 290.2hPa | 2.7V | 00:00:00 | 01:27:42 | 00:00:00 | |
| DG1MFX-10 | 2026-09-01 05:56:49 | 47.82292 | 12.14684 | 92° | 91km/h | 9759m | -7.4m/s | -41.8°C | 39.3% | 289.7hPa | 2.7V | 02:33:00 | 00:00:00 | 00:00:00 | |
| OE5DRO-10 | 2026-09-01 05:56:45 | 47.82295 | 12.14514 | 92° | 93km/h | 9791m | -6.2m/s | -42.0°C | 44.6% | 288.2hPa | 2.7V | 00:00:00 | 00:00:00 | 00:00:00 | |
| DO3MHA-11 | 2026-09-01 05:56:43 | 47.82295 | 12.14448 | 91° | 93km/h | 9804m | -6.9m/s | -42.2°C | 44.9% | 287.7hPa | 2.7V | 00:00:00 | 01:27:33 | 00:00:00 | |
| OE5MMP-10 | 2026-09-01 05:56:42 | 47.82295 | 12.14414 | 90° | 95km/h | 9811m | -6.1m/s | -42.2°C | 45.0% | 287.4hPa | 2.7V | 02:33:00 | 01:27:32 | 00:00:00 | |
| DB0UT-7 | 2026-09-01 05:56:41 | 47.82295 | 12.14380 | 90° | 93km/h | 9817m | -6.4m/s | -42.3°C | 45.0% | 287.2hPa | 2.6V | 00:00:00 | 00:00:00 | 00:00:00 | |
| OE5HKT-10 | 2026-09-01 05:56:35 | 47.82297 | 12.14166 | 91° | 93km/h | 9853m | -5.3m/s | -42.6°C | 45.3% | 285.6hPa | 2.6V | 02:33:00 | 00:00:00 | 00:00:00 | |
| DO3MHA-11 | 2026-09-01 05:56:33 | 47.82297 | 12.14094 | 90° | 93km/h | 9864m | -6.2m/s | -42.8°C | 45.3% | 285.2hPa | 2.6V | 00:00:00 | 01:27:23 | 00:00:00 | |
| DO3MHA-12 | 2026-09-01 05:56:32 | 47.82297 | 12.14058 | 90° | 93km/h | 9870m | -6.6m/s | -42.8°C | 45.4% | 284.9hPa | 2.6V | 00:00:00 | 01:27:22 | 00:00:00 | |
| NBG1-10 | 2026-09-01 05:56:28 | 47.82297 | 12.13918 | 91° | 93km/h | 9894m | -4.3m/s | -43.0°C | 47.3% | 283.9hPa | 2.6V | 00:00:00 | 01:27:18 | 00:00:00 | |
| OE5DRO-10 | 2026-09-01 05:56:26 | 47.82297 | 12.13848 | 91° | 93km/h | 9903m | -5.2m/s | -43.0°C | 47.6% | 283.5hPa | 2.6V | 02:33:00 | 00:00:00 | 00:00:00 | |
| DO3MHA-11 | 2026-09-01 05:56:23 | 47.82298 | 12.13744 | 91° | 93km/h | 9917m | -5.6m/s | -43.2°C | 47.9% | 282.9hPa | 2.6V | 02:33:00 | 01:27:13 | 00:00:00 | |
| OE5DXL-15 | 2026-09-01 05:56:22 | 47.82299 | 12.13710 | 91° | 95km/h | 9922m | -5.2m/s | -43.2°C | 48.0% | 282.7hPa | 2.7V | 02:33:00 | 00:00:00 | 00:00:00 | |
| OE5HKT-10 | 2026-09-01 05:56:14 | 47.82296 | 12.13427 | 90° | 95km/h | 9966m | -5.3m/s | -43.6°C | 50.2% | 280.8hPa | 2.6V | 00:00:00 | 00:00:00 | 00:00:00 | |
| DO3MHA-11 | 2026-09-01 05:56:13 | 47.82296 | 12.13392 | 91° | 93km/h | 9971m | -5.0m/s | -43.7°C | 50.3% | 280.6hPa | 2.6V | 00:00:00 | 01:27:03 | 00:00:00 | |
| OE5WHR-10 | 2026-09-01 05:56:12 | 47.82296 | 12.13356 | 91° | 95km/h | 9976m | -5.3m/s | -43.7°C | 49.8% | 280.4hPa | 2.6V | 00:00:00 | 00:00:00 | 00:00:00 | |
| DB0UT-7 | 2026-09-01 05:56:11 | 47.82297 | 12.13321 | 92° | 95km/h | 9982m | -6.6m/s | -43.8°C | 50.3% | 280.2hPa | 2.6V | 00:00:00 | 01:27:01 | 00:00:00 | |
| DL6DJ-15 | 2026-09-01 05:56:10 | 47.82297 | 12.13286 | 91° | 93km/h | 9988m | -5.3m/s | -43.9°C | 44.2% | 280.0hPa | 2.6V | 00:00:00 | 00:00:00 | 00:00:00 | |
| OE5DRO-10 | 2026-09-01 05:56:07 | 47.82299 | 12.13180 | 92° | 95km/h | 10004m | -5.3m/s | -44.0°C | 51.2% | 279.2hPa | 2.6V | 00:00:00 | 00:00:00 | 00:00:00 | |
| DO3MHA-11 | 2026-09-01 05:56:03 | 47.82301 | 12.13041 | 92° | 95km/h | 10025m | -5.3m/s | -44.2°C | 51.0% | 278.4hPa | 2.6V | 00:00:00 | 01:26:53 | 00:00:00 | |
| DO3MHA-12 | 2026-09-01 05:56:02 | 47.82302 | 12.13006 | 92° | 97km/h | 10031m | -5.4m/s | -44.2°C | 51.5% | 278.2hPa | 2.6V | 00:00:00 | 01:26:52 | 00:00:00 | |
| DG1MJG | 2026-09-01 05:55:56 | 47.82305 | 12.12791 | 93° | 97km/h | 10064m | -5.0m/s | -44.5°C | 44.4% | 276.8hPa | 2.6V | 02:34:00 | 00:00:00 | 00:00:00 | |
| DO3MHA-11 | 2026-09-01 05:55:53 | 47.82308 | 12.12682 | 93° | 97km/h | 10080m | -5.6m/s | -44.6°C | 50.6% | 276.2hPa | 2.6V | 02:34:00 | 01:26:43 | 00:00:00 | |
| DO3MHA-12 | 2026-09-01 05:55:52 | 47.82309 | 12.12645 | 93° | 97km/h | 10085m | -5.2m/s | -44.7°C | 50.5% | 275.9hPa | 2.6V | 00:00:00 | 01:26:42 | 00:00:00 | |
| OE5WHR-10 | 2026-09-01 05:55:51 | 47.82310 | 12.12609 | 93° | 99km/h | 10091m | -5.9m/s | -44.7°C | 50.2% | 275.7hPa | 2.6V | 00:00:00 | 01:26:41 | 00:00:00 | |
| OE5DRO-10 | 2026-09-01 05:55:48 | 47.82313 | 12.12501 | 92° | 99km/h | 10108m | -5.3m/s | -44.8°C | 49.7% | 275.0hPa | 2.6V | 00:00:00 | 00:00:00 | 00:00:00 | |
| DG1MFX-10 | 2026-09-01 05:55:47 | 47.82313 | 12.12501 | 93° | 97km/h | 10108m | -5.4m/s | -44.9°C | 43.3% | 275.0hPa | 2.6V | 02:35:00 | 00:00:00 | 00:00:00 | |
| DO3MHA-11 | 2026-09-01 05:55:43 | 47.82316 | 12.12319 | 91° | 99km/h | 10135m | -5.5m/s | -45.0°C | 49.0% | 273.9hPa | 2.6V | 00:00:00 | 01:26:33 | 00:00:00 | |
| DO3MHA-12 | 2026-09-01 05:55:42 | 47.82316 | 12.12281 | 91° | 99km/h | 10140m | -5.1m/s | -45.1°C | 49.5% | 273.6hPa | 2.6V | 02:34:00 | 01:26:32 | 00:00:00 | |
| DB0UT-7 | 2026-09-01 05:55:41 | 47.82316 | 12.12243 | 91° | 99km/h | 10146m | -5.6m/s | -45.1°C | 49.5% | 273.4hPa | 2.7V | 02:34:00 | 00:00:00 | 00:00:00 | |
| DL6DJ-15 | 2026-09-01 05:55:39 | 47.82317 | 12.12130 | 90° | 100km/h | 10161m | -4.9m/s | -45.3°C | 43.4% | 272.8hPa | 2.7V | 00:00:00 | 00:00:00 | 00:00:00 | |
| BAUMI2-15 | 2026-09-01 05:55:34 | 47.82317 | 12.11982 | 91° | 95km/h | 10184m | -6.1m/s | -45.4°C | 49.8% | 271.8hPa | 2.7V | 00:00:00 | 01:26:24 | 00:00:00 | |
| DO3MHA-11 | 2026-09-01 05:55:33 | 47.82316 | 12.11946 | 90° | 97km/h | 10190m | -5.8m/s | -45.5°C | 49.2% | 271.6hPa | 2.7V | 00:00:00 | 01:26:23 | 00:00:00 | |
| OE5MMP-10 | 2026-09-01 05:55:32 | 47.82316 | 12.11910 | 90° | 97km/h | 10196m | -5.6m/s | -45.5°C | 49.1% | 271.4hPa | 2.7V | 00:00:00 | 01:26:22 | 00:00:00 | |
| OE5WHR-10 | 2026-09-01 05:55:30 | 47.82316 | 12.11838 | 90° | 97km/h | 10210m | -7.2m/s | -45.6°C | 49.0% | 270.9hPa | 2.7V | 02:34:00 | 00:00:00 | 00:00:00 | |
| BAUMI2-15 | 2026-09-01 05:55:29 | 47.82316 | 12.11802 | 90° | 97km/h | 10217m | -7.3m/s | -45.7°C | 49.2% | 270.6hPa | 2.6V | 00:00:00 | 01:26:19 | 00:00:00 | |
| DG1MFX-10 | 2026-09-01 05:55:27 | 47.82315 | 12.11766 | 91° | 97km/h | 10224m | -7.4m/s | -45.8°C | 43.0% | 270.3hPa | 2.6V | 02:35:00 | 00:00:00 | 00:00:00 | |
| DG1MJG | 2026-09-01 05:55:25 | 47.82315 | 12.11693 | 91° | 97km/h | 10238m | -6.5m/s | -45.9°C | 43.6% | 269.7hPa | 2.6V | 02:35:00 | 00:00:00 | 00:00:00 | |
| BAUMI2-15 | 2026-09-01 05:55:24 | 47.82316 | 12.11619 | 91° | 100km/h | 10250m | -6.2m/s | -46.0°C | 50.7% | 269.2hPa | 2.6V | 02:34:00 | 01:26:14 | 00:00:00 | |
| DO3MHA-11 | 2026-09-01 05:55:23 | 47.82316 | 12.11582 | 91° | 99km/h | 10256m | -5.5m/s | -46.0°C | 50.6% | 269.0hPa | 2.6V | 02:34:00 | 01:26:13 | 00:00:00 | |
| DO3MHA-12 | 2026-09-01 05:55:22 | 47.82316 | 12.11544 | 91° | 97km/h | 10261m | -5.0m/s | -46.0°C | 50.6% | 268.7hPa | 2.6V | 00:00:00 | 01:26:12 | 00:00:00 | |
| BAUMI2-15 | 2026-09-01 05:55:19 | 47.82317 | 12.11432 | 91° | 97km/h | 10279m | -5.6m/s | -46.2°C | 51.8% | 268.0hPa | 2.6V | 00:00:00 | 01:26:09 | 00:00:00 | |
| BAUMI2-15 | 2026-09-01 05:55:14 | 47.82318 | 12.11251 | 90° | 97km/h | 10305m | -5.3m/s | -46.5°C | 52.5% | 266.9hPa | 2.6V | 00:00:00 | 01:26:04 | 00:00:00 | |
| DO3MHA-11 | 2026-09-01 05:55:13 | 47.82318 | 12.11215 | 90° | 99km/h | 10310m | -5.2m/s | -46.5°C | 52.7% | 266.7hPa | 2.6V | 00:00:00 | 01:26:03 | 00:00:00 | |
| DO3MHA-12 | 2026-09-01 05:55:12 | 47.82317 | 12.11178 | 89° | 99km/h | 10316m | -5.9m/s | -46.6°C | 52.7% | 266.5hPa | 2.6V | 02:34:00 | 01:26:02 | 00:00:00 | |
| DB0UT-7 | 2026-09-01 05:55:11 | 47.82317 | 12.11141 | 90° | 99km/h | 10322m | -6.5m/s | -46.6°C | 52.6% | 266.3hPa | 2.6V | 00:00:00 | 01:26:01 | 00:00:00 | |
| OE5WHR-10 | 2026-09-01 05:55:09 | 47.82316 | 12.11068 | 90° | 99km/h | 10334m | -4.9m/s | -46.7°C | 54.1% | 265.8hPa | 2.6V | 00:00:00 | 00:00:00 | 00:00:00 | |
| DG1MFX-10 | 2026-09-01 05:55:07 | 47.82316 | 12.11030 | 91° | 99km/h | 10339m | -5.6m/s | -46.8°C | 47.1% | 265.6hPa | 2.6V | 02:35:00 | 00:00:00 | 00:00:00 | |
| BAUMI2-15 | 2026-09-01 05:55:04 | 47.82318 | 12.10882 | 92° | 99km/h | 10359m | -4.9m/s | -47.0°C | 55.0% | 264.8hPa | 2.6V | 00:00:00 | 01:25:54 | 00:00:00 | |
| DO3MHA-11 | 2026-09-01 05:55:03 | 47.82319 | 12.10844 | 93° | 99km/h | 10364m | -5.1m/s | -47.0°C | 55.2% | 264.6hPa | 2.6V | 00:00:00 | 01:25:53 | 00:00:00 | |
| DO3MHA-12 | 2026-09-01 05:55:02 | 47.82320 | 12.10807 | 93° | 99km/h | 10370m | -5.2m/s | -47.1°C | 55.2% | 264.3hPa | 2.6V | 00:00:00 | 01:25:52 | 00:00:00 | |
| BAUMI2-15 | 2026-09-01 05:54:59 | 47.82323 | 12.10697 | 92° | 97km/h | 10386m | -5.1m/s | -47.2°C | 55.4% | 263.7hPa | 2.6V | 00:00:00 | 01:25:49 | 00:00:00 | |
| BAUMI2-15 | 2026-09-01 05:54:54 | 47.82322 | 12.10514 | 89° | 99km/h | 10413m | -5.2m/s | -47.5°C | 56.5% | 262.6hPa | 2.6V | 02:35:00 | 01:25:44 | 00:00:00 | |
| DO3MHA-11 | 2026-09-01 05:54:53 | 47.82322 | 12.10477 | 89° | 99km/h | 10419m | -5.6m/s | -47.5°C | 56.3% | 262.4hPa | 2.6V | 02:35:00 | 01:25:43 | 00:00:00 | |
| OE5MMP-10 | 2026-09-01 05:54:52 | 47.82321 | 12.10440 | 90° | 99km/h | 10424m | -5.1m/s | -47.6°C | 56.4% | 262.2hPa | 2.6V | 00:00:00 | 01:25:42 | 00:00:00 | |
| OE5HKT-10 | 2026-09-01 05:54:51 | 47.82321 | 12.10403 | 91° | 97km/h | 10429m | -5.4m/s | -47.6°C | 56.7% | 261.9hPa | 2.6V | 00:00:00 | 00:00:00 | 00:00:00 | |
| BAUMI2-15 | 2026-09-01 05:54:49 | 47.82322 | 12.10327 | 92° | 99km/h | 10440m | -5.0m/s | -47.7°C | 57.1% | 261.5hPa | 2.6V | 00:00:00 | 01:25:39 | 00:00:00 | |
| OE5WHR-10 | 2026-09-01 05:54:48 | 47.82323 | 12.10290 | 93° | 97km/h | 10445m | -5.9m/s | -47.8°C | 56.9% | 261.3hPa | 2.6V | 00:00:00 | 01:25:38 | 00:00:00 | |
| DG1MFX-10 | 2026-09-01 05:54:46 | 47.82324 | 12.10253 | 94° | 99km/h | 10451m | -5.4m/s | -47.9°C | 49.8% | 261.2hPa | 2.6V | 02:35:00 | 00:00:00 | 00:00:00 | |
| BAUMI2-15 | 2026-09-01 05:54:44 | 47.82328 | 12.10143 | 92° | 97km/h | 10467m | -6.5m/s | -48.0°C | 57.1% | 260.5hPa | 2.6V | 00:00:00 | 01:25:34 | 00:00:00 | |
| DO3MHA-11 | 2026-09-01 05:54:43 | 47.82328 | 12.10107 | 92° | 97km/h | 10473m | -5.5m/s | -48.1°C | 57.1% | 260.2hPa | 2.6V | 00:00:00 | 01:25:33 | 00:00:00 | |
| OE5MMP-10 | 2026-09-01 05:54:42 | 47.82329 | 12.10071 | 91° | 97km/h | 10479m | -6.3m/s | -48.1°C | 56.8% | 260.1hPa | 2.6V | 02:35:00 | 01:25:32 | 00:00:00 | |
| DB0UT-7 | 2026-09-01 05:54:41 | 47.82329 | 12.10034 | 90° | 95km/h | 10485m | -5.6m/s | -48.2°C | 56.3% | 259.8hPa | 2.6V | 00:00:00 | 00:00:00 | 00:00:00 | |
| BAUMI2-15 | 2026-09-01 05:54:39 | 47.82329 | 12.09962 | 90° | 97km/h | 10497m | -5.7m/s | -48.3°C | 56.3% | 259.3hPa | 2.6V | 02:35:00 | 01:25:29 | 00:00:00 | |
| DL6DJ-15 | 2026-09-01 05:54:37 | 47.82329 | 12.09854 | 91° | 95km/h | 10515m | -5.6m/s | -48.5°C | 47.3% | 258.7hPa | 2.6V | 00:00:00 | 00:00:00 | 00:00:00 | |
| BAUMI2-15 | 2026-09-01 05:54:34 | 47.82330 | 12.09781 | 92° | 97km/h | 10527m | -5.7m/s | -48.5°C | 52.9% | 258.2hPa | 2.6V | 00:00:00 | 01:25:24 | 00:00:00 | |
| DO3MHA-11 | 2026-09-01 05:54:33 | 47.82332 | 12.09745 | 94° | 97km/h | 10533m | -6.1m/s | -48.5°C | 52.8% | 257.9hPa | 2.6V | 00:00:00 | 01:25:23 | 00:00:00 | |
| DO3MHA-12 | 2026-09-01 05:54:32 | 47.82333 | 12.09708 | 94° | 97km/h | 10539m | -6.2m/s | -48.5°C | 52.8% | 257.6hPa | 2.6V | 00:00:00 | 01:25:22 | 00:00:00 | |
| OE5HKT-10 | 2026-09-01 05:54:30 | 47.82336 | 12.09635 | 94° | 93km/h | 10553m | -6.0m/s | -48.7°C | 53.2% | 257.1hPa | 2.6V | 00:00:00 | 01:25:20 | 00:00:00 | |
| BAUMI2-15 | 2026-09-01 05:54:29 | 47.82337 | 12.09599 | 93° | 97km/h | 10559m | -6.0m/s | -48.7°C | 52.8% | 256.9hPa | 2.6V | 00:00:00 | 01:25:19 | 00:00:00 | |
| OE5WHR-10 | 2026-09-01 05:54:27 | 47.82340 | 12.09527 | 94° | 93km/h | 10573m | -5.5m/s | -48.8°C | 53.3% | 256.3hPa | 2.6V | 02:35:00 | 00:00:00 | 00:00:00 | |
| DG1MFX-10 | 2026-09-01 05:54:26 | 47.82340 | 12.09527 | 95° | 97km/h | 10573m | -5.5m/s | -48.9°C | 45.8% | 256.4hPa | 2.6V | 02:35:00 | 00:00:00 | 00:00:00 | |
| BAUMI2-15 | 2026-09-01 05:54:24 | 47.82345 | 12.09419 | 96° | 95km/h | 10590m | -5.8m/s | -49.0°C | 53.5% | 255.6hPa | 2.6V | 02:35:00 | 01:25:14 | 00:00:00 | |
| DH7VM-15 | 2026-09-01 05:54:23 | 47.82345 | 12.09419 | 96° | 95km/h | 10590m | -5.9m/s | -49.0°C | 45.9% | 255.7hPa | 2.7V | 00:00:00 | 00:00:00 | 00:00:00 | |
| OE5DXL-15 | 2026-09-01 05:54:22 | 47.82350 | 12.09347 | 95° | 91km/h | 10602m | -5.5m/s | -49.1°C | 53.4% | 255.2hPa | 2.7V | 00:00:00 | 00:00:00 | 00:00:00 | |
| DO3MHA-11 | 2026-09-01 05:54:20 | 47.82353 | 12.09276 | 95° | 89km/h | 10614m | -5.9m/s | -49.2°C | 52.7% | 254.7hPa | 2.7V | 02:35:00 | 01:25:10 | 00:00:00 | |
| BAUMI2-15 | 2026-09-01 05:54:19 | 47.82355 | 12.09241 | 94° | 91km/h | 10620m | -6.2m/s | -49.2°C | 52.6% | 254.5hPa | 2.6V | 00:00:00 | 01:25:09 | 00:00:00 | |
| NBG1-10 | 2026-09-01 05:54:16 | 47.82359 | 12.09138 | 94° | 89km/h | 10637m | -5.5m/s | -49.4°C | 51.3% | 253.8hPa | 2.6V | 00:00:00 | 01:25:06 | 00:00:00 | |
| BAUMI2-15 | 2026-09-01 05:54:14 | 47.82362 | 12.09071 | 96° | 88km/h | 10649m | -6.0m/s | -49.5°C | 50.5% | 253.4hPa | 2.6V | 00:00:00 | 01:25:04 | 00:00:00 | |
| OE5DRO-10 | 2026-09-01 05:54:13 | 47.82364 | 12.09038 | 96° | 89km/h | 10655m | -5.9m/s | -49.5°C | 49.8% | 253.1hPa | 2.6V | 00:00:00 | 00:00:00 | 00:00:00 | |
| OE5MMP-10 | 2026-09-01 05:54:12 | 47.82367 | 12.09006 | 97° | 93km/h | 10662m | -8.0m/s | -49.6°C | 49.2% | 253.0hPa | 2.6V | 02:35:00 | 01:25:02 | 00:00:00 | |
| DB0UT-7 | 2026-09-01 05:54:11 | 47.82369 | 12.08973 | 97° | 89km/h | 10669m | -6.6m/s | -49.6°C | 49.3% | 252.6hPa | 2.7V | 02:35:00 | 01:25:01 | 00:00:00 | |
| DO3MHA-11 | 2026-09-01 05:54:10 | 47.82372 | 12.08939 | 98° | 93km/h | 10676m | -5.5m/s | -49.6°C | 49.2% | 252.4hPa | 2.6V | 00:00:00 | 01:25:00 | 00:00:00 | |
| OE5HKT-10 | 2026-09-01 05:54:09 | 47.82375 | 12.08905 | 98° | 89km/h | 10681m | -4.9m/s | -49.6°C | 48.9% | 252.1hPa | 2.6V | 02:35:00 | 00:00:00 | 00:00:00 | |
| DL6DJ-15 | 2026-09-01 05:54:06 | 47.82387 | 12.08765 | 97° | 95km/h | 10705m | -6.3m/s | -49.8°C | 40.1% | 251.3hPa | 2.7V | 00:00:00 | 00:00:00 | 00:00:00 | |
| BAUMI2-15 | 2026-09-01 05:54:04 | 47.82390 | 12.08730 | 98° | 91km/h | 10712m | -5.9m/s | -49.8°C | 47.1% | 251.0hPa | 2.7V | 00:00:00 | 01:24:54 | 00:00:00 | |
| OE5MMP-10 | 2026-09-01 05:54:02 | 47.82397 | 12.08660 | 97° | 88km/h | 10723m | -5.9m/s | -49.9°C | 46.2% | 250.6hPa | 2.7V | 00:00:00 | 01:24:52 | 00:00:00 | |
| DO3MHA-11 | 2026-09-01 05:54:00 | 47.82401 | 12.08592 | 96° | 86km/h | 10735m | -6.2m/s | -50.0°C | 45.1% | 250.1hPa | 2.7V | 00:00:00 | 01:24:50 | 00:00:00 | |
| BAUMI2-15 | 2026-09-01 05:53:59 | 47.82404 | 12.08559 | 96° | 86km/h | 10741m | -5.8m/s | -50.0°C | 44.5% | 249.8hPa | 2.7V | 00:00:00 | 01:24:49 | 00:00:00 | |
| OE5DRO-10 | 2026-09-01 05:53:54 | 47.82414 | 12.08399 | 97° | 86km/h | 10772m | -5.8m/s | -50.2°C | 43.0% | 248.6hPa | 2.7V | 00:00:00 | 00:00:00 | 00:00:00 | |
| OE5DXL-15 | 2026-09-01 05:53:52 | 47.82419 | 12.08335 | 97° | 86km/h | 10783m | -6.5m/s | -50.2°C | 42.0% | 248.2hPa | 2.7V | 00:00:00 | 00:00:00 | 00:00:00 | |
| DO3MHA-11 | 2026-09-01 05:53:50 | 47.82425 | 12.08269 | 98° | 88km/h | 10796m | -6.2m/s | -50.3°C | 42.3% | 247.7hPa | 2.7V | 02:36:00 | 01:24:40 | 00:00:00 | |
| BAUMI2-15 | 2026-09-01 05:53:49 | 47.82427 | 12.08235 | 98° | 91km/h | 10802m | -6.4m/s | -50.4°C | 42.4% | 247.5hPa | 2.6V | 00:00:00 | 01:24:39 | 00:00:00 | |
| OE5HKT-10 | 2026-09-01 05:53:48 | 47.82430 | 12.08201 | 97° | 84km/h | 10809m | -6.3m/s | -50.4°C | 42.0% | 247.3hPa | 2.6V | 00:00:00 | 00:00:00 | 00:00:00 | |
| DG1MFX-10 | 2026-09-01 05:53:46 | 47.82433 | 12.08168 | 98° | 91km/h | 10815m | -5.7m/s | -50.5°C | 35.0% | 247.1hPa | 2.6V | 02:36:00 | 00:00:00 | 00:00:00 | |
| OE5WHR-10 | 2026-09-01 05:53:45 | 47.82438 | 12.08100 | 97° | 84km/h | 10827m | -6.2m/s | -50.5°C | 40.9% | 246.5hPa | 2.6V | 00:00:00 | 01:24:35 | 00:00:00 | |
| BAUMI2-15 | 2026-09-01 05:53:44 | 47.82441 | 12.08068 | 96° | 86km/h | 10833m | -6.1m/s | -50.6°C | 41.1% | 246.3hPa | 2.6V | 00:00:00 | 01:24:34 | 00:00:00 | |
| NBG1-10 | 2026-09-01 05:53:43 | 47.82443 | 12.08036 | 95° | 84km/h | 10839m | -6.1m/s | -50.6°C | 40.6% | 246.1hPa | 2.6V | 02:36:00 | 01:24:33 | 00:00:00 | |
| DB0UT-7 | 2026-09-01 05:53:41 | 47.82446 | 12.07974 | 95° | 84km/h | 10850m | -5.7m/s | -50.7°C | 40.0% | 245.7hPa | 2.7V | 00:00:00 | 00:00:00 | 00:00:00 | |
| DO3MHA-11 | 2026-09-01 05:53:40 | 47.82448 | 12.07945 | 96° | 82km/h | 10856m | -5.7m/s | -50.7°C | 39.7% | 245.5hPa | 2.7V | 00:00:00 | 01:24:30 | 00:00:00 | |
| OE5DRO-10 | 2026-09-01 05:53:35 | 47.82460 | 12.07795 | 98° | 86km/h | 10885m | -6.6m/s | -51.0°C | 38.9% | 244.4hPa | 2.7V | 02:36:00 | 00:00:00 | 00:00:00 | |
| DL6DJ-15 | 2026-09-01 05:53:34 | 47.82463 | 12.07764 | 97° | 84km/h | 10891m | -6.2m/s | -51.1°C | 32.2% | 244.2hPa | 2.6V | 00:00:00 | 00:00:00 | 00:00:00 | |
| OE5MMP-10 | 2026-09-01 05:53:32 | 47.82468 | 12.07700 | 97° | 86km/h | 10903m | -5.7m/s | -51.1°C | 38.8% | 243.7hPa | 2.6V | 00:00:00 | 01:24:22 | 00:00:00 | |
| DO3MHA-11 | 2026-09-01 05:53:30 | 47.82473 | 12.07637 | 98° | 86km/h | 10914m | -5.4m/s | -51.2°C | 38.1% | 243.3hPa | 2.6V | 00:00:00 | 01:24:20 | 00:00:00 | |
| OE5HKT-10 | 2026-09-01 05:53:27 | 47.82482 | 12.07540 | 98° | 88km/h | 10931m | -5.6m/s | -51.3°C | 37.2% | 242.7hPa | 2.6V | 00:00:00 | 01:24:17 | 00:00:00 | |
| DG1MFX-10 | 2026-09-01 05:53:25 | 47.82484 | 12.07508 | 99° | 88km/h | 10937m | -6.1m/s | -51.4°C | 30.7% | 242.5hPa | 2.6V | 02:36:00 | 00:00:00 | 00:00:00 | |
| OE5WHR-10 | 2026-09-01 05:53:24 | 47.82491 | 12.07443 | 99° | 88km/h | 10949m | -7.1m/s | -51.5°C | 36.8% | 242.0hPa | 2.6V | 02:36:00 | 00:00:00 | 00:00:00 | |
| OE5MMP-10 | 2026-09-01 05:53:22 | 47.82497 | 12.07379 | 99° | 86km/h | 10961m | -5.6m/s | -51.5°C | 36.5% | 241.5hPa | 2.7V | 00:00:00 | 01:24:12 | 00:00:00 | |
| DO3MHA-11 | 2026-09-01 05:53:20 | 47.82504 | 12.07316 | 99° | 86km/h | 10972m | -6.2m/s | -51.6°C | 36.2% | 241.1hPa | 2.7V | 02:36:00 | 01:24:10 | 00:00:00 | |
| OE5DRO-10 | 2026-09-01 05:53:16 | 47.82518 | 12.07191 | 101° | 88km/h | 10994m | -5.3m/s | -51.8°C | 37.4% | 240.3hPa | 2.6V | 00:00:00 | 00:00:00 | 00:00:00 | |
| OE5MMP-10 | 2026-09-01 05:53:12 | 47.82535 | 12.07063 | 102° | 89km/h | 11015m | -5.4m/s | -52.0°C | 37.6% | 239.4hPa | 2.6V | 02:36:00 | 01:24:02 | 00:00:00 | |
| DB0UT-7 | 2026-09-01 05:53:11 | 47.82540 | 12.07031 | 102° | 88km/h | 11020m | -5.0m/s | -52.1°C | 37.1% | 239.3hPa | 2.7V | 00:00:00 | 01:24:01 | 00:00:00 | |
| DO3MHA-11 | 2026-09-01 05:53:10 | 47.82544 | 12.06998 | 102° | 89km/h | 11025m | -5.5m/s | -52.2°C | 37.1% | 239.1hPa | 2.7V | 00:00:00 | 01:24:00 | 00:00:00 | |
| OE5HKT-10 | 2026-09-01 05:53:06 | 47.82562 | 12.06864 | 102° | 88km/h | 11049m | -5.4m/s | -52.3°C | 36.3% | 238.2hPa | 2.7V | 02:36:00 | 00:00:00 | 00:00:00 | |
| DL6DJ-15 | 2026-09-01 05:53:04 | 47.82576 | 12.06766 | 103° | 88km/h | 11065m | -5.1m/s | -52.4°C | 28.5% | 237.7hPa | 2.7V | 00:00:00 | 00:00:00 | 00:00:00 | |
| OE5WHR-10 | 2026-09-01 05:53:03 | 47.82576 | 12.06766 | 104° | 88km/h | 11065m | -5.1m/s | -52.4°C | 34.9% | 237.7hPa | 2.7V | 00:00:00 | 00:00:00 | 00:00:00 | |
| OE5MMP-10 | 2026-09-01 05:53:02 | 47.82581 | 12.06734 | 104° | 88km/h | 11071m | -6.7m/s | -52.4°C | 34.6% | 237.5hPa | 2.7V | 00:00:00 | 01:23:52 | 00:00:00 | |
| DO3MHA-11 | 2026-09-01 05:53:00 | 47.82592 | 12.06670 | 104° | 88km/h | 11082m | -5.2m/s | -52.5°C | 34.5% | 237.1hPa | 2.7V | 00:00:00 | 01:23:50 | 00:00:00 | |
| OE5DRO-10 | 2026-09-01 05:52:57 | 47.82607 | 12.06576 | 104° | 88km/h | 11099m | -5.5m/s | -52.5°C | 34.3% | 236.4hPa | 2.7V | 00:00:00 | 00:00:00 | 00:00:00 | |
| OE5DXL-15 | 2026-09-01 05:52:52 | 47.82632 | 12.06416 | 102° | 88km/h | 11125m | -5.3m/s | -52.7°C | 34.2% | 235.5hPa | 2.7V | 00:00:00 | 00:00:00 | 00:00:00 | |
| DO3MHA-11 | 2026-09-01 05:52:50 | 47.82641 | 12.06351 | 102° | 88km/h | 11136m | -5.6m/s | -52.9°C | 35.1% | 235.1hPa | 2.7V | 02:37:00 | 01:23:40 | 00:00:00 | |
| OE5HKT-10 | 2026-09-01 05:52:45 | 47.82665 | 12.06190 | 104° | 88km/h | 11162m | -5.1m/s | -53.1°C | 33.4% | 234.1hPa | 2.7V | 00:00:00 | 00:00:00 | 00:00:00 | |
| DG1MFX-10 | 2026-09-01 05:52:43 | 47.82670 | 12.06158 | 104° | 86km/h | 11167m | -5.0m/s | -53.2°C | 26.9% | 234.0hPa | 2.7V | 02:37:00 | 00:00:00 | 00:00:00 | |
| OE5WHR-10 | 2026-09-01 05:52:42 | 47.82680 | 12.06095 | 104° | 86km/h | 11178m | -5.8m/s | -53.1°C | 33.6% | 233.6hPa | 2.7V | 00:00:00 | 01:23:32 | 00:00:00 | |
| DB0UT-7 | 2026-09-01 05:52:41 | 47.82685 | 12.06064 | 104° | 86km/h | 11184m | -5.9m/s | -53.2°C | 33.7% | 233.3hPa | 2.7V | 02:37:00 | 00:00:00 | 00:00:00 | |
| DO3MHA-11 | 2026-09-01 05:52:40 | 47.82690 | 12.06032 | 103° | 88km/h | 11190m | -5.0m/s | -53.2°C | 33.5% | 233.1hPa | 2.6V | 00:00:00 | 01:23:30 | 00:00:00 | |
| OE5DRO-10 | 2026-09-01 05:52:38 | 47.82699 | 12.05969 | 103° | 86km/h | 11200m | -5.2m/s | -53.4°C | 34.2% | 232.7hPa | 2.6V | 02:37:00 | 00:00:00 | 00:00:00 | |
| NBG1-10 | 2026-09-01 05:52:37 | 47.82704 | 12.05937 | 103° | 86km/h | 11206m | -5.7m/s | -53.4°C | 33.9% | 232.5hPa | 2.7V | 00:00:00 | 01:23:27 | 00:00:00 | |
| DB0NH | 2026-09-01 05:52:34 | 47.82719 | 12.05840 | 103° | 68km/h | 11223m | -5.4m/s | 0°C | 0% | 0hPa | 2.7V | 00:00:00 | 01:23:24 | 00:00:00 | |
| OE5MMP-10 | 2026-09-01 05:52:32 | 47.82729 | 12.05776 | 103° | 86km/h | 11234m | -5.9m/s | -53.6°C | 34.5% | 231.5hPa | 2.7V | 00:00:00 | 01:23:22 | 00:00:00 | |
| DO3MHA-11 | 2026-09-01 05:52:30 | 47.82738 | 12.05712 | 102° | 86km/h | 11245m | -5.4m/s | -53.7°C | 35.1% | 231.1hPa | 2.7V | 00:00:00 | 01:23:20 | 00:00:00 | |
| OE5HKT-10 | 2026-09-01 05:52:24 | 47.82763 | 12.05521 | 102° | 86km/h | 11279m | -6.3m/s | -54.0°C | 35.5% | 229.9hPa | 2.7V | 00:00:00 | 01:23:14 | 00:00:00 | |
| DG1MFX-10 | 2026-09-01 05:52:23 | 47.82767 | 12.05490 | 102° | 84km/h | 11285m | -5.4m/s | -54.1°C | 28.7% | 229.7hPa | 2.7V | 02:38:00 | 00:00:00 | 00:00:00 | |
| DG1MJG | 2026-09-01 05:52:22 | 47.82771 | 12.05460 | 102° | 84km/h | 11290m | -5.3m/s | -54.1°C | 28.8% | 229.5hPa | 2.7V | 02:38:00 | 00:00:00 | 00:00:00 | |
| OE5WHR-10 | 2026-09-01 05:52:21 | 47.82775 | 12.05428 | 102° | 86km/h | 11296m | -5.8m/s | -54.1°C | 35.3% | 229.3hPa | 2.7V | 02:37:00 | 00:00:00 | 00:00:00 | |
| DO3MHA-11 | 2026-09-01 05:52:20 | 47.82780 | 12.05397 | 102° | 86km/h | 11302m | -6.6m/s | -54.2°C | 34.9% | 229.1hPa | 2.7V | 02:37:00 | 01:23:10 | 00:00:00 | |
| OE5DRO-10 | 2026-09-01 05:52:19 | 47.82784 | 12.05366 | 102° | 86km/h | 11308m | -5.9m/s | -54.3°C | 35.2% | 228.9hPa | 2.6V | 00:00:00 | 00:00:00 | 00:00:00 | |
| OE5MMP-10 | 2026-09-01 05:52:12 | 47.82817 | 12.05144 | 102° | 86km/h | 11349m | -5.7m/s | -54.7°C | 36.9% | 227.4hPa | 2.6V | 02:37:00 | 01:23:02 | 00:00:00 | |
| NBG1-10 | 2026-09-01 05:52:04 | 47.82849 | 12.04892 | 102° | 86km/h | 11393m | -5.5m/s | -55.1°C | 37.3% | 225.8hPa | 2.6V | 02:37:00 | 01:22:54 | 00:00:00 | |
| OE5HKT-10 | 2026-09-01 05:52:03 | 47.82854 | 12.04861 | 102° | 86km/h | 11400m | -6.8m/s | -55.1°C | 37.1% | 225.6hPa | 2.6V | 02:38:00 | 00:00:00 | 00:00:00 | |
| DG1MFX-10 | 2026-09-01 05:52:02 | 47.82854 | 12.04861 | 103° | 86km/h | 11400m | -6.9m/s | -55.2°C | 29.9% | 225.7hPa | 2.6V | 02:38:00 | 00:00:00 | 00:00:00 | |
| DL6DJ-15 | 2026-09-01 05:52:01 | 47.82863 | 12.04798 | 101° | 84km/h | 11411m | -5.1m/s | -55.3°C | 30.3% | 225.3hPa | 2.6V | 00:00:00 | 00:00:00 | 00:00:00 | |
| DO3MHA-11 | 2026-09-01 05:52:00 | 47.82867 | 12.04766 | 102° | 86km/h | 11417m | -5.2m/s | -55.2°C | 37.3% | 225.1hPa | 2.6V | 00:00:00 | 01:22:50 | 00:00:00 | |
| OE5DXL-15 | 2026-09-01 05:51:52 | 47.82897 | 12.04512 | 101° | 88km/h | 11461m | -5.9m/s | -55.7°C | 37.7% | 223.5hPa | 2.6V | 02:38:00 | 00:00:00 | 00:00:00 | |
| DG1MJG | 2026-09-01 05:51:51 | 47.82897 | 12.04512 | 101° | 86km/h | 11461m | -5.9m/s | -55.8°C | 30.2% | 223.6hPa | 2.7V | 02:38:00 | 00:00:00 | 00:00:00 | |
| DO3MHA-11 | 2026-09-01 05:51:50 | 47.82905 | 12.04447 | 100° | 88km/h | 11473m | -5.7m/s | -55.8°C | 37.3% | 223.1hPa | 2.7V | 02:38:00 | 01:22:40 | 00:00:00 | |
| OE5MMP-10 | 2026-09-01 05:51:42 | 47.82930 | 12.04189 | 98° | 88km/h | 11520m | -5.8m/s | -56.1°C | 39.1% | 221.4hPa | 2.6V | 02:38:00 | 01:22:32 | 00:00:00 | |
| DB0UT-7 | 2026-09-01 05:51:41 | 47.82933 | 12.04156 | 98° | 88km/h | 11526m | -6.0m/s | -56.1°C | 38.9% | 221.2hPa | 2.7V | 00:00:00 | 00:00:00 | 00:00:00 | |
| DO3MHA-11 | 2026-09-01 05:51:40 | 47.82936 | 12.04123 | 98° | 88km/h | 11532m | -5.9m/s | -56.2°C | 39.4% | 221.0hPa | 2.7V | 00:00:00 | 01:22:30 | 00:00:00 | |
| OE5WHR-10 | 2026-09-01 05:51:39 | 47.82939 | 12.04090 | 98° | 89km/h | 11539m | -6.1m/s | -56.2°C | 39.4% | 220.8hPa | 2.7V | 00:00:00 | 01:22:29 | 00:00:00 | |
| BAUMI2-15 | 2026-09-01 05:51:36 | 47.82948 | 12.03992 | 98° | 88km/h | 11557m | -6.0m/s | -56.3°C | 40.1% | 220.2hPa | 2.7V | 02:38:00 | 01:22:26 | 00:00:00 | |
| OE5MMP-10 | 2026-09-01 05:51:32 | 47.82960 | 12.03864 | 98° | 89km/h | 11580m | -5.2m/s | -56.5°C | 40.6% | 219.3hPa | 2.7V | 00:00:00 | 01:22:22 | 00:00:00 | |
| NBG1-10 | 2026-09-01 05:51:31 | 47.82962 | 12.03832 | 98° | 88km/h | 11586m | -6.0m/s | -56.6°C | 40.8% | 219.1hPa | 2.7V | 00:00:00 | 01:22:21 | 00:00:00 | |
| DO3MHA-11 | 2026-09-01 05:51:30 | 47.82965 | 12.03800 | 97° | 91km/h | 11592m | -5.3m/s | -56.6°C | 40.8% | 218.9hPa | 2.7V | 00:00:00 | 01:22:20 | 00:00:00 | |
| BAUMI2-15 | 2026-09-01 05:51:27 | 47.82973 | 12.03702 | 97° | 91km/h | 11609m | -5.3m/s | -56.7°C | 40.9% | 218.3hPa | 2.7V | 00:00:00 | 01:22:17 | 00:00:00 | |
| OE5DXL-15 | 2026-09-01 05:51:22 | 47.82984 | 12.03530 | 94° | 88km/h | 11636m | -5.7m/s | -57.0°C | 40.7% | 217.4hPa | 2.7V | 00:00:00 | 00:00:00 | 00:00:00 | |
| OE5HKT-10 | 2026-09-01 05:51:21 | 47.82985 | 12.03495 | 94° | 88km/h | 11642m | -5.6m/s | -57.0°C | 40.9% | 217.1hPa | 2.7V | 00:00:00 | 01:22:11 | 00:00:00 | |
| DO3MHA-11 | 2026-09-01 05:51:20 | 47.82986 | 12.03461 | 93° | 88km/h | 11648m | -6.3m/s | -57.1°C | 41.0% | 217.0hPa | 2.7V | 02:38:00 | 01:22:10 | 00:00:00 | |
| OE5WHR-10 | 2026-09-01 05:51:18 | 47.82988 | 12.03394 | 94° | 88km/h | 11660m | -5.5m/s | -57.2°C | 41.6% | 216.6hPa | 2.6V | 02:38:00 | 00:00:00 | 00:00:00 | |
| BAUMI2-15 | 2026-09-01 05:51:17 | 47.82990 | 12.03362 | 94° | 86km/h | 11666m | -6.4m/s | -57.2°C | 41.4% | 216.3hPa | 2.6V | 02:38:00 | 01:22:07 | 00:00:00 | |
| BAUMI2-15 | 2026-09-01 05:51:12 | 47.82998 | 12.03199 | 96° | 88km/h | 11696m | -6.4m/s | -57.5°C | 42.2% | 215.3hPa | 2.7V | 00:00:00 | 01:22:02 | 00:00:00 | |
| DB0UT-7 | 2026-09-01 05:51:11 | 47.83001 | 12.03167 | 97° | 86km/h | 11703m | -7.6m/s | -57.6°C | 43.0% | 215.1hPa | 2.7V | 02:38:00 | 01:22:01 | 00:00:00 | |
| DO3MHA-11 | 2026-09-01 05:51:10 | 47.83003 | 12.03134 | 97° | 88km/h | 11710m | -6.0m/s | -57.6°C | 43.4% | 214.8hPa | 2.7V | 00:00:00 | 01:22:00 | 00:00:00 | |
| BAUMI2-15 | 2026-09-01 05:51:07 | 47.83011 | 12.03035 | 98° | 88km/h | 11727m | -5.1m/s | -57.8°C | 44.1% | 214.2hPa | 2.7V | 00:00:00 | 01:21:57 | 00:00:00 | |
| OE5DRO-10 | 2026-09-01 05:51:03 | 47.83024 | 12.02903 | 100° | 86km/h | 11749m | -6.3m/s | -58.0°C | 42.8% | 213.5hPa | 2.7V | 00:00:00 | 00:00:00 | 00:00:00 | |
| DL6DJ-15 | 2026-09-01 05:50:59 | 47.83041 | 12.02776 | 101° | 84km/h | 11773m | -5.2m/s | -58.3°C | 34.6% | 212.7hPa | 2.7V | 00:00:00 | 00:00:00 | 00:00:00 | |
| NBG1-10 | 2026-09-01 05:50:58 | 47.83045 | 12.02745 | 103° | 86km/h | 11778m | -6.0m/s | -58.2°C | 43.1% | 212.4hPa | 2.7V | 00:00:00 | 01:21:48 | 00:00:00 | |
| OE5WHR-10 | 2026-09-01 05:50:57 | 47.83050 | 12.02713 | 103° | 86km/h | 11784m | -5.7m/s | -58.3°C | 43.9% | 212.3hPa | 2.7V | 00:00:00 | 00:00:00 | 00:00:00 | |
| OE5DXL-15 | 2026-09-01 05:50:52 | 47.83071 | 12.02551 | 101° | 84km/h | 11813m | -6.1m/s | -58.5°C | 45.3% | 211.3hPa | 2.7V | 00:00:00 | 01:21:42 | 00:00:00 | |
| DO3MHA-11 | 2026-09-01 05:50:50 | 47.83079 | 12.02486 | 101° | 84km/h | 11825m | -5.3m/s | -58.6°C | 45.3% | 210.9hPa | 2.7V | 02:39:00 | 01:21:40 | 00:00:00 | |
| DG1MJG | 2026-09-01 05:50:49 | 47.83079 | 12.02486 | 101° | 88km/h | 11825m | -5.3m/s | -58.6°C | 36.2% | 210.9hPa | 2.6V | 02:39:00 | 00:00:00 | 00:00:00 | |
| BAUMI2-15 | 2026-09-01 05:50:47 | 47.83091 | 12.02390 | 101° | 84km/h | 11842m | -6.5m/s | -58.7°C | 44.6% | 210.3hPa | 2.6V | 02:39:00 | 01:21:37 | 00:00:00 | |
| OE5DRO-10 | 2026-09-01 05:50:44 | 47.83104 | 12.02298 | 103° | 86km/h | 11860m | -6.1m/s | -58.9°C | 45.1% | 209.7hPa | 2.6V | 02:39:00 | 00:00:00 | 00:00:00 | |
| OE5MMP-10 | 2026-09-01 05:50:42 | 47.83113 | 12.02238 | 104° | 86km/h | 11873m | -6.3m/s | -59.0°C | 45.5% | 209.3hPa | 2.6V | 02:39:00 | 01:21:32 | 00:00:00 | |
| DB0UT-7 | 2026-09-01 05:50:41 | 47.83118 | 12.02209 | 105° | 82km/h | 11879m | -6.7m/s | -59.0°C | 45.6% | 209.1hPa | 2.7V | 00:00:00 | 00:00:00 | 00:00:00 | |
| DO3MHA-11 | 2026-09-01 05:50:40 | 47.83123 | 12.02179 | 105° | 88km/h | 11886m | -6.6m/s | -59.1°C | 46.4% | 208.8hPa | 2.7V | 00:00:00 | 01:21:30 | 00:00:00 | |
| OE5HKT-10 | 2026-09-01 05:50:39 | 47.83128 | 12.02149 | 104° | 84km/h | 11893m | -6.4m/s | 0°C | 0% | 0hPa | 2.7V | 00:00:00 | 00:00:00 | 00:00:00 | |
| OE5WHR-10 | 2026-09-01 05:50:36 | 47.83142 | 12.02056 | 102° | 82km/h | 11912m | -5.7m/s | -59.3°C | 47.7% | 208.0hPa | 2.7V | 00:00:00 | 01:21:26 | 00:00:00 | |
| OE5MMP-10 | 2026-09-01 05:50:32 | 47.83158 | 12.01924 | 100° | 84km/h | 11938m | -5.9m/s | -59.5°C | 48.2% | 207.1hPa | 2.7V | 00:00:00 | 01:21:22 | 00:00:00 | |
| DO3MHA-11 | 2026-09-01 05:50:30 | 47.83166 | 12.01856 | 100° | 80km/h | 11951m | -6.9m/s | -59.6°C | 49.1% | 206.6hPa | 2.7V | 00:00:00 | 01:21:20 | 00:00:00 | |
| DL6DJ-15 | 2026-09-01 05:50:28 | 47.83174 | 12.01791 | 99° | 84km/h | 11965m | -6.2m/s | -59.8°C | 39.6% | 206.3hPa | 2.7V | 00:00:00 | 00:00:00 | 00:00:00 | |
| NBG1-10 | 2026-09-01 05:50:25 | 47.83185 | 12.01703 | 102° | 80km/h | 11984m | -6.4m/s | -59.9°C | 49.2% | 205.7hPa | 2.7V | 02:39:00 | 01:21:15 | 00:00:00 | |
| BAUMI2-15 | 2026-09-01 05:50:24 | 47.83188 | 12.01675 | 101° | 77km/h | 11991m | -6.9m/s | -60.0°C | 49.4% | 205.4hPa | 2.7V | 00:00:00 | 01:21:14 | 00:00:00 | |
| OE5MMP-10 | 2026-09-01 05:50:22 | 47.83195 | 12.01619 | 99° | 80km/h | 12005m | -6.7m/s | -60.1°C | 50.0% | 204.9hPa | 2.7V | 00:00:00 | 01:21:12 | 00:00:00 | |
| DO3MHA-11 | 2026-09-01 05:50:20 | 47.83200 | 12.01562 | 98° | 80km/h | 12019m | -6.3m/s | -60.2°C | 50.5% | 204.5hPa | 2.7V | 02:39:00 | 01:21:10 | 00:00:00 | |
| BAUMI2-15 | 2026-09-01 05:50:19 | 47.83202 | 12.01533 | 98° | 82km/h | 12026m | -6.1m/s | -60.3°C | 50.7% | 204.3hPa | 2.7V | 00:00:00 | 01:21:09 | 00:00:00 | |
| OE5HKT-10 | 2026-09-01 05:50:18 | 47.83205 | 12.01503 | 98° | 80km/h | 12032m | -6.4m/s | 0°C | 0% | 0hPa | 2.7V | 00:00:00 | 01:21:08 | 00:00:00 | |
| OE5WHR-10 | 2026-09-01 05:50:15 | 47.83214 | 12.01412 | 99° | 82km/h | 12053m | -8.1m/s | -60.5°C | 51.1% | 203.4hPa | 2.7V | 02:39:00 | 00:00:00 | 00:00:00 | |
| BAUMI2-15 | 2026-09-01 05:50:14 | 47.83218 | 12.01381 | 98° | 80km/h | 12060m | -7.1m/s | -60.5°C | 51.0% | 203.1hPa | 2.7V | 02:39:00 | 01:21:04 | 00:00:00 | |
| OE5MMP-10 | 2026-09-01 05:50:12 | 47.83223 | 12.01320 | 98° | 80km/h | 12074m | -7.3m/s | -60.6°C | 51.1% | 202.7hPa | 2.6V | 02:39:00 | 01:21:02 | 00:00:00 | |
| DB0UT-7 | 2026-09-01 05:50:11 | 47.83225 | 12.01290 | 97° | 82km/h | 12081m | -6.5m/s | -60.7°C | 51.0% | 202.4hPa | 2.6V | 00:00:00 | 01:21:01 | 00:00:00 | |
| DO3MHA-12 | 2026-09-01 05:50:10 | 47.83228 | 12.01260 | 98° | 80km/h | 12088m | -6.8m/s | -60.7°C | 51.3% | 202.2hPa | 2.6V | 02:39:00 | 01:21:00 | 00:00:00 | |
| BAUMI2-15 | 2026-09-01 05:50:09 | 47.83231 | 12.01230 | 97° | 82km/h | 12094m | -6.4m/s | -60.8°C | 51.2% | 202.0hPa | 2.6V | 00:00:00 | 01:20:59 | 00:00:00 | |
| BAUMI2-15 | 2026-09-01 05:50:04 | 47.83242 | 12.01078 | 97° | 80km/h | 12127m | -6.8m/s | -60.9°C | 50.5% | 200.9hPa | 2.6V | 00:00:00 | 01:20:54 | 00:00:00 | |
| DL6DJ-15 | 2026-09-01 05:49:57 | 47.83260 | 12.00867 | 96° | 82km/h | 12174m | -6.8m/s | -61.1°C | 38.9% | 199.5hPa | 2.6V | 00:00:00 | 00:00:00 | 00:00:00 | |
| DF7PN | 2026-09-01 05:49:54 | 47.83278 | 12.00651 | 98° | 82km/h | 12221m | -6.6m/s | -61.2°C | 36.7% | 198.0hPa | 2.6V | 00:00:00 | 00:00:00 | 00:00:00 | |
| BAUMI2-15 | 2026-09-01 05:49:53 | 47.83270 | 12.00743 | 98° | 82km/h | 12202m | -6.7m/s | -61.0°C | 47.3% | 198.5hPa | 2.6V | 00:00:00 | 01:20:43 | 00:00:00 | |
| OE5DXL-15 | 2026-09-01 05:49:52 | 47.83273 | 12.00712 | 98° | 86km/h | 12209m | -6.7m/s | -61.1°C | 47.0% | 198.3hPa | 2.6V | 00:00:00 | 00:00:00 | 00:00:00 | |
| DO3MHA-11 | 2026-09-01 05:49:50 | 47.83278 | 12.00651 | 99° | 84km/h | 12222m | -6.5m/s | -61.1°C | 46.8% | 197.9hPa | 2.6V | 02:40:00 | 01:20:40 | 00:00:00 | |
| BAUMI2-15 | 2026-09-01 05:49:48 | 47.83285 | 12.00589 | 100° | 84km/h | 12234m | -5.8m/s | -61.0°C | 46.0% | 197.5hPa | 2.7V | 00:00:00 | 01:20:38 | 00:00:00 | |
| OE5DRO-10 | 2026-09-01 05:49:47 | 47.83288 | 12.00558 | 100° | 86km/h | 12240m | -5.9m/s | -60.9°C | 45.9% | 197.3hPa | 2.7V | 02:40:00 | 00:00:00 | 00:00:00 | |
| BAUMI2-15 | 2026-09-01 05:49:43 | 47.83302 | 12.00434 | 99° | 91km/h | 12262m | -4.6m/s | -60.8°C | 44.7% | 196.6hPa | 2.6V | 02:40:00 | 01:20:33 | 00:00:00 | |
| OE5MMP-10 | 2026-09-01 05:49:42 | 47.83305 | 12.00402 | 99° | 88km/h | 12267m | -5.3m/s | -60.8°C | 44.3% | 196.5hPa | 2.7V | 02:40:00 | 01:20:32 | 00:00:00 | |
| DB0UT-7 | 2026-09-01 05:49:41 | 47.83308 | 12.00370 | 99° | 89km/h | 12272m | -5.1m/s | -60.8°C | 43.9% | 196.3hPa | 2.7V | 02:40:00 | 00:00:00 | 00:00:00 | |
| DO3MHA-11 | 2026-09-01 05:49:40 | 47.83311 | 12.00337 | 99° | 88km/h | 12278m | -5.5m/s | -60.9°C | 43.7% | 196.1hPa | 2.7V | 00:00:00 | 01:20:30 | 00:00:00 | |
| DG1MFX-10 | 2026-09-01 05:49:39 | 47.83311 | 12.00337 | 99° | 88km/h | 12278m | -5.5m/s | -60.9°C | 34.2% | 196.2hPa | 2.7V | 02:40:00 | 00:00:00 | 00:00:00 | |
| OE5WHR-10 | 2026-09-01 05:49:33 | 47.83340 | 12.00108 | 103° | 91km/h | 12322m | -6.6m/s | -61.2°C | 41.5% | 194.8hPa | 2.7V | 00:00:00 | 01:20:23 | 00:00:00 | |
| OE5MMP-10 | 2026-09-01 05:49:32 | 47.83344 | 12.00076 | 103° | 89km/h | 12329m | -6.7m/s | -61.2°C | 41.2% | 194.6hPa | 2.7V | 00:00:00 | 01:20:22 | 00:00:00 | |
| DO3MHA-12 | 2026-09-01 05:49:30 | 47.83353 | 12.00013 | 103° | 91km/h | 12343m | -6.3m/s | -61.3°C | 41.4% | 194.1hPa | 2.7V | 00:00:00 | 01:20:20 | 00:00:00 | |
| OE5DRO-10 | 2026-09-01 05:49:28 | 47.83362 | 11.99950 | 102° | 91km/h | 12356m | -6.4m/s | -61.4°C | 41.3% | 193.7hPa | 2.7V | 00:00:00 | 00:00:00 | 00:00:00 | |
| DL6DJ-15 | 2026-09-01 05:49:26 | 47.83371 | 11.99886 | 100° | 88km/h | 12369m | -6.2m/s | -61.6°C | 30.9% | 193.2hPa | 2.7V | 00:00:00 | 00:00:00 | 00:00:00 | |
| OE5DXL-15 | 2026-09-01 05:49:22 | 47.83388 | 11.99747 | 101° | 89km/h | 12396m | -7.0m/s | -61.6°C | 37.7% | 192.5hPa | 2.7V | 00:00:00 | 00:00:00 | 00:00:00 | |
| DO3MHA-11 | 2026-09-01 05:49:20 | 47.83397 | 11.99677 | 104° | 91km/h | 12409m | -6.9m/s | -61.7°C | 36.7% | 192.0hPa | 2.7V | 02:40:00 | 01:20:10 | 00:00:00 | |
| DG1MFX-10 | 2026-09-01 05:49:19 | 47.83403 | 11.99641 | 105° | 97km/h | 12416m | -7.0m/s | -61.9°C | 27.6% | 191.9hPa | 2.6V | 02:40:00 | 00:00:00 | 00:00:00 | |
| OE5WHR-10 | 2026-09-01 05:49:12 | 47.83449 | 11.99410 | 107° | 88km/h | 12464m | -6.1m/s | -61.8°C | 34.4% | 190.3hPa | 2.6V | 02:40:00 | 00:00:00 | 00:00:00 | |
| DB0UT-7 | 2026-09-01 05:49:11 | 47.83455 | 11.99379 | 105° | 91km/h | 12471m | -6.8m/s | -61.8°C | 33.1% | 190.1hPa | 2.6V | 00:00:00 | 01:20:01 | 00:00:00 | |
| DO3MHA-11 | 2026-09-01 05:49:10 | 47.83459 | 11.99348 | 102° | 86km/h | 12478m | -7.3m/s | -61.8°C | 31.8% | 189.9hPa | 2.6V | 00:00:00 | 01:20:00 | 00:00:00 | |
| OE5DRO-10 | 2026-09-01 05:49:09 | 47.83464 | 11.99318 | 102° | 89km/h | 12486m | -8.1m/s | -61.7°C | 30.3% | 189.7hPa | 2.6V | 00:00:00 | 00:00:00 | 00:00:00 | |
| DL6DJ-15 | 2026-09-01 05:48:55 | 47.83490 | 11.98823 | 90° | 97km/h | 12586m | -6.0m/s | -58.5°C | 10.6% | 186.6hPa | 2.6V | 00:00:00 | 00:00:00 | 00:00:00 | |
| OE5DXL-15 | 2026-09-01 05:48:52 | 47.83489 | 11.98751 | 88° | 97km/h | 12600m | -6.4m/s | -58.2°C | 14.6% | 186.2hPa | 2.6V | 02:41:00 | 00:00:00 | 00:00:00 | |
| OE5WHR-10 | 2026-09-01 05:48:51 | 47.83487 | 11.98716 | 87° | 99km/h | 12606m | -6.4m/s | -58.0°C | 13.9% | 186.0hPa | 2.6V | 00:00:00 | 00:00:00 | 00:00:00 | |
| DO3MHA-11 | 2026-09-01 05:48:50 | 47.83486 | 11.98681 | 86° | 95km/h | 12613m | -7.0m/s | -57.8°C | 13.2% | 185.9hPa | 2.6V | 02:41:00 | 01:19:40 | 00:00:00 | |
| NBG1-10 | 2026-09-01 05:48:46 | 47.83476 | 11.98543 | 84° | 99km/h | 12639m | -6.1m/s | -57.4°C | 12.0% | 185.0hPa | 2.6V | 02:41:00 | 01:19:36 | 00:00:00 | |
| DG1MJG | 2026-09-01 05:48:45 | 47.83476 | 11.98543 | 84° | 93km/h | 12639m | -6.2m/s | -57.4°C | 7.6% | 185.1hPa | 2.6V | 02:41:00 | 00:00:00 | 00:00:00 | |
| OE5MMP-10 | 2026-09-01 05:48:42 | 47.83463 | 11.98399 | 83° | 102km/h | 12664m | -5.7m/s | -57.2°C | 11.3% | 184.4hPa | 2.6V | 02:41:00 | 01:19:32 | 00:00:00 | |
| DB0UT-7 | 2026-09-01 05:48:41 | 47.83460 | 11.98362 | 82° | 100km/h | 12670m | -6.3m/s | -57.2°C | 11.1% | 184.2hPa | 2.7V | 00:00:00 | 00:00:00 | 00:00:00 | |
| DO3MHA-11 | 2026-09-01 05:48:40 | 47.83456 | 11.98324 | 82° | 100km/h | 12676m | -6.4m/s | -57.2°C | 11.1% | 184.0hPa | 2.7V | 00:00:00 | 01:19:30 | 00:00:00 | |
| DG1MFX-10 | 2026-09-01 05:48:37 | 47.83448 | 11.98247 | 83° | 104km/h | 12689m | -6.6m/s | -57.2°C | 6.8% | 183.7hPa | 2.7V | 02:41:00 | 00:00:00 | 00:00:00 | |
| OE5MMP-10 | 2026-09-01 05:48:32 | 47.83429 | 11.98020 | 84° | 97km/h | 12724m | -6.0m/s | -57.3°C | 10.6% | 182.5hPa | 2.7V | 00:00:00 | 01:19:22 | 00:00:00 | |
| OE5DRO-10 | 2026-09-01 05:48:31 | 47.83426 | 11.97984 | 84° | 99km/h | 12730m | -6.0m/s | -57.3°C | 10.4% | 182.4hPa | 2.7V | 00:00:00 | 00:00:00 | 00:00:00 | |
| DO3MHA-11 | 2026-09-01 05:48:30 | 47.83423 | 11.97948 | 84° | 97km/h | 12736m | -6.2m/s | -57.3°C | 10.3% | 182.2hPa | 2.7V | 00:00:00 | 01:19:20 | 00:00:00 | |
| DL6DJ-15 | 2026-09-01 05:48:24 | 47.83404 | 11.97733 | 82° | 97km/h | 12773m | -6.5m/s | -56.9°C | 5.4% | 181.2hPa | 2.7V | 00:00:00 | 00:00:00 | 00:00:00 | |
| OE5DXL-15 | 2026-09-01 05:48:22 | 47.83397 | 11.97660 | 83° | 102km/h | 12785m | -6.3m/s | -56.8°C | 9.1% | 180.8hPa | 2.7V | 00:00:00 | 00:00:00 | 00:00:00 | |
| DO3MHA-11 | 2026-09-01 05:48:20 | 47.83390 | 11.97585 | 84° | 102km/h | 12799m | -6.4m/s | -56.6°C | 9.0% | 180.4hPa | 2.7V | 02:41:00 | 01:19:10 | 00:00:00 | |
| DG1MFX-10 | 2026-09-01 05:48:16 | 47.83384 | 11.97472 | 87° | 102km/h | 12819m | -6.7m/s | -56.4°C | 4.9% | 179.9hPa | 2.6V | 02:41:00 | 00:00:00 | 00:00:00 | |
| DG1MJG | 2026-09-01 05:48:14 | 47.83381 | 11.97395 | 88° | 102km/h | 12830m | -5.5m/s | -56.2°C | 4.7% | 179.6hPa | 2.6V | 02:41:00 | 00:00:00 | 00:00:00 | |
| NBG1-10 | 2026-09-01 05:48:13 | 47.83379 | 11.97319 | 88° | 100km/h | 12842m | -6.8m/s | -56.1°C | 8.2% | 179.1hPa | 2.6V | 00:00:00 | 01:19:03 | 00:00:00 | |
| OE5MMP-10 | 2026-09-01 05:48:12 | 47.83378 | 11.97280 | 88° | 102km/h | 12849m | -6.4m/s | -56.1°C | 8.1% | 179.0hPa | 2.6V | 02:41:00 | 01:19:02 | 00:00:00 | |
| DB0UT-7 | 2026-09-01 05:48:11 | 47.83377 | 11.97242 | 88° | 100km/h | 12856m | -7.1m/s | -56.1°C | 8.1% | 178.9hPa | 2.7V | 02:41:00 | 01:19:01 | 00:00:00 | |
| DO3MHA-11 | 2026-09-01 05:48:10 | 47.83375 | 11.97204 | 88° | 102km/h | 12863m | -6.6m/s | -56.2°C | 8.1% | 178.7hPa | 2.6V | 00:00:00 | 01:19:00 | 00:00:00 | |
| OE5WHR-10 | 2026-09-01 05:48:09 | 47.83374 | 11.97166 | 87° | 100km/h | 12870m | -7.5m/s | -56.2°C | 8.1% | 178.5hPa | 2.6V | 02:41:00 | 00:00:00 | 00:00:00 | |
| DO8TBO-1 | 2026-09-01 05:48:05 | 47.83367 | 11.97013 | 87° | 100km/h | 12896m | -6.8m/s | -56.3°C | 8.0% | 177.7hPa | 2.6V | 00:00:00 | 01:18:55 | 00:00:00 | |
| OE5MMP-10 | 2026-09-01 05:48:02 | 47.83362 | 11.96897 | 87° | 100km/h | 12917m | -5.9m/s | -56.2°C | 7.8% | 177.1hPa | 2.6V | 00:00:00 | 01:18:52 | 00:00:00 | |
| DO3MHA-11 | 2026-09-01 05:48:00 | 47.83360 | 11.96819 | 88° | 99km/h | 12930m | -5.8m/s | -56.0°C | 7.6% | 176.7hPa | 2.6V | 00:00:00 | 01:18:50 | 00:00:00 | |
| DG1MFX-10 | 2026-09-01 05:47:55 | 47.83354 | 11.96664 | 87° | 100km/h | 12956m | -6.6m/s | -55.7°C | 3.7% | 176.1hPa | 2.6V | 02:42:00 | 00:00:00 | 00:00:00 | |
| OE5DRO-10 | 2026-09-01 05:47:53 | 47.83348 | 11.96555 | 86° | 99km/h | 12975m | -8.3m/s | -55.6°C | 6.6% | 175.6hPa | 2.6V | 02:42:00 | 00:00:00 | 00:00:00 | |
| OE5DXL-15 | 2026-09-01 05:47:52 | 47.83346 | 11.96520 | 86° | 100km/h | 12983m | -6.6m/s | -55.5°C | 6.6% | 175.3hPa | 2.6V | 00:00:00 | 00:00:00 | 00:00:00 | |
| DO3MHA-11 | 2026-09-01 05:47:50 | 47.83342 | 11.96451 | 86° | 100km/h | 12995m | -6.9m/s | -55.5°C | 6.6% | 174.9hPa | 2.6V | 02:42:00 | 01:18:40 | 00:00:00 | |
| OE5WHR-10 | 2026-09-01 05:47:48 | 47.83338 | 11.96379 | 86° | 100km/h | 13008m | -5.6m/s | -55.6°C | 6.7% | 174.6hPa | 2.7V | 00:00:00 | 00:00:00 | 00:00:00 | |
| DG1MJG | 2026-09-01 05:47:45 | 47.83334 | 11.96265 | 88° | 102km/h | 13027m | -5.8m/s | -55.7°C | 3.4% | 174.1hPa | 2.7V | 02:42:00 | 00:00:00 | 00:00:00 | |
| OE5MMP-10 | 2026-09-01 05:47:42 | 47.83330 | 11.96149 | 88° | 100km/h | 13045m | -4.7m/s | -55.7°C | 6.7% | 173.6hPa | 2.7V | 02:42:00 | 01:18:32 | 00:00:00 | |
| DB0UT-7 | 2026-09-01 05:47:41 | 47.83329 | 11.96111 | 88° | 99km/h | 13050m | -6.6m/s | -55.8°C | 6.6% | 173.4hPa | 2.7V | 00:00:00 | 00:00:00 | 00:00:00 | |
| DO3MHA-11 | 2026-09-01 05:47:40 | 47.83328 | 11.96073 | 89° | 100km/h | 13056m | -5.4m/s | -55.8°C | 6.6% | 173.2hPa | 2.7V | 00:00:00 | 01:18:30 | 00:00:00 | |
| BAUMI2-15 | 2026-09-01 05:47:36 | 47.83326 | 11.95923 | 90° | 100km/h | 13081m | -5.7m/s | -55.7°C | 6.5% | 172.5hPa | 2.7V | 00:00:00 | 01:18:26 | 00:00:00 | |
| OE5DRO-10 | 2026-09-01 05:47:34 | 47.83327 | 11.95848 | 91° | 100km/h | 13094m | -6.4m/s | -55.5°C | 6.4% | 172.2hPa | 2.7V | 00:00:00 | 00:00:00 | 00:00:00 | |
| OE5MMP-10 | 2026-09-01 05:47:32 | 47.83327 | 11.95773 | 92° | 102km/h | 13107m | -6.4m/s | -55.4°C | 6.3% | 171.9hPa | 2.7V | 00:00:00 | 01:18:22 | 00:00:00 | |
| BAUMI2-15 | 2026-09-01 05:47:31 | 47.83328 | 11.95735 | 92° | 102km/h | 13113m | -6.4m/s | -55.2°C | 6.2% | 171.7hPa | 2.7V | 00:00:00 | 01:18:21 | 00:00:00 | |
| DO3MHA-11 | 2026-09-01 05:47:30 | 47.83329 | 11.95697 | 93° | 100km/h | 13120m | -6.6m/s | -55.0°C | 6.1% | 171.5hPa | 2.7V | 00:00:00 | 01:18:20 | 00:00:00 | |
| OE5WHR-10 | 2026-09-01 05:47:27 | 47.83332 | 11.95582 | 93° | 99km/h | 13138m | -5.9m/s | -54.8°C | 5.9% | 171.0hPa | 2.7V | 00:00:00 | 01:18:17 | 00:00:00 | |
| BAUMI2-15 | 2026-09-01 05:47:26 | 47.83333 | 11.95543 | 93° | 102km/h | 13145m | -6.3m/s | -54.7°C | 5.9% | 170.9hPa | 2.7V | 02:42:00 | 01:18:16 | 00:00:00 | |
| DL6DJ-15 | 2026-09-01 05:47:22 | 47.83338 | 11.95355 | 92° | 97km/h | 13178m | -6.2m/s | -54.5°C | 2.7% | 170.0hPa | 2.6V | 00:00:00 | 00:00:00 | 00:00:00 | |
| DO3MHA-11 | 2026-09-01 05:47:20 | 47.83339 | 11.95318 | 93° | 97km/h | 13184m | -6.1m/s | -54.2°C | 5.9% | 169.8hPa | 2.6V | 02:42:00 | 01:18:10 | 00:00:00 | |
| BAUMI2-15 | 2026-09-01 05:47:15 | 47.83347 | 11.95138 | 94° | 97km/h | 13215m | -6.1m/s | -53.5°C | 5.4% | 169.0hPa | 2.6V | 00:00:00 | 01:18:05 | 00:00:00 | |
| DG1MFX-10 | 2026-09-01 05:47:14 | 47.83347 | 11.95138 | 94° | 97km/h | 13215m | -6.1m/s | -53.5°C | 2.5% | 169.1hPa | 2.6V | 02:43:00 | 00:00:00 | 00:00:00 | |
| DG1MJG | 2026-09-01 05:47:13 | 47.83348 | 11.95102 | 94° | 97km/h | 13221m | -5.9m/s | -53.4°C | 2.4% | 168.9hPa | 2.6V | 02:43:00 | 00:00:00 | 00:00:00 | |
| OE5MMP-10 | 2026-09-01 05:47:12 | 47.83350 | 11.95029 | 92° | 100km/h | 13233m | -6.2m/s | -53.0°C | 5.2% | 168.5hPa | 2.6V | 02:42:00 | 01:18:02 | 00:00:00 | |
| DB0UT-7 | 2026-09-01 05:47:11 | 47.83351 | 11.94992 | 91° | 97km/h | 13239m | -6.6m/s | -53.0°C | 5.2% | 168.3hPa | 2.6V | 00:00:00 | 01:18:01 | 00:00:00 | |
| DO3MHA-11 | 2026-09-01 05:47:10 | 47.83351 | 11.94955 | 90° | 99km/h | 13245m | -5.2m/s | -52.9°C | 5.2% | 168.2hPa | 2.6V | 00:00:00 | 01:18:00 | 00:00:00 | |
| BAUMI2-15 | 2026-09-01 05:47:08 | 47.83350 | 11.94879 | 90° | 99km/h | 13256m | -6.1m/s | -52.6°C | 5.1% | 167.9hPa | 2.6V | 02:42:00 | 01:17:58 | 00:00:00 | |
| NBG1-10 | 2026-09-01 05:47:07 | 47.83350 | 11.94841 | 90° | 97km/h | 13262m | -6.5m/s | -52.5°C | 5.0% | 167.8hPa | 2.6V | 02:42:00 | 01:17:57 | 00:00:00 | |
| OE5WHR-10 | 2026-09-01 05:47:06 | 47.83349 | 11.94803 | 89° | 97km/h | 13269m | -6.4m/s | -52.4°C | 5.0% | 167.5hPa | 2.6V | 02:42:00 | 00:00:00 | 00:00:00 | |
| DO8TBO-1 | 2026-09-01 05:47:04 | 47.83348 | 11.94729 | 89° | 95km/h | 13281m | -5.7m/s | -52.4°C | 5.0% | 167.2hPa | 2.6V | 00:00:00 | 01:17:54 | 00:00:00 | |
| DL6DJ-15 | 2026-09-01 05:46:51 | 47.83332 | 11.94217 | 88° | 95km/h | 13376m | -7.5m/s | -52.1°C | 2.1% | 164.8hPa | 2.6V | 00:00:00 | 00:00:00 | 00:00:00 | |
| DF7PN | 2026-09-01 05:46:47 | 47.83330 | 11.94075 | 88° | 93km/h | 13405m | -6.2m/s | -52.3°C | 2.2% | 164.1hPa | 2.6V | 00:00:00 | 00:00:00 | 00:00:00 | |
| OE5WHR-10 | 2026-09-01 05:46:45 | 47.83329 | 11.94040 | 88° | 91km/h | 13412m | -6.4m/s | -52.2°C | 4.9% | 163.9hPa | 2.6V | 00:00:00 | 00:00:00 | 00:00:00 | |
| BAUMI2-15 | 2026-09-01 05:46:44 | 47.83327 | 11.94004 | 87° | 95km/h | 13418m | -7.0m/s | -52.2°C | 4.9% | 163.7hPa | 2.6V | 00:00:00 | 01:17:34 | 00:00:00 | |
| OE5MMP-10 | 2026-09-01 05:46:42 | 47.83324 | 11.93932 | 86° | 91km/h | 13431m | -5.1m/s | -52.2°C | 4.9% | 163.4hPa | 2.6V | 02:43:00 | 01:17:32 | 00:00:00 | |
| DB0UT-7 | 2026-09-01 05:46:41 | 47.83322 | 11.93897 | 86° | 86km/h | 13437m | -6.2m/s | -52.2°C | 4.8% | 163.2hPa | 2.6V | 02:43:00 | 00:00:00 | 00:00:00 | |
| DO3MHA-11 | 2026-09-01 05:46:40 | 47.83321 | 11.93861 | 87° | 91km/h | 13443m | -6.0m/s | -52.2°C | 4.9% | 163.1hPa | 2.7V | 00:00:00 | 01:17:30 | 00:00:00 | |
| BAUMI2-15 | 2026-09-01 05:46:39 | 47.83319 | 11.93826 | 88° | 91km/h | 13450m | -7.8m/s | -52.2°C | 4.9% | 162.9hPa | 2.7V | 00:00:00 | 01:17:29 | 00:00:00 | |
| OE5DRO-10 | 2026-09-01 05:46:37 | 47.83318 | 11.93756 | 89° | 88km/h | 13464m | -6.1m/s | -52.2°C | 4.8% | 162.6hPa | 2.7V | 00:00:00 | 00:00:00 | 00:00:00 | |
| DO8TBO-1 | 2026-09-01 05:46:32 | 47.83317 | 11.93588 | 90° | 82km/h | 13499m | -6.8m/s | -52.0°C | 4.7% | 161.8hPa | 2.7V | 00:00:00 | 01:17:22 | 00:00:00 | |
| OE5MMP-10 | 2026-09-01 05:46:31 | 47.83316 | 11.93554 | 89° | 86km/h | 13506m | -6.4m/s | -52.1°C | 4.8% | 161.5hPa | 2.7V | 00:00:00 | 01:17:21 | 00:00:00 | |
| DO3MHA-11 | 2026-09-01 05:46:30 | 47.83315 | 11.93521 | 88° | 86km/h | 13513m | -6.8m/s | -52.0°C | 4.7% | 161.4hPa | 2.7V | 00:00:00 | 01:17:20 | 00:00:00 | |
| BAUMI2-15 | 2026-09-01 05:46:29 | 47.83314 | 11.93488 | 88° | 86km/h | 13519m | -6.6m/s | -52.0°C | 4.7% | 161.2hPa | 2.7V | 00:00:00 | 01:17:19 | 00:00:00 | |
| OE5WHR-10 | 2026-09-01 05:46:24 | 47.83311 | 11.93326 | 91° | 80km/h | 13553m | -7.4m/s | -52.1°C | 4.8% | 160.3hPa | 2.7V | 00:00:00 | 01:17:14 | 00:00:00 | |
| BAUMI2-15 | 2026-09-01 05:46:23 | 47.83312 | 11.93294 | 92° | 84km/h | 13560m | -5.3m/s | -52.2°C | 4.8% | 160.2hPa | 2.7V | 00:00:00 | 01:17:13 | 00:00:00 | |
| OE5DXL-15 | 2026-09-01 05:46:22 | 47.83313 | 11.93263 | 94° | 77km/h | 13565m | -6.3m/s | -52.2°C | 4.8% | 160.1hPa | 2.7V | 00:00:00 | 00:00:00 | 00:00:00 | |
| OE5MMP-10 | 2026-09-01 05:46:21 | 47.83314 | 11.93232 | 94° | 82km/h | 13572m | -6.5m/s | -52.2°C | 4.8% | 159.9hPa | 2.7V | 00:00:00 | 01:17:11 | 00:00:00 | |
| DL6DJ-15 | 2026-09-01 05:46:20 | 47.83317 | 11.93169 | 93° | 84km/h | 13586m | -7.6m/s | -52.4°C | 2.2% | 159.7hPa | 2.7V | 00:00:00 | 00:00:00 | 00:00:00 | |
| DF7PN | 2026-09-01 05:46:16 | 47.83321 | 11.93076 | 92° | 80km/h | 13606m | -6.3m/s | -52.5°C | 2.2% | 159.1hPa | 2.7V | 00:00:00 | 00:00:00 | 00:00:00 | |
| BAUMI2-15 | 2026-09-01 05:46:13 | 47.83323 | 11.92985 | 94° | 80km/h | 13627m | -6.3m/s | -52.7°C | 4.9% | 158.6hPa | 2.7V | 00:00:00 | 01:17:03 | 00:00:00 | |
| DG1MJG | 2026-09-01 05:46:12 | 47.83324 | 11.92985 | 94° | 80km/h | 13627m | -6.3m/s | -52.7°C | 2.2% | 158.6hPa | 2.7V | 02:44:00 | 00:00:00 | 00:00:00 | |
| DB0UT-7 | 2026-09-01 05:46:11 | 47.83326 | 11.92924 | 95° | 75km/h | 13640m | -6.7m/s | -52.7°C | 5.0% | 158.2hPa | 2.7V | 00:00:00 | 01:17:01 | 00:00:00 | |
| DO3MHA-11 | 2026-09-01 05:46:10 | 47.83328 | 11.92894 | 96° | 77km/h | 13647m | -7.2m/s | -52.8°C | 5.0% | 158.0hPa | 2.7V | 00:00:00 | 01:17:00 | 00:00:00 | |
| BAUMI2-15 | 2026-09-01 05:46:08 | 47.83333 | 11.92835 | 100° | 78km/h | 13662m | -7.2m/s | -52.8°C | 4.9% | 157.7hPa | 2.7V | 00:00:00 | 01:16:58 | 00:00:00 | |
| OE5WHR-10 | 2026-09-01 05:46:03 | 47.83351 | 11.92693 | 102° | 73km/h | 13696m | -6.7m/s | -52.9°C | 5.0% | 156.8hPa | 2.7V | 02:44:00 | 00:00:00 | 00:00:00 | |
| DL6DJ-15 | 2026-09-01 05:45:49 | 47.83389 | 11.92294 | 94° | 73km/h | 13803m | -7.3m/s | -53.0°C | 2.2% | 154.4hPa | 2.6V | 00:00:00 | 00:00:00 | 00:00:00 | |
| DF7PN | 2026-09-01 05:45:45 | 47.83393 | 11.92211 | 93° | 73km/h | 13825m | -7.4m/s | -53.0°C | 2.3% | 153.8hPa | 2.6V | 00:00:00 | 00:00:00 | 00:00:00 | |
| OE5WHR-10 | 2026-09-01 05:45:42 | 47.83395 | 11.92127 | 92° | 78km/h | 13845m | -5.6m/s | -53.1°C | 5.0% | 153.3hPa | 2.6V | 00:00:00 | 00:00:00 | 00:00:00 | |
| DB0UT-7 | 2026-09-01 05:45:41 | 47.83395 | 11.92099 | 92° | 80km/h | 13851m | -7.1m/s | -53.2°C | 5.0% | 153.1hPa | 2.6V | 00:00:00 | 00:00:00 | 00:00:00 | |
| DO8TBO-1 | 2026-09-01 05:45:32 | 47.83395 | 11.91845 | 91° | 80km/h | 13912m | -6.9m/s | -53.5°C | 5.2% | 151.7hPa | 2.6V | 00:00:00 | 01:16:22 | 00:00:00 | |
| OE5MMP-10 | 2026-09-01 05:45:31 | 47.83395 | 11.91816 | 91° | 82km/h | 13919m | -6.4m/s | -53.6°C | 5.2% | 151.5hPa | 2.6V | 00:00:00 | 01:16:21 | 00:00:00 | |
| DO3MHA-12 | 2026-09-01 05:45:30 | 47.83395 | 11.91786 | 90° | 84km/h | 13926m | -7.3m/s | -53.6°C | 5.2% | 151.3hPa | 2.6V | 00:00:00 | 01:16:20 | 00:00:00 | |
| NBG1-10 | 2026-09-01 05:45:28 | 47.83395 | 11.91725 | 89° | 78km/h | 13941m | -7.1m/s | -53.7°C | 5.2% | 151.0hPa | 2.6V | 02:44:00 | 01:16:18 | 00:00:00 | |
| OE5DXL-15 | 2026-09-01 05:45:22 | 47.83391 | 11.91536 | 89° | 75km/h | 13985m | -7.2m/s | -54.0°C | 5.4% | 149.9hPa | 2.6V | 00:00:00 | 00:00:00 | 00:00:00 | |
| OE5WHR-10 | 2026-09-01 05:45:21 | 47.83390 | 11.91504 | 89° | 77km/h | 13993m | -6.9m/s | -54.1°C | 5.4% | 149.8hPa | 2.6V | 00:00:00 | 01:16:11 | 00:00:00 | |
| DO3MHA-11 | 2026-09-01 05:45:20 | 47.83390 | 11.91472 | 90° | 80km/h | 13999m | -6.3m/s | -54.2°C | 5.5% | 149.6hPa | 2.6V | 02:44:00 | 01:16:10 | 00:00:00 | |
| DL6DJ-15 | 2026-09-01 05:45:17 | 47.83390 | 11.91378 | 90° | 80km/h | 14020m | -6.9m/s | -54.4°C | 2.5% | 149.2hPa | 2.7V | 00:00:00 | 00:00:00 | 00:00:00 | |
| DF7PN | 2026-09-01 05:45:14 | 47.83390 | 11.91201 | 88° | 77km/h | 14064m | -7.6m/s | -54.4°C | 2.4% | 148.1hPa | 2.7V | 00:00:00 | 00:00:00 | 00:00:00 | |
| OE5MMP-10 | 2026-09-01 05:45:11 | 47.83390 | 11.91201 | 89° | 75km/h | 14064m | -7.5m/s | -54.4°C | 5.4% | 148.1hPa | 2.7V | 02:44:00 | 01:16:01 | 00:00:00 | |
| DO3MHA-11 | 2026-09-01 05:45:10 | 47.83389 | 11.91171 | 89° | 73km/h | 14072m | -7.7m/s | -54.4°C | 5.5% | 147.9hPa | 2.7V | 00:00:00 | 01:16:00 | 00:00:00 | |
| DL6DJ-15 | 2026-09-01 05:44:46 | 47.83399 | 11.90526 | 91° | 75km/h | 14245m | -6.5m/s | -54.8°C | 2.6% | 144.1hPa | 2.7V | 00:00:00 | 00:00:00 | 00:00:00 | |
| OE5DRO-10 | 2026-09-01 05:44:43 | 47.83400 | 11.90439 | 91° | 75km/h | 14266m | -7.0m/s | -54.6°C | 5.6% | 143.5hPa | 2.7V | 00:00:00 | 00:00:00 | 00:00:00 | |
| PG1ADW-2 | 2026-09-01 05:44:42 | 47.83400 | 11.90410 | 91° | 69km/h | 14273m | -6.9m/s | -54.6°C | 5.7% | 143.3hPa | 2.7V | 02:45:00 | 00:00:00 | 00:00:00 | |
| OE5MMP-10 | 2026-09-01 05:44:41 | 47.83401 | 11.90380 | 91° | 75km/h | 14280m | -7.2m/s | -54.6°C | 5.7% | 143.2hPa | 2.7V | 02:45:00 | 01:15:31 | 00:00:00 | |
| DO3MHA-11 | 2026-09-01 05:44:40 | 47.83401 | 11.90351 | 90° | 75km/h | 14287m | -6.5m/s | -54.5°C | 5.5% | 143.0hPa | 2.6V | 00:00:00 | 01:15:30 | 00:00:00 | |
| OE5WHR-10 | 2026-09-01 05:44:38 | 47.83401 | 11.90293 | 90° | 73km/h | 14301m | -7.2m/s | -54.6°C | 5.5% | 142.7hPa | 2.6V | 00:00:00 | 00:00:00 | 00:00:00 | |
| DO8TBO-1 | 2026-09-01 05:44:32 | 47.83399 | 11.90127 | 89° | 69km/h | 14344m | -6.9m/s | -54.6°C | 5.6% | 141.7hPa | 2.6V | 02:45:00 | 01:15:22 | 00:00:00 | |
| OE5MMP-10 | 2026-09-01 05:44:31 | 47.83398 | 11.90099 | 89° | 73km/h | 14351m | -6.7m/s | -54.5°C | 5.6% | 141.6hPa | 2.7V | 00:00:00 | 01:15:21 | 00:00:00 | |
| DO3MHA-11 | 2026-09-01 05:44:30 | 47.83397 | 11.90072 | 88° | 73km/h | 14358m | -7.0m/s | -54.5°C | 5.5% | 141.4hPa | 2.7V | 00:00:00 | 01:15:20 | 00:00:00 | |
| DG1MFX-10 | 2026-09-01 05:44:29 | 47.83397 | 11.90072 | 88° | 73km/h | 14358m | -7.1m/s | -54.6°C | 2.5% | 141.5hPa | 2.7V | 02:46:00 | 00:00:00 | 00:00:00 | |
| OE5DRO-10 | 2026-09-01 05:44:24 | 47.83392 | 11.89907 | 88° | 68km/h | 14401m | -7.3m/s | -54.4°C | 5.4% | 140.5hPa | 2.7V | 00:00:00 | 00:00:00 | 00:00:00 | |
| OE5DXL-15 | 2026-09-01 05:44:22 | 47.83390 | 11.89853 | 89° | 68km/h | 14416m | -7.3m/s | -54.5°C | 5.4% | 140.1hPa | 2.7V | 02:45:00 | 00:00:00 | 00:00:00 | |
| OE5MMP-10 | 2026-09-01 05:44:21 | 47.83390 | 11.89827 | 90° | 68km/h | 14423m | -6.0m/s | -54.6°C | 5.5% | 140.0hPa | 2.7V | 00:00:00 | 01:15:11 | 00:00:00 | |
| DO3MHA-11 | 2026-09-01 05:44:20 | 47.83390 | 11.89801 | 90° | 66km/h | 14429m | -6.3m/s | -54.6°C | 5.5% | 139.9hPa | 2.7V | 02:45:00 | 01:15:10 | 00:00:00 | |
| OE5WHR-10 | 2026-09-01 05:44:17 | 47.83389 | 11.89725 | 90° | 68km/h | 14451m | -7.5m/s | -54.8°C | 5.5% | 139.4hPa | 2.6V | 00:00:00 | 01:15:07 | 00:00:00 | |
| DL6DJ-15 | 2026-09-01 05:44:15 | 47.83389 | 11.89676 | 87° | 64km/h | 14466m | -7.9m/s | -55.0°C | 2.5% | 139.1hPa | 2.6V | 00:00:00 | 00:00:00 | 00:00:00 | |
| DF7PN | 2026-09-01 05:44:12 | 47.83386 | 11.89602 | 86° | 66km/h | 14489m | -7.5m/s | -55.2°C | 2.5% | -1.0hPa | 2.6V | 00:00:00 | 00:00:00 | 00:00:00 | |
| DB0UT-7 | 2026-09-01 05:44:11 | 47.83385 | 11.89577 | 87° | 71km/h | 14497m | -8.0m/s | -55.2°C | 5.7% | 138.4hPa | 2.6V | 00:00:00 | 01:15:01 | 00:00:00 | |
| DO3MHA-11 | 2026-09-01 05:44:10 | 47.83384 | 11.89552 | 87° | 66km/h | 14505m | -7.4m/s | -55.3°C | 5.7% | 138.2hPa | 2.6V | 00:00:00 | 01:15:00 | 00:00:00 | |
| DG1MFX-10 | 2026-09-01 05:44:08 | 47.83383 | 11.89527 | 87° | 66km/h | 14512m | -7.6m/s | -55.4°C | 2.5% | 138.1hPa | 2.6V | 02:46:00 | 00:00:00 | 00:00:00 | |
| OE5DRO-10 | 2026-09-01 05:44:05 | 47.83379 | 11.89429 | 87° | 71km/h | 14542m | -7.6m/s | -55.4°C | 5.8% | 137.4hPa | 2.6V | 02:45:00 | 00:00:00 | 00:00:00 | |
| DO8TBO-1 | 2026-09-01 05:44:02 | 47.83374 | 11.89354 | 84° | 73km/h | 14565m | -7.3m/s | -55.4°C | 5.7% | 136.9hPa | 2.6V | 00:00:00 | 01:14:52 | 00:00:00 | |
| OE5MMP-10 | 2026-09-01 05:44:01 | 47.83372 | 11.89328 | 83° | 69km/h | 14572m | -6.7m/s | -55.4°C | 5.7% | 136.8hPa | 2.6V | 00:00:00 | 01:14:51 | 00:00:00 | |
| DO3MHA-11 | 2026-09-01 05:44:00 | 47.83370 | 11.89303 | 82° | 71km/h | 14579m | -7.9m/s | -55.4°C | 5.7% | 136.6hPa | 2.6V | 00:00:00 | 01:14:50 | 00:00:00 | |
| OE5WHR-10 | 2026-09-01 05:43:55 | 47.83359 | 11.89176 | 86° | 71km/h | 14619m | -7.3m/s | -55.1°C | 5.5% | 135.7hPa | 2.6V | 02:46:00 | 00:00:00 | 00:00:00 | |
| OE5DXL-15 | 2026-09-01 05:43:52 | 47.83357 | 11.89093 | 89° | 75km/h | 14642m | -7.8m/s | -55.1°C | 5.5% | 135.3hPa | 2.6V | 00:00:00 | 00:00:00 | 00:00:00 | |
| OE5MMP-10 | 2026-09-01 05:43:51 | 47.83356 | 11.89065 | 88° | 77km/h | 14650m | -8.2m/s | -55.2°C | 5.5% | 135.1hPa | 2.6V | 00:00:00 | 01:14:41 | 00:00:00 | |
| DO3MHA-11 | 2026-09-01 05:43:50 | 47.83355 | 11.89035 | 89° | 77km/h | 14658m | -7.0m/s | -55.2°C | 5.5% | 135.0hPa | 2.6V | 02:46:00 | 01:14:40 | 00:00:00 | |
| NBG1-10 | 2026-09-01 05:43:49 | 47.83355 | 11.89005 | 89° | 73km/h | 14666m | -7.8m/s | -55.2°C | 5.5% | 134.8hPa | 2.6V | 02:46:00 | 01:14:39 | 00:00:00 | |
| DG1MFX-10 | 2026-09-01 05:43:47 | 47.83354 | 11.88975 | 89° | 80km/h | 14673m | -7.1m/s | -55.3°C | 2.4% | 134.7hPa | 2.6V | 02:46:00 | 00:00:00 | 00:00:00 | |
| OE5DRO-10 | 2026-09-01 05:43:46 | 47.83352 | 11.88916 | 87° | 75km/h | 14689m | -7.3m/s | -55.3°C | 5.5% | 134.3hPa | 2.6V | 00:00:00 | 00:00:00 | 00:00:00 | |
| DL6DJ-15 | 2026-09-01 05:43:44 | 47.83348 | 11.88859 | 84° | 75km/h | 14705m | -7.1m/s | -55.5°C | 2.4% | 134.0hPa | 2.6V | 00:00:00 | 00:00:00 | 00:00:00 | |
| DB0UT-7 | 2026-09-01 05:43:41 | 47.83343 | 11.88777 | 86° | 73km/h | 14727m | -7.3m/s | -55.6°C | 5.6% | 133.5hPa | 2.6V | 02:46:00 | 00:00:00 | 00:00:00 | |
| DO3MHA-11 | 2026-09-01 05:43:40 | 47.83341 | 11.88751 | 86° | 77km/h | 14735m | -8.2m/s | -55.6°C | 5.6% | 133.3hPa | 2.7V | 00:00:00 | 01:14:30 | 00:00:00 | |
| BAUMI2-15 | 2026-09-01 05:43:37 | 47.83339 | 11.88668 | 90° | 77km/h | 14757m | -6.5m/s | -55.5°C | 5.7% | 132.9hPa | 2.7V | 00:00:00 | 01:14:27 | 00:00:00 | |
| BAUMI2-15 | 2026-09-01 05:43:32 | 47.83338 | 11.88522 | 91° | 77km/h | 14794m | -7.2m/s | -55.4°C | 5.6% | 132.1hPa | 2.7V | 02:46:00 | 01:14:22 | 00:00:00 | |
| OE5MMP-10 | 2026-09-01 05:43:31 | 47.83339 | 11.88493 | 91° | 73km/h | 14801m | -6.9m/s | -55.4°C | 5.6% | 131.9hPa | 2.6V | 00:00:00 | 01:14:21 | 00:00:00 | |
| DO3MHA-11 | 2026-09-01 05:43:30 | 47.83339 | 11.88464 | 91° | 71km/h | 14809m | -7.9m/s | -55.4°C | 5.5% | 131.8hPa | 2.6V | 00:00:00 | 01:14:20 | 00:00:00 | |
| BAUMI2-15 | 2026-09-01 05:43:27 | 47.83342 | 11.88380 | 93° | 69km/h | 14831m | -8.1m/s | -55.2°C | 5.4% | 131.3hPa | 2.6V | 00:00:00 | 01:14:17 | 00:00:00 | |
| DG1MFX-10 | 2026-09-01 05:43:26 | 47.83342 | 11.88380 | 94° | 73km/h | 14831m | -8.2m/s | -55.3°C | 2.3% | 131.3hPa | 2.6V | 02:46:00 | 00:00:00 | 00:00:00 | |
| OE5DXL-15 | 2026-09-01 05:43:22 | 47.83343 | 11.88249 | 91° | 68km/h | 14871m | -8.9m/s | -55.1°C | 5.3% | 130.5hPa | 2.6V | 00:00:00 | 00:00:00 | 00:00:00 | |
| OE5MMP-10 | 2026-09-01 05:43:21 | 47.83343 | 11.88224 | 91° | 69km/h | 14879m | -7.4m/s | -55.2°C | 5.4% | 130.3hPa | 2.6V | 00:00:00 | 01:14:11 | 00:00:00 | |
| DO3MHA-11 | 2026-09-01 05:43:20 | 47.83344 | 11.88199 | 91° | 69km/h | 14887m | -7.8m/s | -55.1°C | 5.4% | 130.2hPa | 2.6V | 02:46:00 | 01:14:10 | 00:00:00 | |
| NBG1-10 | 2026-09-01 05:43:16 | 47.83343 | 11.88095 | 87° | 66km/h | 14920m | -8.9m/s | -55.1°C | 5.4% | 129.6hPa | 2.7V | 00:00:00 | 01:14:06 | 00:00:00 | |
| DL6DJ-15 | 2026-09-01 05:43:13 | 47.83338 | 11.88018 | 82° | 69km/h | 14945m | -7.8m/s | -55.1°C | 2.2% | 129.1hPa | 2.7V | 00:00:00 | 00:00:00 | 00:00:00 | |
| BAUMI2-15 | 2026-09-01 05:43:12 | 47.83336 | 11.87992 | 82° | 69km/h | 14952m | -6.8m/s | -55.1°C | 5.3% | 128.9hPa | 2.7V | 02:46:00 | 01:14:02 | 00:00:00 | |
| DB0UT-7 | 2026-09-01 05:43:11 | 47.83333 | 11.87966 | 82° | 64km/h | 14959m | -7.0m/s | -55.1°C | 5.4% | 128.7hPa | 2.7V | 00:00:00 | 01:14:01 | 00:00:00 | |
| IW2NTF | 2026-09-01 05:43:10 | 47.83316 | 11.87813 | 80° | 68km/h | 15004m | -7.3m/s | 0°C | 0% | 0hPa | 2.7V | 00:00:00 | 01:13:55 | 00:00:00 | |
| DO3MHA-11 | 2026-09-01 05:43:10 | 47.83330 | 11.87940 | 82° | 68km/h | 14966m | -7.5m/s | -55.1°C | 5.4% | 128.6hPa | 2.6V | 00:00:00 | 01:14:00 | 00:00:00 | |
| OE5DRO-10 | 2026-09-01 05:43:08 | 47.83325 | 11.87889 | 81° | 66km/h | 14982m | -6.8m/s | -55.1°C | 5.4% | 128.3hPa | 2.6V | 02:46:00 | 00:00:00 | 00:00:00 | |
| BAUMI2-15 | 2026-09-01 05:43:07 | 47.83322 | 11.87864 | 81° | 68km/h | 14989m | -8.0m/s | -55.2°C | 5.5% | 128.1hPa | 2.6V | 00:00:00 | 01:13:57 | 00:00:00 | |
| DG1MFX-10 | 2026-09-01 05:43:06 | 47.83322 | 11.87864 | 81° | 69km/h | 14989m | -8.1m/s | -55.2°C | 2.3% | 128.2hPa | 2.6V | 02:46:00 | 00:00:00 | 00:00:00 | |
| BAUMI2-15 | 2026-09-01 05:43:02 | 47.83307 | 11.87738 | 80° | 68km/h | 15026m | -7.7m/s | -55.0°C | 5.5% | 127.4hPa | 2.6V | 00:00:00 | 01:13:52 | 00:00:00 | |
| OE5MMP-10 | 2026-09-01 05:43:01 | 47.83304 | 11.87713 | 80° | 66km/h | 15034m | -8.1m/s | -54.9°C | 5.4% | 127.2hPa | 2.6V | 00:00:00 | 01:13:51 | 00:00:00 | |
| DG1MJG | 2026-09-01 05:43:00 | 47.83304 | 11.87713 | 80° | 68km/h | 15034m | -8.1m/s | -55.0°C | 2.3% | 127.3hPa | 2.6V | 02:47:00 | 00:00:00 | 00:00:00 | |
| OE5WHR-10 | 2026-09-01 05:42:58 | 47.83295 | 11.87638 | 83° | 58km/h | 15056m | -6.9m/s | -55.0°C | 5.5% | 126.8hPa | 2.6V | 00:00:00 | 00:00:00 | 00:00:00 | |
| BAUMI2-15 | 2026-09-01 05:42:57 | 47.83293 | 11.87613 | 85° | 66km/h | 15062m | -5.8m/s | -54.9°C | 5.4% | 126.6hPa | 2.6V | 02:47:00 | 01:13:47 | 00:00:00 | |
| BAUMI2-15 | 2026-09-01 05:42:52 | 47.83286 | 11.87491 | 85° | 62km/h | 15101m | -8.3m/s | -54.7°C | 5.3% | 125.9hPa | 2.6V | 00:00:00 | 01:13:42 | 00:00:00 | |
| OE5MMP-10 | 2026-09-01 05:42:51 | 47.83284 | 11.87468 | 85° | 58km/h | 15109m | -8.1m/s | -54.8°C | 5.2% | 125.7hPa | 2.6V | 00:00:00 | 01:13:41 | 00:00:00 | |
| DO3MHA-11 | 2026-09-01 05:42:50 | 47.83283 | 11.87444 | 84° | 58km/h | 15117m | -7.9m/s | -54.8°C | 5.3% | 125.6hPa | 2.6V | 02:47:00 | 01:13:40 | 00:00:00 | |
| OE5DRO-10 | 2026-09-01 05:42:49 | 47.83281 | 11.87421 | 82° | 57km/h | 15125m | -8.3m/s | -54.8°C | 5.3% | 125.4hPa | 2.7V | 00:00:00 | 00:00:00 | 00:00:00 | |
| BAUMI2-15 | 2026-09-01 05:42:47 | 47.83277 | 11.87376 | 83° | 57km/h | 15141m | -7.5m/s | -54.8°C | 5.2% | 125.1hPa | 2.7V | 00:00:00 | 01:13:37 | 00:00:00 | |
| DG1MFX-10 | 2026-09-01 05:42:45 | 47.83275 | 11.87354 | 83° | 58km/h | 15149m | -8.0m/s | -54.8°C | 2.2% | 125.0hPa | 2.7V | 02:47:00 | 00:00:00 | 00:00:00 | |
| NBG1-10 | 2026-09-01 05:42:43 | 47.83270 | 11.87291 | 84° | 57km/h | 15173m | -8.4m/s | -54.6°C | 5.1% | 124.5hPa | 2.7V | 00:00:00 | 01:13:33 | 00:00:00 | |
| DL6DJ-15 | 2026-09-01 05:42:42 | 47.83269 | 11.87271 | 84° | 53km/h | 15181m | -6.9m/s | -54.6°C | 2.1% | 124.3hPa | 2.7V | 00:00:00 | 00:00:00 | 00:00:00 | |
| OE5MMP-10 | 2026-09-01 05:42:41 | 47.83267 | 11.87251 | 84° | 57km/h | 15188m | -8.5m/s | -54.6°C | 5.1% | 124.2hPa | 2.7V | 02:47:00 | 01:13:31 | 00:00:00 | |
| DO3MHA-11 | 2026-09-01 05:42:40 | 47.83266 | 11.87231 | 84° | 57km/h | 15197m | -8.5m/s | -54.6°C | 5.1% | 124.0hPa | 2.7V | 00:00:00 | 01:13:30 | 00:00:00 | |
| OE5WHR-10 | 2026-09-01 05:42:36 | 47.83258 | 11.87149 | 81° | 57km/h | 15227m | -7.5m/s | -54.7°C | 5.1% | 123.4hPa | 2.7V | 00:00:00 | 01:13:26 | 00:00:00 | |
| DO8TBO-1 | 2026-09-01 05:42:32 | 47.83248 | 11.87064 | 81° | 57km/h | 15258m | -7.6m/s | -54.8°C | 5.2% | 122.8hPa | 2.7V | 00:00:00 | 01:13:22 | 00:00:00 | |
| OE5MMP-10 | 2026-09-01 05:42:31 | 47.83245 | 11.87042 | 80° | 55km/h | 15266m | -6.9m/s | -54.9°C | 5.2% | 122.6hPa | 2.7V | 00:00:00 | 01:13:21 | 00:00:00 | |
| DO3MHA-11 | 2026-09-01 05:42:30 | 47.83242 | 11.87021 | 80° | 55km/h | 15273m | -8.5m/s | -54.9°C | 5.2% | 122.5hPa | 2.7V | 00:00:00 | 01:13:20 | 00:00:00 | |
| BAUMI2-15 | 2026-09-01 05:42:26 | 47.83231 | 11.86939 | 78° | 53km/h | 15304m | -8.1m/s | -55.0°C | 5.2% | 121.9hPa | 2.7V | 02:47:00 | 01:13:16 | 00:00:00 | |
| DG1MFX-10 | 2026-09-01 05:42:25 | 47.83231 | 11.86939 | 78° | 53km/h | 15304m | -8.2m/s | -55.1°C | 2.1% | 122.0hPa | 2.7V | 02:47:00 | 00:00:00 | 00:00:00 | |
| OE5DXL-15 | 2026-09-01 05:42:22 | 47.83219 | 11.86860 | 77° | 60km/h | 15335m | -7.3m/s | -55.1°C | 5.2% | 121.3hPa | 2.7V | 00:00:00 | 00:00:00 | 00:00:00 | |
| OE5MMP-10 | 2026-09-01 05:42:21 | 47.83216 | 11.86840 | 77° | 58km/h | 15343m | -8.1m/s | -55.0°C | 5.2% | 121.2hPa | 2.7V | 00:00:00 | 01:13:11 | 00:00:00 | |
| DO3MHA-11 | 2026-09-01 05:42:20 | 47.83213 | 11.86820 | 77° | 58km/h | 15352m | -8.3m/s | -54.9°C | 5.1% | 121.0hPa | 2.7V | 02:47:00 | 01:13:10 | 00:00:00 | |
| BAUMI2-15 | 2026-09-01 05:42:16 | 47.83198 | 11.86736 | 74° | 58km/h | 15384m | -7.4m/s | -55.1°C | 5.1% | 120.4hPa | 2.7V | 00:00:00 | 01:13:06 | 00:00:00 | |
| OE5WHR-10 | 2026-09-01 05:42:15 | 47.83193 | 11.86715 | 73° | 60km/h | 15392m | -7.9m/s | -55.1°C | 5.2% | 120.2hPa | 2.7V | 02:47:00 | 00:00:00 | 00:00:00 | |
| BAUMI2-15 | 2026-09-01 05:42:11 | 47.83175 | 11.86630 | 72° | 58km/h | 15425m | -7.7m/s | -55.1°C | 5.1% | 119.7hPa | 2.6V | 02:47:00 | 01:13:01 | 00:00:00 | |
| DO3MHA-11 | 2026-09-01 05:42:10 | 47.83171 | 11.86610 | 73° | 60km/h | 15432m | -6.6m/s | -55.1°C | 5.2% | 119.5hPa | 2.7V | 00:00:00 | 01:13:00 | 00:00:00 | |
| BAUMI2-15 | 2026-09-01 05:42:06 | 47.83152 | 11.86527 | 71° | 58km/h | 15463m | -9.6m/s | -55.4°C | 5.2% | 119.0hPa | 2.7V | 00:00:00 | 01:12:56 | 00:00:00 | |
| DG1MFX-10 | 2026-09-01 05:42:05 | 47.83152 | 11.86527 | 72° | 58km/h | 15463m | -9.6m/s | -55.4°C | 2.1% | 119.0hPa | 2.7V | 02:48:00 | 00:00:00 | 00:00:00 | |
| PG1ADW-2 | 2026-09-01 05:42:03 | 47.83138 | 11.86463 | 73° | 66km/h | 15487m | -7.9m/s | -55.4°C | 5.2% | 118.4hPa | 2.7V | 00:00:00 | 01:12:53 | 00:00:00 | |
| DO8TBO-1 | 2026-09-01 05:42:02 | 47.83133 | 11.86440 | 74° | 62km/h | 15495m | -7.8m/s | -55.4°C | 5.2% | 118.3hPa | 2.7V | 00:00:00 | 01:12:52 | 00:00:00 | |
| BAUMI2-15 | 2026-09-01 05:42:01 | 47.83128 | 11.86417 | 75° | 64km/h | 15503m | -8.4m/s | -55.4°C | 5.2% | 118.1hPa | 2.7V | 00:00:00 | 01:12:51 | 00:00:00 | |
| DO3MHA-11 | 2026-09-01 05:42:00 | 47.83124 | 11.86393 | 75° | 64km/h | 15511m | -7.8m/s | -55.5°C | 5.3% | 118.0hPa | 2.7V | 00:00:00 | 01:12:50 | 00:00:00 | |
| DG1MJG | 2026-09-01 05:41:59 | 47.83124 | 11.86393 | 75° | 64km/h | 15511m | -7.8m/s | -55.5°C | 2.1% | 118.1hPa | 2.7V | 02:48:00 | 00:00:00 | 00:00:00 | |
| BAUMI2-15 | 2026-09-01 05:41:56 | 47.83108 | 11.86300 | 77° | 62km/h | 15544m | -7.6m/s | -55.5°C | 5.3% | 117.4hPa | 2.7V | 02:48:00 | 01:12:46 | 00:00:00 | |
| IN3HCDX | 2026-09-01 05:41:55 | 47.83108 | 11.86300 | 77° | 64km/h | 15544m | -7.6m/s | -55.6°C | 2.1% | 117.5hPa | 2.7V | 00:00:00 | 00:00:00 | 00:00:00 | |
| OE5WHR-10 | 2026-09-01 05:41:54 | 47.83101 | 11.86254 | 77° | 62km/h | 15561m | -8.1m/s | -55.6°C | 5.3% | 117.1hPa | 2.7V | 00:00:00 | 00:00:00 | 00:00:00 | |
| OE5DXL-15 | 2026-09-01 05:41:52 | 47.83094 | 11.86208 | 77° | 60km/h | 15576m | -7.4m/s | -55.6°C | 5.3% | 116.8hPa | 2.7V | 00:00:00 | 00:00:00 | 00:00:00 | |
| OE5MMP-10 | 2026-09-01 05:41:51 | 47.83090 | 11.86186 | 78° | 66km/h | 15584m | -8.0m/s | -55.7°C | 5.3% | 116.7hPa | 2.7V | 00:00:00 | 01:12:41 | 00:00:00 | |
| DO3MHA-11 | 2026-09-01 05:41:50 | 47.83087 | 11.86162 | 78° | 64km/h | 15592m | -6.4m/s | -55.7°C | 5.3% | 116.6hPa | 2.7V | 02:48:00 | 01:12:40 | 00:00:00 | |
| DG1MFX-10 | 2026-09-01 05:41:45 | 47.83075 | 11.86065 | 80° | 68km/h | 15623m | -7.7m/s | -55.9°C | 2.2% | 116.0hPa | 2.6V | 02:48:00 | 00:00:00 | 00:00:00 | |
| BAUMI2-15 | 2026-09-01 05:41:43 | 47.83065 | 11.85992 | 79° | 62km/h | 15646m | -7.8m/s | -55.9°C | 5.4% | 115.6hPa | 2.6V | 00:00:00 | 01:12:33 | 00:00:00 | |
| DB0UT-7 | 2026-09-01 05:41:41 | 47.83059 | 11.85946 | 80° | 55km/h | 15663m | -8.5m/s | -56.0°C | 5.4% | 115.3hPa | 2.6V | 00:00:00 | 00:00:00 | 00:00:00 | |
| DO3MHA-11 | 2026-09-01 05:41:40 | 47.83057 | 11.85924 | 83° | 58km/h | 15671m | -8.4m/s | -56.0°C | 5.4% | 115.1hPa | 2.6V | 00:00:00 | 01:12:30 | 00:00:00 | |
| NBG1-10 | 2026-09-01 05:41:37 | 47.83053 | 11.85858 | 89° | 55km/h | 15695m | -7.0m/s | -55.9°C | 5.4% | 114.6hPa | 2.6V | 00:00:00 | 01:12:27 | 00:00:00 | |
| DK5PH-5 | 2026-09-01 05:41:36 | 47.83053 | 11.85836 | 88° | 55km/h | 15703m | -7.7m/s | -55.9°C | 5.4% | 114.5hPa | 2.6V | 00:00:00 | 01:12:26 | 00:00:00 | |
| OE5WHR-10 | 2026-09-01 05:41:33 | 47.83051 | 11.85772 | 87° | 53km/h | 15727m | -9.3m/s | -55.9°C | 5.4% | 114.1hPa | 2.6V | 00:00:00 | 01:12:23 | 00:00:00 | |
| DO8TBO-1 | 2026-09-01 05:41:32 | 47.83050 | 11.85751 | 86° | 53km/h | 15736m | -9.2m/s | -56.0°C | 5.4% | 114.0hPa | 2.6V | 02:48:00 | 01:12:22 | 00:00:00 | |
| OE5MMP-10 | 2026-09-01 05:41:31 | 47.83049 | 11.85730 | 84° | 55km/h | 15745m | -8.7m/s | -56.0°C | 5.4% | 113.8hPa | 2.6V | 00:00:00 | 01:12:21 | 00:00:00 | |
| DO3MHA-11 | 2026-09-01 05:41:30 | 47.83047 | 11.85708 | 83° | 53km/h | 15754m | -8.3m/s | -56.0°C | 5.4% | 113.6hPa | 2.6V | 00:00:00 | 01:12:20 | 00:00:00 | |
| DG1MJG | 2026-09-01 05:41:29 | 47.83047 | 11.85708 | 83° | 57km/h | 15754m | -8.3m/s | -56.0°C | 2.1% | 113.7hPa | 2.6V | 02:48:00 | 00:00:00 | 00:00:00 | |
| IN3HCDX | 2026-09-01 05:41:26 | 47.83039 | 11.85646 | 79° | 55km/h | 15778m | -6.9m/s | -56.1°C | 2.1% | 113.2hPa | 2.6V | 00:00:00 | 00:00:00 | 00:00:00 | |
| DG1MFX-10 | 2026-09-01 05:41:24 | 47.83032 | 11.85607 | 76° | 53km/h | 15792m | -8.5m/s | -56.2°C | 2.1% | 113.0hPa | 2.6V | 02:48:00 | 00:00:00 | 00:00:00 | |
| PG1ADW-2 | 2026-09-01 05:41:23 | 47.83026 | 11.85569 | 78° | 53km/h | 15808m | -8.0m/s | -56.2°C | 5.4% | 112.7hPa | 2.6V | 02:48:00 | 00:00:00 | 00:00:00 | |
| OE5DXL-15 | 2026-09-01 05:41:22 | 47.83024 | 11.85550 | 82° | 53km/h | 15817m | -8.2m/s | -56.2°C | 5.4% | 112.5hPa | 2.7V | 02:48:00 | 00:00:00 | 00:00:00 | |
| OE5MMP-10 | 2026-09-01 05:41:21 | 47.83022 | 11.85531 | 80° | 53km/h | 15825m | -8.4m/s | -56.3°C | 5.4% | 112.4hPa | 2.6V | 00:00:00 | 01:12:11 | 00:00:00 | |
| DO3MHA-11 | 2026-09-01 05:41:20 | 47.83020 | 11.85512 | 83° | 53km/h | 15835m | -11.1m/s | -56.3°C | 5.4% | 112.2hPa | 2.6V | 02:48:00 | 01:12:10 | 00:00:00 | |
| OE5DRO-10 | 2026-09-01 05:41:14 | 47.83010 | 11.85396 | 82° | 53km/h | 15884m | -8.6m/s | -56.6°C | 5.6% | 111.3hPa | 2.6V | 02:48:00 | 00:00:00 | 00:00:00 | |
| OE5MMP-10 | 2026-09-01 05:41:11 | 47.83004 | 11.85337 | 80° | 55km/h | 15909m | -8.2m/s | -56.4°C | 5.5% | 110.9hPa | 2.7V | 02:48:00 | 01:12:01 | 00:00:00 | |
| DO3MHA-11 | 2026-09-01 05:41:10 | 47.83002 | 11.85317 | 82° | 55km/h | 15918m | -9.7m/s | -56.4°C | 5.5% | 110.8hPa | 2.7V | 00:00:00 | 01:12:00 | 00:00:00 | |
| DL6DJ-15 | 2026-09-01 05:41:09 | 47.83000 | 11.85296 | 79° | 53km/h | 15926m | -7.5m/s | -56.4°C | 2.1% | 110.6hPa | 2.7V | 00:00:00 | 00:00:00 | 00:00:00 | |
| NBG1-10 | 2026-09-01 05:41:04 | 47.82986 | 11.85196 | 78° | 51km/h | 15967m | -8.5m/s | -56.3°C | 5.4% | 109.9hPa | 2.7V | 00:00:00 | 01:11:54 | 00:00:00 | |
| PG1ADW-2 | 2026-09-01 05:41:03 | 47.82983 | 11.85176 | 79° | 51km/h | 15975m | -8.1m/s | -56.3°C | 5.4% | 109.7hPa | 2.7V | 00:00:00 | 00:00:00 | 00:00:00 | |
| DO8TBO-1 | 2026-09-01 05:41:02 | 47.82980 | 11.85156 | 77° | 49km/h | 15983m | -7.6m/s | -56.3°C | 5.5% | 109.6hPa | 2.7V | 00:00:00 | 01:11:52 | 00:00:00 | |
| OE5MMP-10 | 2026-09-01 05:41:01 | 47.82977 | 11.85137 | 78° | 51km/h | 15990m | -7.6m/s | -56.3°C | 5.5% | 109.5hPa | 2.7V | 00:00:00 | 01:11:51 | 00:00:00 | |
| DO3MHA-11 | 2026-09-01 05:41:00 | 47.82975 | 11.85117 | 80° | 51km/h | 15996m | -4.9m/s | -56.4°C | 5.5% | 109.3hPa | 2.7V | 00:00:00 | 01:11:50 | 00:00:00 | |
| DG1MJG | 2026-09-01 05:40:58 | 47.82973 | 11.85098 | 83° | 51km/h | 16004m | -9.8m/s | -56.5°C | 2.1% | 109.3hPa | 2.7V | 02:49:00 | 00:00:00 | 00:00:00 | |
| OE5DRO-10 | 2026-09-01 05:40:55 | 47.82967 | 11.85021 | 85° | 47km/h | 16038m | -8.5m/s | -56.4°C | 5.4% | 108.7hPa | 2.7V | 00:00:00 | 00:00:00 | 00:00:00 | |
| DK5PH-5 | 2026-09-01 05:40:54 | 47.82966 | 11.85001 | 85° | 49km/h | 16046m | -8.2m/s | -56.4°C | 5.5% | 108.5hPa | 2.7V | 00:00:00 | 01:11:44 | 00:00:00 | |
| OE5DXL-15 | 2026-09-01 05:40:52 | 47.82963 | 11.84964 | 85° | 51km/h | 16063m | -8.8m/s | -56.4°C | 5.5% | 108.3hPa | 2.7V | 00:00:00 | 00:00:00 | 00:00:00 | |
| OE5MMP-10 | 2026-09-01 05:40:51 | 47.82962 | 11.84946 | 82° | 47km/h | 16072m | -8.3m/s | -56.4°C | 5.5% | 108.1hPa | 2.7V | 00:00:00 | 01:11:41 | 00:00:00 | |
| DO3MHA-11 | 2026-09-01 05:40:50 | 47.82960 | 11.84927 | 81° | 47km/h | 16080m | -7.8m/s | -56.4°C | 5.5% | 108.0hPa | 2.7V | 02:49:00 | 01:11:40 | 00:00:00 | |
| OE5WHR-10 | 2026-09-01 05:40:49 | 47.82957 | 11.84909 | 80° | 49km/h | 16089m | -8.5m/s | -56.4°C | 5.5% | 107.8hPa | 2.6V | 00:00:00 | 00:00:00 | 00:00:00 | |
| PG1ADW-2 | 2026-09-01 05:40:43 | 47.82942 | 11.84806 | 78° | 51km/h | 16141m | -9.3m/s | -56.3°C | 5.4% | 107.0hPa | 2.6V | 00:00:00 | 01:11:33 | 00:00:00 | |
| OE5MMP-10 | 2026-09-01 05:40:41 | 47.82937 | 11.84773 | 75° | 51km/h | 16157m | -7.9m/s | -56.3°C | 5.4% | 106.7hPa | 2.6V | 02:49:00 | 01:11:31 | 00:00:00 | |
| DO3MHA-11 | 2026-09-01 05:40:40 | 47.82934 | 11.84756 | 75° | 53km/h | 16165m | -8.3m/s | -56.3°C | 5.4% | 106.5hPa | 2.6V | 00:00:00 | 01:11:30 | 00:00:00 | |
| DL6DJ-15 | 2026-09-01 05:40:38 | 47.82927 | 11.84721 | 77° | 49km/h | 16182m | -9.2m/s | -56.3°C | 2.0% | 106.3hPa | 2.6V | 00:00:00 | 00:00:00 | 00:00:00 | |
| OE5DRO-10 | 2026-09-01 05:40:36 | 47.82921 | 11.84683 | 79° | 53km/h | 16201m | -8.5m/s | -56.3°C | 5.4% | 105.9hPa | 2.6V | 00:00:00 | 00:00:00 | 00:00:00 | |
| DO8TBO-1 | 2026-09-01 05:40:32 | 47.82911 | 11.84603 | 80° | 53km/h | 16234m | -7.9m/s | -56.5°C | 5.5% | 105.4hPa | 2.6V | 00:00:00 | 01:11:22 | 00:00:00 | |
| OE5MMP-10 | 2026-09-01 05:40:31 | 47.82908 | 11.84583 | 81° | 53km/h | 16242m | -8.6m/s | -56.5°C | 5.5% | 105.2hPa | 2.6V | 00:00:00 | 01:11:21 | 00:00:00 | |
| DO3MHA-11 | 2026-09-01 05:40:30 | 47.82906 | 11.84563 | 81° | 53km/h | 16252m | -9.3m/s | -56.5°C | 5.5% | 105.1hPa | 2.6V | 00:00:00 | 01:11:20 | 00:00:00 | |
| OE5WHR-10 | 2026-09-01 05:40:28 | 47.82902 | 11.84524 | 83° | 51km/h | 16268m | -7.6m/s | -56.5°C | 5.5% | 104.8hPa | 2.6V | 00:00:00 | 01:11:18 | 00:00:00 | |
| DK5PH-5 | 2026-09-01 05:40:24 | 47.82897 | 11.84445 | 89° | 51km/h | 16300m | -6.6m/s | -56.5°C | 5.5% | 104.2hPa | 2.6V | 02:49:00 | 01:11:14 | 00:00:00 | |
| PG1ADW-2 | 2026-09-01 05:40:23 | 47.82897 | 11.84425 | 89° | 51km/h | 16308m | -8.2m/s | -56.5°C | 5.5% | 104.1hPa | 2.6V | 02:49:00 | 00:00:00 | 00:00:00 | |
| OE5DXL-15 | 2026-09-01 05:40:22 | 47.82897 | 11.84404 | 90° | 51km/h | 16316m | -8.7m/s | -56.5°C | 5.5% | 104.0hPa | 2.6V | 00:00:00 | 00:00:00 | 00:00:00 | |
| OE5MMP-10 | 2026-09-01 05:40:21 | 47.82897 | 11.84383 | 89° | 51km/h | 16324m | -7.8m/s | -56.5°C | 5.6% | 103.8hPa | 2.6V | 00:00:00 | 01:11:11 | 00:00:00 | |
| DO3MHA-11 | 2026-09-01 05:40:20 | 47.82897 | 11.84362 | 91° | 51km/h | 16333m | -8.4m/s | -56.5°C | 5.6% | 103.7hPa | 2.6V | 02:49:00 | 01:11:10 | 00:00:00 | |
| OE5DRO-10 | 2026-09-01 05:40:17 | 47.82897 | 11.84303 | 90° | 49km/h | 16357m | -6.6m/s | -56.3°C | 5.6% | 103.3hPa | 2.7V | 02:49:00 | 00:00:00 | 00:00:00 | |
| DH7VM-15 | 2026-09-01 05:40:16 | 47.82897 | 11.84303 | 90° | 51km/h | 16357m | -6.7m/s | -56.3°C | 2.1% | 103.3hPa | 2.6V | 00:00:00 | 00:00:00 | 00:00:00 | |
| DF2AP-13 | 2026-09-01 05:40:12 | 47.82895 | 11.84212 | 88° | 51km/h | 16399m | -6.9m/s | -56.2°C | 5.5% | 102.6hPa | 2.6V | 00:00:00 | 01:11:02 | 00:00:00 | |
| DB0UT-7 | 2026-09-01 05:40:11 | 47.82895 | 11.84194 | 91° | 51km/h | 16407m | -9.3m/s | -56.1°C | 5.5% | 102.5hPa | 2.6V | 00:00:00 | 01:11:01 | 00:00:00 | |
| DO3MHA-11 | 2026-09-01 05:40:10 | 47.82895 | 11.84175 | 88° | 49km/h | 16416m | -8.5m/s | -56.0°C | 5.4% | 102.3hPa | 2.6V | 00:00:00 | 01:11:00 | 00:00:00 | |
| DL6DJ-15 | 2026-09-01 05:40:07 | 47.82893 | 11.84099 | 87° | 49km/h | 16451m | -9.4m/s | -55.8°C | 2.0% | 101.8hPa | 2.6V | 00:00:00 | 00:00:00 | 00:00:00 | |
| DF7PN | 2026-09-01 05:40:04 | 47.82888 | 11.84043 | 79° | 49km/h | 16476m | -8.5m/s | -55.7°C | 1.9% | 101.5hPa | 2.6V | 00:00:00 | 00:00:00 | 00:00:00 | |
| PG1ADW-2 | 2026-09-01 05:40:03 | 47.82888 | 11.84043 | 80° | 49km/h | 16477m | -8.4m/s | -55.6°C | 5.2% | 101.4hPa | 2.6V | 00:00:00 | 00:00:00 | 00:00:00 | |
| DG1MFX-10 | 2026-09-01 05:40:02 | 47.82888 | 11.84043 | 80° | 49km/h | 16477m | -8.5m/s | -55.7°C | 2.0% | 101.4hPa | 2.6V | 02:50:00 | 00:00:00 | 00:00:00 | |
| OE5MMP-10 | 2026-09-01 05:40:01 | 47.82883 | 11.84007 | 79° | 49km/h | 16492m | -9.0m/s | -55.6°C | 5.2% | 101.1hPa | 2.6V | 00:00:00 | 01:10:51 | 00:00:00 | |
| DO3MHA-11 | 2026-09-01 05:40:00 | 47.82881 | 11.83990 | 77° | 49km/h | 16501m | -8.2m/s | -55.5°C | 5.2% | 101.0hPa | 2.6V | 00:00:00 | 01:10:50 | 00:00:00 | |
| NBG1-10 | 2026-09-01 05:39:58 | 47.82876 | 11.83954 | 80° | 57km/h | 16519m | -8.8m/s | -55.2°C | 5.1% | 100.7hPa | 2.6V | 00:00:00 | 01:10:48 | 00:00:00 | |
| DG1MJG | 2026-09-01 05:39:57 | 47.82876 | 11.83954 | 81° | 47km/h | 16519m | -8.8m/s | -55.3°C | 1.9% | 100.7hPa | 2.6V | 02:50:00 | 00:00:00 | 00:00:00 | |
| DH7VM-15 | 2026-09-01 05:39:55 | 47.82871 | 11.83918 | 79° | 49km/h | 16536m | -8.2m/s | -55.2°C | 1.9% | 100.5hPa | 2.6V | 00:00:00 | 00:00:00 | 00:00:00 | |
| DK5PH-5 | 2026-09-01 05:39:54 | 47.82867 | 11.83881 | 78° | 57km/h | 16553m | -9.7m/s | -54.9°C | 4.9% | 100.2hPa | 2.6V | 00:00:00 | 01:10:44 | 00:00:00 | |
| OE5DXL-15 | 2026-09-01 05:39:52 | 47.82860 | 11.83845 | 76° | 58km/h | 16572m | -9.4m/s | -55.0°C | 4.9% | 99.9hPa | 2.6V | 02:50:00 | 00:00:00 | 00:00:00 | |
| OE5MMP-10 | 2026-09-01 05:39:51 | 47.82857 | 11.83827 | 73° | 53km/h | 16581m | -8.8m/s | -55.0°C | 4.9% | 99.7hPa | 2.7V | 00:00:00 | 01:10:41 | 00:00:00 | |
| DO3MHA-11 | 2026-09-01 05:39:50 | 47.82853 | 11.83809 | 74° | 53km/h | 16590m | -9.6m/s | -55.0°C | 4.9% | 99.6hPa | 2.7V | 02:50:00 | 01:10:40 | 00:00:00 | |
| OE5WHR-10 | 2026-09-01 05:39:46 | 47.82838 | 11.83736 | 73° | 60km/h | 16627m | -8.7m/s | -55.1°C | 4.9% | 99.0hPa | 2.7V | 00:00:00 | 00:00:00 | 00:00:00 | |
| PG1ADW-2 | 2026-09-01 05:39:43 | 47.82826 | 11.83678 | 74° | 60km/h | 16653m | -7.4m/s | -55.3°C | 4.9% | 98.6hPa | 2.7V | 00:00:00 | 00:00:00 | 00:00:00 | |
| DB0UT-7 | 2026-09-01 05:39:41 | 47.82818 | 11.83638 | 73° | 66km/h | 16669m | -8.7m/s | -55.4°C | 5.0% | 98.3hPa | 2.7V | 00:00:00 | 00:00:00 | 00:00:00 | |
| DO3MHA-11 | 2026-09-01 05:39:40 | 47.82813 | 11.83618 | 72° | 62km/h | 16678m | -9.1m/s | -55.5°C | 5.0% | 98.2hPa | 2.7V | 00:00:00 | 01:10:30 | 00:00:00 | |
| OE5DRO-10 | 2026-09-01 05:39:39 | 47.82808 | 11.83597 | 71° | 62km/h | 16687m | -8.8m/s | -55.6°C | 5.0% | 98.1hPa | 2.7V | 00:00:00 | 00:00:00 | 00:00:00 | |
| DL6DJ-15 | 2026-09-01 05:39:36 | 47.82788 | 11.83510 | 70° | 62km/h | 16724m | -9.7m/s | -55.7°C | 1.8% | 97.5hPa | 2.7V | 00:00:00 | 00:00:00 | 00:00:00 | |
| BAUMI2-15 | 2026-09-01 05:39:34 | 47.82782 | 11.83487 | 71° | 64km/h | 16733m | -8.8m/s | -55.6°C | 5.0% | 97.4hPa | 2.7V | 02:50:00 | 01:10:24 | 00:00:00 | |
| DF7PN | 2026-09-01 05:39:33 | 47.82772 | 11.83442 | 69° | 62km/h | 16751m | -8.3m/s | -55.7°C | -1.0% | 97.1hPa | 2.7V | 00:00:00 | 00:00:00 | 00:00:00 | |
| OE5MMP-10 | 2026-09-01 05:39:31 | 47.82766 | 11.83419 | 70° | 62km/h | 16760m | -9.5m/s | -55.8°C | 5.1% | 97.0hPa | 2.7V | 00:00:00 | 01:10:21 | 00:00:00 | |
| DO3MHA-11 | 2026-09-01 05:39:30 | 47.82760 | 11.83397 | 72° | 62km/h | 16769m | -9.3m/s | -55.8°C | 5.1% | 96.8hPa | 2.7V | 00:00:00 | 01:10:20 | 00:00:00 | |
| BAUMI2-15 | 2026-09-01 05:39:29 | 47.82755 | 11.83374 | 72° | 60km/h | 16777m | -8.5m/s | -55.9°C | 5.2% | 96.6hPa | 2.7V | 00:00:00 | 01:10:19 | 00:00:00 | |
| DG1MJG | 2026-09-01 05:39:26 | 47.82746 | 11.83330 | 74° | 60km/h | 16796m | -10.1m/s | -56.1°C | 1.9% | 96.4hPa | 2.7V | 02:51:00 | 00:00:00 | 00:00:00 | |
| NBG1-10 | 2026-09-01 05:39:25 | 47.82736 | 11.83287 | 73° | 64km/h | 16814m | -8.8m/s | -56.2°C | 5.4% | 96.1hPa | 2.7V | 00:00:00 | 01:10:15 | 00:00:00 | |
| DK5PH-5 | 2026-09-01 05:39:24 | 47.82732 | 11.83264 | 74° | 66km/h | 16822m | -8.2m/s | -56.2°C | 5.5% | 96.0hPa | 2.7V | 00:00:00 | 01:10:14 | 00:00:00 | |
| PG1ADW-2 | 2026-09-01 05:39:23 | 47.82727 | 11.83242 | 75° | 69km/h | 16830m | -7.5m/s | -56.3°C | 5.5% | 95.8hPa | 2.7V | 02:50:00 | 01:10:13 | 00:00:00 | |
| OE5DXL-15 | 2026-09-01 05:39:22 | 47.82723 | 11.83219 | 76° | 64km/h | 16837m | -8.8m/s | -56.4°C | 5.5% | 95.7hPa | 2.6V | 00:00:00 | 00:00:00 | 00:00:00 | |
| OE5MMP-10 | 2026-09-01 05:39:21 | 47.82719 | 11.83195 | 77° | 71km/h | 16847m | -10.6m/s | -56.4°C | 5.6% | 95.6hPa | 2.6V | 00:00:00 | 01:10:11 | 00:00:00 | |
| DO3MHA-11 | 2026-09-01 05:39:20 | 47.82715 | 11.83171 | 78° | 73km/h | 16857m | -10.7m/s | -56.5°C | 5.6% | 95.5hPa | 2.6V | 02:50:00 | 01:10:10 | 00:00:00 | |
| BAUMI2-15 | 2026-09-01 05:39:19 | 47.82712 | 11.83145 | 79° | 71km/h | 16867m | -9.8m/s | -56.4°C | 5.6% | 95.3hPa | 2.6V | 02:50:00 | 01:10:09 | 00:00:00 | |
| BAUMI2-15 | 2026-09-01 05:39:14 | 47.82695 | 11.83011 | 81° | 75km/h | 16913m | -9.6m/s | -56.2°C | 5.5% | 94.7hPa | 2.6V | 00:00:00 | 01:10:04 | 00:00:00 | |
| OE5MMP-10 | 2026-09-01 05:39:11 | 47.82686 | 11.82928 | 79° | 68km/h | 16941m | -9.8m/s | -55.9°C | 5.6% | 94.3hPa | 2.6V | 02:50:00 | 01:10:01 | 00:00:00 | |
| DO3MHA-11 | 2026-09-01 05:39:10 | 47.82683 | 11.82901 | 81° | 68km/h | 16950m | -8.1m/s | -55.9°C | 5.7% | 94.1hPa | 2.7V | 00:00:00 | 01:10:00 | 00:00:00 | |
| BAUMI2-15 | 2026-09-01 05:39:09 | 47.82680 | 11.82875 | 83° | 68km/h | 16958m | -7.2m/s | -55.8°C | 5.6% | 94.0hPa | 2.7V | 00:00:00 | 01:09:59 | 00:00:00 | |
| DL6DJ-15 | 2026-09-01 05:39:05 | 47.82673 | 11.82748 | 89° | 66km/h | 17000m | -7.8m/s | -55.4°C | 2.0% | 93.4hPa | 2.7V | 00:00:00 | 00:00:00 | 00:00:00 | |
| BAUMI2-15 | 2026-09-01 05:39:04 | 47.82673 | 11.82748 | 90° | 64km/h | 17001m | -7.8m/s | -55.3°C | 5.5% | 93.4hPa | 2.7V | 02:50:00 | 01:09:54 | 00:00:00 | |
| PG1ADW-2 | 2026-09-01 05:39:03 | 47.82673 | 11.82723 | 92° | 47km/h | 17009m | -8.4m/s | -55.2°C | 5.5% | 93.2hPa | 2.6V | 00:00:00 | 00:00:00 | 00:00:00 | |
| OE5DRO-10 | 2026-09-01 05:39:01 | 47.82673 | 11.82676 | 92° | 46km/h | 17026m | -9.2m/s | -54.9°C | 5.3% | 93.0hPa | 2.6V | 00:00:00 | 00:00:00 | 00:00:00 | |
| DO3MHA-11 | 2026-09-01 05:39:00 | 47.82673 | 11.82653 | 91° | 49km/h | 17036m | -9.9m/s | -54.9°C | 5.3% | 92.9hPa | 2.6V | 00:00:00 | 01:09:50 | 00:00:00 | |
| BAUMI2-15 | 2026-09-01 05:38:59 | 47.82673 | 11.82632 | 91° | 53km/h | 17046m | -9.6m/s | -54.8°C | 5.3% | 92.8hPa | 2.6V | 00:00:00 | 01:09:49 | 00:00:00 | |
| DG1MJG | 2026-09-01 05:38:55 | 47.82675 | 11.82571 | 96° | 49km/h | 17073m | -9.3m/s | -54.5°C | 1.8% | 92.4hPa | 2.6V | 02:51:00 | 00:00:00 | 00:00:00 | |
| DK5PH-5 | 2026-09-01 05:38:54 | 47.82677 | 11.82536 | 98° | 40km/h | 17091m | -8.2m/s | -54.0°C | 4.8% | 92.1hPa | 2.6V | 02:51:00 | 01:09:44 | 00:00:00 | |
| OE5DXL-15 | 2026-09-01 05:38:52 | 47.82681 | 11.82503 | 102° | 40km/h | 17109m | -9.0m/s | -54.0°C | 4.7% | 91.8hPa | 2.7V | 00:00:00 | 00:00:00 | 00:00:00 | |
| OE5MMP-10 | 2026-09-01 05:38:51 | 47.82683 | 11.82488 | 105° | 40km/h | 17118m | -9.5m/s | -53.9°C | 4.7% | 91.7hPa | 2.7V | 00:00:00 | 01:09:41 | 00:00:00 | |
| DO3MHA-11 | 2026-09-01 05:38:50 | 47.82686 | 11.82473 | 107° | 40km/h | 17128m | -8.7m/s | -53.9°C | 4.7% | 91.5hPa | 2.7V | 02:51:00 | 01:09:40 | 00:00:00 | |
| BAUMI2-15 | 2026-09-01 05:38:49 | 47.82689 | 11.82458 | 110° | 40km/h | 17137m | -9.8m/s | -53.9°C | 4.8% | 91.5hPa | 2.6V | 02:51:00 | 01:09:39 | 00:00:00 | |
| BAUMI2-15 | 2026-09-01 05:38:44 | 47.82704 | 11.82388 | 103° | 42km/h | 17182m | -7.3m/s | -52.6°C | 4.4% | 90.7hPa | 2.7V | 00:00:00 | 01:09:34 | 00:00:00 | |
| OE5WHR-10 | 2026-09-01 05:38:43 | 47.82706 | 11.82373 | 103° | 42km/h | 17184m | 2.3m/s | -52.5°C | 4.3% | 90.7hPa | 2.7V | 00:00:00 | 00:00:00 | 00:00:00 | |
| DB0UT-7 | 2026-09-01 05:38:42 | 47.82708 | 11.82357 | 104° | 47km/h | 17180m | 4.9m/s | -52.7°C | 4.4% | 90.7hPa | 2.7V | 00:00:00 | 00:00:00 | 00:00:00 | |
| OE5MMP-10 | 2026-09-01 05:38:41 | 47.82711 | 11.82342 | 107° | 38km/h | 17175m | 6.0m/s | -52.9°C | 4.4% | 90.8hPa | 2.7V | 02:51:00 | 01:09:31 | 00:00:00 | |
| DO3MHA-11 | 2026-09-01 05:38:40 | 47.82714 | 11.82327 | 110° | 38km/h | 17170m | 3.8m/s | -53.2°C | 4.5% | 90.9hPa | 2.6V | 00:00:00 | 01:09:30 | 00:00:00 | |
| BAUMI2-15 | 2026-09-01 05:38:39 | 47.82718 | 11.82312 | 109° | 37km/h | 17165m | 4.8m/s | -53.4°C | 4.6% | 90.9hPa | 2.6V | 00:00:00 | 01:09:29 | 00:00:00 | |
| BAUMI2-15 | 2026-09-01 05:38:34 | 47.82730 | 11.82247 | 103° | 38km/h | 17139m | 6.0m/s | -53.7°C | 4.5% | 91.3hPa | 2.6V | 02:51:00 | 01:09:24 | 00:00:00 | |
| DL6DJ-15 | 2026-09-01 05:38:33 | 47.82732 | 11.82234 | 99° | 35km/h | 17134m | 4.4m/s | -53.9°C | 1.7% | 91.4hPa | 2.7V | 00:00:00 | 00:00:00 | 00:00:00 | |
| OE5MMP-10 | 2026-09-01 05:38:31 | 47.82736 | 11.82205 | 102° | 46km/h | 17125m | 5.8m/s | -54.0°C | 4.6% | 91.5hPa | 2.7V | 00:00:00 | 01:09:21 | 00:00:00 | |
| DO3MHA-11 | 2026-09-01 05:38:30 | 47.82738 | 11.82190 | 104° | 47km/h | 17119m | 4.4m/s | -54.0°C | 4.7% | 91.6hPa | 2.7V | 00:00:00 | 01:09:20 | 00:00:00 | |
| BAUMI2-15 | 2026-09-01 05:38:29 | 47.82740 | 11.82173 | 102° | 46km/h | 17115m | 4.8m/s | -54.0°C | 4.7% | 91.7hPa | 2.7V | 00:00:00 | 01:09:19 | 00:00:00 | |
| BAUMI2-15 | 2026-09-01 05:38:24 | 47.82752 | 11.82091 | 104° | 51km/h | 17087m | 4.5m/s | -54.0°C | 4.7% | 92.1hPa | 2.7V | 00:00:00 | 01:09:14 | 00:00:00 | |
| OE5DRO-10 | 2026-09-01 05:38:23 | 47.82754 | 11.82074 | 99° | 58km/h | 17082m | 5.8m/s | -54.2°C | 4.7% | 92.1hPa | 2.7V | 02:51:00 | 00:00:00 | 00:00:00 | |
| OE5DXL-15 | 2026-09-01 05:38:22 | 47.82756 | 11.82056 | 94° | 66km/h | 17077m | 4.6m/s | -54.3°C | 4.7% | 92.2hPa | 2.6V | 02:51:00 | 00:00:00 | 00:00:00 | |
| OE5MMP-10 | 2026-09-01 05:38:21 | 47.82756 | 11.82036 | 92° | 58km/h | 17072m | 4.4m/s | -54.3°C | 4.7% | 92.3hPa | 2.6V | 00:00:00 | 01:09:11 | 00:00:00 | |
| DO3MHA-11 | 2026-09-01 05:38:20 | 47.82757 | 11.82015 | 93° | 58km/h | 17068m | 5.4m/s | -54.4°C | 4.7% | 92.3hPa | 2.6V | 02:51:00 | 01:09:10 | 00:00:00 | |
| NBG1-10 | 2026-09-01 05:38:19 | 47.82758 | 11.81993 | 95° | 68km/h | 17062m | 5.8m/s | -54.5°C | 4.7% | 92.4hPa | 2.6V | 00:00:00 | 01:09:09 | 00:00:00 | |
| BAUMI2-15 | 2026-09-01 05:38:14 | 47.82762 | 11.81881 | 93° | 58km/h | 17036m | 4.9m/s | -54.8°C | 4.8% | 92.8hPa | 2.6V | 00:00:00 | 01:09:04 | 00:00:00 | |
| DB0UT-7 | 2026-09-01 05:38:12 | 47.82762 | 11.81837 | 89° | 71km/h | 17027m | 6.3m/s | -55.1°C | 4.9% | 92.9hPa | 2.6V | 00:00:00 | 01:09:02 | 00:00:00 | |
| OE5MMP-10 | 2026-09-01 05:38:11 | 47.82761 | 11.81815 | 84° | 66km/h | 17021m | 5.0m/s | -55.1°C | 4.9% | 93.0hPa | 2.6V | 02:51:00 | 01:09:01 | 00:00:00 | |
| DO3MHA-11 | 2026-09-01 05:38:10 | 47.82760 | 11.81793 | 83° | 68km/h | 17016m | 4.6m/s | -55.2°C | 4.9% | 93.1hPa | 2.7V | 00:00:00 | 01:09:00 | 00:00:00 | |
| BAUMI2-15 | 2026-09-01 05:38:09 | 47.82758 | 11.81772 | 85° | 64km/h | 17011m | 5.7m/s | -55.2°C | 4.9% | 93.2hPa | 2.7V | 00:00:00 | 01:08:59 | 00:00:00 | |
| BAUMI2-15 | 2026-09-01 05:38:04 | 47.82750 | 11.81651 | 84° | 77km/h | 16985m | 5.7m/s | -55.6°C | 5.0% | 93.5hPa | 2.7V | 02:51:00 | 01:08:54 | 00:00:00 | |
| PG1ADW-2 | 2026-09-01 05:38:03 | 47.82748 | 11.81623 | 84° | 75km/h | 16979m | 5.2m/s | -55.6°C | 5.1% | 93.7hPa | 2.6V | 00:00:00 | 01:08:53 | 00:00:00 | |
| DF2AP-13 | 2026-09-01 05:38:02 | 47.82746 | 11.81595 | 83° | 69km/h | 16974m | 4.1m/s | -55.7°C | 5.1% | 93.7hPa | 2.6V | 00:00:00 | 01:08:52 | 00:00:00 | |
| OE5MMP-10 | 2026-09-01 05:38:01 | 47.82743 | 11.81566 | 82° | 77km/h | 16969m | 5.9m/s | -55.8°C | 5.1% | 93.8hPa | 2.6V | 00:00:00 | 01:08:51 | 00:00:00 | |
| DO3MHA-11 | 2026-09-01 05:38:00 | 47.82740 | 11.81536 | 81° | 75km/h | 16964m | 4.3m/s | -55.8°C | 5.2% | 93.9hPa | 2.6V | 00:00:00 | 01:08:50 | 00:00:00 | |
| BAUMI2-15 | 2026-09-01 05:37:59 | 47.82736 | 11.81506 | 82° | 77km/h | 16959m | 4.7m/s | -55.9°C | 5.1% | 93.9hPa | 2.6V | 00:00:00 | 01:08:49 | 00:00:00 | |
| DK5PH-5 | 2026-09-01 05:37:54 | 47.82723 | 11.81364 | 81° | 66km/h | 16937m | 4.6m/s | -56.1°C | 5.3% | 94.2hPa | 2.6V | 00:00:00 | 01:08:44 | 00:00:00 | |
| DG1MJG | 2026-09-01 05:37:53 | 47.82722 | 11.81364 | 82° | 73km/h | 16937m | 4.6m/s | -56.1°C | 1.9% | 94.3hPa | 2.6V | 02:52:00 | 00:00:00 | 00:00:00 | |
| OE5DXL-15 | 2026-09-01 05:37:52 | 47.82717 | 11.81311 | 83° | 64km/h | 16928m | 4.1m/s | -56.1°C | 5.3% | 94.4hPa | 2.6V | 00:00:00 | 00:00:00 | 00:00:00 | |
| OE5MMP-10 | 2026-09-01 05:37:51 | 47.82714 | 11.81285 | 81° | 71km/h | 16923m | 5.2m/s | -56.2°C | 5.3% | 94.5hPa | 2.6V | 00:00:00 | 01:08:41 | 00:00:00 | |
| DO3MHA-11 | 2026-09-01 05:37:50 | 47.82711 | 11.81259 | 79° | 71km/h | 16918m | 4.3m/s | -56.2°C | 5.4% | 94.5hPa | 2.6V | 02:52:00 | 01:08:40 | 00:00:00 | |
| BAUMI2-15 | 2026-09-01 05:37:49 | 47.82708 | 11.81232 | 79° | 73km/h | 16914m | 3.1m/s | -56.2°C | 5.3% | 94.6hPa | 2.6V | 02:52:00 | 01:08:39 | 00:00:00 | |
| NBG1-10 | 2026-09-01 05:37:46 | 47.82697 | 11.81152 | 78° | 64km/h | 16901m | 4.9m/s | -56.4°C | 5.4% | 94.8hPa | 2.7V | 00:00:00 | 01:08:36 | 00:00:00 | |
| OE5DRO-10 | 2026-09-01 05:37:45 | 47.82693 | 11.81126 | 76° | 62km/h | 16896m | 4.1m/s | -56.4°C | 5.5% | 94.9hPa | 2.7V | 00:00:00 | 00:00:00 | 00:00:00 | |
| BAUMI2-15 | 2026-09-01 05:37:44 | 47.82688 | 11.81101 | 76° | 62km/h | 16892m | 4.0m/s | -56.4°C | 5.5% | 94.9hPa | 2.7V | 00:00:00 | 01:08:34 | 00:00:00 | |
| PG1ADW-2 | 2026-09-01 05:37:43 | 47.82684 | 11.81075 | 76° | 62km/h | 16888m | 4.8m/s | -56.5°C | 5.5% | 95.0hPa | 2.7V | 00:00:00 | 00:00:00 | 00:00:00 | |
| DB0UT-7 | 2026-09-01 05:37:42 | 47.82680 | 11.81050 | 77° | 62km/h | 16883m | 4.3m/s | -56.5°C | 5.5% | 95.1hPa | 2.7V | 02:52:00 | 00:00:00 | 00:00:00 | |
| OE5MMP-10 | 2026-09-01 05:37:41 | 47.82676 | 11.81026 | 76° | 62km/h | 16878m | 4.9m/s | -56.5°C | 5.6% | 95.1hPa | 2.7V | 02:52:00 | 01:08:31 | 00:00:00 | |
| DO3MHA-11 | 2026-09-01 05:37:40 | 47.82671 | 11.81002 | 75° | 60km/h | 16874m | 4.3m/s | -56.5°C | 5.5% | 95.2hPa | 2.7V | 00:00:00 | 01:08:30 | 00:00:00 | |
| OE5WHR-10 | 2026-09-01 05:37:39 | 47.82667 | 11.80979 | 76° | 62km/h | 16869m | 4.3m/s | -56.5°C | 5.5% | 95.3hPa | 2.7V | 00:00:00 | 00:00:00 | 00:00:00 | |
| DH7VM-15 | 2026-09-01 05:37:36 | 47.82660 | 11.80935 | 78° | 58km/h | 16860m | 3.4m/s | -56.4°C | 0% | 0hPa | 2.7V | 00:00:00 | 00:00:00 | 00:00:00 | |
| DF2AP-13 | 2026-09-01 05:37:32 | 47.82640 | 11.80826 | 71° | 60km/h | 16837m | 5.0m/s | -56.2°C | 5.4% | 95.7hPa | 2.7V | 00:00:00 | 01:08:22 | 00:00:00 | |
| DL6DJ-15 | 2026-09-01 05:37:31 | 47.82634 | 11.80805 | 68° | 60km/h | 16833m | 4.5m/s | -56.2°C | 2.0% | 95.9hPa | 2.7V | 00:00:00 | 00:00:00 | 00:00:00 | |
| DO3MHA-11 | 2026-09-01 05:37:30 | 47.82629 | 11.80784 | 68° | 62km/h | 16828m | 4.0m/s | -56.1°C | 5.3% | 95.9hPa | 2.7V | 00:00:00 | 01:08:20 | 00:00:00 | |
| DF7PN | 2026-09-01 05:37:28 | 47.82612 | 11.80720 | 70° | 60km/h | 16813m | 5.2m/s | 0°C | -1.0% | -1.0hPa | 2.7V | 00:00:00 | 00:00:00 | 00:00:00 | |
| OE5DRO-10 | 2026-09-01 05:37:26 | 47.82607 | 11.80698 | 72° | 62km/h | 16809m | 4.0m/s | -55.9°C | 5.4% | 96.2hPa | 2.7V | 02:52:00 | 00:00:00 | 00:00:00 | |
| DK5PH-5 | 2026-09-01 05:37:24 | 47.82599 | 11.80654 | 77° | 58km/h | 16800m | 4.7m/s | -55.9°C | 5.4% | 96.3hPa | 2.6V | 02:52:00 | 01:08:14 | 00:00:00 | |
| PG1ADW-2 | 2026-09-01 05:37:23 | 47.82595 | 11.80631 | 78° | 60km/h | 16796m | 2.7m/s | -55.8°C | 5.4% | 96.4hPa | 2.6V | 02:52:00 | 00:00:00 | 00:00:00 | |
| OE5DXL-15 | 2026-09-01 05:37:22 | 47.82592 | 11.80608 | 77° | 58km/h | 16792m | 4.9m/s | -55.8°C | 5.4% | 96.4hPa | 2.6V | 00:00:00 | 00:00:00 | 00:00:00 | |
| OE5MMP-10 | 2026-09-01 05:37:21 | 47.82588 | 11.80586 | 74° | 64km/h | 16787m | 4.7m/s | -55.8°C | 5.4% | 96.5hPa | 2.6V | 00:00:00 | 01:08:11 | 00:00:00 | |
| DO3MHA-11 | 2026-09-01 05:37:20 | 47.82583 | 11.80563 | 72° | 64km/h | 16783m | 3.5m/s | -55.9°C | 5.4% | 96.6hPa | 2.6V | 02:52:00 | 01:08:10 | 00:00:00 | |
| DG1MFX-10 | 2026-09-01 05:37:19 | 47.82583 | 11.80563 | 73° | 64km/h | 16783m | 3.6m/s | -55.9°C | 2.0% | 96.7hPa | 2.6V | 02:52:00 | 00:00:00 | 00:00:00 | |
| OE5WHR-10 | 2026-09-01 05:37:18 | 47.82573 | 11.80518 | 72° | 58km/h | 16774m | 4.3m/s | -55.9°C | 5.3% | 96.7hPa | 2.6V | 00:00:00 | 01:08:08 | 00:00:00 | |
| NBG1-10 | 2026-09-01 05:37:13 | 47.82547 | 11.80404 | 74° | 53km/h | 16752m | 3.6m/s | -55.8°C | 5.4% | 97.0hPa | 2.6V | 02:52:00 | 01:08:03 | 00:00:00 | |
| DB0UT-7 | 2026-09-01 05:37:12 | 47.82542 | 11.80382 | 73° | 53km/h | 16748m | 4.9m/s | -55.8°C | 5.4% | 97.1hPa | 2.6V | 00:00:00 | 01:08:02 | 00:00:00 | |
| OE5MMP-10 | 2026-09-01 05:37:11 | 47.82537 | 11.80360 | 72° | 57km/h | 16742m | 5.0m/s | -55.8°C | 5.4% | 97.2hPa | 2.6V | 02:52:00 | 01:08:01 | 00:00:00 | |
| DO3MHA-11 | 2026-09-01 05:37:10 | 47.82532 | 11.80339 | 72° | 57km/h | 16738m | 4.3m/s | -55.7°C | 5.3% | 97.3hPa | 2.6V | 00:00:00 | 01:08:00 | 00:00:00 | |
| OE5DRO-10 | 2026-09-01 05:37:07 | 47.82520 | 11.80277 | 74° | 53km/h | 16722m | 6.5m/s | -55.6°C | 5.3% | 97.5hPa | 2.6V | 00:00:00 | 00:00:00 | 00:00:00 | |
| PG1ADW-2 | 2026-09-01 05:37:03 | 47.82503 | 11.80197 | 71° | 51km/h | 16702m | 5.3m/s | -55.5°C | 5.3% | 97.8hPa | 2.6V | 00:00:00 | 00:00:00 | 00:00:00 | |
| OE5MMP-10 | 2026-09-01 05:37:01 | 47.82493 | 11.80158 | 70° | 51km/h | 16694m | 5.1m/s | -55.5°C | 5.3% | 98.0hPa | 2.6V | 00:00:00 | 01:07:51 | 00:00:00 | |
| DO3MHA-11 | 2026-09-01 05:37:00 | 47.82488 | 11.80139 | 70° | 51km/h | 16689m | 4.3m/s | -55.5°C | 5.3% | 98.0hPa | 2.6V | 00:00:00 | 01:07:50 | 00:00:00 | |
| DG1MFX-10 | 2026-09-01 05:36:59 | 47.82488 | 11.80140 | 70° | 51km/h | 16689m | 4.4m/s | -55.5°C | 2.0% | 98.1hPa | 2.6V | 02:53:00 | 00:00:00 | 00:00:00 | |
| OE5WHR-10 | 2026-09-01 05:36:57 | 47.82475 | 11.80085 | 70° | 49km/h | 16676m | 3.5m/s | -55.4°C | 5.3% | 98.3hPa | 2.6V | 02:53:00 | 00:00:00 | 00:00:00 | |
| DK5PH-5 | 2026-09-01 05:36:54 | 47.82462 | 11.80032 | 74° | 47km/h | 16662m | 5.0m/s | -55.2°C | 5.2% | 98.5hPa | 2.6V | 00:00:00 | 01:07:44 | 00:00:00 | |
| OE5DXL-15 | 2026-09-01 05:36:52 | 47.82455 | 11.79995 | 76° | 47km/h | 16652m | 4.2m/s | -55.2°C | 5.1% | 98.6hPa | 2.6V | 02:53:00 | 00:00:00 | 00:00:00 | |
| OE5MMP-10 | 2026-09-01 05:36:51 | 47.82451 | 11.79976 | 75° | 49km/h | 16647m | 5.7m/s | -55.2°C | 5.1% | 98.7hPa | 2.7V | 00:00:00 | 01:07:41 | 00:00:00 | |
| DO3MHA-12 | 2026-09-01 05:36:50 | 47.82448 | 11.79957 | 74° | 47km/h | 16642m | 4.2m/s | -55.1°C | 5.1% | 98.8hPa | 2.7V | 00:00:00 | 01:07:40 | 00:00:00 | |
| OE5DRO-10 | 2026-09-01 05:36:48 | 47.82440 | 11.79920 | 72° | 47km/h | 16632m | 4.8m/s | -55.2°C | 5.2% | 98.9hPa | 2.7V | 00:00:00 | 00:00:00 | 00:00:00 | |
| PG1ADW-2 | 2026-09-01 05:36:43 | 47.82423 | 11.79834 | 77° | 47km/h | 16607m | 6.5m/s | -55.1°C | 5.1% | 99.3hPa | 2.7V | 00:00:00 | 01:07:33 | 00:00:00 | |
| DB0UT-7 | 2026-09-01 05:36:41 | 47.82418 | 11.79801 | 79° | 47km/h | 16597m | 6.2m/s | -55.1°C | 5.2% | 99.4hPa | 2.7V | 00:00:00 | 00:00:00 | 00:00:00 | |
| DO3MHA-11 | 2026-09-01 05:36:40 | 47.82416 | 11.79784 | 81° | 49km/h | 16591m | 4.1m/s | -55.0°C | 5.1% | 99.6hPa | 2.7V | 00:00:00 | 01:07:30 | 00:00:00 | |
| DG1MFX-10 | 2026-09-01 05:36:38 | 47.82414 | 11.79767 | 82° | 46km/h | 16587m | 5.8m/s | -55.0°C | 2.0% | 99.7hPa | 2.7V | 02:53:00 | 00:00:00 | 00:00:00 | |
| OE5WHR-10 | 2026-09-01 05:36:36 | 47.82409 | 11.79714 | 82° | 47km/h | 16572m | 5.1m/s | -54.9°C | 5.0% | 99.9hPa | 2.7V | 00:00:00 | 00:00:00 | 00:00:00 | |
| OE5MMP-10 | 2026-09-01 05:36:31 | 47.82397 | 11.79621 | 77° | 46km/h | 16548m | 4.5m/s | -55.3°C | 5.0% | 100.2hPa | 2.7V | 00:00:00 | 01:07:21 | 00:00:00 | |
| OE5DRO-10 | 2026-09-01 05:36:29 | 47.82391 | 11.79587 | 75° | 47km/h | 16538m | 4.9m/s | -55.3°C | 5.1% | 100.4hPa | 2.7V | 02:53:00 | 00:00:00 | 00:00:00 | |
| DK5PH-5 | 2026-09-01 05:36:24 | 47.82381 | 11.79504 | 86° | 49km/h | 16513m | 3.9m/s | -55.6°C | 5.3% | 100.8hPa | 2.7V | 00:00:00 | 01:07:14 | 00:00:00 | |
| PG1ADW-2 | 2026-09-01 05:36:23 | 47.82380 | 11.79486 | 88° | 47km/h | 16509m | 4.5m/s | -55.6°C | 5.3% | 100.8hPa | 2.7V | 02:53:00 | 00:00:00 | 00:00:00 | |
| OE5DXL-15 | 2026-09-01 05:36:22 | 47.82380 | 11.79469 | 91° | 49km/h | 16503m | 5.6m/s | -55.7°C | 5.3% | 100.9hPa | 2.6V | 00:00:00 | 00:00:00 | 00:00:00 | |
| OE5MMP-10 | 2026-09-01 05:36:21 | 47.82380 | 11.79451 | 91° | 49km/h | 16499m | 4.3m/s | -55.7°C | 5.4% | 101.0hPa | 2.6V | 00:00:00 | 01:07:11 | 00:00:00 | |
| DO3MHA-11 | 2026-09-01 05:36:20 | 47.82380 | 11.79432 | 89° | 47km/h | 16493m | 5.6m/s | -55.7°C | 5.3% | 101.1hPa | 2.6V | 02:53:00 | 01:07:10 | 00:00:00 | |
| DG1MFX-10 | 2026-09-01 05:36:17 | 47.82379 | 11.79393 | 86° | 53km/h | 16483m | 5.7m/s | -55.8°C | 2.0% | 101.3hPa | 2.7V | 02:54:00 | 00:00:00 | 00:00:00 | |
| OE5WHR-10 | 2026-09-01 05:36:15 | 47.82375 | 11.79338 | 82° | 47km/h | 16470m | 5.2m/s | -55.8°C | 5.2% | 101.4hPa | 2.7V | 00:00:00 | 01:07:05 | 00:00:00 | |
| OE5MMP-10 | 2026-09-01 05:36:11 | 47.82369 | 11.79271 | 86° | 47km/h | 16450m | 4.9m/s | -55.8°C | 5.1% | 101.8hPa | 2.7V | 02:53:00 | 01:07:01 | 00:00:00 | |
| DO3MHA-12 | 2026-09-01 05:36:10 | 47.82368 | 11.79253 | 85° | 47km/h | 16445m | 4.8m/s | -55.8°C | 5.2% | 101.8hPa | 2.7V | 02:53:00 | 01:07:00 | 00:00:00 | |
| NBG1-10 | 2026-09-01 05:36:07 | 47.82367 | 11.79202 | 91° | 51km/h | 16430m | 4.2m/s | 0°C | 0% | 0hPa | 2.6V | 00:00:00 | 01:06:57 | 00:00:00 | |
| PG1ADW-2 | 2026-09-01 05:36:03 | 47.82368 | 11.79131 | 95° | 51km/h | 16410m | 4.6m/s | -56.1°C | 5.4% | 102.4hPa | 2.6V | 00:00:00 | 00:00:00 | 00:00:00 | |
| DL6DJ-15 | 2026-09-01 05:35:58 | 47.82371 | 11.79036 | 93° | 51km/h | 16385m | 4.2m/s | -56.4°C | 2.1% | 102.8hPa | 2.6V | 00:00:00 | 00:00:00 | 00:00:00 | |
| DG1MFX-10 | 2026-09-01 05:35:57 | 47.82370 | 11.79036 | 95° | 51km/h | 16385m | 4.2m/s | -56.4°C | 2.1% | 102.8hPa | 2.6V | 02:54:00 | 00:00:00 | 00:00:00 | |
| OE5WHR-10 | 2026-09-01 05:35:54 | 47.82372 | 11.78958 | 93° | 53km/h | 16365m | 5.0m/s | -56.3°C | 5.5% | 103.1hPa | 2.6V | 02:54:00 | 00:00:00 | 00:00:00 | |
| OE5DXL-15 | 2026-09-01 05:35:52 | 47.82373 | 11.78921 | 92° | 53km/h | 16355m | 5.5m/s | -56.4°C | 5.5% | 103.3hPa | 2.6V | 00:00:00 | 00:00:00 | 00:00:00 | |
| DG1MJG | 2026-09-01 05:35:51 | 47.82374 | 11.78901 | 93° | 53km/h | 16350m | 4.0m/s | -56.4°C | 2.1% | 103.5hPa | 2.6V | 02:54:00 | 00:00:00 | 00:00:00 | |
| DO3MHA-11 | 2026-09-01 05:35:50 | 47.82375 | 11.78882 | 95° | 53km/h | 16346m | 5.3m/s | -56.5°C | 5.5% | 103.4hPa | 2.6V | 02:54:00 | 01:06:40 | 00:00:00 | |
| OE5MMP-10 | 2026-09-01 05:35:41 | 47.82375 | 11.78704 | 85° | 53km/h | 16302m | 4.7m/s | -56.5°C | 5.7% | 104.2hPa | 2.7V | 02:54:00 | 01:06:31 | 00:00:00 | |
| DO3MHA-11 | 2026-09-01 05:35:40 | 47.82374 | 11.78684 | 86° | 53km/h | 16296m | 6.2m/s | -56.5°C | 5.6% | 104.2hPa | 2.7V | 00:00:00 | 01:06:30 | 00:00:00 | |
| DG1MFX-10 | 2026-09-01 05:35:36 | 47.82371 | 11.78625 | 88° | 55km/h | 16281m | 5.1m/s | -56.6°C | 2.2% | 104.6hPa | 2.7V | 02:54:00 | 00:00:00 | 00:00:00 | |
| NBG1-10 | 2026-09-01 05:35:34 | 47.82370 | 11.78564 | 87° | 47km/h | 16266m | 4.4m/s | -56.6°C | 5.5% | 104.7hPa | 2.7V | 02:54:00 | 01:06:24 | 00:00:00 | |
| OE5WHR-10 | 2026-09-01 05:35:33 | 47.82369 | 11.78544 | 85° | 49km/h | 16261m | 5.5m/s | -56.6°C | 5.5% | 104.8hPa | 2.6V | 00:00:00 | 00:00:00 | 00:00:00 | |
| OE5DRO-10 | 2026-09-01 05:35:32 | 47.82367 | 11.78524 | 83° | 49km/h | 16256m | 4.5m/s | -56.6°C | 5.5% | 104.9hPa | 2.6V | 02:54:00 | 00:00:00 | 00:00:00 | |
| OE5MMP-10 | 2026-09-01 05:35:31 | 47.82365 | 11.78503 | 81° | 49km/h | 16252m | 3.8m/s | -56.5°C | 5.5% | 105.0hPa | 2.7V | 00:00:00 | 01:06:21 | 00:00:00 | |
| DO3MHA-11 | 2026-09-01 05:35:30 | 47.82362 | 11.78483 | 80° | 49km/h | 16247m | 5.2m/s | -56.6°C | 5.6% | 105.1hPa | 2.7V | 00:00:00 | 01:06:20 | 00:00:00 | |
| BAUMI2-15 | 2026-09-01 05:35:29 | 47.82360 | 11.78464 | 78° | 49km/h | 16242m | 4.7m/s | -56.5°C | 5.6% | 105.2hPa | 2.7V | 02:54:00 | 01:06:19 | 00:00:00 | |
| DL6DJ-15 | 2026-09-01 05:35:27 | 47.82354 | 11.78427 | 74° | 49km/h | 16232m | 4.9m/s | -56.5°C | 2.2% | 105.4hPa | 2.7V | 00:00:00 | 00:00:00 | 00:00:00 | |
| BAUMI2-15 | 2026-09-01 05:35:24 | 47.82344 | 11.78375 | 75° | 49km/h | 16217m | 4.1m/s | -56.4°C | 5.5% | 105.6hPa | 2.7V | 00:00:00 | 01:06:14 | 00:00:00 | |
| OE5DXL-15 | 2026-09-01 05:35:22 | 47.82338 | 11.78339 | 79° | 46km/h | 16208m | 4.7m/s | -56.4°C | 5.5% | 105.7hPa | 2.7V | 02:54:00 | 00:00:00 | 00:00:00 | |
| OE5MMP-10 | 2026-09-01 05:35:21 | 47.82336 | 11.78321 | 82° | 46km/h | 16203m | 5.2m/s | -56.4°C | 5.5% | 105.8hPa | 2.6V | 00:00:00 | 01:06:11 | 00:00:00 | |
| DG1MJG | 2026-09-01 05:35:20 | 47.82334 | 11.78302 | 83° | 51km/h | 16198m | 5.1m/s | -56.5°C | 2.2% | 106.0hPa | 2.6V | 02:55:00 | 00:00:00 | 00:00:00 | |
| BAUMI2-15 | 2026-09-01 05:35:19 | 47.82333 | 11.78283 | 82° | 47km/h | 16193m | 4.9m/s | -56.5°C | 5.6% | 106.0hPa | 2.6V | 00:00:00 | 01:06:09 | 00:00:00 | |
| DG1MFX-10 | 2026-09-01 05:35:16 | 47.82329 | 11.78247 | 81° | 46km/h | 16185m | 5.2m/s | -56.5°C | 2.2% | 106.2hPa | 2.6V | 02:55:00 | 00:00:00 | 00:00:00 | |
| BAUMI2-15 | 2026-09-01 05:35:14 | 47.82321 | 11.78199 | 70° | 42km/h | 16171m | 4.7m/s | -56.4°C | 5.5% | 106.4hPa | 2.6V | 02:54:00 | 01:06:04 | 00:00:00 | |
| OE5DRO-10 | 2026-09-01 05:35:13 | 47.82317 | 11.78184 | 69° | 46km/h | 16166m | 3.4m/s | -56.4°C | 5.4% | 106.4hPa | 2.7V | 00:00:00 | 00:00:00 | 00:00:00 | |
| OE5WHR-10 | 2026-09-01 05:35:12 | 47.82313 | 11.78169 | 69° | 46km/h | 16162m | 5.1m/s | -56.4°C | 5.4% | 106.5hPa | 2.7V | 00:00:00 | 01:06:02 | 00:00:00 | |
| OE5MMP-10 | 2026-09-01 05:35:11 | 47.82309 | 11.78155 | 71° | 46km/h | 16157m | 4.4m/s | -56.5°C | 5.5% | 106.6hPa | 2.7V | 02:54:00 | 01:06:01 | 00:00:00 | |
| DO3MHA-11 | 2026-09-01 05:35:10 | 47.82306 | 11.78141 | 73° | 46km/h | 16153m | 4.1m/s | -56.5°C | 5.4% | 106.7hPa | 2.6V | 00:00:00 | 01:06:00 | 00:00:00 | |
| BAUMI2-15 | 2026-09-01 05:35:09 | 47.82303 | 11.78125 | 74° | 44km/h | 16149m | 5.1m/s | -56.6°C | 5.5% | 106.8hPa | 2.6V | 00:00:00 | 01:05:59 | 00:00:00 | |
| BAUMI2-15 | 2026-09-01 05:35:04 | 47.82295 | 11.78042 | 87° | 47km/h | 16125m | 5.9m/s | -56.6°C | 5.6% | 107.2hPa | 2.6V | 00:00:00 | 01:05:54 | 00:00:00 | |
| DL6DJ-15 | 2026-09-01 05:34:56 | 47.82282 | 11.77897 | 79° | 46km/h | 16086m | 5.1m/s | -56.7°C | 2.2% | 107.8hPa | 2.6V | 00:00:00 | 00:00:00 | 00:00:00 | |
| DK5PH-5 | 2026-09-01 05:34:54 | 47.82279 | 11.77862 | 86° | 49km/h | 16076m | 5.6m/s | -56.6°C | 5.5% | 108.0hPa | 2.6V | 00:00:00 | 01:05:44 | 00:00:00 | |
| OE5DXL-15 | 2026-09-01 05:34:52 | 47.82277 | 11.77826 | 88° | 51km/h | 16067m | 5.4m/s | -56.6°C | 5.5% | 108.1hPa | 2.6V | 00:00:00 | 00:00:00 | 00:00:00 | |
| OE5MMP-10 | 2026-09-01 05:34:51 | 47.82277 | 11.77808 | 86° | 49km/h | 16061m | 4.8m/s | -56.5°C | 5.5% | 108.2hPa | 2.6V | 00:00:00 | 01:05:41 | 00:00:00 | |
| DO3MHA-11 | 2026-09-01 05:34:50 | 47.82276 | 11.77790 | 84° | 49km/h | 16057m | 4.3m/s | -56.5°C | 5.5% | 108.3hPa | 2.6V | 02:55:00 | 01:05:40 | 00:00:00 | |
| DG1MJG | 2026-09-01 05:34:49 | 47.82276 | 11.77790 | 85° | 49km/h | 16057m | 4.4m/s | -56.5°C | 2.1% | 108.3hPa | 2.6V | 02:55:00 | 00:00:00 | 00:00:00 | |
| BAUMI2-15 | 2026-09-01 05:34:44 | 47.82263 | 11.77679 | 80° | 49km/h | 16028m | 4.4m/s | -56.4°C | 5.6% | 108.8hPa | 2.6V | 02:55:00 | 01:05:34 | 00:00:00 | |
| OE5MMP-10 | 2026-09-01 05:34:41 | 47.82256 | 11.77624 | 82° | 49km/h | 16013m | 4.1m/s | -56.4°C | 5.6% | 109.1hPa | 2.7V | 02:55:00 | 01:05:31 | 00:00:00 | |
| DO3MHA-11 | 2026-09-01 05:34:40 | 47.82254 | 11.77605 | 83° | 49km/h | 16008m | 5.6m/s | -56.4°C | 5.7% | 109.2hPa | 2.7V | 00:00:00 | 01:05:30 | 00:00:00 | |
| BAUMI2-15 | 2026-09-01 05:34:39 | 47.82253 | 11.77587 | 82° | 49km/h | 16004m | 4.2m/s | -56.4°C | 5.7% | 109.3hPa | 2.7V | 00:00:00 | 01:05:29 | 00:00:00 | |
| OE5DRO-10 | 2026-09-01 05:34:35 | 47.82242 | 11.77515 | 73° | 51km/h | 15983m | 4.1m/s | -56.1°C | 5.5% | 109.6hPa | 2.7V | 02:55:00 | 00:00:00 | 00:00:00 | |
| BAUMI2-15 | 2026-09-01 05:34:34 | 47.82238 | 11.77497 | 70° | 51km/h | 15979m | 5.0m/s | -56.2°C | 5.5% | 109.7hPa | 2.7V | 00:00:00 | 01:05:24 | 00:00:00 | |
| OE5MMP-10 | 2026-09-01 05:34:31 | 47.82223 | 11.77444 | 69° | 51km/h | 15964m | 5.6m/s | -56.2°C | 5.5% | 109.9hPa | 2.7V | 00:00:00 | 01:05:21 | 00:00:00 | |
| DO3MHA-11 | 2026-09-01 05:34:30 | 47.82219 | 11.77426 | 73° | 51km/h | 15959m | 4.2m/s | -56.1°C | 5.4% | 110.0hPa | 2.7V | 00:00:00 | 01:05:20 | 00:00:00 | |
| BAUMI2-15 | 2026-09-01 05:34:29 | 47.82215 | 11.77408 | 75° | 51km/h | 15954m | 6.0m/s | -56.0°C | 5.4% | 110.1hPa | 2.7V | 02:55:00 | 01:05:19 | 00:00:00 | |
| NBG1-10 | 2026-09-01 05:34:28 | 47.82212 | 11.77390 | 80° | 49km/h | 15948m | 4.4m/s | -56.1°C | 5.4% | 110.2hPa | 2.7V | 00:00:00 | 01:05:18 | 00:00:00 | |
| DL6DJ-15 | 2026-09-01 05:34:25 | 47.82207 | 11.77331 | 85° | 53km/h | 15933m | 5.2m/s | -56.2°C | 2.1% | 110.5hPa | 2.7V | 00:00:00 | 00:00:00 | 00:00:00 | |
| DK5PH-5 | 2026-09-01 05:34:24 | 47.82206 | 11.77311 | 85° | 49km/h | 15928m | 5.0m/s | -56.0°C | 5.5% | 110.5hPa | 2.7V | 02:55:00 | 01:05:14 | 00:00:00 | |
| OE5DXL-15 | 2026-09-01 05:34:22 | 47.82203 | 11.77272 | 82° | 49km/h | 15918m | 5.0m/s | -55.9°C | 5.5% | 110.7hPa | 2.6V | 00:00:00 | 00:00:00 | 00:00:00 | |
| OE5MMP-10 | 2026-09-01 05:34:21 | 47.82201 | 11.77253 | 79° | 51km/h | 15913m | 3.9m/s | -56.0°C | 5.5% | 110.8hPa | 2.6V | 00:00:00 | 01:05:11 | 00:00:00 | |
| DO3MHA-11 | 2026-09-01 05:34:20 | 47.82198 | 11.77234 | 77° | 51km/h | 15908m | 5.6m/s | -56.0°C | 5.5% | 110.9hPa | 2.6V | 02:55:00 | 01:05:10 | 00:00:00 | |
| BAUMI2-15 | 2026-09-01 05:34:19 | 47.82195 | 11.77217 | 75° | 49km/h | 15904m | 3.9m/s | -56.1°C | 5.5% | 111.0hPa | 2.6V | 00:00:00 | 01:05:09 | 00:00:00 | |
| OE5DRO-10 | 2026-09-01 05:34:16 | 47.82184 | 11.77163 | 76° | 49km/h | 15890m | 5.2m/s | -56.1°C | 5.5% | 111.2hPa | 2.6V | 00:00:00 | 00:00:00 | 00:00:00 | |
| DG1MFX-10 | 2026-09-01 05:34:15 | 47.82184 | 11.77163 | 77° | 51km/h | 15890m | 5.2m/s | -56.1°C | 2.2% | 111.2hPa | 2.6V | 02:56:00 | 00:00:00 | 00:00:00 | |
| BAUMI2-15 | 2026-09-01 05:34:14 | 47.82180 | 11.77126 | 82° | 53km/h | 15879m | 4.6m/s | -56.1°C | 5.5% | 111.4hPa | 2.6V | 02:55:00 | 01:05:04 | 00:00:00 | |
| OE5MMP-10 | 2026-09-01 05:34:11 | 47.82175 | 11.77067 | 86° | 49km/h | 15864m | 5.0m/s | -56.0°C | 5.6% | 111.6hPa | 2.6V | 02:55:00 | 01:05:01 | 00:00:00 | |
| DO3MHA-11 | 2026-09-01 05:34:10 | 47.82174 | 11.77047 | 86° | 49km/h | 15859m | 5.3m/s | -56.1°C | 5.6% | 111.7hPa | 2.7V | 00:00:00 | 01:05:00 | 00:00:00 | |
| BAUMI2-15 | 2026-09-01 05:34:09 | 47.82173 | 11.77027 | 86° | 49km/h | 15854m | 4.5m/s | -56.1°C | 5.6% | 111.8hPa | 2.7V | 00:00:00 | 01:04:59 | 00:00:00 | |
| BAUMI2-15 | 2026-09-01 05:34:04 | 47.82163 | 11.76937 | 77° | 47km/h | 15830m | 5.7m/s | -55.9°C | 5.5% | 112.2hPa | 2.7V | 00:00:00 | 01:04:54 | 00:00:00 | |
| OE5MMP-10 | 2026-09-01 05:34:01 | 47.82154 | 11.76886 | 74° | 49km/h | 15816m | 5.3m/s | -55.9°C | 5.4% | 112.5hPa | 2.7V | 00:00:00 | 01:04:51 | 00:00:00 | |
| DO3MHA-11 | 2026-09-01 05:34:00 | 47.82151 | 11.76869 | 73° | 49km/h | 15811m | 4.3m/s | -55.9°C | 5.5% | 112.6hPa | 2.7V | 00:00:00 | 01:04:50 | 00:00:00 | |
| BAUMI2-15 | 2026-09-01 05:33:59 | 47.82147 | 11.76853 | 73° | 49km/h | 15806m | 5.2m/s | -55.9°C | 5.6% | 112.7hPa | 2.7V | 02:56:00 | 01:04:49 | 00:00:00 | |
| OE5DRO-10 | 2026-09-01 05:33:57 | 47.82139 | 11.76818 | 70° | 51km/h | 15796m | 5.5m/s | -55.8°C | 5.4% | 112.9hPa | 2.7V | 00:00:00 | 00:00:00 | 00:00:00 | |
| NBG1-10 | 2026-09-01 05:33:55 | 47.82130 | 11.76783 | 70° | 53km/h | 15786m | 5.7m/s | -55.7°C | 5.4% | 113.0hPa | 2.7V | 02:56:00 | 01:04:45 | 00:00:00 | |
| BAUMI2-15 | 2026-09-01 05:33:54 | 47.82126 | 11.76765 | 71° | 51km/h | 15781m | 4.5m/s | -55.7°C | 5.4% | 113.1hPa | 2.6V | 00:00:00 | 01:04:44 | 00:00:00 | |
| OE5DXL-15 | 2026-09-01 05:33:53 | 47.82117 | 11.76729 | 70° | 53km/h | 15771m | 5.0m/s | -55.6°C | 5.4% | 113.3hPa | 2.6V | 02:56:00 | 00:00:00 | 00:00:00 | |
| OE5MMP-10 | 2026-09-01 05:33:51 | 47.82112 | 11.76711 | 72° | 51km/h | 15767m | 3.4m/s | -55.6°C | 5.5% | 113.4hPa | 2.7V | 00:00:00 | 01:04:41 | 00:00:00 | |
| DO3MHA-11 | 2026-09-01 05:33:50 | 47.82108 | 11.76693 | 74° | 51km/h | 15762m | 5.6m/s | -55.6°C | 5.5% | 113.4hPa | 2.7V | 02:56:00 | 01:04:40 | 00:00:00 | |
| BAUMI2-15 | 2026-09-01 05:33:49 | 47.82105 | 11.76674 | 76° | 51km/h | 15757m | 4.1m/s | -55.5°C | 5.5% | 113.6hPa | 2.7V | 00:00:00 | 01:04:39 | 00:00:00 | |
| DG1MJG | 2026-09-01 05:33:48 | 47.82105 | 11.76674 | 76° | 53km/h | 15757m | 4.1m/s | -55.6°C | 2.2% | 113.6hPa | 2.7V | 02:56:00 | 00:00:00 | 00:00:00 | |
| BAUMI2-15 | 2026-09-01 05:33:44 | 47.82093 | 11.76581 | 84° | 49km/h | 15732m | 3.8m/s | -55.5°C | 5.4% | 114.0hPa | 2.7V | 02:56:00 | 01:04:34 | 00:00:00 | |
| OE5MMP-10 | 2026-09-01 05:33:41 | 47.82088 | 11.76526 | 80° | 53km/h | 15718m | 4.2m/s | -55.3°C | 5.2% | 114.2hPa | 2.6V | 02:56:00 | 01:04:31 | 00:00:00 | |
| DO3MHA-11 | 2026-09-01 05:33:40 | 47.82085 | 11.76507 | 80° | 53km/h | 15713m | 5.6m/s | -55.3°C | 5.2% | 114.3hPa | 2.7V | 00:00:00 | 01:04:30 | 00:00:00 | |
| DB0UT-7 | 2026-09-01 05:33:39 | 47.82082 | 11.76487 | 79° | 57km/h | 15708m | 4.2m/s | -55.3°C | 5.2% | 114.4hPa | 2.7V | 00:00:00 | 00:00:00 | 00:00:00 | |
| OE5DRO-10 | 2026-09-01 05:33:38 | 47.82080 | 11.76467 | 78° | 55km/h | 15704m | 4.9m/s | -55.3°C | 5.3% | 114.5hPa | 2.7V | 02:56:00 | 00:00:00 | 00:00:00 | |
| DG1MFX-10 | 2026-09-01 05:33:34 | 47.82071 | 11.76389 | 86° | 53km/h | 15685m | 4.5m/s | -55.4°C | 2.1% | 114.9hPa | 2.6V | 02:57:00 | 00:00:00 | 00:00:00 | |
| OE5MMP-10 | 2026-09-01 05:33:31 | 47.82069 | 11.76331 | 88° | 57km/h | 15670m | 5.7m/s | -55.2°C | 5.4% | 115.1hPa | 2.6V | 00:00:00 | 01:04:21 | 00:00:00 | |
| DO3MHA-12 | 2026-09-01 05:33:30 | 47.82068 | 11.76311 | 87° | 58km/h | 15665m | 2.8m/s | -55.1°C | 5.4% | 115.2hPa | 2.6V | 00:00:00 | 01:04:20 | 00:00:00 | |
| DO8TBO-1 | 2026-09-01 05:33:29 | 47.82067 | 11.76291 | 85° | 60km/h | 15661m | 5.2m/s | -55.1°C | 5.4% | 115.3hPa | 2.6V | 02:56:00 | 01:04:19 | 00:00:00 | |
| OE5WHR-10 | 2026-09-01 05:33:27 | 47.82064 | 11.76249 | 83° | 60km/h | 15651m | 5.1m/s | -55.1°C | 5.3% | 115.4hPa | 2.6V | 00:00:00 | 00:00:00 | 00:00:00 | |
| DK5PH-5 | 2026-09-01 05:33:24 | 47.82057 | 11.76184 | 81° | 60km/h | 15637m | 4.7m/s | 0°C | 0% | 0hPa | 2.6V | 00:00:00 | 01:04:14 | 00:00:00 | |
| DL6DJ-15 | 2026-09-01 05:33:23 | 47.82053 | 11.76140 | 83° | 58km/h | 15627m | 5.4m/s | -55.2°C | 2.1% | 115.9hPa | 2.6V | 00:00:00 | 00:00:00 | 00:00:00 | |
| OE5DXL-15 | 2026-09-01 05:33:22 | 47.82053 | 11.76140 | 84° | 62km/h | 15627m | 5.3m/s | -55.1°C | 5.3% | 115.9hPa | 2.6V | 00:00:00 | 00:00:00 | 00:00:00 | |
| OE5MMP-10 | 2026-09-01 05:33:21 | 47.82051 | 11.76118 | 84° | 60km/h | 15622m | 4.9m/s | -55.2°C | 5.2% | 116.0hPa | 2.6V | 00:00:00 | 01:04:11 | 00:00:00 | |
| DO3MHA-11 | 2026-09-01 05:33:20 | 47.82050 | 11.76096 | 84° | 60km/h | 15617m | 5.3m/s | -55.2°C | 5.3% | 116.1hPa | 2.6V | 02:56:00 | 01:04:10 | 00:00:00 | |
| OE5DRO-10 | 2026-09-01 05:33:19 | 47.82048 | 11.76075 | 85° | 62km/h | 15612m | 3.8m/s | -55.2°C | 5.3% | 116.1hPa | 2.6V | 00:00:00 | 00:00:00 | 00:00:00 | |
| DG1MJG | 2026-09-01 05:33:17 | 47.82047 | 11.76053 | 86° | 58km/h | 15608m | 5.3m/s | -55.3°C | 2.1% | 116.3hPa | 2.6V | 02:57:00 | 00:00:00 | 00:00:00 | |
| DG1MFX-10 | 2026-09-01 05:33:12 | 47.82036 | 11.75942 | 82° | 62km/h | 15584m | 5.2m/s | -55.2°C | 2.1% | 116.7hPa | 2.6V | 02:57:00 | 00:00:00 | 00:00:00 | |
| OE5MMP-10 | 2026-09-01 05:33:11 | 47.82031 | 11.75896 | 79° | 62km/h | 15574m | 4.9m/s | -55.1°C | 5.3% | 116.8hPa | 2.6V | 02:56:00 | 01:04:01 | 00:00:00 | |
| DO3MHA-11 | 2026-09-01 05:33:10 | 47.82028 | 11.75873 | 80° | 62km/h | 15569m | 4.8m/s | -55.1°C | 5.2% | 116.9hPa | 2.7V | 00:00:00 | 01:04:00 | 00:00:00 | |
| DB0UT-7 | 2026-09-01 05:33:08 | 47.82022 | 11.75826 | 80° | 62km/h | 15559m | 4.7m/s | -55.1°C | 5.4% | 117.1hPa | 2.7V | 02:56:00 | 01:03:58 | 00:00:00 | |
| OE5WHR-10 | 2026-09-01 05:33:05 | 47.82014 | 11.75756 | 82° | 62km/h | 15545m | 5.1m/s | -55.0°C | 5.3% | 117.4hPa | 2.6V | 00:00:00 | 01:03:55 | 00:00:00 | |
| DF2AP-13 | 2026-09-01 05:33:01 | 47.82003 | 11.75664 | 78° | 62km/h | 15527m | 3.9m/s | 0°C | 0% | 0hPa | 2.6V | 00:00:00 | 01:03:51 | 00:00:00 | |
| DO3MHA-11 | 2026-09-01 05:33:00 | 47.82000 | 11.75642 | 79° | 64km/h | 15523m | 5.0m/s | -54.9°C | 5.3% | 117.8hPa | 2.6V | 00:00:00 | 01:03:50 | 00:00:00 | |
| DO8TBO-1 | 2026-09-01 05:32:59 | 47.81997 | 11.75619 | 78° | 60km/h | 15518m | 4.3m/s | -54.9°C | 5.3% | 117.9hPa | 2.6V | 00:00:00 | 01:03:49 | 00:00:00 | |
| DK5PH-5 | 2026-09-01 05:32:54 | 47.81979 | 11.75504 | 77° | 60km/h | 15495m | 4.1m/s | 0°C | 0% | 0hPa | 2.6V | 02:57:00 | 01:03:44 | 00:00:00 | |
| OE5DXL-15 | 2026-09-01 05:32:52 | 47.81971 | 11.75457 | 75° | 60km/h | 15486m | 3.3m/s | -54.9°C | 5.2% | 118.5hPa | 2.6V | 00:00:00 | 00:00:00 | 00:00:00 | |
| OE5MMP-10 | 2026-09-01 05:32:51 | 47.81966 | 11.75434 | 76° | 62km/h | 15481m | 5.5m/s | -54.9°C | 5.2% | 118.6hPa | 2.6V | 00:00:00 | 01:03:41 | 00:00:00 | |
| DO3MHA-12 | 2026-09-01 05:32:50 | 47.81962 | 11.75410 | 76° | 60km/h | 15476m | 4.3m/s | -55.0°C | 5.3% | 118.7hPa | 2.6V | 00:00:00 | 01:03:40 | 00:00:00 | |
| NBG1-10 | 2026-09-01 05:32:49 | 47.81958 | 11.75386 | 76° | 58km/h | 15472m | 4.6m/s | -55.0°C | 5.3% | 118.7hPa | 2.6V | 00:00:00 | 01:03:39 | 00:00:00 | |
| IN3HCDX | 2026-09-01 05:32:48 | 47.81958 | 11.75386 | 77° | 66km/h | 15472m | 4.7m/s | -55.0°C | 2.1% | 118.8hPa | 2.6V | 02:57:00 | 00:00:00 | 00:00:00 | |
| DG1MJG | 2026-09-01 05:32:46 | 47.81967 | 11.75340 | 77° | 62km/h | 15462m | 4.6m/s | -55.0°C | 2.1% | 119.0hPa | 2.6V | 02:57:00 | 00:00:00 | 00:00:00 | |
| DH7VM-15 | 2026-09-01 05:32:45 | 47.81947 | 11.75317 | 78° | 62km/h | 15457m | 5.8m/s | -54.9°C | 0% | 0hPa | 2.6V | 00:00:00 | 00:00:00 | 00:00:00 | |
| OE5WHR-10 | 2026-09-01 05:32:44 | 47.81940 | 11.75273 | 78° | 58km/h | 15448m | 5.3m/s | -54.9°C | 5.3% | 119.2hPa | 2.6V | 02:57:00 | 00:00:00 | 00:00:00 | |
| OE5MMP-10 | 2026-09-01 05:32:41 | 47.81930 | 11.75212 | 76° | 60km/h | 15432m | 5.5m/s | -54.9°C | 5.4% | 119.5hPa | 2.7V | 02:57:00 | 01:03:31 | 00:00:00 | |
| DO3MHA-11 | 2026-09-01 05:32:40 | 47.81926 | 11.75191 | 74° | 60km/h | 15428m | 3.1m/s | -54.9°C | 5.3% | 119.5hPa | 2.6V | 00:00:00 | 01:03:30 | 00:00:00 | |
| DB0UT-7 | 2026-09-01 05:32:38 | 47.81917 | 11.75150 | 69° | 57km/h | 15419m | 5.0m/s | -54.8°C | 5.2% | 119.7hPa | 2.6V | 00:00:00 | 00:00:00 | 00:00:00 | |
| OE5MMP-10 | 2026-09-01 05:32:31 | 47.81882 | 11.74997 | 76° | 57km/h | 15386m | 4.4m/s | -54.7°C | 5.3% | 120.3hPa | 2.6V | 00:00:00 | 01:03:21 | 00:00:00 | |
| DO3MHA-11 | 2026-09-01 05:32:30 | 47.81879 | 11.74976 | 78° | 57km/h | 15381m | 5.2m/s | -54.7°C | 5.4% | 120.4hPa | 2.6V | 00:00:00 | 01:03:20 | 00:00:00 | |
| DO8TBO-1 | 2026-09-01 05:32:28 | 47.81873 | 11.74935 | 77° | 57km/h | 15372m | 4.7m/s | -54.7°C | 5.3% | 120.6hPa | 2.6V | 00:00:00 | 01:03:18 | 00:00:00 | |
| IN3HCDX | 2026-09-01 05:32:26 | 47.81869 | 11.74915 | 77° | 57km/h | 15367m | 4.2m/s | -54.7°C | 2.1% | 120.8hPa | 2.6V | 02:57:00 | 00:00:00 | 00:00:00 | |
| OE5WHR-10 | 2026-09-01 05:32:23 | 47.81855 | 11.74831 | 74° | 55km/h | 15349m | 4.7m/s | -54.6°C | 5.3% | 121.0hPa | 2.6V | 00:00:00 | 00:00:00 | 00:00:00 | |
| OE5DXL-15 | 2026-09-01 05:32:22 | 47.81851 | 11.74811 | 74° | 57km/h | 15345m | 4.0m/s | -54.6°C | 5.2% | 121.1hPa | 2.6V | 02:57:00 | 00:00:00 | 00:00:00 | |
| DL6DJ-15 | 2026-09-01 05:32:21 | 47.81843 | 11.74771 | 74° | 55km/h | 15335m | 4.4m/s | -54.6°C | 2.1% | 121.3hPa | 2.7V | 00:00:00 | 00:00:00 | 00:00:00 | |
| DO3MHA-11 | 2026-09-01 05:32:20 | 47.81843 | 11.74771 | 75° | 55km/h | 15335m | 4.4m/s | -54.5°C | 5.2% | 121.3hPa | 2.7V | 02:57:00 | 01:03:10 | 00:00:00 | |
| NBG1-10 | 2026-09-01 05:32:16 | 47.81829 | 11.74692 | 78° | 57km/h | 15316m | 4.0m/s | -54.7°C | 5.3% | 121.6hPa | 2.6V | 02:57:00 | 01:03:06 | 00:00:00 | |
| DG1MJG | 2026-09-01 05:32:15 | 47.81829 | 11.74692 | 79° | 55km/h | 15316m | 4.0m/s | -54.7°C | 2.2% | 121.7hPa | 2.6V | 02:57:00 | 00:00:00 | 00:00:00 | |
| OE5MMP-10 | 2026-09-01 05:32:11 | 47.81812 | 11.74589 | 79° | 57km/h | 15292m | 4.1m/s | -54.7°C | 5.3% | 122.1hPa | 2.6V | 02:57:00 | 01:03:01 | 00:00:00 | |
| DO3MHA-12 | 2026-09-01 05:32:10 | 47.81810 | 11.74568 | 78° | 57km/h | 15288m | 5.3m/s | -54.8°C | 5.3% | 122.2hPa | 2.6V | 02:57:00 | 01:03:00 | 00:00:00 | |
| DG1MFX-10 | 2026-09-01 05:32:09 | 47.81810 | 11.74568 | 79° | 57km/h | 15288m | 5.3m/s | -54.8°C | 2.2% | 122.2hPa | 2.6V | 02:57:00 | 00:00:00 | 00:00:00 | |
| DB0UT-7 | 2026-09-01 05:32:08 | 47.81804 | 11.74528 | 81° | 57km/h | 15278m | 3.7m/s | -54.7°C | 5.3% | 122.4hPa | 2.6V | 00:00:00 | 01:02:58 | 00:00:00 | |
| IN3HCDX | 2026-09-01 05:32:05 | 47.81800 | 11.74487 | 84° | 55km/h | 15269m | 4.3m/s | -54.7°C | 0% | 122.6hPa | 2.6V | 02:57:00 | 00:00:00 | 00:00:00 | |
| OE5DRO-10 | 2026-09-01 05:32:03 | 47.81794 | 11.74425 | 82° | 57km/h | 15254m | 4.7m/s | -54.5°C | 5.3% | 122.9hPa | 2.6V | 00:00:00 | 00:00:00 | 00:00:00 | |
| DL6DJ-15 | 2026-09-01 05:31:50 | 47.81764 | 11.74137 | 84° | 53km/h | 15189m | 5.1m/s | -54.3°C | 2.2% | 124.2hPa | 2.6V | 00:00:00 | 00:00:00 | 00:00:00 | |
| DF7PN | 2026-09-01 05:31:47 | 47.81756 | 11.74052 | 81° | 58km/h | 15171m | 4.5m/s | -54.3°C | 2.3% | 124.5hPa | 2.6V | 00:00:00 | 00:00:00 | 00:00:00 | |
| DG1MJG | 2026-09-01 05:31:45 | 47.81758 | 11.74074 | 82° | 58km/h | 15175m | 4.1m/s | -54.3°C | 2.3% | 124.5hPa | 2.6V | 02:58:00 | 00:00:00 | 00:00:00 | |
| OE5DRO-10 | 2026-09-01 05:31:44 | 47.81754 | 11.74030 | 84° | 58km/h | 15166m | 5.0m/s | -54.3°C | 5.4% | 124.6hPa | 2.6V | 02:58:00 | 00:00:00 | 00:00:00 | |
| NBG1-10 | 2026-09-01 05:31:43 | 47.81753 | 11.74008 | 85° | 62km/h | 15162m | 3.7m/s | -54.3°C | 5.4% | 124.7hPa | 2.7V | 00:00:00 | 01:02:33 | 00:00:00 | |
| OE5WHR-10 | 2026-09-01 05:31:41 | 47.81749 | 11.73965 | 84° | 60km/h | 15152m | 3.6m/s | -54.2°C | 5.3% | 124.9hPa | 2.7V | 02:58:00 | 00:00:00 | 00:00:00 | |
| DO3MHA-11 | 2026-09-01 05:31:40 | 47.81748 | 11.73944 | 85° | 57km/h | 15148m | 5.2m/s | -54.3°C | 5.1% | 124.9hPa | 2.6V | 00:00:00 | 01:02:30 | 00:00:00 | |
| BAUMI2-15 | 2026-09-01 05:31:38 | 47.81745 | 11.73903 | 84° | 55km/h | 15137m | 5.5m/s | -54.4°C | 5.2% | 125.1hPa | 2.6V | 00:00:00 | 01:02:28 | 00:00:00 | |
| DB0UT-7 | 2026-09-01 05:31:37 | 47.81744 | 11.73883 | 84° | 64km/h | 15133m | 4.0m/s | -54.4°C | 5.3% | 125.2hPa | 2.6V | 02:58:00 | 00:00:00 | 00:00:00 | |
| DH7VM-15 | 2026-09-01 05:31:36 | 47.81743 | 11.73883 | 84° | 53km/h | 15133m | 4.1m/s | -54.5°C | 0% | 0hPa | 2.7V | 00:00:00 | 00:00:00 | 00:00:00 | |
| BAUMI2-15 | 2026-09-01 05:31:33 | 47.81738 | 11.73799 | 84° | 60km/h | 15116m | 4.8m/s | -54.5°C | 5.3% | 125.5hPa | 2.7V | 00:00:00 | 01:02:23 | 00:00:00 | |
| PG1ADW-2 | 2026-09-01 05:31:31 | 47.81735 | 11.73756 | 87° | 64km/h | 15107m | 5.0m/s | -54.4°C | 5.3% | 125.7hPa | 2.7V | 02:58:00 | 01:02:21 | 00:00:00 | |
| DO3MHA-12 | 2026-09-01 05:31:30 | 47.81734 | 11.73733 | 89° | 62km/h | 15102m | 4.9m/s | -54.5°C | 5.4% | 125.8hPa | 2.6V | 00:00:00 | 01:02:20 | 00:00:00 | |
| BAUMI2-15 | 2026-09-01 05:31:28 | 47.81733 | 11.73686 | 87° | 64km/h | 15093m | 5.3m/s | -54.4°C | 5.4% | 126.0hPa | 2.6V | 02:58:00 | 01:02:18 | 00:00:00 | |
| DO8TBO-1 | 2026-09-01 05:31:27 | 47.81732 | 11.73663 | 85° | 68km/h | 15088m | 4.1m/s | -54.4°C | 5.5% | 126.1hPa | 2.7V | 00:00:00 | 01:02:17 | 00:00:00 | |
| OE5DRO-10 | 2026-09-01 05:31:25 | 47.81730 | 11.73615 | 87° | 68km/h | 15078m | 5.0m/s | -54.4°C | 5.4% | 126.3hPa | 2.7V | 00:00:00 | 00:00:00 | 00:00:00 | |
| BAUMI2-15 | 2026-09-01 05:31:23 | 47.81727 | 11.73569 | 85° | 64km/h | 15069m | 5.5m/s | -54.4°C | 5.4% | 126.5hPa | 2.7V | 00:00:00 | 01:02:13 | 00:00:00 | |
| OE5DXL-15 | 2026-09-01 05:31:22 | 47.81726 | 11.73545 | 85° | 68km/h | 15064m | 4.2m/s | -54.4°C | 5.3% | 126.6hPa | 2.7V | 00:00:00 | 00:00:00 | 00:00:00 | |
| DO3MHA-11 | 2026-09-01 05:31:20 | 47.81723 | 11.73497 | 85° | 69km/h | 15055m | 4.3m/s | -54.4°C | 5.2% | 126.7hPa | 2.7V | 02:58:00 | 01:02:10 | 00:00:00 | |
| OE5WHR-10 | 2026-09-01 05:31:19 | 47.81721 | 11.73472 | 84° | 69km/h | 15050m | 5.7m/s | -54.4°C | 5.3% | 126.8hPa | 2.7V | 00:00:00 | 00:00:00 | 00:00:00 | |
| BAUMI2-15 | 2026-09-01 05:31:18 | 47.81719 | 11.73446 | 82° | 69km/h | 15045m | 3.7m/s | -54.4°C | 5.3% | 127.0hPa | 2.7V | 00:00:00 | 01:02:08 | 00:00:00 | |
| DF7PN | 2026-09-01 05:31:16 | 47.81712 | 11.73368 | 81° | 69km/h | 15032m | 3.7m/s | -54.7°C | 2.3% | 127.3hPa | 2.7V | 00:00:00 | 00:00:00 | 00:00:00 | |
| DG1MJG | 2026-09-01 05:31:14 | 47.81712 | 11.73368 | 83° | 71km/h | 15032m | 3.7m/s | -54.7°C | 2.3% | 127.3hPa | 2.7V | 02:58:00 | 00:00:00 | 00:00:00 | |
| BAUMI2-15 | 2026-09-01 05:31:13 | 47.81706 | 11.73316 | 81° | 66km/h | 15022m | 4.2m/s | -54.6°C | 5.3% | 127.4hPa | 2.7V | 02:58:00 | 01:02:03 | 00:00:00 | |
| OE5MMP-10 | 2026-09-01 05:31:11 | 47.81701 | 11.73267 | 81° | 68km/h | 15013m | 4.4m/s | -54.6°C | 5.4% | 127.6hPa | 2.6V | 02:58:00 | 01:02:01 | 00:00:00 | |
| DO3MHA-11 | 2026-09-01 05:31:10 | 47.81698 | 11.73242 | 79° | 69km/h | 15008m | 5.3m/s | -54.6°C | 5.4% | 127.7hPa | 2.7V | 00:00:00 | 01:02:00 | 00:00:00 | |
| BAUMI2-15 | 2026-09-01 05:31:08 | 47.81691 | 11.73194 | 79° | 69km/h | 14999m | 5.4m/s | -54.5°C | 5.3% | 127.9hPa | 2.7V | 00:00:00 | 01:01:58 | 00:00:00 | |
| DB0UT-7 | 2026-09-01 05:31:07 | 47.81688 | 11.73169 | 80° | 69km/h | 14994m | 3.7m/s | -54.6°C | 5.4% | 128.0hPa | 2.7V | 00:00:00 | 01:01:57 | 00:00:00 | |
| OE5DRO-10 | 2026-09-01 05:31:06 | 47.81684 | 11.73144 | 78° | 69km/h | 14990m | 4.8m/s | -54.7°C | 5.4% | 128.0hPa | 2.7V | 00:00:00 | 00:00:00 | 00:00:00 | |
| BAUMI2-15 | 2026-09-01 05:31:03 | 47.81672 | 11.73066 | 78° | 69km/h | 14976m | 5.2m/s | -54.9°C | 5.5% | 128.3hPa | 2.7V | 00:00:00 | 01:01:53 | 00:00:00 | |
| IN3HCDX | 2026-09-01 05:31:02 | 47.81672 | 11.73066 | 79° | 71km/h | 14976m | 5.2m/s | -55.0°C | 0% | 0hPa | 2.7V | 02:59:00 | 00:00:00 | 00:00:00 | |
| DL6DJ-15 | 2026-09-01 05:30:48 | 47.81626 | 11.72655 | 84° | 69km/h | 14898m | 4.4m/s | -54.9°C | 2.4% | 129.9hPa | 2.7V | 00:00:00 | 00:00:00 | 00:00:00 | |
| DG1MFX-10 | 2026-09-01 05:30:47 | 47.81628 | 11.72680 | 84° | 69km/h | 14904m | 5.5m/s | -54.9°C | 2.4% | 129.9hPa | 2.7V | 02:59:00 | 00:00:00 | 00:00:00 | |
| DG1MJG | 2026-09-01 05:30:44 | 47.81624 | 11.72603 | 90° | 69km/h | 14889m | 4.6m/s | -54.9°C | 2.3% | 130.1hPa | 2.7V | 02:59:00 | 00:00:00 | 00:00:00 | |
| BAUMI2-15 | 2026-09-01 05:30:42 | 47.81622 | 11.72527 | 89° | 68km/h | 14875m | 3.2m/s | -54.8°C | 5.5% | 130.3hPa | 2.7V | 02:59:00 | 01:01:32 | 00:00:00 | |
| OE5MMP-10 | 2026-09-01 05:30:41 | 47.81622 | 11.72502 | 91° | 71km/h | 14871m | 5.2m/s | -54.9°C | 5.5% | 130.4hPa | 2.7V | 02:59:00 | 01:01:31 | 00:00:00 | |
| DO3MHA-11 | 2026-09-01 05:30:40 | 47.81622 | 11.72477 | 92° | 71km/h | 14866m | 4.6m/s | -54.9°C | 5.5% | 130.5hPa | 2.7V | 00:00:00 | 01:01:30 | 00:00:00 | |
| IN3HCDX | 2026-09-01 05:30:39 | 47.81622 | 11.72477 | 92° | 68km/h | 14866m | 4.7m/s | -55.0°C | 0% | 0hPa | 2.7V | 02:59:00 | 00:00:00 | 00:00:00 | |
| NBG1-10 | 2026-09-01 05:30:37 | 47.81623 | 11.72399 | 92° | 77km/h | 14851m | 5.5m/s | -55.0°C | 5.7% | 130.8hPa | 2.7V | 02:59:00 | 01:01:27 | 00:00:00 | |
| DB0UT-7 | 2026-09-01 05:30:36 | 47.81623 | 11.72372 | 93° | 77km/h | 14846m | 4.4m/s | -55.1°C | 5.7% | 131.0hPa | 2.6V | 00:00:00 | 00:00:00 | 00:00:00 | |
| BAUMI2-15 | 2026-09-01 05:30:32 | 47.81625 | 11.72260 | 92° | 73km/h | 14828m | 5.9m/s | -55.1°C | 5.6% | 131.3hPa | 2.6V | 00:00:00 | 01:01:22 | 00:00:00 | |
| OE5MMP-10 | 2026-09-01 05:30:31 | 47.81625 | 11.72233 | 93° | 77km/h | 14823m | 3.6m/s | -55.1°C | 5.7% | 131.4hPa | 2.6V | 00:00:00 | 01:01:21 | 00:00:00 | |
| DO3MHA-11 | 2026-09-01 05:30:30 | 47.81626 | 11.72206 | 91° | 77km/h | 14818m | 5.1m/s | -55.1°C | 5.7% | 131.5hPa | 2.6V | 00:00:00 | 01:01:20 | 00:00:00 | |
| OE5DRO-10 | 2026-09-01 05:30:28 | 47.81626 | 11.72152 | 90° | 77km/h | 14809m | 4.4m/s | -55.1°C | 5.7% | 131.7hPa | 2.6V | 00:00:00 | 00:00:00 | 00:00:00 | |
| BAUMI2-15 | 2026-09-01 05:30:27 | 47.81626 | 11.72125 | 91° | 78km/h | 14804m | 4.6m/s | -55.1°C | 5.7% | 131.8hPa | 2.6V | 02:59:00 | 01:01:17 | 00:00:00 | |
| DG1MFX-10 | 2026-09-01 05:30:26 | 47.81626 | 11.72124 | 91° | 75km/h | 14804m | 4.7m/s | -55.2°C | 2.6% | 131.8hPa | 2.6V | 02:59:00 | 00:00:00 | 00:00:00 | |
| DH7VM-15 | 2026-09-01 05:30:24 | 47.81625 | 11.72066 | 89° | 80km/h | 14796m | 5.5m/s | 0°C | 0% | 0hPa | 2.6V | 00:00:00 | 00:00:00 | 00:00:00 | |
| OE5DXL-15 | 2026-09-01 05:30:22 | 47.81623 | 11.71976 | 89° | 78km/h | 14781m | 4.6m/s | -55.5°C | 5.8% | 132.3hPa | 2.6V | 00:00:00 | 00:00:00 | 00:00:00 | |
| OE5MMP-10 | 2026-09-01 05:30:21 | 47.81622 | 11.71946 | 88° | 75km/h | 14777m | 4.1m/s | -55.5°C | 5.9% | 132.4hPa | 2.6V | 00:00:00 | 01:01:11 | 00:00:00 | |
| DO3MHA-11 | 2026-09-01 05:30:20 | 47.81621 | 11.71917 | 87° | 75km/h | 14772m | 5.1m/s | -55.5°C | 5.9% | 132.5hPa | 2.6V | 02:59:00 | 01:01:10 | 00:00:00 | |
| IN3HCDX | 2026-09-01 05:30:18 | 47.81619 | 11.71889 | 88° | 73km/h | 14767m | 4.9m/s | -55.5°C | 0% | 0hPa | 2.7V | 03:00:00 | 00:00:00 | 00:00:00 | |
| BAUMI2-15 | 2026-09-01 05:30:17 | 47.81618 | 11.71834 | 87° | 75km/h | 14758m | 3.6m/s | -55.4°C | 5.8% | 132.8hPa | 2.7V | 00:00:00 | 01:01:07 | 00:00:00 | |
| OE5WHR-10 | 2026-09-01 05:30:16 | 47.81616 | 11.71807 | 85° | 78km/h | 14753m | 5.5m/s | -55.4°C | 5.8% | 132.9hPa | 2.7V | 00:00:00 | 00:00:00 | 00:00:00 | |
| DG1MJG | 2026-09-01 05:30:13 | 47.81612 | 11.71751 | 84° | 77km/h | 14744m | 4.9m/s | -55.6°C | 2.7% | 133.1hPa | 2.7V | 03:00:00 | 00:00:00 | 00:00:00 | |
| BAUMI2-15 | 2026-09-01 05:30:12 | 47.81607 | 11.71693 | 84° | 80km/h | 14735m | 4.6m/s | -55.6°C | 6.0% | 133.2hPa | 2.7V | 02:59:00 | 01:01:02 | 00:00:00 | |
| OE5MMP-10 | 2026-09-01 05:30:11 | 47.81605 | 11.71663 | 84° | 80km/h | 14730m | 4.4m/s | -55.5°C | 6.0% | 133.3hPa | 2.6V | 02:59:00 | 01:01:01 | 00:00:00 | |
| DO3MHA-12 | 2026-09-01 05:30:10 | 47.81603 | 11.71634 | 85° | 80km/h | 14725m | 4.6m/s | -55.5°C | 6.0% | 133.4hPa | 2.6V | 02:59:00 | 01:01:00 | 00:00:00 | |
| OE5DRO-10 | 2026-09-01 05:30:09 | 47.81601 | 11.71603 | 88° | 78km/h | 14721m | 4.8m/s | -55.4°C | 5.9% | 133.5hPa | 2.6V | 00:00:00 | 00:00:00 | 00:00:00 | |
| BAUMI2-15 | 2026-09-01 05:30:07 | 47.81599 | 11.71542 | 88° | 78km/h | 14712m | 5.6m/s | -55.4°C | 5.9% | 133.7hPa | 2.6V | 00:00:00 | 01:00:57 | 00:00:00 | |
| DB0UT-7 | 2026-09-01 05:30:06 | 47.81598 | 11.71512 | 88° | 75km/h | 14707m | 4.3m/s | -55.4°C | 5.9% | 133.9hPa | 2.6V | 02:59:00 | 01:00:56 | 00:00:00 | |
| DG1MFX-10 | 2026-09-01 05:30:05 | 47.81598 | 11.71512 | 88° | 80km/h | 14707m | 4.3m/s | -55.4°C | 2.6% | 133.9hPa | 2.7V | 03:00:00 | 00:00:00 | 00:00:00 | |
| NBG1-10 | 2026-09-01 05:30:04 | 47.81597 | 11.71453 | 90° | 75km/h | 14697m | 4.4m/s | -55.3°C | 5.9% | 134.0hPa | 2.7V | 00:00:00 | 01:00:54 | 00:00:00 | |
| DL6DJ-15 | 2026-09-01 05:29:45 | 47.81562 | 11.70912 | 85° | 77km/h | 14606m | 4.1m/s | -54.9°C | 2.6% | 136.0hPa | 2.7V | 00:00:00 | 00:00:00 | 00:00:00 | |
| DN1GJH-1 | 2026-09-01 05:29:44 | 47.81562 | 11.70912 | 86° | 78km/h | 14606m | 4.1m/s | -54.9°C | 2.6% | 136.0hPa | 2.7V | 00:00:00 | 00:00:00 | 00:00:00 | |
| BAUMI2-15 | 2026-09-01 05:29:42 | 47.81557 | 11.70824 | 85° | 77km/h | 14593m | 3.2m/s | -55.0°C | 5.9% | 136.2hPa | 2.7V | 03:00:00 | 01:00:32 | 00:00:00 | |
| OE5MMP-10 | 2026-09-01 05:29:41 | 47.81555 | 11.70796 | 86° | 68km/h | 14588m | 5.1m/s | -55.0°C | 5.9% | 136.3hPa | 2.7V | 00:00:00 | 01:00:31 | 00:00:00 | |
| DO3MHA-11 | 2026-09-01 05:29:40 | 47.81554 | 11.70768 | 86° | 68km/h | 14584m | 3.9m/s | -55.1°C | 5.9% | 136.4hPa | 2.7V | 03:00:00 | 01:00:30 | 00:00:00 | |
| DB0UT-7 | 2026-09-01 05:29:36 | 47.81545 | 11.70667 | 82° | 69km/h | 14566m | 5.1m/s | -55.3°C | 6.0% | 136.8hPa | 2.7V | 00:00:00 | 00:00:00 | 00:00:00 | |
| DK5PH-5 | 2026-09-01 05:29:34 | 47.81541 | 11.70619 | 84° | 84km/h | 14557m | 4.9m/s | 0°C | 0% | 0hPa | 2.7V | 00:00:00 | 01:00:24 | 00:00:00 | |
| NBG1-10 | 2026-09-01 05:29:31 | 47.81536 | 11.70542 | 87° | 71km/h | 14543m | 5.7m/s | -55.2°C | 6.0% | 137.3hPa | 2.7V | 00:00:00 | 01:00:21 | 00:00:00 | |
| DO3MHA-12 | 2026-09-01 05:29:30 | 47.81535 | 11.70514 | 87° | 71km/h | 14538m | 3.7m/s | -55.2°C | 5.9% | 137.4hPa | 2.7V | 03:00:00 | 01:00:20 | 00:00:00 | |
| DO8TBO-1 | 2026-09-01 05:29:27 | 47.81530 | 11.70429 | 86° | 71km/h | 14523m | 5.3m/s | -55.2°C | 5.9% | 137.7hPa | 2.7V | 00:00:00 | 01:00:17 | 00:00:00 | |
| DG1MFX-10 | 2026-09-01 05:29:24 | 47.81527 | 11.70375 | 85° | 69km/h | 14513m | 5.3m/s | -55.2°C | 2.7% | 138.0hPa | 2.7V | 03:01:00 | 00:00:00 | 00:00:00 | |
| OE5DXL-15 | 2026-09-01 05:29:22 | 47.81523 | 11.70299 | 87° | 71km/h | 14499m | 4.3m/s | -55.1°C | 6.0% | 138.2hPa | 2.7V | 00:00:00 | 00:00:00 | 00:00:00 | |
| OE5MMP-10 | 2026-09-01 05:29:21 | 47.81522 | 11.70274 | 87° | 69km/h | 14494m | 5.5m/s | -55.1°C | 5.8% | 138.3hPa | 2.7V | 03:00:00 | 01:00:11 | 00:00:00 | |
| DO3MHA-11 | 2026-09-01 05:29:20 | 47.81521 | 11.70249 | 87° | 69km/h | 14489m | 3.9m/s | -55.0°C | 5.8% | 138.4hPa | 2.7V | 00:00:00 | 01:00:10 | 00:00:00 | |
| IN3HCDX | 2026-09-01 05:29:16 | 47.81518 | 11.70171 | 88° | 71km/h | 14474m | 4.7m/s | 0°C | 0% | 0hPa | 2.7V | 00:00:00 | 00:00:00 | 00:00:00 | |
| DL6DJ-15 | 2026-09-01 05:29:14 | 47.81516 | 11.70093 | 87° | 66km/h | 14463m | 4.1m/s | -54.8°C | 2.6% | 139.1hPa | 2.7V | 00:00:00 | 00:00:00 | 00:00:00 | |
| OE5WHR-10 | 2026-09-01 05:29:13 | 47.81515 | 11.70068 | 87° | 73km/h | 14459m | 4.7m/s | -54.8°C | 5.9% | 139.1hPa | 2.7V | 03:00:00 | 00:00:00 | 00:00:00 | |
| OE5DRO-10 | 2026-09-01 05:29:12 | 47.81514 | 11.70043 | 87° | 73km/h | 14454m | 4.7m/s | -54.7°C | 5.9% | 139.2hPa | 2.7V | 00:00:00 | 00:00:00 | 00:00:00 | |
| OE5MMP-10 | 2026-09-01 05:29:11 | 47.81513 | 11.70018 | 88° | 73km/h | 14450m | 3.5m/s | -54.7°C | 5.9% | 139.3hPa | 2.7V | 00:00:00 | 01:00:01 | 00:00:00 | |
| DO3MHA-11 | 2026-09-01 05:29:10 | 47.81513 | 11.69992 | 91° | 75km/h | 14446m | 5.3m/s | -54.6°C | 5.9% | 139.4hPa | 2.7V | 00:00:00 | 01:00:00 | 00:00:00 | |
| OE5MMP-10 | 2026-09-01 05:29:01 | 47.81507 | 11.69741 | 85° | 75km/h | 14403m | 3.7m/s | -54.3°C | 5.8% | 140.4hPa | 2.7V | 00:00:00 | 00:59:51 | 00:00:00 | |
| DO3MHA-11 | 2026-09-01 05:29:00 | 47.81506 | 11.69714 | 86° | 75km/h | 14399m | 5.3m/s | -54.3°C | 5.7% | 140.4hPa | 2.7V | 03:01:00 | 00:59:50 | 00:00:00 | |
| NBG1-10 | 2026-09-01 05:28:58 | 47.81504 | 11.69657 | 89° | 80km/h | 14389m | 4.1m/s | -54.3°C | 5.6% | 140.7hPa | 2.7V | 00:00:00 | 00:59:48 | 00:00:00 | |
| DO8TBO-1 | 2026-09-01 05:28:57 | 47.81503 | 11.69629 | 88° | 80km/h | 14384m | 6.5m/s | -54.2°C | 5.4% | 140.7hPa | 2.7V | 03:01:00 | 00:59:47 | 00:00:00 | |
| IN3HCDX | 2026-09-01 05:28:55 | 47.81502 | 11.69600 | 88° | 75km/h | 14379m | 4.4m/s | 0°C | 0% | 0hPa | 2.7V | 00:00:00 | 00:00:00 | 00:00:00 | |
| OE5DRO-10 | 2026-09-01 05:28:53 | 47.81501 | 11.69516 | 90° | 80km/h | 14363m | 5.9m/s | -54.3°C | 5.5% | 141.2hPa | 2.7V | 00:00:00 | 00:00:00 | 00:00:00 | |
| OE5DXL-15 | 2026-09-01 05:28:52 | 47.81501 | 11.69489 | 89° | 80km/h | 14358m | 4.0m/s | -54.3°C | 5.6% | 141.3hPa | 2.7V | 00:00:00 | 00:59:42 | 00:00:00 | |
| OE5MMP-10 | 2026-09-01 05:28:51 | 47.81500 | 11.69461 | 90° | 80km/h | 14354m | 4.4m/s | -54.3°C | 5.5% | 141.4hPa | 2.7V | 00:00:00 | 00:59:41 | 00:00:00 | |
| DO3MHA-12 | 2026-09-01 05:28:50 | 47.81500 | 11.69433 | 92° | 80km/h | 14348m | 5.9m/s | -54.4°C | 5.6% | 141.5hPa | 2.7V | 03:01:00 | 00:59:40 | 00:00:00 | |
| DG1MFX-10 | 2026-09-01 05:28:44 | 47.81500 | 11.69284 | 90° | 84km/h | 14324m | 5.4m/s | -54.7°C | 2.7% | 142.2hPa | 2.7V | 03:01:00 | 00:00:00 | 00:00:00 | |
| DL6DJ-15 | 2026-09-01 05:28:43 | 47.81499 | 11.69221 | 87° | 82km/h | 14314m | 5.5m/s | -54.6°C | 2.6% | 142.4hPa | 2.7V | 00:00:00 | 00:00:00 | 00:00:00 | |
| DG1MJG | 2026-09-01 05:28:42 | 47.81499 | 11.69221 | 88° | 84km/h | 14314m | 5.5m/s | -54.6°C | 2.6% | 142.4hPa | 2.7V | 03:01:00 | 00:00:00 | 00:00:00 | |
| OE5MMP-10 | 2026-09-01 05:28:41 | 47.81497 | 11.69158 | 88° | 84km/h | 14305m | 5.5m/s | -54.6°C | 5.8% | 142.5hPa | 2.7V | 03:01:00 | 00:59:31 | 00:00:00 | |
| DO3MHA-11 | 2026-09-01 05:28:40 | 47.81496 | 11.69127 | 89° | 82km/h | 14300m | 4.0m/s | -54.6°C | 5.8% | 142.6hPa | 2.7V | 00:00:00 | 00:59:30 | 00:00:00 | |
| DB0UT-7 | 2026-09-01 05:28:36 | 47.81494 | 11.69004 | 90° | 78km/h | 14282m | 5.1m/s | -54.6°C | 5.7% | 143.0hPa | 2.7V | 00:00:00 | 00:00:00 | 00:00:00 | |
| OE5DRO-10 | 2026-09-01 05:28:34 | 47.81493 | 11.68941 | 90° | 78km/h | 14273m | 4.6m/s | -54.5°C | 5.7% | 143.2hPa | 2.7V | 03:01:00 | 00:00:00 | 00:00:00 | |
| OE5WHR-10 | 2026-09-01 05:28:31 | 47.81492 | 11.68847 | 90° | 77km/h | 14259m | 5.4m/s | -54.6°C | 5.8% | 143.5hPa | 2.7V | 00:00:00 | 00:00:00 | 00:00:00 | |
| DO3MHA-11 | 2026-09-01 05:28:30 | 47.81492 | 11.68816 | 91° | 75km/h | 14254m | 4.2m/s | -54.5°C | 5.8% | 143.7hPa | 2.7V | 00:00:00 | 00:59:20 | 00:00:00 | |
| DO8TBO-1 | 2026-09-01 05:28:27 | 47.81492 | 11.68727 | 92° | 77km/h | 14239m | 5.7m/s | 0°C | 0% | 0hPa | 2.7V | 00:00:00 | 00:59:17 | 00:00:00 | |
| NBG1-10 | 2026-09-01 05:28:25 | 47.81493 | 11.68671 | 93° | 77km/h | 14230m | 4.5m/s | -54.7°C | 5.7% | 144.2hPa | 2.7V | 03:01:00 | 00:59:15 | 00:00:00 | |
| DG1MFX-10 | 2026-09-01 05:28:24 | 47.81493 | 11.68671 | 93° | 73km/h | 14230m | 4.5m/s | -54.7°C | 2.6% | 144.2hPa | 2.7V | 03:02:00 | 00:00:00 | 00:00:00 | |
| OE5DXL-15 | 2026-09-01 05:28:22 | 47.81495 | 11.68590 | 92° | 78km/h | 14215m | 4.4m/s | -54.7°C | 5.7% | 144.5hPa | 2.7V | 03:01:00 | 00:00:00 | 00:00:00 | |
| OE5MMP-10 | 2026-09-01 05:28:21 | 47.81495 | 11.68562 | 91° | 78km/h | 14211m | 4.0m/s | -54.6°C | 5.7% | 144.6hPa | 2.7V | 00:00:00 | 00:59:11 | 00:00:00 | |
| DO3MHA-11 | 2026-09-01 05:28:20 | 47.81495 | 11.68534 | 90° | 78km/h | 14206m | 5.0m/s | -54.6°C | 5.7% | 144.7hPa | 2.7V | 03:01:00 | 00:59:10 | 00:00:00 | |
| OE5DRO-10 | 2026-09-01 05:28:15 | 47.81492 | 11.68382 | 88° | 77km/h | 14182m | 4.3m/s | -54.5°C | 5.7% | 145.3hPa | 2.7V | 00:00:00 | 00:00:00 | 00:00:00 | |
| DL6DJ-15 | 2026-09-01 05:28:12 | 47.81492 | 11.68294 | 91° | 73km/h | 14170m | 3.8m/s | -54.5°C | 2.6% | 145.6hPa | 2.7V | 00:00:00 | 00:00:00 | 00:00:00 | |
| OE5MMP-10 | 2026-09-01 05:28:11 | 47.81492 | 11.68266 | 92° | 75km/h | 14165m | 5.5m/s | -54.4°C | 5.8% | 145.7hPa | 2.7V | 00:00:00 | 00:59:01 | 00:00:00 | |
| DO3MHA-11 | 2026-09-01 05:28:10 | 47.81493 | 11.68239 | 93° | 77km/h | 14160m | 4.0m/s | -54.3°C | 5.7% | 145.8hPa | 2.7V | 00:00:00 | 00:59:00 | 00:00:00 | |
| DF7PN | 2026-09-01 05:28:09 | 47.81494 | 11.68213 | 94° | 71km/h | 14156m | 5.6m/s | -54.4°C | 2.6% | 146.0hPa | 2.7V | 00:00:00 | 00:00:00 | 00:00:00 | |
| DB0UT-7 | 2026-09-01 05:28:06 | 47.81497 | 11.68131 | 92° | 80km/h | 14142m | 4.5m/s | -54.3°C | 5.6% | 146.2hPa | 2.7V | 00:00:00 | 00:58:56 | 00:00:00 | |
| DG1MFX-10 | 2026-09-01 05:28:03 | 47.81498 | 11.68073 | 92° | 80km/h | 14132m | 4.8m/s | -54.3°C | 2.6% | 146.5hPa | 2.7V | 03:02:00 | 00:00:00 | 00:00:00 | |
| OE5MMP-10 | 2026-09-01 05:28:01 | 47.81498 | 11.67983 | 90° | 80km/h | 14117m | 3.9m/s | -54.2°C | 5.6% | 146.8hPa | 2.7V | 03:02:00 | 00:58:51 | 00:00:00 | |
| DO3MHA-11 | 2026-09-01 05:28:00 | 47.81498 | 11.67953 | 91° | 80km/h | 14112m | 5.5m/s | -54.2°C | 5.6% | 146.9hPa | 2.7V | 00:00:00 | 00:58:50 | 00:00:00 | |
| DO8TBO-1 | 2026-09-01 05:27:57 | 47.81499 | 11.67863 | 90° | 82km/h | 14098m | 5.0m/s | 0°C | 0% | 0hPa | 2.7V | 00:00:00 | 00:58:47 | 00:00:00 | |
| OE5DRO-10 | 2026-09-01 05:27:56 | 47.81498 | 11.67834 | 90° | 82km/h | 14093m | 4.9m/s | -54.2°C | 5.5% | 147.3hPa | 2.7V | 00:00:00 | 00:00:00 | 00:00:00 | |
| NBG1-10 | 2026-09-01 05:27:52 | 47.81498 | 11.67713 | 89° | 86km/h | 14073m | 3.6m/s | -54.2°C | 5.6% | 147.8hPa | 2.7V | 00:00:00 | 00:58:42 | 00:00:00 | |
| OE5MMP-10 | 2026-09-01 05:27:51 | 47.81497 | 11.67683 | 89° | 80km/h | 14069m | 5.2m/s | -54.2°C | 5.5% | 147.9hPa | 2.7V | 00:00:00 | 00:58:41 | 00:00:00 | |
| DO3MHA-11 | 2026-09-01 05:27:50 | 47.81497 | 11.67652 | 90° | 82km/h | 14064m | 4.9m/s | -54.2°C | 5.5% | 148.0hPa | 2.7V | 00:00:00 | 00:58:40 | 00:00:00 | |
| DG1MFX-10 | 2026-09-01 05:27:43 | 47.81498 | 11.67471 | 92° | 82km/h | 14036m | 5.0m/s | -54.1°C | 2.5% | 148.7hPa | 2.7V | 03:03:00 | 00:00:00 | 00:00:00 | |
| OE5MMP-10 | 2026-09-01 05:27:41 | 47.81497 | 11.67378 | 90° | 89km/h | 14023m | 5.4m/s | -54.0°C | 5.5% | 148.9hPa | 2.7V | 00:00:00 | 00:58:31 | 00:00:00 | |
| DO3MHA-11 | 2026-09-01 05:27:40 | 47.81497 | 11.67346 | 90° | 89km/h | 14018m | 4.2m/s | -54.2°C | 5.6% | 149.0hPa | 2.7V | 03:02:00 | 00:58:30 | 00:00:00 | |
| DF7PN | 2026-09-01 05:27:38 | 47.81496 | 11.67281 | 87° | 88km/h | 14008m | 4.2m/s | -54.2°C | 2.5% | 149.3hPa | 2.7V | 00:00:00 | 00:00:00 | 00:00:00 | |
| BAUMI2-15 | 2026-09-01 05:27:37 | 47.81495 | 11.67247 | 89° | 89km/h | 14004m | 4.9m/s | -54.1°C | 5.6% | 149.4hPa | 2.7V | 00:00:00 | 00:58:27 | 00:00:00 | |
| DB0UT-7 | 2026-09-01 05:27:36 | 47.81495 | 11.67214 | 89° | 88km/h | 13999m | 4.4m/s | -54.1°C | 5.6% | 149.5hPa | 2.7V | 00:00:00 | 00:00:00 | 00:00:00 | |
| BAUMI2-15 | 2026-09-01 05:27:32 | 47.81492 | 11.67078 | 88° | 89km/h | 13981m | 3.9m/s | -53.9°C | 5.6% | 149.9hPa | 2.7V | 00:00:00 | 00:58:22 | 00:00:00 | |
| OE5MMP-10 | 2026-09-01 05:27:31 | 47.81491 | 11.67043 | 89° | 88km/h | 13976m | 5.7m/s | -53.9°C | 5.6% | 150.0hPa | 2.7V | 00:00:00 | 00:58:21 | 00:00:00 | |
| DO3MHA-11 | 2026-09-01 05:27:30 | 47.81490 | 11.67009 | 91° | 88km/h | 13971m | 4.7m/s | -53.9°C | 5.5% | 150.1hPa | 2.7V | 00:00:00 | 00:58:20 | 00:00:00 | |
| OE5WHR-10 | 2026-09-01 05:27:28 | 47.81491 | 11.66942 | 91° | 88km/h | 13960m | 4.6m/s | -53.8°C | 5.6% | 150.4hPa | 2.7V | 00:00:00 | 00:00:00 | 00:00:00 | |
| BAUMI2-15 | 2026-09-01 05:27:27 | 47.81492 | 11.66910 | 92° | 86km/h | 13955m | 6.0m/s | -53.8°C | 5.6% | 150.5hPa | 2.7V | 00:00:00 | 00:58:17 | 00:00:00 | |
| DG1MFX-10 | 2026-09-01 05:27:23 | 47.81492 | 11.66812 | 89° | 86km/h | 13941m | 4.3m/s | -53.8°C | 2.5% | 150.9hPa | 2.7V | 03:03:00 | 00:00:00 | 00:00:00 | |
| BAUMI2-15 | 2026-09-01 05:27:22 | 47.81490 | 11.66748 | 88° | 89km/h | 13931m | 4.5m/s | -53.7°C | 5.5% | 151.1hPa | 2.7V | 03:02:00 | 00:58:12 | 00:00:00 | |
| OE5MMP-10 | 2026-09-01 05:27:21 | 47.81489 | 11.66715 | 87° | 89km/h | 13926m | 4.6m/s | -53.7°C | 5.4% | 151.2hPa | 2.7V | 03:02:00 | 00:58:11 | 00:00:00 | |
| DO3MHA-11 | 2026-09-01 05:27:20 | 47.81487 | 11.66682 | 85° | 88km/h | 13921m | 5.1m/s | -53.6°C | 5.5% | 151.3hPa | 2.7V | 00:00:00 | 00:58:10 | 00:00:00 | |
| NBG1-10 | 2026-09-01 05:27:19 | 47.81486 | 11.66649 | 86° | 82km/h | 13917m | 3.9m/s | -53.6°C | 5.4% | 151.4hPa | 2.7V | 00:00:00 | 00:58:09 | 00:00:00 | |
| OE5DRO-10 | 2026-09-01 05:27:18 | 47.81484 | 11.66615 | 88° | 84km/h | 13912m | 5.6m/s | -53.6°C | 5.4% | 151.5hPa | 2.7V | 03:02:00 | 00:00:00 | 00:00:00 | |
| BAUMI2-15 | 2026-09-01 05:27:17 | 47.81484 | 11.66581 | 91° | 88km/h | 13907m | 4.0m/s | -53.6°C | 5.4% | 151.6hPa | 2.7V | 00:00:00 | 00:58:07 | 00:00:00 | |
| BAUMI2-15 | 2026-09-01 05:27:12 | 47.81488 | 11.66415 | 93° | 84km/h | 13883m | 5.0m/s | -53.5°C | 5.4% | 152.2hPa | 2.7V | 00:00:00 | 00:58:02 | 00:00:00 | |
| OE5MMP-10 | 2026-09-01 05:27:11 | 47.81489 | 11.66383 | 95° | 82km/h | 13878m | 5.8m/s | -53.5°C | 5.5% | 152.4hPa | 2.7V | 00:00:00 | 00:58:01 | 00:00:00 | |
| DO3MHA-12 | 2026-09-01 05:27:10 | 47.81491 | 11.66351 | 96° | 82km/h | 13873m | 2.9m/s | -53.5°C | 5.5% | 152.5hPa | 2.7V | 00:00:00 | 00:58:00 | 00:00:00 | |
| DH7VM-15 | 2026-09-01 05:27:08 | 47.81493 | 11.66320 | 95° | 82km/h | 13869m | 5.2m/s | 0°C | 0% | 0hPa | 2.7V | 00:00:00 | 00:00:00 | 00:00:00 | |
| OE5WHR-10 | 2026-09-01 05:27:07 | 47.81495 | 11.66260 | 91° | 80km/h | 13860m | 3.7m/s | -53.3°C | 5.3% | 152.8hPa | 2.7V | 00:00:00 | 00:00:00 | 00:00:00 | |
| DB0UT-7 | 2026-09-01 05:27:06 | 47.81495 | 11.66230 | 91° | 82km/h | 13856m | 4.8m/s | -53.3°C | 5.2% | 152.8hPa | 2.7V | 03:02:00 | 00:57:56 | 00:00:00 | |
| BAUMI2-15 | 2026-09-01 05:27:02 | 47.81498 | 11.66108 | 93° | 82km/h | 13836m | 5.3m/s | -53.2°C | 5.2% | 153.3hPa | 2.7V | 03:03:00 | 00:57:52 | 00:00:00 | |
| OE5MMP-10 | 2026-09-01 05:27:01 | 47.81499 | 11.66077 | 93° | 82km/h | 13831m | 4.9m/s | -53.3°C | 5.2% | 153.4hPa | 2.7V | 00:00:00 | 00:57:51 | 00:00:00 | |
| DO3MHA-11 | 2026-09-01 05:27:00 | 47.81500 | 11.66046 | 94° | 80km/h | 13827m | 4.2m/s | -53.3°C | 5.2% | 153.5hPa | 2.7V | 03:03:00 | 00:57:50 | 00:00:00 | |
| OE5DRO-10 | 2026-09-01 05:26:59 | 47.81501 | 11.66015 | 96° | 82km/h | 13822m | 5.6m/s | -53.4°C | 5.3% | 153.7hPa | 2.7V | 00:00:00 | 00:00:00 | 00:00:00 | |
| BAUMI2-15 | 2026-09-01 05:26:57 | 47.81506 | 11.65954 | 98° | 80km/h | 13813m | 4.9m/s | -53.4°C | 5.3% | 153.9hPa | 2.7V | 00:00:00 | 00:57:47 | 00:00:00 | |
| OE5DXL-15 | 2026-09-01 05:26:52 | 47.81518 | 11.65804 | 96° | 84km/h | 13791m | 4.3m/s | -53.5°C | 5.5% | 154.4hPa | 2.7V | 00:00:00 | 00:00:00 | 00:00:00 | |
| OE5MMP-10 | 2026-09-01 05:26:51 | 47.81519 | 11.65774 | 96° | 82km/h | 13787m | 3.9m/s | -53.5°C | 5.6% | 154.5hPa | 2.7V | 00:00:00 | 00:57:41 | 00:00:00 | |
| DO3MHA-12 | 2026-09-01 05:26:50 | 47.81521 | 11.65744 | 97° | 82km/h | 13784m | 2.9m/s | -53.5°C | 5.5% | 154.6hPa | 2.7V | 03:03:00 | 00:57:40 | 00:00:00 | |
| BAUMI2-15 | 2026-09-01 05:26:47 | 47.81530 | 11.65655 | 100° | 82km/h | 13771m | 4.9m/s | -53.5°C | 5.3% | 154.9hPa | 2.7V | 00:00:00 | 00:57:37 | 00:00:00 | |
| OE5WHR-10 | 2026-09-01 05:26:46 | 47.81534 | 11.65624 | 101° | 86km/h | 13767m | 3.6m/s | -53.4°C | 5.3% | 155.0hPa | 2.7V | 00:00:00 | 00:57:36 | 00:00:00 | |
| BAUMI2-15 | 2026-09-01 05:26:42 | 47.81552 | 11.65502 | 103° | 84km/h | 13749m | 4.3m/s | -53.5°C | 5.4% | 155.4hPa | 2.7V | 03:03:00 | 00:57:32 | 00:00:00 | |
| OE5MMP-10 | 2026-09-01 05:26:41 | 47.81557 | 11.65471 | 103° | 86km/h | 13745m | 3.6m/s | -53.5°C | 5.5% | 155.5hPa | 2.7V | 03:03:00 | 00:57:31 | 00:00:00 | |
| DO3MHA-11 | 2026-09-01 05:26:40 | 47.81562 | 11.65440 | 104° | 86km/h | 13741m | 4.5m/s | -53.4°C | 5.6% | 155.6hPa | 2.7V | 00:00:00 | 00:57:30 | 00:00:00 | |
| DL6DJ-15 | 2026-09-01 05:26:39 | 47.81566 | 11.65409 | 100° | 82km/h | 13737m | 2.7m/s | -53.4°C | 2.6% | 155.8hPa | 2.7V | 00:00:00 | 00:00:00 | 00:00:00 | |
| BAUMI2-15 | 2026-09-01 05:26:37 | 47.81571 | 11.65347 | 93° | 84km/h | 13729m | 5.0m/s | -53.3°C | 5.6% | 155.9hPa | 2.7V | 00:00:00 | 00:57:27 | 00:00:00 | |
| DF7PN | 2026-09-01 05:26:36 | 47.81571 | 11.65315 | 89° | 84km/h | 13724m | 4.7m/s | -53.4°C | 2.5% | 156.1hPa | 2.7V | 00:00:00 | 00:00:00 | 00:00:00 | |
| DB0UT-7 | 2026-09-01 05:26:35 | 47.81571 | 11.65283 | 89° | 91km/h | 13719m | 6.1m/s | -53.3°C | 5.6% | 156.2hPa | 2.7V | 00:00:00 | 00:00:00 | 00:00:00 | |
| BAUMI2-15 | 2026-09-01 05:26:32 | 47.81573 | 11.65187 | 95° | 91km/h | 13705m | 6.3m/s | -53.4°C | 5.6% | 156.5hPa | 2.7V | 00:00:00 | 00:57:22 | 00:00:00 | |
| OE5MMP-10 | 2026-09-01 05:26:31 | 47.81575 | 11.65153 | 99° | 89km/h | 13699m | 4.9m/s | -53.3°C | 5.5% | 156.6hPa | 2.7V | 00:00:00 | 00:57:21 | 00:00:00 | |
| DO3MHA-11 | 2026-09-01 05:26:30 | 47.81580 | 11.65119 | 103° | 89km/h | 13695m | 4.2m/s | -53.3°C | 5.4% | 156.7hPa | 2.7V | 00:00:00 | 00:57:20 | 00:00:00 | |
| OE5WHR-10 | 2026-09-01 05:26:25 | 47.81607 | 11.64959 | 100° | 91km/h | 13671m | 6.1m/s | -53.2°C | 5.4% | 157.3hPa | 2.7V | 03:03:00 | 00:00:00 | 00:00:00 | |
| BAUMI2-15 | 2026-09-01 05:26:22 | 47.81613 | 11.64860 | 94° | 93km/h | 13652m | 6.1m/s | -53.1°C | 5.4% | 157.7hPa | 2.7V | 03:03:00 | 00:57:12 | 00:00:00 | |
| OE5DRO-10 | 2026-09-01 05:26:21 | 47.81615 | 11.64825 | 95° | 93km/h | 13645m | 7.0m/s | -53.0°C | 5.4% | 157.9hPa | 2.7V | 00:00:00 | 00:00:00 | 00:00:00 | |
| DO3MHA-11 | 2026-09-01 05:26:20 | 47.81617 | 11.64790 | 95° | 91km/h | 13639m | 4.7m/s | -53.0°C | 5.5% | 158.1hPa | 2.7V | 03:03:00 | 00:57:10 | 00:00:00 | |
| BAUMI2-15 | 2026-09-01 05:26:17 | 47.81621 | 11.64687 | 92° | 91km/h | 13624m | 4.2m/s | -52.8°C | 5.3% | 158.5hPa | 2.7V | 00:00:00 | 00:57:07 | 00:00:00 | |
| NBG1-10 | 2026-09-01 05:26:13 | 47.81624 | 11.64549 | 92° | 97km/h | 13604m | 4.4m/s | -52.7°C | 5.4% | 159.0hPa | 2.7V | 03:03:00 | 00:57:03 | 00:00:00 | |
| BAUMI2-15 | 2026-09-01 05:26:12 | 47.81625 | 11.64514 | 93° | 93km/h | 13599m | 6.0m/s | -52.7°C | 5.4% | 159.1hPa | 2.7V | 00:00:00 | 00:57:02 | 00:00:00 | |
| OE5MMP-10 | 2026-09-01 05:26:11 | 47.81625 | 11.64480 | 92° | 95km/h | 13594m | 3.8m/s | -52.6°C | 5.3% | 159.2hPa | 2.7V | 00:00:00 | 00:57:01 | 00:00:00 | |
| DO3MHA-12 | 2026-09-01 05:26:10 | 47.81626 | 11.64445 | 91° | 95km/h | 13590m | 5.0m/s | -52.6°C | 5.3% | 159.3hPa | 2.7V | 03:03:00 | 00:57:00 | 00:00:00 | |
| DL6DJ-15 | 2026-09-01 05:26:08 | 47.81625 | 11.64375 | 87° | 93km/h | 13579m | 3.8m/s | -52.6°C | 2.5% | 159.6hPa | 2.7V | 00:00:00 | 00:00:00 | 00:00:00 | |
| BAUMI2-15 | 2026-09-01 05:26:07 | 47.81624 | 11.64340 | 88° | 95km/h | 13575m | 4.7m/s | -52.6°C | 5.3% | 159.7hPa | 2.7V | 00:00:00 | 00:56:57 | 00:00:00 | |
| DF7PN | 2026-09-01 05:26:05 | 47.81623 | 11.64268 | 89° | 95km/h | 13565m | 4.8m/s | -52.8°C | 2.5% | 159.9hPa | 2.7V | 00:00:00 | 00:00:00 | 00:00:00 | |
| OE5WHR-10 | 2026-09-01 05:26:04 | 47.81622 | 11.64232 | 90° | 97km/h | 13560m | 5.4m/s | -52.7°C | 5.3% | 160.0hPa | 2.7V | 00:00:00 | 00:00:00 | 00:00:00 | |
| OE5DRO-10 | 2026-09-01 05:26:02 | 47.81623 | 11.64162 | 92° | 99km/h | 13552m | 5.1m/s | -52.6°C | 5.2% | 160.3hPa | 2.7V | 03:04:00 | 00:00:00 | 00:00:00 | |
| OE5MMP-10 | 2026-09-01 05:26:01 | 47.81624 | 11.64126 | 93° | 99km/h | 13547m | 3.7m/s | -52.6°C | 5.3% | 160.4hPa | 2.7V | 03:04:00 | 00:56:51 | 00:00:00 | |
| DO3MHA-11 | 2026-09-01 05:26:00 | 47.81625 | 11.64090 | 93° | 100km/h | 13543m | 4.0m/s | -52.5°C | 5.3% | 160.5hPa | 2.7V | 00:00:00 | 00:56:50 | 00:00:00 | |
| BAUMI2-15 | 2026-09-01 05:25:57 | 47.81626 | 11.63982 | 91° | 102km/h | 13531m | 5.4m/s | -52.6°C | 5.4% | 160.8hPa | 2.7V | 00:00:00 | 00:56:47 | 00:00:00 | |
| BAUMI2-15 | 2026-09-01 05:25:52 | 47.81620 | 11.63790 | 88° | 99km/h | 13508m | 4.2m/s | -52.9°C | 5.6% | 161.3hPa | 2.7V | 00:00:00 | 00:56:42 | 00:00:00 | |
| OE5MMP-10 | 2026-09-01 05:25:51 | 47.81619 | 11.63752 | 89° | 97km/h | 13504m | 4.2m/s | -53.0°C | 5.6% | 161.4hPa | 2.7V | 00:00:00 | 00:56:41 | 00:00:00 | |
| DO3MHA-11 | 2026-09-01 05:25:50 | 47.81618 | 11.63714 | 89° | 97km/h | 13500m | 4.8m/s | -53.0°C | 5.6% | 161.5hPa | 2.7V | 00:00:00 | 00:56:40 | 00:00:00 | |
| BAUMI2-15 | 2026-09-01 05:25:47 | 47.81618 | 11.63605 | 92° | 95km/h | 13486m | 3.9m/s | -53.2°C | 5.7% | 161.9hPa | 2.7V | 00:00:00 | 00:56:37 | 00:00:00 | |
| OE5WHR-10 | 2026-09-01 05:25:43 | 47.81619 | 11.63463 | 90° | 100km/h | 13470m | 4.7m/s | -53.3°C | 5.7% | 162.3hPa | 2.7V | 00:00:00 | 00:56:33 | 00:00:00 | |
| BAUMI2-15 | 2026-09-01 05:25:42 | 47.81619 | 11.63426 | 88° | 102km/h | 13466m | 4.1m/s | -53.3°C | 5.7% | 162.4hPa | 2.7V | 03:04:00 | 00:56:32 | 00:00:00 | |
| OE5MMP-10 | 2026-09-01 05:25:41 | 47.81617 | 11.63388 | 87° | 100km/h | 13461m | 5.3m/s | -53.3°C | 5.8% | 162.5hPa | 2.7V | 00:00:00 | 00:56:31 | 00:00:00 | |
| DO3MHA-11 | 2026-09-01 05:25:40 | 47.81616 | 11.63351 | 86° | 100km/h | 13457m | 3.3m/s | -53.2°C | 5.8% | 162.6hPa | 2.7V | 03:04:00 | 00:56:30 | 00:00:00 | |
| DL6DJ-15 | 2026-09-01 05:25:37 | 47.81611 | 11.63235 | 87° | 100km/h | 13444m | 4.1m/s | -53.3°C | 2.9% | 163.0hPa | 2.7V | 00:00:00 | 00:00:00 | 00:00:00 | |
| DB0UT-7 | 2026-09-01 05:25:35 | 47.81609 | 11.63160 | 89° | 100km/h | 13436m | 3.8m/s | -53.2°C | 5.9% | 163.2hPa | 2.7V | 00:00:00 | 00:00:00 | 00:00:00 | |
| DF7PN | 2026-09-01 05:25:34 | 47.81609 | 11.63123 | 89° | 99km/h | 13432m | 4.2m/s | -53.3°C | 3.0% | 163.3hPa | 2.7V | 00:00:00 | 00:00:00 | 00:00:00 | |
| OE5MMP-10 | 2026-09-01 05:25:31 | 47.81606 | 11.63014 | 86° | 102km/h | 13419m | 3.5m/s | -53.2°C | 6.0% | 163.5hPa | 2.7V | 00:00:00 | 00:56:21 | 00:00:00 | |
| DO3MHA-11 | 2026-09-01 05:25:30 | 47.81604 | 11.62977 | 86° | 102km/h | 13415m | 4.5m/s | -53.1°C | 6.0% | 163.7hPa | 2.7V | 00:00:00 | 00:56:20 | 00:00:00 | |
| DF1GD-15 | 2026-09-01 05:25:28 | 47.81602 | 11.62940 | 87° | 100km/h | 13411m | 4.7m/s | 0°C | 0% | 0hPa | 2.7V | 00:00:00 | 00:00:00 | 00:00:00 | |
| OE5DRO-10 | 2026-09-01 05:25:24 | 47.81593 | 11.62749 | 87° | 102km/h | 13387m | 4.3m/s | -53.0°C | 6.0% | 164.4hPa | 2.7V | 00:00:00 | 00:00:00 | 00:00:00 | |
| OE5DXL-15 | 2026-09-01 05:25:22 | 47.81589 | 11.62671 | 86° | 102km/h | 13377m | 4.3m/s | -53.0°C | 6.0% | 164.6hPa | 2.7V | 00:00:00 | 00:00:00 | 00:00:00 | |
| OE5MMP-10 | 2026-09-01 05:25:21 | 47.81588 | 11.62631 | 87° | 100km/h | 13372m | 5.9m/s | -53.1°C | 6.0% | 164.8hPa | 2.7V | 03:04:00 | 00:56:11 | 00:00:00 | |
| DO3MHA-11 | 2026-09-01 05:25:20 | 47.81586 | 11.62591 | 88° | 100km/h | 13368m | 3.0m/s | -53.1°C | 6.0% | 164.9hPa | 2.7V | 00:00:00 | 00:56:10 | 00:00:00 | |
| OE5MMP-10 | 2026-09-01 05:25:11 | 47.81573 | 11.62252 | 90° | 100km/h | 13326m | 5.9m/s | -53.6°C | 6.3% | 166.0hPa | 2.7V | 00:00:00 | 00:56:01 | 00:00:00 | |
| DO3MHA-11 | 2026-09-01 05:25:10 | 47.81573 | 11.62213 | 91° | 100km/h | 13321m | 3.8m/s | -53.7°C | 6.4% | 166.1hPa | 2.7V | 00:00:00 | 00:56:00 | 00:00:00 | |
| NBG1-10 | 2026-09-01 05:25:07 | 47.81574 | 11.62098 | 91° | 102km/h | 13309m | 3.7m/s | -54.2°C | 6.7% | 166.4hPa | 2.7V | 00:00:00 | 00:55:57 | 00:00:00 | |
| DL6DJ-15 | 2026-09-01 05:25:06 | 47.81573 | 11.62023 | 88° | 100km/h | 13300m | 3.7m/s | -54.4°C | 3.7% | 166.7hPa | 2.7V | 00:00:00 | 00:00:00 | 00:00:00 | |
| OE5DRO-10 | 2026-09-01 05:25:05 | 47.81573 | 11.62023 | 89° | 102km/h | 13300m | 3.6m/s | -54.3°C | 6.9% | 166.6hPa | 2.7V | 00:00:00 | 00:00:00 | 00:00:00 | |
| DB0UT-7 | 2026-09-01 05:25:04 | 47.81572 | 11.61985 | 88° | 102km/h | 13296m | 5.0m/s | -54.4°C | 7.0% | 166.8hPa | 2.7V | 03:04:00 | 00:55:54 | 00:00:00 | |
| DF7PN | 2026-09-01 05:25:03 | 47.81571 | 11.61911 | 88° | 99km/h | 13287m | 4.5m/s | -54.6°C | 3.8% | 167.0hPa | 2.7V | 00:00:00 | 00:00:00 | 00:00:00 | |
| DF3TZ-5 | 2026-09-01 05:24:59 | 47.81571 | 11.61796 | 91° | 100km/h | 13274m | 4.8m/s | -54.9°C | 4.0% | 167.4hPa | 2.7V | 00:00:00 | 00:00:00 | 00:00:00 | |
| DN1GJH-1 | 2026-09-01 05:24:58 | 47.81571 | 11.61796 | 93° | 102km/h | 13274m | 4.8m/s | -54.9°C | 4.0% | 167.4hPa | 2.7V | 03:05:00 | 00:00:00 | 00:00:00 | |
| OE5DXL-15 | 2026-09-01 05:24:52 | 47.81574 | 11.61527 | 89° | 102km/h | 13244m | 4.7m/s | -55.4°C | 7.7% | 168.1hPa | 2.7V | 00:00:00 | 00:00:00 | 00:00:00 | |
| OE5MMP-10 | 2026-09-01 05:24:51 | 47.81573 | 11.61488 | 88° | 102km/h | 13239m | 5.5m/s | -55.5°C | 7.8% | 168.2hPa | 2.7V | 00:00:00 | 00:55:41 | 00:00:00 | |
| DO3MHA-12 | 2026-09-01 05:24:50 | 47.81571 | 11.61451 | 88° | 102km/h | 13234m | 4.0m/s | -55.5°C | 7.9% | 168.4hPa | 2.7V | 03:05:00 | 00:55:40 | 00:00:00 | |
| OE5DRO-10 | 2026-09-01 05:24:46 | 47.81571 | 11.61298 | 91° | 104km/h | 13216m | 5.5m/s | -55.7°C | 8.1% | 168.8hPa | 2.7V | 03:05:00 | 00:00:00 | 00:00:00 | |
| OE5MMP-10 | 2026-09-01 05:24:41 | 47.81573 | 11.61106 | 91° | 106km/h | 13193m | 3.8m/s | -56.1°C | 8.7% | 169.4hPa | 2.7V | 03:05:00 | 00:55:31 | 00:00:00 | |
| DO3MHA-11 | 2026-09-01 05:24:40 | 47.81573 | 11.61068 | 91° | 106km/h | 13188m | 4.8m/s | -56.1°C | 8.8% | 169.7hPa | 2.7V | 00:00:00 | 00:55:30 | 00:00:00 | |
| OE5WHR-10 | 2026-09-01 05:24:39 | 47.81574 | 11.61029 | 91° | 102km/h | 13184m | 4.0m/s | -56.1°C | 8.8% | 169.7hPa | 2.7V | 00:00:00 | 00:55:29 | 00:00:00 | |
| DN1GJH-1 | 2026-09-01 05:24:38 | 47.81574 | 11.61028 | 91° | 106km/h | 13184m | 4.0m/s | -56.1°C | 5.1% | 169.7hPa | 2.7V | 03:05:00 | 00:00:00 | 00:00:00 | |
| DL6DJ-15 | 2026-09-01 05:24:35 | 47.81571 | 11.60831 | 87° | 106km/h | 13162m | 4.5m/s | -56.5°C | 5.4% | 170.4hPa | 2.7V | 00:00:00 | 00:00:00 | 00:00:00 | |
| DB0UT-7 | 2026-09-01 05:24:34 | 47.81571 | 11.60830 | 88° | 100km/h | 13162m | 4.4m/s | -56.4°C | 9.2% | 170.3hPa | 2.7V | 00:00:00 | 00:00:00 | 00:00:00 | |
| DF7PN | 2026-09-01 05:24:32 | 47.81566 | 11.60711 | 85° | 106km/h | 13148m | 4.4m/s | -56.6°C | 5.6% | 170.7hPa | 2.7V | 00:00:00 | 00:00:00 | 00:00:00 | |
| OE5MMP-10 | 2026-09-01 05:24:31 | 47.81566 | 11.60711 | 86° | 100km/h | 13148m | 4.3m/s | -56.6°C | 9.5% | 170.7hPa | 2.7V | 00:00:00 | 00:55:21 | 00:00:00 | |
| DO3MHA-11 | 2026-09-01 05:24:30 | 47.81564 | 11.60671 | 86° | 100km/h | 13144m | 3.7m/s | -56.6°C | 9.5% | 170.8hPa | 2.7V | 00:00:00 | 00:55:20 | 00:00:00 | |
| DF3TZ-5 | 2026-09-01 05:24:28 | 47.81559 | 11.60593 | 83° | 100km/h | 13134m | 5.1m/s | -56.7°C | 5.7% | 171.1hPa | 2.7V | 00:00:00 | 00:00:00 | 00:00:00 | |
| OE5DRO-10 | 2026-09-01 05:24:27 | 47.81556 | 11.60555 | 84° | 99km/h | 13129m | 5.8m/s | -56.6°C | 9.8% | 171.2hPa | 2.7V | 00:00:00 | 00:00:00 | 00:00:00 | |
| OE5DXL-15 | 2026-09-01 05:24:22 | 47.81540 | 11.60373 | 83° | 100km/h | 13105m | 4.2m/s | -56.4°C | 10.0% | 171.8hPa | 2.7V | 03:05:00 | 00:00:00 | 00:00:00 | |
| OE5MMP-10 | 2026-09-01 05:24:21 | 47.81537 | 11.60337 | 84° | 97km/h | 13100m | 5.5m/s | -56.4°C | 9.9% | 172.0hPa | 2.7V | 00:00:00 | 00:55:11 | 00:00:00 | |
| DO3MHA-11 | 2026-09-01 05:24:20 | 47.81534 | 11.60301 | 84° | 99km/h | 13095m | 4.1m/s | -56.4°C | 10.1% | 172.1hPa | 2.7V | 03:05:00 | 00:55:10 | 00:00:00 | |
| DG1MJG | 2026-09-01 05:24:19 | 47.81534 | 11.60301 | 85° | 97km/h | 13095m | 4.1m/s | 0°C | 0% | 0hPa | 2.7V | 00:00:00 | 00:00:00 | 00:00:00 | |
| OE5WHR-10 | 2026-09-01 05:24:18 | 47.81529 | 11.60229 | 85° | 100km/h | 13086m | 4.0m/s | -56.3°C | 10.2% | 172.4hPa | 2.7V | 00:00:00 | 00:00:00 | 00:00:00 | |
| DN1GJH-1 | 2026-09-01 05:24:17 | 47.81529 | 11.60229 | 85° | 99km/h | 13086m | 4.0m/s | -56.4°C | 6.2% | 172.4hPa | 2.7V | 03:06:00 | 00:00:00 | 00:00:00 | |
| OE5MMP-10 | 2026-09-01 05:24:11 | 47.81508 | 11.59973 | 83° | 102km/h | 13054m | 5.0m/s | -56.3°C | 10.4% | 173.2hPa | 2.7V | 00:00:00 | 00:55:01 | 00:00:00 | |
| DO3MHA-12 | 2026-09-01 05:24:10 | 47.81505 | 11.59934 | 84° | 102km/h | 13049m | 3.8m/s | -56.2°C | 10.2% | 173.3hPa | 2.7V | 03:05:00 | 00:55:00 | 00:00:00 | |
| OE5DRO-10 | 2026-09-01 05:24:08 | 47.81499 | 11.59858 | 84° | 102km/h | 13040m | 3.9m/s | -56.2°C | 10.4% | 173.6hPa | 2.7V | 00:00:00 | 00:00:00 | 00:00:00 | |
| DL6DJ-15 | 2026-09-01 05:24:04 | 47.81486 | 11.59667 | 84° | 100km/h | 13017m | 4.2m/s | -56.3°C | 6.9% | 174.3hPa | 2.7V | 00:00:00 | 00:00:00 | 00:00:00 | |
| DF7PN | 2026-09-01 05:24:01 | 47.81479 | 11.59553 | 85° | 100km/h | 13003m | 5.0m/s | -56.5°C | 7.3% | 174.7hPa | 2.7V | 00:00:00 | 00:00:00 | 00:00:00 | |
| DO3MHA-11 | 2026-09-01 05:24:00 | 47.81479 | 11.59553 | 86° | 104km/h | 13004m | 4.9m/s | -56.4°C | 11.5% | 174.6hPa | 2.7V | 00:00:00 | 00:54:50 | 00:00:00 | |
| OE5WHR-10 | 2026-09-01 05:23:57 | 47.81472 | 11.59437 | 85° | 104km/h | 12991m | 5.0m/s | -56.7°C | 12.1% | 175.0hPa | 2.7V | 00:00:00 | 00:00:00 | 00:00:00 | |
| DN1GJH-1 | 2026-09-01 05:23:56 | 47.81472 | 11.59437 | 86° | 104km/h | 12991m | 5.0m/s | -56.7°C | 7.7% | 175.1hPa | 2.7V | 03:06:00 | 00:00:00 | 00:00:00 | |
| OE5DXL-15 | 2026-09-01 05:23:52 | 47.81462 | 11.59242 | 88° | 102km/h | 12966m | 4.2m/s | -56.8°C | 12.5% | 175.7hPa | 2.7V | 00:00:00 | 00:00:00 | 00:00:00 | |
| OE5MMP-10 | 2026-09-01 05:23:51 | 47.81462 | 11.59203 | 89° | 106km/h | 12962m | 5.3m/s | -56.8°C | 12.6% | 175.9hPa | 2.7V | 00:00:00 | 00:54:41 | 00:00:00 | |
| DO3MHA-12 | 2026-09-01 05:23:50 | 47.81461 | 11.59164 | 88° | 106km/h | 12957m | 4.2m/s | -56.8°C | 12.7% | 175.9hPa | 2.7V | 00:00:00 | 00:54:40 | 00:00:00 | |
| OE5DRO-10 | 2026-09-01 05:23:49 | 47.81460 | 11.59125 | 89° | 104km/h | 12952m | 5.5m/s | -56.8°C | 12.7% | 176.0hPa | 2.7V | 00:00:00 | 00:00:00 | 00:00:00 | |
| OE5MMP-10 | 2026-09-01 05:23:41 | 47.81447 | 11.58808 | 85° | 102km/h | 12914m | 3.7m/s | -56.6°C | 13.2% | 177.1hPa | 2.7V | 00:00:00 | 00:54:31 | 00:00:00 | |
| DO3MHA-11 | 2026-09-01 05:23:40 | 47.81443 | 11.58769 | 84° | 102km/h | 12909m | 5.6m/s | -56.6°C | 13.2% | 177.2hPa | 2.7V | 03:06:00 | 00:54:30 | 00:00:00 | |
| BAUMI2-15 | 2026-09-01 05:23:37 | 47.81433 | 11.58655 | 82° | 100km/h | 12894m | 4.2m/s | -56.5°C | 13.8% | 177.7hPa | 2.7V | 00:00:00 | 00:54:27 | 00:00:00 | |
| OE5WHR-10 | 2026-09-01 05:23:36 | 47.81429 | 11.58618 | 81° | 100km/h | 12890m | 4.7m/s | -56.4°C | 13.7% | 177.8hPa | 2.7V | 03:06:00 | 00:54:26 | 00:00:00 | |
| DB0UT-7 | 2026-09-01 05:23:34 | 47.81421 | 11.58543 | 81° | 99km/h | 12880m | 3.7m/s | -56.3°C | 14.0% | 178.0hPa | 2.7V | 00:00:00 | 00:00:00 | 00:00:00 | |
| DL6DJ-15 | 2026-09-01 05:23:33 | 47.81413 | 11.58468 | 81° | 100km/h | 12870m | 3.9m/s | -56.4°C | 9.7% | 178.4hPa | 2.7V | 00:00:00 | 00:00:00 | 00:00:00 | |
| BAUMI2-15 | 2026-09-01 05:23:32 | 47.81413 | 11.58468 | 82° | 102km/h | 12870m | 3.9m/s | -56.4°C | 14.3% | 178.3hPa | 2.7V | 00:00:00 | 00:54:22 | 00:00:00 | |
| OE5MMP-10 | 2026-09-01 05:23:31 | 47.81409 | 11.58430 | 82° | 100km/h | 12866m | 5.2m/s | -56.5°C | 14.5% | 178.4hPa | 2.7V | 00:00:00 | 00:54:21 | 00:00:00 | |
| DF7PN | 2026-09-01 05:23:30 | 47.81402 | 11.58354 | 82° | 102km/h | 12857m | 4.6m/s | -56.6°C | 10.3% | 178.7hPa | 2.7V | 00:00:00 | 00:00:00 | 00:00:00 | |
| NBG1-10 | 2026-09-01 05:23:28 | 47.81398 | 11.58315 | 83° | 99km/h | 12853m | 4.3m/s | -56.6°C | 15.5% | 178.8hPa | 2.7V | 00:00:00 | 00:54:18 | 00:00:00 | |
| BAUMI2-15 | 2026-09-01 05:23:27 | 47.81395 | 11.58277 | 83° | 99km/h | 12848m | 4.6m/s | -56.7°C | 15.7% | 178.9hPa | 2.7V | 00:00:00 | 00:54:17 | 00:00:00 | |
| DF3TZ-5 | 2026-09-01 05:23:26 | 47.81391 | 11.58240 | 81° | 100km/h | 12843m | 4.9m/s | -56.7°C | 11.1% | 179.1hPa | 2.7V | 00:00:00 | 00:00:00 | 00:00:00 | |
| OE5DXL-15 | 2026-09-01 05:23:22 | 47.81376 | 11.58095 | 81° | 99km/h | 12824m | 5.6m/s | -56.8°C | 17.6% | 179.6hPa | 2.7V | 00:00:00 | 00:00:00 | 00:00:00 | |
| OE5MMP-10 | 2026-09-01 05:23:21 | 47.81372 | 11.58059 | 81° | 97km/h | 12819m | 3.1m/s | -56.9°C | 18.0% | 179.8hPa | 2.7V | 03:06:00 | 00:54:11 | 00:00:00 | |
| DO3MHA-11 | 2026-09-01 05:23:20 | 47.81368 | 11.58023 | 81° | 97km/h | 12815m | 4.8m/s | -57.0°C | 18.3% | 179.9hPa | 2.7V | 00:00:00 | 00:54:10 | 00:00:00 | |
| BAUMI2-15 | 2026-09-01 05:23:17 | 47.81358 | 11.57914 | 83° | 99km/h | 12802m | 4.4m/s | -57.1°C | 19.4% | 180.2hPa | 2.7V | 00:00:00 | 00:54:07 | 00:00:00 | |
| DG1MFX-10 | 2026-09-01 05:23:16 | 47.81358 | 11.57914 | 84° | 100km/h | 12802m | 4.4m/s | -57.2°C | 13.8% | 180.3hPa | 2.7V | 03:07:00 | 00:00:00 | 00:00:00 | |
| OE5WHR-10 | 2026-09-01 05:23:15 | 47.81352 | 11.57840 | 84° | 99km/h | 12792m | 3.6m/s | -57.2°C | 20.5% | 180.5hPa | 2.7V | 00:00:00 | 00:00:00 | 00:00:00 | |
| DN1GJH-1 | 2026-09-01 05:23:14 | 47.81352 | 11.57840 | 85° | 97km/h | 12792m | 3.6m/s | -57.3°C | 14.8% | 180.6hPa | 2.7V | 03:07:00 | 00:00:00 | 00:00:00 | |
| BAUMI2-15 | 2026-09-01 05:23:12 | 47.81342 | 11.57732 | 82° | 97km/h | 12780m | 4.0m/s | -57.2°C | 21.2% | 180.9hPa | 2.7V | 00:00:00 | 00:54:02 | 00:00:00 | |
| OE5MMP-10 | 2026-09-01 05:23:11 | 47.81338 | 11.57697 | 82° | 100km/h | 12775m | 4.7m/s | -57.2°C | 21.5% | 181.0hPa | 2.7V | 00:00:00 | 00:54:01 | 00:00:00 | |
| DO3MHA-12 | 2026-09-01 05:23:10 | 47.81335 | 11.57662 | 81° | 102km/h | 12771m | 3.7m/s | -57.2°C | 21.8% | 181.1hPa | 2.7V | 00:00:00 | 00:54:00 | 00:00:00 | |
| BAUMI2-15 | 2026-09-01 05:23:07 | 47.81320 | 11.57552 | 79° | 104km/h | 12758m | 4.2m/s | -57.1°C | 23.0% | 181.5hPa | 2.7V | 00:00:00 | 00:53:57 | 00:00:00 | |
| DB0UT-7 | 2026-09-01 05:23:04 | 47.81305 | 11.57438 | 78° | 95km/h | 12745m | 4.5m/s | -57.1°C | 23.6% | 181.9hPa | 2.7V | 03:06:00 | 00:53:54 | 00:00:00 | |
| DL6DJ-15 | 2026-09-01 05:23:01 | 47.81289 | 11.57324 | 79° | 99km/h | 12731m | 4.4m/s | -57.1°C | 19.5% | 182.3hPa | 2.7V | 00:00:00 | 00:00:00 | 00:00:00 | |
| DF7PN | 2026-09-01 05:22:59 | 47.81277 | 11.57216 | 81° | 95km/h | 12717m | 4.8m/s | -57.1°C | 20.8% | 182.7hPa | 2.7V | 00:00:00 | 00:00:00 | 00:00:00 | |
| BAUMI2-15 | 2026-09-01 05:22:57 | 47.81273 | 11.57180 | 84° | 99km/h | 12712m | 5.4m/s | -57.1°C | 28.1% | 182.8hPa | 2.7V | 00:00:00 | 00:53:47 | 00:00:00 | |
| NBG1-10 | 2026-09-01 05:22:55 | 47.81268 | 11.57107 | 84° | 91km/h | 12702m | 5.5m/s | -57.1°C | 29.7% | 183.1hPa | 2.7V | 00:00:00 | 00:53:45 | 00:00:00 | |
| OE5WHR-10 | 2026-09-01 05:22:54 | 47.81265 | 11.57071 | 85° | 84km/h | 12697m | 4.4m/s | -57.1°C | 30.3% | 183.3hPa | 2.7V | 00:00:00 | 00:00:00 | 00:00:00 | |
| OE5DXL-15 | 2026-09-01 05:22:52 | 47.81260 | 11.56995 | 84° | 91km/h | 12687m | 4.6m/s | -57.1°C | 31.4% | 183.6hPa | 2.7V | 00:00:00 | 00:00:00 | 00:00:00 | |
| OE5MMP-10 | 2026-09-01 05:22:51 | 47.81256 | 11.56956 | 81° | 91km/h | 12681m | 6.3m/s | -57.1°C | 31.6% | 183.7hPa | 2.7V | 00:00:00 | 00:53:41 | 00:00:00 | |
| DO3MHA-12 | 2026-09-01 05:22:50 | 47.81251 | 11.56916 | 79° | 89km/h | 12676m | 4.0m/s | -57.2°C | 32.3% | 183.9hPa | 2.7V | 03:07:00 | 00:53:40 | 00:00:00 | |
| DH7VM-15 | 2026-09-01 05:22:48 | 47.81232 | 11.56796 | 77° | 104km/h | 12666m | 3.3m/s | 0°C | 0% | 0hPa | 2.7V | 00:00:00 | 00:00:00 | 00:00:00 | |
| BAUMI2-15 | 2026-09-01 05:22:47 | 47.81232 | 11.56796 | 77° | 84km/h | 12666m | 3.3m/s | -57.9°C | 36.3% | 184.2hPa | 2.7V | 00:00:00 | 00:53:37 | 00:00:00 | |
| BAUMI2-15 | 2026-09-01 05:22:42 | 47.81215 | 11.56648 | 85° | 84km/h | 12629m | 11.4m/s | -58.4°C | 39.6% | 185.2hPa | 2.7V | 03:07:00 | 00:53:32 | 00:00:00 | |
| OE5MMP-10 | 2026-09-01 05:22:41 | 47.81213 | 11.56621 | 85° | 89km/h | 12618m | 11.1m/s | -58.5°C | 40.1% | 185.5hPa | 2.7V | 03:07:00 | 00:53:31 | 00:00:00 | |
| DO3MHA-11 | 2026-09-01 05:22:40 | 47.81211 | 11.56591 | 86° | 89km/h | 12607m | 10.4m/s | -58.9°C | 41.8% | 185.8hPa | 2.7V | 00:00:00 | 00:53:30 | 00:00:00 | |
| BAUMI2-15 | 2026-09-01 05:22:37 | 47.81208 | 11.56483 | 89° | 89km/h | 12582m | 10.3m/s | -59.9°C | 46.4% | 186.6hPa | 2.7V | 00:00:00 | 00:53:27 | 00:00:00 | |
| DB0UT-7 | 2026-09-01 05:22:34 | 47.81211 | 11.56380 | 98° | 91km/h | 12558m | 7.5m/s | -60.3°C | 48.4% | 187.4hPa | 2.7V | 00:00:00 | 00:00:00 | 00:00:00 | |
| OE5DRO-10 | 2026-09-01 05:22:33 | 47.81214 | 11.56349 | 100° | 89km/h | 12551m | 7.7m/s | -60.6°C | 50.3% | 187.6hPa | 2.7V | 00:00:00 | 00:00:00 | 00:00:00 | |
| BAUMI2-15 | 2026-09-01 05:22:32 | 47.81218 | 11.56318 | 100° | 84km/h | 12543m | 7.7m/s | -60.6°C | 51.7% | 187.8hPa | 2.7V | 00:00:00 | 00:53:22 | 00:00:00 | |
| OE5MMP-10 | 2026-09-01 05:22:31 | 47.81222 | 11.56287 | 101° | 89km/h | 12537m | 4.4m/s | -60.6°C | 52.5% | 188.0hPa | 2.7V | 00:00:00 | 00:53:21 | 00:00:00 | |
| DO3MHA-11 | 2026-09-01 05:22:30 | 47.81226 | 11.56256 | 102° | 91km/h | 12532m | 5.0m/s | -60.7°C | 53.5% | 188.2hPa | 2.7V | 00:00:00 | 00:53:20 | 00:00:00 | |
| DN1GJH-1 | 2026-09-01 05:22:29 | 47.81226 | 11.56256 | 102° | 84km/h | 12532m | 5.0m/s | -60.7°C | 0% | 188.2hPa | 2.7V | 00:00:00 | 00:00:00 | 00:00:00 | |
| BAUMI2-15 | 2026-09-01 05:22:27 | 47.81240 | 11.56161 | 105° | 93km/h | 12518m | 3.5m/s | -60.6°C | 55.1% | 188.6hPa | 2.7V | 00:00:00 | 00:53:17 | 00:00:00 | |
| OE5WHR-10 | 2026-09-01 05:22:25 | 47.81252 | 11.56094 | 106° | 93km/h | 12508m | 4.4m/s | -60.8°C | 55.3% | 188.8hPa | 2.7V | 00:00:00 | 00:53:15 | 00:00:00 | |
| DF3TZ-5 | 2026-09-01 05:22:24 | 47.81265 | 11.56026 | 104° | 95km/h | 12499m | 4.3m/s | -61.1°C | 44.3% | 189.2hPa | 2.7V | 00:00:00 | 00:00:00 | 00:00:00 | |
| NBG1-10 | 2026-09-01 05:22:22 | 47.81271 | 11.55991 | 104° | 93km/h | 12495m | 4.1m/s | -61.1°C | 55.2% | 189.3hPa | 2.7V | 00:00:00 | 00:53:12 | 00:00:00 | |
| OE5MMP-10 | 2026-09-01 05:22:21 | 47.81276 | 11.55957 | 104° | 91km/h | 12491m | 4.6m/s | -61.2°C | 56.0% | 189.5hPa | 2.7V | 00:00:00 | 00:53:11 | 00:00:00 | |
| DO3MHA-11 | 2026-09-01 05:22:20 | 47.81282 | 11.55923 | 103° | 91km/h | 12486m | 4.7m/s | -61.3°C | 56.5% | 189.6hPa | 2.7V | 03:07:00 | 00:53:10 | 00:00:00 | |
| BAUMI2-15 | 2026-09-01 05:22:17 | 47.81297 | 11.55822 | 105° | 91km/h | 12472m | 5.4m/s | -61.5°C | 58.8% | 190.0hPa | 2.7V | 00:00:00 | 00:53:07 | 00:00:00 | |
| OE5DRO-10 | 2026-09-01 05:22:14 | 47.81316 | 11.55723 | 107° | 95km/h | 12458m | 4.6m/s | -61.5°C | 59.5% | 190.5hPa | 2.7V | 03:07:00 | 00:00:00 | 00:00:00 | |
| BAUMI2-15 | 2026-09-01 05:22:12 | 47.81330 | 11.55657 | 109° | 95km/h | 12450m | 4.9m/s | -61.5°C | 59.3% | 190.7hPa | 2.7V | 00:00:00 | 00:53:02 | 00:00:00 | |
| OE5MMP-10 | 2026-09-01 05:22:11 | 47.81338 | 11.55624 | 109° | 95km/h | 12445m | 4.4m/s | -61.5°C | 59.1% | 190.8hPa | 2.7V | 00:00:00 | 00:53:01 | 00:00:00 | |
| DO3MHA-12 | 2026-09-01 05:22:10 | 47.81345 | 11.55591 | 108° | 95km/h | 12441m | 4.7m/s | -61.5°C | 59.3% | 191.0hPa | 2.7V | 03:07:00 | 00:53:00 | 00:00:00 | |
| BAUMI2-15 | 2026-09-01 05:22:07 | 47.81367 | 11.55488 | 109° | 97km/h | 12427m | 4.2m/s | -61.5°C | 59.5% | 191.4hPa | 2.7V | 00:00:00 | 00:52:57 | 00:00:00 | |
| OE5WHR-10 | 2026-09-01 05:22:04 | 47.81390 | 11.55385 | 110° | 93km/h | 12413m | 5.2m/s | -61.5°C | 58.3% | 191.8hPa | 2.7V | 03:07:00 | 00:00:00 | 00:00:00 | |
| IN3HCDX | 2026-09-01 05:22:02 | 47.81397 | 11.55351 | 111° | 95km/h | 12408m | 3.8m/s | 0°C | 0% | 0hPa | 2.7V | 00:00:00 | 00:00:00 | 00:00:00 | |
| DL6DJ-15 | 2026-09-01 05:21:59 | 47.81428 | 11.55216 | 107° | 95km/h | 12392m | 4.5m/s | -61.5°C | 46.7% | 192.5hPa | 2.7V | 00:00:00 | 00:00:00 | 00:00:00 | |
| DF7PN | 2026-09-01 05:21:56 | 47.81449 | 11.55115 | 105° | 93km/h | 12379m | 5.2m/s | -61.4°C | 46.0% | 192.9hPa | 2.7V | 00:00:00 | 00:00:00 | 00:00:00 | |
| DF3TZ-5 | 2026-09-01 05:21:53 | 47.81473 | 11.54981 | 103° | 91km/h | 12361m | 5.4m/s | -61.4°C | 46.7% | 193.5hPa | 2.7V | 00:00:00 | 00:00:00 | 00:00:00 | |
| OE5DXL-15 | 2026-09-01 05:21:52 | 47.81473 | 11.54980 | 104° | 91km/h | 12361m | 5.4m/s | -61.4°C | 58.6% | 193.5hPa | 2.7V | 00:00:00 | 00:00:00 | 00:00:00 | |
| OE5MMP-10 | 2026-09-01 05:21:51 | 47.81478 | 11.54947 | 105° | 93km/h | 12357m | 3.6m/s | -61.3°C | 57.8% | 193.6hPa | 2.7V | 00:00:00 | 00:52:41 | 00:00:00 | |
| DO3MHA-11 | 2026-09-01 05:21:50 | 47.81484 | 11.54914 | 106° | 93km/h | 12352m | 5.0m/s | -61.3°C | 56.1% | 193.7hPa | 2.7V | 00:00:00 | 00:52:40 | 00:00:00 | |
| NBG1-10 | 2026-09-01 05:21:49 | 47.81490 | 11.54880 | 106° | 91km/h | 12348m | 3.6m/s | -61.2°C | 54.8% | 193.9hPa | 2.7V | 03:08:00 | 00:52:39 | 00:00:00 | |
| DN1GJH-1 | 2026-09-01 05:21:48 | 47.81490 | 11.54880 | 107° | 93km/h | 12348m | 3.6m/s | 0°C | 0% | 193.9hPa | 2.7V | 03:09:00 | 00:00:00 | 00:00:00 | |
| BAUMI2-15 | 2026-09-01 05:21:47 | 47.81503 | 11.54812 | 105° | 93km/h | 12339m | 3.9m/s | -61.2°C | 53.2% | 194.1hPa | 2.7V | 00:00:00 | 00:52:37 | 00:00:00 | |
| OE5WHR-10 | 2026-09-01 05:21:43 | 47.81527 | 11.54677 | 105° | 91km/h | 12320m | 4.1m/s | -61.1°C | 55.2% | 194.7hPa | 2.7V | 00:00:00 | 00:00:00 | 00:00:00 | |
| BAUMI2-15 | 2026-09-01 05:21:42 | 47.81533 | 11.54643 | 105° | 93km/h | 12315m | 5.4m/s | -61.1°C | 55.5% | 194.9hPa | 2.7V | 03:08:00 | 00:52:32 | 00:00:00 | |
| OE5MMP-10 | 2026-09-01 05:21:41 | 47.81539 | 11.54609 | 105° | 91km/h | 12311m | 3.2m/s | -61.1°C | 55.5% | 195.0hPa | 2.7V | 00:00:00 | 00:52:31 | 00:00:00 | |
| DO3MHA-11 | 2026-09-01 05:21:40 | 47.81545 | 11.54575 | 104° | 91km/h | 12307m | 5.1m/s | -61.1°C | 54.7% | 195.2hPa | 2.7V | 03:08:00 | 00:52:30 | 00:00:00 | |
| OE5DRO-10 | 2026-09-01 05:21:36 | 47.81566 | 11.54442 | 104° | 91km/h | 12290m | 4.0m/s | -61.0°C | 53.5% | 195.7hPa | 2.7V | 00:00:00 | 00:00:00 | 00:00:00 | |
| DB0UT-7 | 2026-09-01 05:21:34 | 47.81576 | 11.54376 | 102° | 89km/h | 12282m | 3.7m/s | -60.9°C | 52.9% | 195.9hPa | 2.7V | 00:00:00 | 00:00:00 | 00:00:00 | |
| DG1MFX-10 | 2026-09-01 05:21:33 | 47.81576 | 11.54376 | 102° | 91km/h | 12282m | 3.7m/s | -61.0°C | 42.1% | 196.0hPa | 2.7V | 03:09:00 | 00:00:00 | 00:00:00 | |
| OE5MMP-10 | 2026-09-01 05:21:31 | 47.81590 | 11.54275 | 101° | 93km/h | 12269m | 5.3m/s | -60.9°C | 52.1% | 196.4hPa | 2.7V | 00:00:00 | 00:52:21 | 00:00:00 | |
| DO3MHA-11 | 2026-09-01 05:21:30 | 47.81595 | 11.54241 | 101° | 91km/h | 12264m | 3.8m/s | -60.8°C | 51.9% | 196.5hPa | 2.7V | 00:00:00 | 00:52:20 | 00:00:00 | |
| DL6DJ-15 | 2026-09-01 05:21:28 | 47.81604 | 11.54173 | 101° | 91km/h | 12254m | 3.6m/s | -60.8°C | 40.9% | 196.8hPa | 2.7V | 00:00:00 | 00:00:00 | 00:00:00 | |
| DN1GJH-1 | 2026-09-01 05:21:26 | 47.81608 | 11.54139 | 102° | 91km/h | 12251m | 5.0m/s | 0°C | 0% | 0hPa | 2.7V | 03:09:00 | 00:00:00 | 00:00:00 | |
| DF7PN | 2026-09-01 05:21:25 | 47.81617 | 11.54071 | 100° | 91km/h | 12241m | 5.2m/s | -60.7°C | 39.9% | 197.3hPa | 2.7V | 00:00:00 | 00:00:00 | 00:00:00 | |
| DF3TZ-5 | 2026-09-01 05:21:22 | 47.81633 | 11.53935 | 99° | 91km/h | 12224m | 4.7m/s | -60.6°C | 39.7% | 197.7hPa | 2.7V | 00:00:00 | 00:00:00 | 00:00:00 | |
| OE5MMP-10 | 2026-09-01 05:21:21 | 47.81633 | 11.53935 | 100° | 89km/h | 12224m | 4.7m/s | -60.6°C | 50.1% | 197.7hPa | 2.7V | 03:08:00 | 00:52:11 | 00:00:00 | |
| DO3MHA-11 | 2026-09-01 05:21:20 | 47.81637 | 11.53901 | 101° | 89km/h | 12220m | 3.9m/s | -60.6°C | 49.3% | 197.9hPa | 2.7V | 00:00:00 | 00:52:10 | 00:00:00 | |
| PG1ADW-2 | 2026-09-01 05:21:19 | 47.81641 | 11.53867 | 100° | 89km/h | 12215m | 4.6m/s | 0°C | 0% | 0hPa | 2.7V | 00:00:00 | 00:00:00 | 00:00:00 | |
| OE5DRO-10 | 2026-09-01 05:21:17 | 47.81648 | 11.53801 | 100° | 86km/h | 12206m | 5.4m/s | -60.6°C | 48.8% | 198.3hPa | 2.7V | 00:00:00 | 00:00:00 | 00:00:00 | |
| NBG1-10 | 2026-09-01 05:21:16 | 47.81651 | 11.53768 | 100° | 84km/h | 12202m | 3.2m/s | -60.6°C | 49.7% | 198.4hPa | 2.7V | 00:00:00 | 00:52:06 | 00:00:00 | |
| DG1MFX-10 | 2026-09-01 05:21:12 | 47.81662 | 11.53669 | 100° | 88km/h | 12189m | 4.3m/s | -60.7°C | 38.9% | 198.9hPa | 2.7V | 03:09:00 | 00:00:00 | 00:00:00 | |
| OE5MMP-10 | 2026-09-01 05:21:11 | 47.81669 | 11.53603 | 100° | 84km/h | 12181m | 2.6m/s | -60.7°C | 49.3% | 199.1hPa | 2.7V | 00:00:00 | 00:52:01 | 00:00:00 | |
| DO3MHA-11 | 2026-09-01 05:21:10 | 47.81673 | 11.53571 | 100° | 84km/h | 12177m | 4.8m/s | -60.8°C | 49.3% | 199.2hPa | 2.7V | 00:00:00 | 00:52:00 | 00:00:00 | |
| DN1GJH-1 | 2026-09-01 05:21:06 | 47.81683 | 11.53474 | 100° | 86km/h | 12165m | 3.6m/s | 0°C | 0% | 0hPa | 2.7V | 03:09:00 | 00:00:00 | 00:00:00 | |
| DB0UT-7 | 2026-09-01 05:21:04 | 47.81691 | 11.53381 | 96° | 82km/h | 12152m | 2.9m/s | -60.6°C | 46.7% | 200.1hPa | 2.7V | 03:08:00 | 00:51:54 | 00:00:00 | |
| DL6DJ-15 | 2026-09-01 05:20:57 | 47.81708 | 11.53167 | 100° | 82km/h | 12121m | 4.2m/s | -60.7°C | 36.8% | 201.1hPa | 2.7V | 00:00:00 | 00:00:00 | 00:00:00 | |
| DF7PN | 2026-09-01 05:20:54 | 47.81719 | 11.53075 | 98° | 82km/h | 12109m | 4.6m/s | -60.7°C | 37.4% | 201.5hPa | 2.7V | 00:00:00 | 00:00:00 | 00:00:00 | |
| DF3TZ-5 | 2026-09-01 05:20:51 | 47.81729 | 11.52951 | 96° | 84km/h | 12092m | 4.2m/s | -60.7°C | 37.6% | 202.1hPa | 2.7V | 00:00:00 | 00:00:00 | 00:00:00 | |
| DO3MHA-11 | 2026-09-01 05:20:50 | 47.81729 | 11.52951 | 97° | 84km/h | 12092m | 4.1m/s | -60.6°C | 47.8% | 202.0hPa | 2.7V | 00:00:00 | 00:51:40 | 00:00:00 | |
| DN1GJH-1 | 2026-09-01 05:20:44 | 47.81741 | 11.52791 | 99° | 84km/h | 12071m | 5.1m/s | 0°C | 0% | 0hPa | 2.7V | 00:00:00 | 00:00:00 | 00:00:00 | |
| NBG1-10 | 2026-09-01 05:20:43 | 47.81747 | 11.52729 | 99° | 86km/h | 12062m | 5.3m/s | -60.4°C | 44.7% | 203.0hPa | 2.7V | 00:00:00 | 00:51:33 | 00:00:00 | |
| OE5MMP-10 | 2026-09-01 05:20:41 | 47.81754 | 11.52668 | 99° | 84km/h | 12052m | 5.0m/s | -60.4°C | 45.4% | 203.3hPa | 2.7V | 03:09:00 | 00:51:31 | 00:00:00 | |
| DO3MHA-11 | 2026-09-01 05:20:40 | 47.81757 | 11.52638 | 99° | 84km/h | 12048m | 3.4m/s | -60.3°C | 44.5% | 203.4hPa | 2.7V | 00:00:00 | 00:51:30 | 00:00:00 | |
| OE5WHR-10 | 2026-09-01 05:20:39 | 47.81760 | 11.52609 | 98° | 86km/h | 12044m | 4.4m/s | -60.3°C | 43.6% | 203.6hPa | 2.7V | 03:09:00 | 00:00:00 | 00:00:00 | |
| DB0UT-7 | 2026-09-01 05:20:34 | 47.81771 | 11.52452 | 98° | 88km/h | 12025m | 4.2m/s | -60.1°C | 42.9% | 204.3hPa | 2.7V | 00:00:00 | 00:00:00 | 00:00:00 | |
| OE5MMP-10 | 2026-09-01 05:20:31 | 47.81782 | 11.52356 | 103° | 84km/h | 12011m | 5.2m/s | -60.0°C | 43.4% | 204.7hPa | 2.7V | 00:00:00 | 00:51:21 | 00:00:00 | |
| DO3MHA-11 | 2026-09-01 05:20:30 | 47.81787 | 11.52325 | 103° | 86km/h | 12006m | 3.6m/s | -60.0°C | 44.0% | 204.8hPa | 2.7V | 00:00:00 | 00:51:20 | 00:00:00 | |
| DL6DJ-15 | 2026-09-01 05:20:26 | 47.81804 | 11.52202 | 100° | 82km/h | 11990m | 5.2m/s | -59.9°C | 33.4% | 205.4hPa | 2.7V | 00:00:00 | 00:00:00 | 00:00:00 | |
| DG1MJG | 2026-09-01 05:20:25 | 47.81804 | 11.52202 | 102° | 84km/h | 11991m | 5.2m/s | -59.9°C | 33.5% | 205.4hPa | 2.7V | 03:09:00 | 00:00:00 | 00:00:00 | |
| DF7PN | 2026-09-01 05:20:23 | 47.81814 | 11.52108 | 98° | 84km/h | 11977m | 4.0m/s | -59.8°C | 32.7% | 205.9hPa | 2.7V | 00:00:00 | 00:00:00 | 00:00:00 | |
| OE5DXL-15 | 2026-09-01 05:20:22 | 47.81817 | 11.52076 | 99° | 89km/h | 11972m | 5.3m/s | -59.7°C | 42.3% | 206.0hPa | 2.7V | 03:09:00 | 00:00:00 | 00:00:00 | |
| OE5MMP-10 | 2026-09-01 05:20:21 | 47.81821 | 11.52043 | 100° | 89km/h | 11968m | 3.5m/s | -59.6°C | 42.2% | 206.1hPa | 2.7V | 00:00:00 | 00:51:11 | 00:00:00 | |
| DO3MHA-11 | 2026-09-01 05:20:20 | 47.81824 | 11.52010 | 99° | 89km/h | 11963m | 5.1m/s | -59.6°C | 41.5% | 206.2hPa | 2.7V | 03:09:00 | 00:51:10 | 00:00:00 | |
| DF3TZ-5 | 2026-09-01 05:20:19 | 47.81828 | 11.51976 | 98° | 89km/h | 11959m | 3.7m/s | -59.6°C | 33.0% | 206.4hPa | 2.7V | 00:00:00 | 00:00:00 | 00:00:00 | |
| OE5WHR-10 | 2026-09-01 05:20:17 | 47.81836 | 11.51908 | 101° | 89km/h | 11951m | 3.8m/s | -59.5°C | 42.0% | 206.7hPa | 2.7V | 00:00:00 | 00:51:07 | 00:00:00 | |
| OE5MMP-10 | 2026-09-01 05:20:11 | 47.81858 | 11.51713 | 100° | 88km/h | 11925m | 5.1m/s | -59.3°C | 41.0% | 207.5hPa | 2.7V | 00:00:00 | 00:51:01 | 00:00:00 | |
| DO3MHA-12 | 2026-09-01 05:20:10 | 47.81862 | 11.51683 | 99° | 89km/h | 11920m | 3.9m/s | -59.2°C | 41.0% | 207.6hPa | 2.7V | 03:09:00 | 00:51:00 | 00:00:00 | |
| DB0UT-7 | 2026-09-01 05:20:04 | 47.81881 | 11.51488 | 100° | 89km/h | 11895m | 3.9m/s | -59.0°C | 41.2% | 208.5hPa | 2.7V | 00:00:00 | 00:50:54 | 00:00:00 | |
| DL6DJ-15 | 2026-09-01 05:19:55 | 47.81909 | 11.51186 | 97° | 86km/h | 11851m | 6.0m/s | -58.6°C | 29.9% | 210.0hPa | 2.7V | 00:00:00 | 00:00:00 | 00:00:00 | |
| DF3TZ-5 | 2026-09-01 05:19:48 | 47.81929 | 11.50952 | 94° | 91km/h | 11818m | 3.5m/s | -58.4°C | 30.7% | 211.1hPa | 2.7V | 00:00:00 | 00:00:00 | 00:00:00 | |
| OE5DRO-10 | 2026-09-01 05:19:42 | 47.81941 | 11.50751 | 96° | 89km/h | 11791m | 4.1m/s | -58.0°C | 37.7% | 212.0hPa | 2.7V | 03:10:00 | 00:00:00 | 00:00:00 | |
| OE5MMP-10 | 2026-09-01 05:19:41 | 47.81943 | 11.50719 | 96° | 89km/h | 11786m | 5.4m/s | 0°C | 0% | 0hPa | 2.7V | 00:00:00 | 00:50:31 | 00:00:00 | |
| DO3MHA-11 | 2026-09-01 05:19:40 | 47.81945 | 11.50686 | 97° | 89km/h | 11781m | 3.4m/s | -58.0°C | 37.9% | 212.3hPa | 2.7V | 03:10:00 | 00:50:30 | 00:00:00 | |
| BAUMI2-15 | 2026-09-01 05:19:37 | 47.81953 | 11.50586 | 97° | 91km/h | 11768m | 4.7m/s | -57.9°C | 37.4% | 212.8hPa | 2.7V | 00:00:00 | 00:50:27 | 00:00:00 | |
| NBG1-10 | 2026-09-01 05:19:36 | 47.81956 | 11.50552 | 98° | 89km/h | 11764m | 3.8m/s | -57.8°C | 37.0% | 212.9hPa | 2.7V | 03:10:00 | 00:50:26 | 00:00:00 | |
| OE5WHR-10 | 2026-09-01 05:19:35 | 47.81959 | 11.50518 | 98° | 89km/h | 11759m | 5.5m/s | -57.8°C | 37.5% | 213.1hPa | 2.7V | 00:00:00 | 00:00:00 | 00:00:00 | |
| DB0UT-7 | 2026-09-01 05:19:34 | 47.81962 | 11.50484 | 97° | 89km/h | 11755m | 4.2m/s | -57.8°C | 37.2% | 213.2hPa | 2.7V | 00:00:00 | 00:00:00 | 00:00:00 | |
| BAUMI2-15 | 2026-09-01 05:19:32 | 47.81966 | 11.50416 | 95° | 88km/h | 11745m | 4.3m/s | -57.7°C | 37.4% | 213.5hPa | 2.7V | 00:00:00 | 00:50:22 | 00:00:00 | |
| OE5MMP-10 | 2026-09-01 05:19:31 | 47.81968 | 11.50382 | 95° | 89km/h | 11741m | 4.5m/s | 0°C | 0% | 0hPa | 2.7V | 00:00:00 | 00:50:21 | 00:00:00 | |
| DO3MHA-12 | 2026-09-01 05:19:30 | 47.81970 | 11.50349 | 95° | 89km/h | 11737m | 3.4m/s | -57.6°C | 38.1% | 213.8hPa | 2.7V | 03:10:00 | 00:50:20 | 00:00:00 | |
| DG1MFX-10 | 2026-09-01 05:19:29 | 47.81970 | 11.50349 | 95° | 88km/h | 11737m | 3.4m/s | -57.7°C | 30.1% | 213.9hPa | 2.7V | 03:10:00 | 00:00:00 | 00:00:00 | |
| BAUMI2-15 | 2026-09-01 05:19:27 | 47.81975 | 11.50250 | 96° | 89km/h | 11725m | 3.5m/s | -57.6°C | 39.4% | 214.2hPa | 2.7V | 00:00:00 | 00:50:17 | 00:00:00 | |
| DL6DJ-15 | 2026-09-01 05:19:24 | 47.81984 | 11.50151 | 97° | 88km/h | 11713m | 4.3m/s | -57.6°C | 31.1% | 214.6hPa | 2.7V | 00:00:00 | 00:00:00 | 00:00:00 | |
| OE5DRO-10 | 2026-09-01 05:19:23 | 47.81986 | 11.50118 | 97° | 91km/h | 11710m | 3.8m/s | -57.5°C | 39.0% | 214.7hPa | 2.7V | 00:00:00 | 00:00:00 | 00:00:00 | |
| OE5DXL-15 | 2026-09-01 05:19:22 | 47.81989 | 11.50084 | 97° | 91km/h | 11705m | 5.0m/s | -57.5°C | 38.1% | 214.8hPa | 2.7V | 00:00:00 | 00:00:00 | 00:00:00 | |
| OE5MMP-10 | 2026-09-01 05:19:21 | 47.81992 | 11.50051 | 97° | 91km/h | 11700m | 3.9m/s | 0°C | 0% | 0hPa | 2.7V | 03:10:00 | 00:50:11 | 00:00:00 | |
| DO3MHA-11 | 2026-09-01 05:19:20 | 47.81994 | 11.50018 | 96° | 91km/h | 11696m | 4.1m/s | -57.4°C | 38.5% | 215.2hPa | 2.7V | 00:00:00 | 00:50:10 | 00:00:00 | |
| DN1GJH-1 | 2026-09-01 05:19:19 | 47.81994 | 11.50018 | 96° | 89km/h | 11696m | 4.2m/s | 0°C | 0% | 0hPa | 2.7V | 03:10:00 | 00:00:00 | 00:00:00 | |
| BAUMI2-15 | 2026-09-01 05:19:17 | 47.82000 | 11.49916 | 96° | 91km/h | 11684m | 4.4m/s | -57.3°C | 37.8% | 215.6hPa | 2.7V | 00:00:00 | 00:50:07 | 00:00:00 | |
| OE5WHR-10 | 2026-09-01 05:19:14 | 47.82006 | 11.49814 | 95° | 91km/h | 11672m | 3.6m/s | -57.2°C | 37.8% | 216.0hPa | 2.7V | 03:10:00 | 00:50:04 | 00:00:00 | |
| BAUMI2-15 | 2026-09-01 05:19:12 | 47.82010 | 11.49746 | 97° | 91km/h | 11664m | 4.0m/s | -57.1°C | 38.2% | 216.3hPa | 2.7V | 00:00:00 | 00:50:02 | 00:00:00 | |
| OE5MMP-10 | 2026-09-01 05:19:11 | 47.82013 | 11.49712 | 98° | 91km/h | 11660m | 3.4m/s | 0°C | 0% | 0hPa | 2.7V | 00:00:00 | 00:50:01 | 00:00:00 | |
| DO3MHA-11 | 2026-09-01 05:19:10 | 47.82016 | 11.49679 | 99° | 93km/h | 11656m | 4.8m/s | -57.1°C | 37.6% | 216.6hPa | 2.7V | 00:00:00 | 00:50:00 | 00:00:00 | |
| DG1MFX-10 | 2026-09-01 05:19:09 | 47.82016 | 11.49679 | 99° | 91km/h | 11656m | 4.8m/s | -57.1°C | 29.8% | 216.6hPa | 2.7V | 03:11:00 | 00:00:00 | 00:00:00 | |
| BAUMI2-15 | 2026-09-01 05:19:07 | 47.82027 | 11.49578 | 100° | 93km/h | 11643m | 3.6m/s | -56.9°C | 37.3% | 216.9hPa | 2.7V | 00:00:00 | 00:49:57 | 00:00:00 | |
| DB0UT-7 | 2026-09-01 05:19:04 | 47.82038 | 11.49474 | 99° | 91km/h | 11630m | 5.1m/s | -56.8°C | 37.5% | 217.4hPa | 2.7V | 03:10:00 | 00:49:54 | 00:00:00 | |
| NBG1-10 | 2026-09-01 05:19:03 | 47.82041 | 11.49440 | 98° | 91km/h | 11625m | 4.0m/s | -56.8°C | 37.8% | 217.6hPa | 2.7V | 00:00:00 | 00:49:53 | 00:00:00 | |
| DL6DJ-15 | 2026-09-01 05:18:53 | 47.82077 | 11.49098 | 97° | 89km/h | 11583m | 4.0m/s | -56.5°C | 30.8% | 219.1hPa | 2.7V | 00:00:00 | 00:00:00 | 00:00:00 | |
| DF7PN | 2026-09-01 05:18:50 | 47.82087 | 11.48997 | 97° | 91km/h | 11570m | 4.9m/s | -56.3°C | -1.0% | -1.0hPa | 2.7V | 00:00:00 | 00:00:00 | 00:00:00 | |
| DF3TZ-5 | 2026-09-01 05:18:46 | 47.82100 | 11.48860 | 98° | 91km/h | 11553m | 3.9m/s | -56.2°C | 31.9% | 220.1hPa | 2.7V | 00:00:00 | 00:00:00 | 00:00:00 | |
| OE5DRO-10 | 2026-09-01 05:18:45 | 47.82103 | 11.48826 | 98° | 93km/h | 11549m | 5.2m/s | -56.2°C | 40.4% | 220.2hPa | 2.7V | 00:00:00 | 00:00:00 | 00:00:00 | |
| OE5MMP-10 | 2026-09-01 05:18:41 | 47.82117 | 11.48687 | 100° | 91km/h | 11531m | 5.0m/s | 0°C | 0% | 0hPa | 2.7V | 00:00:00 | 00:49:31 | 00:00:00 | |
| DO3MHA-11 | 2026-09-01 05:18:40 | 47.82121 | 11.48653 | 101° | 91km/h | 11527m | 3.4m/s | -56.0°C | 40.5% | 221.0hPa | 2.7V | 00:00:00 | 00:49:30 | 00:00:00 | |
| BAUMI2-15 | 2026-09-01 05:18:37 | 47.82136 | 11.48552 | 104° | 91km/h | 11515m | 4.8m/s | -55.9°C | 39.7% | 221.4hPa | 2.7V | 00:00:00 | 00:49:27 | 00:00:00 | |
| DB0UT-7 | 2026-09-01 05:18:34 | 47.82150 | 11.48452 | 101° | 91km/h | 11503m | 4.0m/s | -55.8°C | 39.3% | 221.8hPa | 2.7V | 00:00:00 | 00:00:00 | 00:00:00 | |
| OE5WHR-10 | 2026-09-01 05:18:32 | 47.82160 | 11.48384 | 103° | 91km/h | 11494m | 3.9m/s | 0°C | 0% | 0hPa | 2.7V | 00:00:00 | 00:00:00 | 00:00:00 | |
| DO3MHA-11 | 2026-09-01 05:18:30 | 47.82169 | 11.48317 | 102° | 93km/h | 11485m | 3.9m/s | -55.7°C | 40.2% | 222.4hPa | 2.7V | 00:00:00 | 00:49:20 | 00:00:00 | |
| DG1MFX-10 | 2026-09-01 05:18:28 | 47.82174 | 11.48283 | 103° | 93km/h | 11480m | 5.0m/s | -55.8°C | 32.4% | 222.7hPa | 2.7V | 03:11:00 | 00:00:00 | 00:00:00 | |
| BAUMI2-15 | 2026-09-01 05:18:27 | 47.82184 | 11.48215 | 104° | 93km/h | 11472m | 3.3m/s | -55.6°C | 40.5% | 222.9hPa | 2.7V | 00:00:00 | 00:49:17 | 00:00:00 | |
| OE5DRO-10 | 2026-09-01 05:18:26 | 47.82190 | 11.48181 | 104° | 91km/h | 11468m | 4.6m/s | -55.6°C | 40.7% | 223.1hPa | 2.7V | 03:11:00 | 00:00:00 | 00:00:00 | |
| DH7VM-15 | 2026-09-01 05:18:25 | 47.82190 | 11.48181 | 104° | 93km/h | 11468m | 4.6m/s | 0°C | 0% | 0hPa | 2.7V | 00:00:00 | 00:00:00 | 00:00:00 | |
| DG1MJG | 2026-09-01 05:18:24 | 47.82201 | 11.48113 | 105° | 93km/h | 11460m | 4.8m/s | -55.6°C | 32.0% | 223.4hPa | 2.7V | 03:12:00 | 00:00:00 | 00:00:00 | |
| OE5DXL-15 | 2026-09-01 05:18:22 | 47.82212 | 11.48045 | 104° | 91km/h | 11451m | 5.2m/s | -55.4°C | 39.7% | 223.7hPa | 2.7V | 03:11:00 | 00:00:00 | 00:00:00 | |
| DO3MHA-11 | 2026-09-01 05:18:20 | 47.82222 | 11.47979 | 102° | 91km/h | 11442m | 4.2m/s | -55.4°C | 40.0% | 224.0hPa | 2.7V | 03:11:00 | 00:49:10 | 00:00:00 | |
| BAUMI2-15 | 2026-09-01 05:18:17 | 47.82235 | 11.47878 | 101° | 91km/h | 11429m | 4.2m/s | -55.2°C | 39.7% | 224.4hPa | 2.7V | 00:00:00 | 00:49:07 | 00:00:00 | |
| DF3TZ-5 | 2026-09-01 05:18:15 | 47.82244 | 11.47811 | 101° | 91km/h | 11420m | 3.7m/s | -55.2°C | 32.2% | 224.7hPa | 2.7V | 00:00:00 | 00:00:00 | 00:00:00 | |
| BAUMI2-15 | 2026-09-01 05:18:12 | 47.82258 | 11.47710 | 104° | 93km/h | 11409m | 3.6m/s | -55.1°C | 41.2% | 225.1hPa | 2.7V | 00:00:00 | 00:49:02 | 00:00:00 | |
| OE5WHR-10 | 2026-09-01 05:18:11 | 47.82264 | 11.47677 | 103° | 91km/h | 11404m | 5.0m/s | 0°C | 0% | 0hPa | 2.7V | 00:00:00 | 00:49:01 | 00:00:00 | |
| DO3MHA-11 | 2026-09-01 05:18:10 | 47.82269 | 11.47642 | 103° | 93km/h | 11400m | 3.0m/s | -55.0°C | 41.7% | 225.4hPa | 2.7V | 00:00:00 | 00:49:00 | 00:00:00 | |
| DG1MFX-10 | 2026-09-01 05:18:08 | 47.82274 | 11.47608 | 104° | 93km/h | 11397m | 4.2m/s | -55.1°C | 33.4% | 225.6hPa | 2.7V | 03:12:00 | 00:00:00 | 00:00:00 | |
| BAUMI2-15 | 2026-09-01 05:18:07 | 47.82284 | 11.47540 | 103° | 91km/h | 11389m | 3.5m/s | -55.0°C | 42.0% | 225.8hPa | 2.7V | 00:00:00 | 00:48:57 | 00:00:00 | |
| DB0UT-7 | 2026-09-01 05:18:04 | 47.82300 | 11.47439 | 104° | 91km/h | 11376m | 5.4m/s | -54.9°C | 41.2% | 226.3hPa | 2.7V | 00:00:00 | 00:48:54 | 00:00:00 | |
| DL6DJ-15 | 2026-09-01 05:17:51 | 47.82368 | 11.46970 | 101° | 88km/h | 11316m | 4.0m/s | -54.4°C | 32.4% | 228.4hPa | 2.7V | 00:00:00 | 00:00:00 | 00:00:00 | |
| DO3MHA-11 | 2026-09-01 05:17:50 | 47.82368 | 11.46970 | 102° | 91km/h | 11316m | 4.0m/s | -54.3°C | 39.9% | 228.4hPa | 2.7V | 00:00:00 | 00:48:40 | 00:00:00 | |
| OE5WHR-10 | 2026-09-01 05:17:49 | 47.82372 | 11.46938 | 101° | 91km/h | 11312m | 4.5m/s | 0°C | 0% | 0hPa | 2.7V | 00:00:00 | 00:00:00 | 00:00:00 | |
| BAUMI2-15 | 2026-09-01 05:17:47 | 47.82380 | 11.46871 | 100° | 91km/h | 11303m | 4.3m/s | -54.2°C | 40.3% | 228.9hPa | 2.7V | 00:00:00 | 00:48:37 | 00:00:00 | |
| DF3TZ-5 | 2026-09-01 05:17:44 | 47.82392 | 11.46770 | 101° | 91km/h | 11290m | 4.3m/s | -54.1°C | 33.0% | 229.4hPa | 2.7V | 00:00:00 | 00:00:00 | 00:00:00 | |
| BAUMI2-15 | 2026-09-01 05:17:42 | 47.82401 | 11.46703 | 103° | 91km/h | 11282m | 3.8m/s | -54.0°C | 40.3% | 229.6hPa | 2.7V | 03:12:00 | 00:48:32 | 00:00:00 | |
| DO3MHA-12 | 2026-09-01 05:17:40 | 47.82411 | 11.46636 | 101° | 89km/h | 11273m | 4.4m/s | -54.0°C | 39.6% | 230.0hPa | 2.7V | 00:00:00 | 00:48:30 | 00:00:00 | |
| OE3JTB-15 | 2026-09-01 05:17:35 | 47.82430 | 11.46471 | 100° | 89km/h | 11252m | 3.4m/s | 0°C | 0% | 0hPa | 2.7V | 00:00:00 | 00:00:00 | 00:00:00 | |
| DB0UT-7 | 2026-09-01 05:17:34 | 47.82434 | 11.46438 | 101° | 91km/h | 11248m | 4.3m/s | -53.8°C | 39.2% | 230.9hPa | 2.7V | 00:00:00 | 00:00:00 | 00:00:00 | |
| DO3MHA-11 | 2026-09-01 05:17:30 | 47.82449 | 11.46305 | 100° | 89km/h | 11231m | 4.6m/s | -53.6°C | 39.3% | 231.5hPa | 2.7V | 00:00:00 | 00:48:20 | 00:00:00 | |
| OE5DRO-10 | 2026-09-01 05:17:29 | 47.82453 | 11.46272 | 100° | 91km/h | 11227m | 3.9m/s | -53.6°C | 38.9% | 231.7hPa | 2.7V | 00:00:00 | 00:00:00 | 00:00:00 | |
| DG1MFX-10 | 2026-09-01 05:17:27 | 47.82456 | 11.46239 | 99° | 89km/h | 11222m | 5.4m/s | -53.7°C | 31.8% | 231.8hPa | 2.7V | 03:13:00 | 00:00:00 | 00:00:00 | |
| NBG1-10 | 2026-09-01 05:17:24 | 47.82468 | 11.46105 | 98° | 91km/h | 11204m | 4.5m/s | -53.5°C | 39.9% | 232.5hPa | 2.7V | 03:12:00 | 00:48:14 | 00:00:00 | |
| OE5DXL-15 | 2026-09-01 05:17:22 | 47.82475 | 11.46037 | 99° | 91km/h | 11196m | 4.6m/s | -53.4°C | 40.3% | 232.8hPa | 2.7V | 00:00:00 | 00:00:00 | 00:00:00 | |
| DO3MHA-11 | 2026-09-01 05:17:20 | 47.82482 | 11.45969 | 99° | 91km/h | 11187m | 4.9m/s | -53.3°C | 40.5% | 233.1hPa | 2.7V | 00:00:00 | 00:48:10 | 00:00:00 | |
| DF3TZ-5 | 2026-09-01 05:17:13 | 47.82506 | 11.45731 | 99° | 89km/h | 11156m | 3.7m/s | -53.2°C | 34.5% | 234.2hPa | 2.7V | 00:00:00 | 00:00:00 | 00:00:00 | |
| DO3MHA-11 | 2026-09-01 05:17:10 | 47.82517 | 11.45629 | 100° | 91km/h | 11144m | 4.8m/s | -53.0°C | 42.2% | 234.6hPa | 2.7V | 00:00:00 | 00:48:00 | 00:00:00 | |
| DG1MFX-10 | 2026-09-01 05:17:07 | 47.82524 | 11.45562 | 99° | 91km/h | 11136m | 4.8m/s | -53.1°C | 36.2% | 235.0hPa | 2.7V | 03:13:00 | 00:00:00 | 00:00:00 | |
| DB0UT-7 | 2026-09-01 05:17:04 | 47.82534 | 11.45427 | 98° | 89km/h | 11119m | 4.2m/s | -53.0°C | 46.8% | 235.6hPa | 2.7V | 03:12:00 | 00:47:54 | 00:00:00 | |
| DL6DJ-15 | 2026-09-01 05:16:49 | 47.82570 | 11.44885 | 94° | 89km/h | 11051m | 3.7m/s | -52.6°C | 40.8% | 238.1hPa | 2.7V | 00:00:00 | 00:00:00 | 00:00:00 | |
| DG1MFX-10 | 2026-09-01 05:16:46 | 47.82572 | 11.44851 | 96° | 91km/h | 11047m | 5.2m/s | -52.5°C | 41.0% | 238.2hPa | 2.7V | 03:13:00 | 00:00:00 | 00:00:00 | |
| DF3TZ-5 | 2026-09-01 05:16:42 | 47.82579 | 11.44685 | 92° | 88km/h | 11025m | 3.3m/s | -52.4°C | 42.6% | 239.1hPa | 2.7V | 00:00:00 | 00:00:00 | 00:00:00 | |
| DO3MHA-11 | 2026-09-01 05:16:40 | 47.82581 | 11.44619 | 94° | 89km/h | 11017m | 3.6m/s | -52.3°C | 50.9% | 239.3hPa | 2.7V | 00:00:00 | 00:47:30 | 00:00:00 | |
| DB0UT-7 | 2026-09-01 05:16:34 | 47.82594 | 11.44414 | 97° | 91km/h | 10991m | 3.7m/s | -52.1°C | 51.8% | 240.2hPa | 2.7V | 00:00:00 | 00:00:00 | 00:00:00 | |
| OE5DRO-10 | 2026-09-01 05:16:32 | 47.82599 | 11.44348 | 96° | 91km/h | 10983m | 4.6m/s | -52.0°C | 51.5% | 240.6hPa | 2.7V | 00:00:00 | 00:00:00 | 00:00:00 | |
| DO3MHA-11 | 2026-09-01 05:16:30 | 47.82603 | 11.44281 | 95° | 89km/h | 10974m | 3.9m/s | -52.0°C | 52.2% | 240.9hPa | 2.7V | 00:00:00 | 00:47:20 | 00:00:00 | |
| DG1MFX-10 | 2026-09-01 05:16:27 | 47.82608 | 11.44182 | 95° | 89km/h | 10960m | 3.5m/s | -51.9°C | 45.1% | 241.5hPa | 2.7V | 03:14:00 | 00:00:00 | 00:00:00 | |
| DG1MJG | 2026-09-01 05:16:23 | 47.82622 | 11.43982 | 97° | 91km/h | 10935m | 3.8m/s | -51.8°C | 44.9% | 242.4hPa | 2.7V | 03:14:00 | 00:00:00 | 00:00:00 | |
| DO3MHA-12 | 2026-09-01 05:16:22 | 47.82624 | 11.43947 | 96° | 93km/h | 10931m | 4.5m/s | -51.7°C | 53.8% | 242.5hPa | 2.7V | 00:00:00 | 00:47:10 | 00:00:00 | |
| DO3MHA-11 | 2026-09-01 05:16:21 | 47.82624 | 11.43947 | 96° | 93km/h | 10931m | 4.5m/s | -51.7°C | 53.8% | 242.5hPa | 2.7V | 03:13:00 | 00:47:10 | 00:00:00 | |
| NBG1-10 | 2026-09-01 05:16:19 | 47.82628 | 11.43876 | 95° | 95km/h | 10923m | 3.5m/s | -51.7°C | 54.5% | 242.8hPa | 2.7V | 00:00:00 | 00:47:08 | 00:00:00 | |
| DL6DJ-15 | 2026-09-01 05:16:18 | 47.82630 | 11.43841 | 94° | 93km/h | 10919m | 4.8m/s | -51.7°C | 45.9% | 243.0hPa | 2.7V | 00:00:00 | 00:00:00 | 00:00:00 | |
| OE5DRO-10 | 2026-09-01 05:16:14 | 47.82636 | 11.43703 | 94° | 93km/h | 10902m | 4.1m/s | -51.5°C | 54.7% | 243.6hPa | 2.7V | 00:00:00 | 00:00:00 | 00:00:00 | |
| DF3TZ-5 | 2026-09-01 05:16:11 | 47.82639 | 11.43636 | 94° | 91km/h | 10893m | 4.1m/s | -51.4°C | 46.0% | 244.0hPa | 2.7V | 00:00:00 | 00:00:00 | 00:00:00 | |
| DO3MHA-12 | 2026-09-01 05:16:10 | 47.82641 | 11.43601 | 96° | 95km/h | 10889m | 4.4m/s | -51.4°C | 54.4% | 244.1hPa | 2.7V | 03:13:00 | 00:47:00 | 00:00:00 | |
| DG1MFX-10 | 2026-09-01 05:16:05 | 47.82651 | 11.43460 | 96° | 97km/h | 10874m | 3.3m/s | -51.3°C | 44.8% | 244.7hPa | 2.7V | 03:14:00 | 00:00:00 | 00:00:00 | |
| DB0UT-7 | 2026-09-01 05:16:04 | 47.82656 | 11.43388 | 96° | 97km/h | 10866m | 3.8m/s | -51.2°C | 53.2% | 245.0hPa | 2.7V | 00:00:00 | 00:46:54 | 00:00:00 | |
| DL6DJ-15 | 2026-09-01 05:15:47 | 47.82705 | 11.42747 | 96° | 97km/h | 10790m | 4.0m/s | -50.7°C | 46.1% | 247.8hPa | 2.7V | 00:00:00 | 00:00:00 | 00:00:00 | |
| NBG1-10 | 2026-09-01 05:15:45 | 47.82707 | 11.42710 | 97° | 97km/h | 10786m | 3.4m/s | -50.7°C | 54.5% | 247.9hPa | 2.7V | 00:00:00 | 00:46:35 | 00:00:00 | |
| DG1MFX-10 | 2026-09-01 05:15:44 | 47.82708 | 11.42710 | 98° | 97km/h | 10786m | 3.5m/s | -50.7°C | 46.4% | 248.0hPa | 2.7V | 03:14:00 | 00:00:00 | 00:00:00 | |
| DO3MHA-11 | 2026-09-01 05:15:40 | 47.82720 | 11.42529 | 95° | 97km/h | 10766m | 4.7m/s | -50.5°C | 54.4% | 248.7hPa | 2.7V | 03:14:00 | 00:46:30 | 00:00:00 | |
| BAUMI2-15 | 2026-09-01 05:15:36 | 47.82729 | 11.42384 | 96° | 95km/h | 10750m | 4.2m/s | -50.3°C | 54.5% | 249.3hPa | 2.7V | 00:00:00 | 00:46:26 | 00:00:00 | |
| OE5DRO-10 | 2026-09-01 05:15:35 | 47.82731 | 11.42349 | 96° | 97km/h | 10747m | 3.3m/s | -50.3°C | 54.3% | 249.5hPa | 2.7V | 00:00:00 | 00:00:00 | 00:00:00 | |
| DB0UT-7 | 2026-09-01 05:15:34 | 47.82733 | 11.42314 | 96° | 99km/h | 10743m | 3.5m/s | -50.2°C | 54.4% | 249.6hPa | 2.7V | 00:00:00 | 00:00:00 | 00:00:00 | |
| BAUMI2-15 | 2026-09-01 05:15:31 | 47.82740 | 11.42206 | 96° | 100km/h | 10731m | 4.2m/s | -50.1°C | 55.0% | 250.0hPa | 2.7V | 00:00:00 | 00:46:21 | 00:00:00 | |
| DO3MHA-11 | 2026-09-01 05:15:30 | 47.82743 | 11.42169 | 95° | 97km/h | 10727m | 3.5m/s | -50.1°C | 54.0% | 250.2hPa | 2.7V | 00:00:00 | 00:46:20 | 00:00:00 | |
| BAUMI2-15 | 2026-09-01 05:15:26 | 47.82751 | 11.42019 | 95° | 95km/h | 10711m | 2.6m/s | -50.0°C | 56.1% | 250.8hPa | 2.7V | 00:00:00 | 00:46:16 | 00:00:00 | |
| DG1MFX-10 | 2026-09-01 05:15:24 | 47.82753 | 11.41983 | 96° | 97km/h | 10708m | 4.3m/s | -50.0°C | 47.5% | 251.0hPa | 2.7V | 03:14:00 | 00:00:00 | 00:00:00 | |
| OE5DXL-15 | 2026-09-01 05:15:22 | 47.82760 | 11.41876 | 96° | 99km/h | 10696m | 4.1m/s | -49.9°C | 55.9% | 251.4hPa | 2.7V | 00:00:00 | 00:00:00 | 00:00:00 | |
| BAUMI2-15 | 2026-09-01 05:15:21 | 47.82762 | 11.41841 | 96° | 97km/h | 10693m | 3.0m/s | -49.8°C | 55.5% | 251.5hPa | 2.7V | 03:14:00 | 00:46:11 | 00:00:00 | |
| DO3MHA-11 | 2026-09-01 05:15:20 | 47.82765 | 11.41805 | 97° | 99km/h | 10689m | 5.1m/s | -49.8°C | 55.8% | 251.6hPa | 2.7V | 00:00:00 | 00:46:10 | 00:00:00 | |
| DG1MJG | 2026-09-01 05:15:19 | 47.82765 | 11.41805 | 97° | 97km/h | 10689m | 5.1m/s | !°C | 47.7% | 251.7hPa | 2.7V | 03:14:00 | 00:00:00 | 00:00:00 | |
| BAUMI2-15 | 2026-09-01 05:15:16 | 47.82775 | 11.41660 | 95° | 99km/h | 10672m | 3.4m/s | -49.6°C | 56.5% | 252.3hPa | 2.7V | 00:00:00 | 00:46:06 | 00:00:00 | |
| DL6DJ-15 | 2026-09-01 05:15:15 | 47.82777 | 11.41624 | 93° | 97km/h | 10668m | 4.4m/s | -49.7°C | 49.0% | 252.6hPa | 2.7V | 00:00:00 | 00:00:00 | 00:00:00 | |
| NBG1-10 | 2026-09-01 05:15:12 | 47.82779 | 11.41513 | 92° | 100km/h | 10657m | 2.3m/s | -49.5°C | 58.1% | 252.9hPa | 2.7V | 03:14:00 | 00:46:02 | 00:00:00 | |
| BAUMI2-15 | 2026-09-01 05:15:11 | 47.82780 | 11.41475 | 93° | 100km/h | 10653m | 4.5m/s | -49.5°C | 58.2% | 253.0hPa | 2.7V | 00:00:00 | 00:46:01 | 00:00:00 | |
| DO3MHA-12 | 2026-09-01 05:15:10 | 47.82781 | 11.41437 | 94° | 100km/h | 10649m | 3.5m/s | -49.4°C | 57.8% | 253.2hPa | 2.7V | 00:00:00 | 00:46:00 | 00:00:00 | |
| DF3TZ-5 | 2026-09-01 05:15:09 | 47.82783 | 11.41400 | 93° | 99km/h | 10646m | 3.0m/s | -49.5°C | 49.0% | 253.4hPa | 2.7V | 00:00:00 | 00:00:00 | 00:00:00 | |
| BAUMI2-15 | 2026-09-01 05:15:06 | 47.82788 | 11.41288 | 95° | 100km/h | 10634m | 4.7m/s | -49.4°C | 56.1% | 253.8hPa | 2.7V | 00:00:00 | 00:45:56 | 00:00:00 | |
| DB0UT-7 | 2026-09-01 05:15:04 | 47.82791 | 11.41214 | 93° | 99km/h | 10625m | 5.5m/s | -49.3°C | 55.3% | 254.1hPa | 2.7V | 03:14:00 | 00:45:54 | 00:00:00 | |
| DG1MFX-10 | 2026-09-01 05:15:03 | 47.82792 | 11.41214 | 94° | 100km/h | 10625m | 5.5m/s | -49.3°C | 47.4% | 254.1hPa | 2.7V | 03:14:00 | 00:00:00 | 00:00:00 | |
| BAUMI2-15 | 2026-09-01 05:15:01 | 47.82794 | 11.41101 | 92° | 100km/h | 10612m | 3.7m/s | -49.2°C | 56.7% | 254.6hPa | 2.7V | 03:15:00 | 00:45:51 | 00:00:00 | |
| DO3MHA-11 | 2026-09-01 05:15:00 | 47.82794 | 11.41063 | 91° | 100km/h | 10608m | 4.9m/s | -49.1°C | 56.6% | 254.8hPa | 2.7V | 03:15:00 | 00:45:50 | 00:00:00 | |
| OE5DRO-10 | 2026-09-01 05:14:57 | 47.82795 | 11.40949 | 92° | 99km/h | 10595m | 3.2m/s | -49.1°C | 59.7% | 255.2hPa | 2.7V | 00:00:00 | 00:00:00 | 00:00:00 | |
| BAUMI2-15 | 2026-09-01 05:14:56 | 47.82796 | 11.40911 | 92° | 99km/h | 10592m | 4.6m/s | -49.1°C | 60.9% | 255.5hPa | 2.7V | 00:00:00 | 00:45:46 | 00:00:00 | |
| OE5DXL-15 | 2026-09-01 05:14:52 | 47.82800 | 11.40762 | 93° | 100km/h | 10575m | 3.8m/s | -49.0°C | 62.0% | 256.0hPa | 2.7V | 00:00:00 | 00:00:00 | 00:00:00 | |
| BAUMI2-15 | 2026-09-01 05:14:51 | 47.82801 | 11.40725 | 93° | 99km/h | 10571m | 4.8m/s | -48.9°C | 61.7% | 256.2hPa | 2.7V | 00:00:00 | 00:45:41 | 00:00:00 | |
| BAUMI2-15 | 2026-09-01 05:14:46 | 47.82803 | 11.40540 | 90° | 100km/h | 10549m | 2.9m/s | -48.7°C | 60.1% | 257.0hPa | 2.7V | 00:00:00 | 00:45:36 | 00:00:00 | |
| DL6DJ-15 | 2026-09-01 05:14:44 | 47.82802 | 11.40466 | 89° | 99km/h | 10540m | 3.1m/s | -48.7°C | 51.9% | 257.4hPa | 2.7V | 00:00:00 | 00:00:00 | 00:00:00 | |
| DG1MFX-10 | 2026-09-01 05:14:43 | 47.82802 | 11.40466 | 90° | 99km/h | 10540m | 3.1m/s | -48.7°C | 51.9% | 257.4hPa | 2.7V | 03:15:00 | 00:00:00 | 00:00:00 | |
| BAUMI2-15 | 2026-09-01 05:14:41 | 47.82802 | 11.40353 | 91° | 99km/h | 10528m | 4.7m/s | -48.6°C | 60.7% | 257.8hPa | 2.7V | 03:15:00 | 00:45:31 | 00:00:00 | |
| DO3MHA-11 | 2026-09-01 05:14:40 | 47.82803 | 11.40316 | 92° | 100km/h | 10523m | 3.8m/s | -48.6°C | 60.2% | 258.0hPa | 2.7V | 00:00:00 | 00:45:30 | 00:00:00 | |
| NBG1-10 | 2026-09-01 05:14:39 | 47.82803 | 11.40279 | 92° | 100km/h | 10519m | 4.3m/s | -48.5°C | 59.7% | 258.2hPa | 2.7V | 00:00:00 | 00:45:29 | 00:00:00 | |
| OE5DRO-10 | 2026-09-01 05:14:38 | 47.82804 | 11.40241 | 92° | 100km/h | 10515m | 3.7m/s | -48.5°C | 59.9% | 258.3hPa | 2.7V | 03:15:00 | 00:00:00 | 00:00:00 | |
| BAUMI2-15 | 2026-09-01 05:14:36 | 47.82805 | 11.40168 | 91° | 100km/h | 10507m | 4.1m/s | -48.4°C | 60.0% | 258.6hPa | 2.7V | 00:00:00 | 00:45:26 | 00:00:00 | |
| DB0UT-7 | 2026-09-01 05:14:34 | 47.82805 | 11.40092 | 91° | 100km/h | 10499m | 3.7m/s | -48.3°C | 59.9% | 258.9hPa | 2.7V | 00:00:00 | 00:00:00 | 00:00:00 | |
| BAUMI2-15 | 2026-09-01 05:14:31 | 47.82806 | 11.39979 | 91° | 102km/h | 10488m | 4.2m/s | -48.2°C | 59.3% | 259.5hPa | 2.7V | 00:00:00 | 00:45:21 | 00:00:00 | |
| DO3MHA-11 | 2026-09-01 05:14:30 | 47.82806 | 11.39941 | 92° | 100km/h | 10484m | 3.7m/s | -48.2°C | 59.7% | 259.6hPa | 2.7V | 00:00:00 | 00:45:20 | 00:00:00 | |
| BAUMI2-15 | 2026-09-01 05:14:26 | 47.82810 | 11.39788 | 92° | 102km/h | 10468m | 3.1m/s | 0°C | 0% | 0hPa | 2.7V | 00:00:00 | 00:45:16 | 00:00:00 | |
| OE5DXL-15 | 2026-09-01 05:14:22 | 47.82811 | 11.39636 | 91° | 100km/h | 10452m | 3.4m/s | -47.9°C | 57.9% | 260.9hPa | 2.7V | 03:15:00 | 00:00:00 | 00:00:00 | |
| BAUMI2-15 | 2026-09-01 05:14:21 | 47.82811 | 11.39598 | 90° | 100km/h | 10449m | 3.9m/s | 0°C | 0% | 0hPa | 2.7V | 03:15:00 | 00:45:11 | 00:00:00 | |
| DO3MHA-11 | 2026-09-01 05:14:20 | 47.82811 | 11.39561 | 91° | 100km/h | 10445m | 3.5m/s | -47.8°C | 57.0% | 261.1hPa | 2.7V | 03:15:00 | 00:45:10 | 00:00:00 | |
| OE5DRO-10 | 2026-09-01 05:14:19 | 47.82811 | 11.39523 | 91° | 100km/h | 10441m | 3.4m/s | -47.8°C | 57.0% | 261.3hPa | 2.7V | 00:00:00 | 00:00:00 | 00:00:00 | |
| BAUMI2-15 | 2026-09-01 05:14:16 | 47.82813 | 11.39411 | 93° | 100km/h | 10430m | 4.1m/s | 0°C | 0% | 0hPa | 2.7V | 00:00:00 | 00:45:06 | 00:00:00 | |
| DL6DJ-15 | 2026-09-01 05:14:13 | 47.82815 | 11.39297 | 91° | 100km/h | 10418m | 3.8m/s | -47.6°C | 49.5% | 262.3hPa | 2.7V | 00:00:00 | 00:00:00 | 00:00:00 | |
| BAUMI2-15 | 2026-09-01 05:14:11 | 47.82816 | 11.39221 | 92° | 100km/h | 10410m | 3.3m/s | 0°C | 0% | 0hPa | 2.7V | 00:00:00 | 00:45:01 | 00:00:00 | |
| DO3MHA-11 | 2026-09-01 05:14:10 | 47.82817 | 11.39182 | 91° | 100km/h | 10407m | 3.3m/s | -47.5°C | 57.4% | 262.7hPa | 2.7V | 00:00:00 | 00:45:00 | 00:00:00 | |
| DF3TZ-5 | 2026-09-01 05:14:07 | 47.82818 | 11.39032 | 91° | 100km/h | 10392m | 3.6m/s | -47.4°C | 50.9% | 263.3hPa | 2.7V | 00:00:00 | 00:00:00 | 00:00:00 | |
| BAUMI2-15 | 2026-09-01 05:14:06 | 47.82818 | 11.39032 | 92° | 100km/h | 10393m | 3.5m/s | 0°C | 0% | 0hPa | 2.7V | 00:00:00 | 00:44:56 | 00:00:00 | |
| DB0UT-7 | 2026-09-01 05:14:03 | 47.82820 | 11.38919 | 91° | 99km/h | 10381m | 4.2m/s | -47.4°C | 59.2% | 263.7hPa | 2.7V | 00:00:00 | 00:44:53 | 00:00:00 | |
| BAUMI2-15 | 2026-09-01 05:14:01 | 47.82821 | 11.38842 | 91° | 100km/h | 10374m | 4.0m/s | 0°C | 0% | 0hPa | 2.7V | 00:00:00 | 00:44:51 | 00:00:00 | |
| DO3MHA-11 | 2026-09-01 05:14:00 | 47.82821 | 11.38804 | 91° | 100km/h | 10370m | 3.7m/s | -47.3°C | 58.8% | 264.2hPa | 2.7V | 00:00:00 | 00:44:50 | 00:00:00 | |
| BAUMI2-15 | 2026-09-01 05:13:56 | 47.82823 | 11.38653 | 92° | 99km/h | 10353m | 3.8m/s | 0°C | 0% | 0hPa | 2.7V | 00:00:00 | 00:44:46 | 00:00:00 | |
| OE5DXL-15 | 2026-09-01 05:13:52 | 47.82827 | 11.38504 | 93° | 99km/h | 10336m | 3.9m/s | -47.1°C | 57.8% | 265.5hPa | 2.7V | 00:00:00 | 00:00:00 | 00:00:00 | |
| BAUMI2-15 | 2026-09-01 05:13:51 | 47.82828 | 11.38466 | 92° | 102km/h | 10333m | 3.6m/s | 0°C | 0% | 0hPa | 2.7V | 00:00:00 | 00:44:41 | 00:00:00 | |
| DO3MHA-11 | 2026-09-01 05:13:50 | 47.82829 | 11.38428 | 92° | 99km/h | 10329m | 4.0m/s | -47.1°C | 57.6% | 265.9hPa | 2.7V | 00:00:00 | 00:44:40 | 00:00:00 | |
| DG1MJG | 2026-09-01 05:13:48 | 47.82830 | 11.38390 | 93° | 100km/h | 10325m | 4.4m/s | -47.1°C | 50.3% | 266.1hPa | 2.7V | 03:16:00 | 00:00:00 | 00:00:00 | |
| BAUMI2-15 | 2026-09-01 05:13:46 | 47.82833 | 11.38275 | 92° | 99km/h | 10314m | 2.6m/s | 0°C | 0% | 0hPa | 2.7V | 00:00:00 | 00:44:36 | 00:00:00 | |
| DL6DJ-15 | 2026-09-01 05:13:42 | 47.82835 | 11.38129 | 90° | 95km/h | 10298m | 3.5m/s | -46.8°C | 51.0% | 267.1hPa | 2.7V | 00:00:00 | 00:00:00 | 00:00:00 | |
| BAUMI2-15 | 2026-09-01 05:13:41 | 47.82836 | 11.38093 | 91° | 93km/h | 10294m | 4.8m/s | 0°C | 0% | 0hPa | 2.7V | 00:00:00 | 00:44:31 | 00:00:00 | |
| DO3MHA-11 | 2026-09-01 05:13:40 | 47.82836 | 11.38058 | 92° | 97km/h | 10290m | 2.9m/s | -46.7°C | 59.5% | 267.4hPa | 2.7V | 03:16:00 | 00:44:30 | 00:00:00 | |
| DF3TZ-5 | 2026-09-01 05:13:36 | 47.82842 | 11.37880 | 93° | 97km/h | 10271m | 5.3m/s | -46.6°C | 50.1% | 268.2hPa | 2.7V | 00:00:00 | 00:00:00 | 00:00:00 | |
| DB0UT-7 | 2026-09-01 05:13:33 | 47.82844 | 11.37806 | 94° | 97km/h | 10264m | 4.7m/s | -46.4°C | 57.3% | 268.5hPa | 2.7V | 00:00:00 | 00:00:00 | 00:00:00 | |
| DO3MHA-11 | 2026-09-01 05:13:30 | 47.82848 | 11.37694 | 92° | 97km/h | 10251m | 3.7m/s | -46.4°C | 58.6% | 269.0hPa | 2.7V | 00:00:00 | 00:44:20 | 00:00:00 | |
| OE5DXL-15 | 2026-09-01 05:13:22 | 47.82855 | 11.37403 | 92° | 95km/h | 10218m | 3.2m/s | -46.1°C | 58.5% | 270.3hPa | 2.7V | 00:00:00 | 00:00:00 | 00:00:00 | |
| DO3MHA-11 | 2026-09-01 05:13:20 | 47.82856 | 11.37332 | 91° | 97km/h | 10211m | 3.3m/s | -46.0°C | 57.7% | 270.6hPa | 2.7V | 00:00:00 | 00:44:10 | 00:00:00 | |
| DG1MJG | 2026-09-01 05:13:18 | 47.82857 | 11.37296 | 91° | 95km/h | 10207m | 4.9m/s | -46.0°C | 50.5% | 270.8hPa | 2.7V | 03:17:00 | 00:00:00 | 00:00:00 | |
| DL6DJ-15 | 2026-09-01 05:13:11 | 47.82858 | 11.37006 | 91° | 95km/h | 10174m | 4.3m/s | -45.7°C | 51.4% | 272.2hPa | 2.7V | 00:00:00 | 00:00:00 | 00:00:00 | |
| DO3MHA-11 | 2026-09-01 05:13:10 | 47.82858 | 11.36970 | 92° | 93km/h | 10169m | 4.1m/s | -45.6°C | 59.0% | 272.2hPa | 2.7V | 00:00:00 | 00:44:00 | 00:00:00 | |
| DF3TZ-5 | 2026-09-01 05:13:05 | 47.82862 | 11.36758 | 90° | 91km/h | 10146m | 4.6m/s | -45.5°C | 51.8% | 273.3hPa | 2.7V | 00:00:00 | 00:00:00 | 00:00:00 | |
| DB0UT-7 | 2026-09-01 05:13:03 | 47.82862 | 11.36724 | 91° | 93km/h | 10141m | 4.1m/s | -45.4°C | 59.7% | 273.5hPa | 2.7V | 03:17:00 | 00:43:53 | 00:00:00 | |
| NBG1-10 | 2026-09-01 05:13:00 | 47.82863 | 11.36621 | 91° | 93km/h | 10129m | 4.5m/s | -45.3°C | 59.7% | 273.9hPa | 2.7V | 03:17:00 | 00:43:50 | 00:00:00 | |
| OE5DXL-15 | 2026-09-01 05:12:52 | 47.82869 | 11.36338 | 93° | 93km/h | 10097m | 5.0m/s | -45.0°C | 59.0% | 275.2hPa | 2.7V | 00:00:00 | 00:00:00 | 00:00:00 | |
| DO3MHA-11 | 2026-09-01 05:12:50 | 47.82871 | 11.36266 | 93° | 93km/h | 10089m | 5.2m/s | -44.9°C | 58.8% | 275.6hPa | 2.7V | 00:00:00 | 00:43:40 | 00:00:00 | |
| DG1MJG | 2026-09-01 05:12:47 | 47.82872 | 11.36195 | 92° | 93km/h | 10080m | 4.7m/s | -44.9°C | 51.6% | 276.0hPa | 2.7V | 03:17:00 | 00:00:00 | 00:00:00 | |
| OE5DRO-10 | 2026-09-01 05:12:44 | 47.82873 | 11.36058 | 92° | 93km/h | 10065m | 3.6m/s | -44.7°C | 57.8% | 276.5hPa | 2.7V | 00:00:00 | 00:00:00 | 00:00:00 | |
| DO3MHA-11 | 2026-09-01 05:12:40 | 47.82877 | 11.35917 | 95° | 95km/h | 10048m | 3.7m/s | -44.6°C | 57.3% | 277.2hPa | 2.7V | 00:00:00 | 00:43:30 | 00:00:00 | |
| DG1MFX-10 | 2026-09-01 05:12:39 | 47.82878 | 11.35917 | 95° | 95km/h | 10048m | 3.8m/s | -44.6°C | 50.3% | 277.2hPa | 2.7V | 03:17:00 | 00:00:00 | 00:00:00 | |
| DB0UT-7 | 2026-09-01 05:12:33 | 47.82883 | 11.35669 | 91° | 93km/h | 10021m | 3.0m/s | -44.3°C | 55.1% | 278.3hPa | 2.7V | 00:00:00 | 00:00:00 | 00:00:00 | |
| DO3MHA-11 | 2026-09-01 05:12:30 | 47.82885 | 11.35564 | 92° | 93km/h | 10009m | 4.5m/s | -44.2°C | 54.2% | 278.8hPa | 2.7V | 00:00:00 | 00:43:20 | 00:00:00 | |
| NBG1-10 | 2026-09-01 05:12:27 | 47.82888 | 11.35458 | 93° | 93km/h | 9997m | 3.6m/s | -44.2°C | 54.2% | 279.2hPa | 2.7V | 00:00:00 | 00:43:17 | 00:00:00 | |
| OE5DRO-10 | 2026-09-01 05:12:25 | 47.82890 | 11.35388 | 93° | 93km/h | 9989m | 3.4m/s | -44.1°C | 53.8% | 279.6hPa | 2.7V | 00:00:00 | 00:00:00 | 00:00:00 | |
| OE5DXL-15 | 2026-09-01 05:12:22 | 47.82893 | 11.35284 | 92° | 93km/h | 9976m | 4.1m/s | -43.9°C | 53.7% | 280.2hPa | 2.7V | 03:17:00 | 00:00:00 | 00:00:00 | |
| DO3MHA-11 | 2026-09-01 05:12:20 | 47.82894 | 11.35216 | 93° | 93km/h | 9969m | 3.5m/s | -43.8°C | 53.5% | 280.4hPa | 2.7V | 03:17:00 | 00:43:10 | 00:00:00 | |
| DG1MFX-10 | 2026-09-01 05:12:19 | 47.82894 | 11.35216 | 93° | 91km/h | 9969m | 3.6m/s | -43.9°C | 46.9% | 280.5hPa | 2.7V | 03:18:00 | 00:00:00 | 00:00:00 | |
| DG1MJG | 2026-09-01 05:12:16 | 47.82896 | 11.35111 | 92° | 93km/h | 9958m | 3.4m/s | -43.8°C | 47.4% | 281.0hPa | 2.7V | 03:18:00 | 00:00:00 | 00:00:00 | |
| DO3MHA-11 | 2026-09-01 05:12:10 | 47.82903 | 11.34866 | 93° | 91km/h | 9930m | 4.3m/s | -43.6°C | 56.8% | 282.0hPa | 2.7V | 00:00:00 | 00:43:00 | 00:00:00 | |
| DL6DJ-15 | 2026-09-01 05:12:09 | 47.82903 | 11.34831 | 92° | 91km/h | 9926m | 3.7m/s | -43.6°C | 50.2% | 282.3hPa | 2.7V | 00:00:00 | 00:00:00 | 00:00:00 | |
| OE5DRO-10 | 2026-09-01 05:12:06 | 47.82906 | 11.34727 | 91° | 93km/h | 9914m | 4.1m/s | -43.4°C | 57.1% | 282.8hPa | 2.7V | 03:17:00 | 00:00:00 | 00:00:00 | |
| DB0UT-7 | 2026-09-01 05:12:03 | 47.82907 | 11.34624 | 91° | 93km/h | 9901m | 4.7m/s | -43.4°C | 58.0% | 283.3hPa | 2.7V | 00:00:00 | 00:42:53 | 00:00:00 | |
| DF3TZ-5 | 2026-09-01 05:12:02 | 47.82908 | 11.34556 | 91° | 89km/h | 9892m | 4.3m/s | -43.4°C | 52.6% | 283.7hPa | 2.7V | 00:00:00 | 00:00:00 | 00:00:00 | |
| DO3MHA-11 | 2026-09-01 05:12:00 | 47.82908 | 11.34522 | 93° | 93km/h | 9889m | 3.4m/s | -43.3°C | 59.8% | 283.8hPa | 2.7V | 00:00:00 | 00:42:50 | 00:00:00 | |
| DG1MFX-10 | 2026-09-01 05:11:58 | 47.82910 | 11.34488 | 94° | 91km/h | 9885m | 3.7m/s | -43.3°C | 53.0% | 284.0hPa | 2.7V | 03:18:00 | 00:00:00 | 00:00:00 | |
| NBG1-10 | 2026-09-01 05:11:54 | 47.82917 | 11.34315 | 94° | 93km/h | 9866m | 3.6m/s | -43.2°C | 63.1% | 284.8hPa | 2.7V | 00:00:00 | 00:42:44 | 00:00:00 | |
| OE5DXL-15 | 2026-09-01 05:11:52 | 47.82920 | 11.34244 | 94° | 93km/h | 9859m | 3.6m/s | -43.1°C | 64.6% | 285.1hPa | 2.7V | 00:00:00 | 00:00:00 | 00:00:00 | |
| DO3MHA-11 | 2026-09-01 05:11:50 | 47.82922 | 11.34173 | 93° | 93km/h | 9851m | 3.5m/s | -43.1°C | 65.3% | 285.5hPa | 2.7V | 00:00:00 | 00:42:40 | 00:00:00 | |
| OE5DRO-10 | 2026-09-01 05:11:47 | 47.82926 | 11.34066 | 93° | 93km/h | 9839m | 4.2m/s | -43.0°C | 65.1% | 285.9hPa | 2.7V | 00:00:00 | 00:00:00 | 00:00:00 | |
| DG1MJG | 2026-09-01 05:11:46 | 47.82926 | 11.34066 | 94° | 95km/h | 9839m | 4.3m/s | -43.1°C | 57.8% | 285.9hPa | 2.7V | 03:18:00 | 00:00:00 | 00:00:00 | |
| DO3MHA-11 | 2026-09-01 05:11:40 | 47.82936 | 11.33823 | 95° | 93km/h | 9809m | 3.7m/s | -42.9°C | 69.9% | 287.2hPa | 2.7V | 03:18:00 | 00:42:30 | 00:00:00 | |
| DL6DJ-15 | 2026-09-01 05:11:38 | 47.82939 | 11.33752 | 92° | 93km/h | 9801m | 3.4m/s | -42.9°C | 62.1% | 287.5hPa | 2.7V | 00:00:00 | 00:00:00 | 00:00:00 | |
| DB0UT-7 | 2026-09-01 05:11:33 | 47.82943 | 11.33575 | 92° | 91km/h | 9782m | 4.9m/s | -42.8°C | 71.3% | 288.4hPa | 2.7V | 00:00:00 | 00:00:00 | 00:00:00 | |
| DF3TZ-5 | 2026-09-01 05:11:31 | 47.82944 | 11.33506 | 91° | 91km/h | 9774m | 4.6m/s | -42.8°C | 64.4% | 288.7hPa | 2.7V | 00:00:00 | 00:00:00 | 00:00:00 | |
| DO3MHA-11 | 2026-09-01 05:11:30 | 47.82945 | 11.33471 | 92° | 93km/h | 9770m | 3.6m/s | -42.7°C | 71.3% | 288.9hPa | 2.7V | 00:00:00 | 00:42:20 | 00:00:00 | |
| OE5DRO-10 | 2026-09-01 05:11:28 | 47.82946 | 11.33401 | 91° | 93km/h | 9761m | 3.2m/s | -42.6°C | 70.7% | 289.3hPa | 2.7V | 00:00:00 | 00:00:00 | 00:00:00 | |
| OE5DXL-15 | 2026-09-01 05:11:22 | 47.82945 | 11.33191 | 90° | 91km/h | 9738m | 4.0m/s | -42.4°C | 72.9% | 290.3hPa | 2.7V | 00:00:00 | 00:00:00 | 00:00:00 | |
| NBG1-10 | 2026-09-01 05:11:21 | 47.82945 | 11.33157 | 90° | 89km/h | 9733m | 3.9m/s | -42.4°C | 73.7% | 290.4hPa | 2.7V | 00:00:00 | 00:42:11 | 00:00:00 | |
| DO3MHA-11 | 2026-09-01 05:11:20 | 47.82944 | 11.33123 | 90° | 93km/h | 9730m | 3.8m/s | -42.3°C | 74.1% | 290.6hPa | 2.7V | 00:00:00 | 00:42:10 | 00:00:00 | |
| DG1MFX-10 | 2026-09-01 05:11:17 | 47.82944 | 11.33054 | 91° | 91km/h | 9722m | 4.3m/s | -42.4°C | 68.9% | 291.0hPa | 2.7V | 03:19:00 | 00:00:00 | 00:00:00 | |
| DG1MJG | 2026-09-01 05:11:15 | 47.82944 | 11.32985 | 91° | 93km/h | 9714m | 4.5m/s | -42.4°C | 71.4% | 291.4hPa | 2.7V | 03:19:00 | 00:00:00 | 00:00:00 | |
| DO8TBO-1 | 2026-09-01 05:11:12 | 47.82943 | 11.32845 | 89° | 88km/h | 9697m | 4.5m/s | 0°C | 0% | 0hPa | 2.7V | 03:18:00 | 00:42:02 | 00:00:00 | |
| DO3MHA-11 | 2026-09-01 05:11:10 | 47.82942 | 11.32775 | 88° | 91km/h | 9689m | 4.9m/s | -42.2°C | 86.2% | 292.4hPa | 2.7V | 00:00:00 | 00:42:00 | 00:00:00 | |
| OE5DRO-10 | 2026-09-01 05:11:09 | 47.82941 | 11.32740 | 88° | 89km/h | 9685m | 2.9m/s | -42.2°C | 86.2% | 292.6hPa | 2.7V | 00:00:00 | 00:00:00 | 00:00:00 | |
| DL6DJ-15 | 2026-09-01 05:11:07 | 47.82939 | 11.32671 | 88° | 91km/h | 9675m | 3.5m/s | -42.2°C | 77.4% | 293.1hPa | 2.7V | 00:00:00 | 00:00:00 | 00:00:00 | |
| DB0UT-7 | 2026-09-01 05:11:03 | 47.82941 | 11.32536 | 93° | 88km/h | 9658m | 4.2m/s | -42.0°C | 85.4% | 293.7hPa | 2.7V | 03:19:00 | 00:41:53 | 00:00:00 | |
| DO3MHA-11 | 2026-09-01 05:11:00 | 47.82944 | 11.32435 | 93° | 88km/h | 9646m | 3.4m/s | -41.9°C | 84.9% | 294.2hPa | 2.7V | 03:19:00 | 00:41:50 | 00:00:00 | |
| DG1MFX-10 | 2026-09-01 05:10:56 | 47.82944 | 11.32336 | 89° | 86km/h | 9634m | 4.7m/s | -41.8°C | 75.9% | 294.8hPa | 2.7V | 03:19:00 | 00:00:00 | 00:00:00 | |
| OE5DXL-15 | 2026-09-01 05:10:52 | 47.82941 | 11.32173 | 90° | 86km/h | 9614m | 4.6m/s | -41.6°C | 81.7% | 295.6hPa | 2.7V | 00:00:00 | 00:00:00 | 00:00:00 | |
| DO3MHA-11 | 2026-09-01 05:10:50 | 47.82942 | 11.32108 | 92° | 86km/h | 9605m | 3.8m/s | -41.6°C | 81.6% | 296.0hPa | 2.7V | 00:00:00 | 00:41:40 | 00:00:00 | |
| NBG1-10 | 2026-09-01 05:10:48 | 47.82943 | 11.32043 | 92° | 86km/h | 9598m | 3.4m/s | -41.5°C | 80.2% | 296.3hPa | 2.7V | 03:19:00 | 00:41:38 | 00:00:00 | |
| DG1MJG | 2026-09-01 05:10:44 | 47.82944 | 11.31947 | 91° | 84km/h | 9585m | 5.1m/s | -41.4°C | 70.3% | 296.9hPa | 2.7V | 03:20:00 | 00:00:00 | 00:00:00 | |
| DO8TBO-1 | 2026-09-01 05:10:42 | 47.82943 | 11.31852 | 90° | 86km/h | 9573m | 3.7m/s | 0°C | 0% | 0hPa | 2.7V | 00:00:00 | 00:41:32 | 00:00:00 | |
| DH7VM-15 | 2026-09-01 05:10:40 | 47.82943 | 11.31820 | 90° | 84km/h | 9569m | 3.7m/s | 0°C | 0% | 0hPa | 2.7V | 00:00:00 | 00:00:00 | 00:00:00 | |
| DL6DJ-15 | 2026-09-01 05:10:36 | 47.82945 | 11.31656 | 92° | 86km/h | 9550m | 3.0m/s | -41.1°C | 69.2% | 298.5hPa | 2.7V | 00:00:00 | 00:00:00 | 00:00:00 | |
| DG1MFX-10 | 2026-09-01 05:10:35 | 47.82945 | 11.31656 | 94° | 88km/h | 9551m | 3.0m/s | -41.1°C | 69.2% | 298.5hPa | 2.7V | 03:20:00 | 00:00:00 | 00:00:00 | |
| DB0UT-7 | 2026-09-01 05:10:33 | 47.82946 | 11.31557 | 91° | 86km/h | 9539m | 2.6m/s | -40.9°C | 76.0% | 298.9hPa | 2.7V | 00:00:00 | 00:00:00 | 00:00:00 | |
| OE5DRO-10 | 2026-09-01 05:10:31 | 47.82947 | 11.31492 | 92° | 86km/h | 9531m | 3.8m/s | -40.9°C | 76.2% | 299.2hPa | 2.7V | 00:00:00 | 00:00:00 | 00:00:00 | |
| DO3MHA-11 | 2026-09-01 05:10:30 | 47.82948 | 11.31459 | 92° | 86km/h | 9527m | 3.1m/s | -40.8°C | 75.5% | 299.4hPa | 2.7V | 00:00:00 | 00:41:20 | 00:00:00 | |
| DF3TZ-5 | 2026-09-01 05:10:29 | 47.82949 | 11.31427 | 90° | 86km/h | 9523m | 4.2m/s | -40.9°C | 68.1% | 299.6hPa | 2.7V | 00:00:00 | 00:00:00 | 00:00:00 | |
| OE5DXL-15 | 2026-09-01 05:10:22 | 47.82954 | 11.31201 | 94° | 86km/h | 9494m | 3.7m/s | -40.6°C | 75.2% | 300.9hPa | 2.7V | 03:19:00 | 00:00:00 | 00:00:00 | |
| DO3MHA-11 | 2026-09-01 05:10:20 | 47.82956 | 11.31137 | 93° | 86km/h | 9486m | 2.8m/s | -40.5°C | 76.4% | 301.3hPa | 2.7V | 03:19:00 | 00:41:10 | 00:00:00 | |
| NBG1-10 | 2026-09-01 05:10:15 | 47.82961 | 11.30978 | 94° | 86km/h | 9464m | 4.6m/s | -40.4°C | 75.8% | 302.2hPa | 2.7V | 00:00:00 | 00:41:05 | 00:00:00 | |
| DG1MJG | 2026-09-01 05:10:13 | 47.82962 | 11.30945 | 94° | 88km/h | 9460m | 4.4m/s | -40.4°C | 68.2% | 302.4hPa | 2.7V | 03:20:00 | 00:00:00 | 00:00:00 | |
| OE5DRO-10 | 2026-09-01 05:10:12 | 47.82964 | 11.30879 | 94° | 86km/h | 9452m | 3.7m/s | -40.3°C | 76.0% | 302.7hPa | 2.7V | 00:00:00 | 00:00:00 | 00:00:00 | |
| DO3MHA-12 | 2026-09-01 05:10:10 | 47.82968 | 11.30812 | 95° | 86km/h | 9445m | 3.1m/s | -40.2°C | 75.9% | 303.1hPa | 2.7V | 03:19:00 | 00:41:00 | 00:00:00 | |
| DG1MFX-10 | 2026-09-01 05:10:06 | 47.82971 | 11.30715 | 94° | 84km/h | 9434m | 3.8m/s | -40.1°C | 68.7% | 303.7hPa | 2.7V | 03:20:00 | 00:00:00 | 00:00:00 | |
| DL6DJ-15 | 2026-09-01 05:10:05 | 47.82973 | 11.30652 | 92° | 86km/h | 9426m | 3.9m/s | -40.1°C | 68.4% | 304.0hPa | 2.7V | 00:00:00 | 00:00:00 | 00:00:00 | |
| DB0UT-7 | 2026-09-01 05:10:03 | 47.82975 | 11.30587 | 93° | 86km/h | 9420m | 4.3m/s | -40.0°C | 75.5% | 304.3hPa | 2.7V | 00:00:00 | 00:40:53 | 00:00:00 | |
| DF3TZ-5 | 2026-09-01 05:09:58 | 47.82980 | 11.30427 | 92° | 84km/h | 9400m | 3.6m/s | -39.8°C | 68.0% | 305.2hPa | 2.7V | 00:00:00 | 00:00:00 | 00:00:00 | |
| OE5DRO-10 | 2026-09-01 05:09:53 | 47.82986 | 11.30267 | 94° | 88km/h | 9381m | 4.6m/s | -39.6°C | 74.6% | 306.0hPa | 2.7V | 00:00:00 | 00:00:00 | 00:00:00 | |
| OE5DXL-15 | 2026-09-01 05:09:52 | 47.82987 | 11.30235 | 93° | 88km/h | 9377m | 3.8m/s | -39.6°C | 74.9% | 306.2hPa | 2.7V | 00:00:00 | 00:00:00 | 00:00:00 | |
| DG1MFX-10 | 2026-09-01 05:09:45 | 47.82990 | 11.30044 | 93° | 86km/h | 9351m | 3.7m/s | -39.4°C | 67.4% | 307.4hPa | 2.7V | 03:20:00 | 00:00:00 | 00:00:00 | |
| NBG1-10 | 2026-09-01 05:09:42 | 47.82996 | 11.29914 | 96° | 88km/h | 9335m | 3.8m/s | -39.2°C | 75.0% | 308.0hPa | 2.7V | 00:00:00 | 00:40:32 | 00:00:00 | |
| DO3MHA-11 | 2026-09-01 05:09:40 | 47.83001 | 11.29847 | 97° | 88km/h | 9326m | 4.0m/s | -39.1°C | 75.3% | 308.4hPa | 2.7V | 03:20:00 | 00:40:30 | 00:00:00 | |
| DO8TBO-1 | 2026-09-01 05:09:38 | 47.83006 | 11.29782 | 96° | 89km/h | 9319m | 3.3m/s | 0°C | 0% | 0hPa | 2.7V | 00:00:00 | 00:40:28 | 00:00:00 | |
| OE5DRO-10 | 2026-09-01 05:09:34 | 47.83012 | 11.29649 | 93° | 88km/h | 9304m | 3.2m/s | -38.9°C | 75.1% | 309.4hPa | 2.7V | 03:20:00 | 00:00:00 | 00:00:00 | |
| DB0UT-7 | 2026-09-01 05:09:33 | 47.83013 | 11.29617 | 93° | 88km/h | 9301m | 4.3m/s | -38.9°C | 74.6% | 309.7hPa | 2.7V | 00:00:00 | 00:00:00 | 00:00:00 | |
| DO3MHA-11 | 2026-09-01 05:09:30 | 47.83016 | 11.29520 | 95° | 88km/h | 9289m | 3.7m/s | -38.7°C | 73.9% | 310.3hPa | 2.7V | 00:00:00 | 00:40:20 | 00:00:00 | |
| DF3TZ-5 | 2026-09-01 05:09:27 | 47.83022 | 11.29421 | 95° | 88km/h | 9275m | 5.3m/s | -38.7°C | 66.5% | 310.8hPa | 2.7V | 00:00:00 | 00:00:00 | 00:00:00 | |
| DG1MFX-10 | 2026-09-01 05:09:24 | 47.83026 | 11.29354 | 97° | 89km/h | 9267m | 5.1m/s | -38.6°C | 66.2% | 311.2hPa | 2.7V | 03:20:00 | 00:00:00 | 00:00:00 | |
| OE5DXL-15 | 2026-09-01 05:09:22 | 47.83032 | 11.29254 | 95° | 88km/h | 9254m | 3.2m/s | -38.4°C | 72.5% | 311.7hPa | 2.7V | 00:00:00 | 00:00:00 | 00:00:00 | |
| DO3MHA-11 | 2026-09-01 05:09:20 | 47.83035 | 11.29188 | 93° | 88km/h | 9247m | 4.2m/s | -38.4°C | 70.8% | 312.0hPa | 2.7V | 00:00:00 | 00:40:10 | 00:00:00 | |
| OE5DRO-10 | 2026-09-01 05:09:15 | 47.83042 | 11.29023 | 96° | 88km/h | 9227m | 3.2m/s | -38.2°C | 69.9% | 312.9hPa | 2.7V | 00:00:00 | 00:00:00 | 00:00:00 | |
| DG1MJG | 2026-09-01 05:09:12 | 47.83046 | 11.28958 | 98° | 86km/h | 9219m | 3.9m/s | -38.2°C | 63.4% | 313.3hPa | 2.7V | 03:20:00 | 00:00:00 | 00:00:00 | |
| DO3MHA-11 | 2026-09-01 05:09:10 | 47.83054 | 11.28861 | 96° | 88km/h | 9207m | 4.4m/s | -38.1°C | 69.9% | 313.8hPa | 2.7V | 00:00:00 | 00:40:00 | 00:00:00 | |
| NBG1-10 | 2026-09-01 05:09:09 | 47.83056 | 11.28829 | 96° | 89km/h | 9203m | 3.6m/s | -38.0°C | 69.7% | 314.0hPa | 2.7V | 00:00:00 | 00:39:59 | 00:00:00 | |
| DB0UT-7 | 2026-09-01 05:09:03 | 47.83069 | 11.28629 | 96° | 88km/h | 9178m | 3.6m/s | -37.8°C | 70.6% | 315.1hPa | 2.7V | 03:21:00 | 00:39:53 | 00:00:00 | |
| DO3MHA-11 | 2026-09-01 05:09:00 | 47.83075 | 11.28530 | 95° | 89km/h | 9166m | 4.4m/s | -37.8°C | 71.9% | 315.7hPa | 2.7V | 03:21:00 | 00:39:50 | 00:00:00 | |
| OE5DRO-10 | 2026-09-01 05:08:56 | 47.83081 | 11.28396 | 95° | 89km/h | 9149m | 3.5m/s | -37.7°C | 73.0% | 316.4hPa | 2.7V | 00:00:00 | 00:00:00 | 00:00:00 | |
| OE5DXL-15 | 2026-09-01 05:08:52 | 47.83092 | 11.28264 | 100° | 89km/h | 9134m | 3.0m/s | -37.5°C | 73.2% | 317.2hPa | 2.7V | 00:00:00 | 00:00:00 | 00:00:00 | |
| DO3MHA-12 | 2026-09-01 05:08:50 | 47.83099 | 11.28197 | 100° | 89km/h | 9126m | 4.0m/s | -37.5°C | 73.1% | 317.6hPa | 2.7V | 03:21:00 | 00:39:40 | 00:00:00 | |
| DG1MFX-10 | 2026-09-01 05:08:42 | 47.83115 | 11.27964 | 94° | 88km/h | 9098m | 4.5m/s | -37.4°C | 69.2% | 318.8hPa | 2.7V | 03:21:00 | 00:00:00 | 00:00:00 | |
| DG1MJG | 2026-09-01 05:08:41 | 47.83116 | 11.27931 | 95° | 88km/h | 9094m | 3.8m/s | -37.3°C | 69.8% | 319.0hPa | 2.7V | 03:21:00 | 00:00:00 | 00:00:00 | |
| DO3MHA-11 | 2026-09-01 05:08:40 | 47.83120 | 11.27865 | 95° | 86km/h | 9086m | 3.6m/s | -37.2°C | 77.2% | 319.4hPa | 2.7V | 00:00:00 | 00:39:30 | 00:00:00 | |
| DO8TBO-1 | 2026-09-01 05:08:37 | 47.83126 | 11.27768 | 96° | 88km/h | 9073m | 5.2m/s | 0°C | 0% | 0hPa | 2.7V | 00:00:00 | 00:39:27 | 00:00:00 | |
| NBG1-10 | 2026-09-01 05:08:36 | 47.83129 | 11.27735 | 96° | 89km/h | 9069m | 3.1m/s | -37.1°C | 78.1% | 320.1hPa | 2.7V | 03:21:00 | 00:39:26 | 00:00:00 | |
| DB0UT-7 | 2026-09-01 05:08:33 | 47.83135 | 11.27638 | 96° | 89km/h | 9056m | 4.9m/s | -37.0°C | 79.3% | 320.7hPa | 2.7V | 00:00:00 | 00:00:00 | 00:00:00 | |
| DL6DJ-15 | 2026-09-01 05:08:32 | 47.83138 | 11.27574 | 94° | 84km/h | 9048m | 4.8m/s | -37.0°C | 72.4% | 321.1hPa | 2.7V | 00:00:00 | 00:00:00 | 00:00:00 | |
| DO3MHA-11 | 2026-09-01 05:08:30 | 47.83140 | 11.27542 | 96° | 91km/h | 9044m | 2.7m/s | -36.9°C | 79.9% | 321.3hPa | 2.7V | 00:00:00 | 00:39:20 | 00:00:00 | |
| DF3TZ-5 | 2026-09-01 05:08:25 | 47.83151 | 11.27372 | 95° | 93km/h | 9024m | 3.6m/s | -36.8°C | 72.0% | 322.2hPa | 2.7V | 00:00:00 | 00:00:00 | 00:00:00 | |
| OE5DXL-15 | 2026-09-01 05:08:22 | 47.83158 | 11.27270 | 96° | 91km/h | 9012m | 4.1m/s | -36.7°C | 79.0% | 322.7hPa | 2.7V | 03:21:00 | 00:00:00 | 00:00:00 | |
| DO3MHA-11 | 2026-09-01 05:08:20 | 47.83162 | 11.27203 | 94° | 89km/h | 9004m | 4.0m/s | -36.6°C | 79.7% | 323.1hPa | 2.9V | 03:21:00 | 00:39:10 | 00:00:00 | |
| OE5DRO-10 | 2026-09-01 05:08:18 | 47.83164 | 11.27137 | 94° | 91km/h | 8996m | 4.7m/s | -36.6°C | 79.2% | 323.4hPa | 2.9V | 03:21:00 | 00:00:00 | 00:00:00 | |
| DG1MJG | 2026-09-01 05:08:12 | 47.83175 | 11.26934 | 97° | 91km/h | 8970m | 4.8m/s | -36.4°C | 72.0% | 324.7hPa | 2.9V | 03:22:00 | 00:00:00 | 00:00:00 | |
| DO3MHA-11 | 2026-09-01 05:08:10 | 47.83179 | 11.26865 | 96° | 91km/h | 8962m | 4.3m/s | -36.3°C | 78.9% | 325.0hPa | 2.9V | 00:00:00 | 00:39:00 | 00:00:00 | |
| DO8TBO-1 | 2026-09-01 05:08:07 | 47.83185 | 11.26764 | 96° | 89km/h | 8950m | 4.5m/s | 0°C | 0% | 0hPa | 2.9V | 03:21:00 | 00:38:57 | 00:00:00 | |
| NBG1-10 | 2026-09-01 05:08:03 | 47.83193 | 11.26630 | 97° | 89km/h | 8935m | 4.2m/s | -36.1°C | 80.5% | 326.2hPa | 2.9V | 00:00:00 | 00:38:53 | 00:00:00 | |
| DL6DJ-15 | 2026-09-01 05:08:01 | 47.83201 | 11.26526 | 96° | 93km/h | 8923m | 3.3m/s | -36.1°C | 74.5% | 326.9hPa | 2.9V | 00:00:00 | 00:00:00 | 00:00:00 | |
| DF3TZ-5 | 2026-09-01 05:07:54 | 47.83215 | 11.26319 | 95° | 88km/h | 8900m | 3.5m/s | -35.9°C | 75.9% | 328.0hPa | 2.9V | 00:00:00 | 00:00:00 | 00:00:00 | |
| OE5DXL-15 | 2026-09-01 05:07:52 | 47.83219 | 11.26252 | 96° | 88km/h | 8892m | 4.4m/s | -35.8°C | 82.9% | 328.3hPa | 2.9V | 00:00:00 | 00:00:00 | 00:00:00 | |
| DO3MHA-11 | 2026-09-01 05:07:50 | 47.83224 | 11.26187 | 97° | 88km/h | 8884m | 3.8m/s | -35.7°C | 83.6% | 328.6hPa | 2.9V | 00:00:00 | 00:38:40 | 00:00:00 | |
| DO3MHA-11 | 2026-09-01 05:07:40 | 47.83246 | 11.25860 | 98° | 89km/h | 8845m | 4.5m/s | -35.5°C | 86.5% | 330.6hPa | 2.7V | 03:22:00 | 00:38:30 | 00:00:00 | |
| DB0UT-7 | 2026-09-01 05:07:33 | 47.83272 | 11.25626 | 99° | 86km/h | 8818m | 3.7m/s | -35.5°C | 91.7% | 331.8hPa | 2.7V | 00:00:00 | 00:00:00 | 00:00:00 | |
| DO8TBO-1 | 2026-09-01 05:07:32 | 47.83275 | 11.25593 | 99° | 88km/h | 8814m | 3.5m/s | 0°C | 0% | 0hPa | 2.9V | 00:00:00 | 00:38:22 | 00:00:00 | |
| DO3MHA-11 | 2026-09-01 05:07:30 | 47.83281 | 11.25528 | 97° | 88km/h | 8806m | 3.9m/s | -35.4°C | 92.5% | 332.3hPa | 2.9V | 00:00:00 | 00:38:20 | 00:00:00 | |
| DL6DJ-15 | 2026-09-01 05:07:29 | 47.83283 | 11.25495 | 95° | 88km/h | 8802m | 3.5m/s | -35.4°C | 85.0% | 332.6hPa | 2.9V | 00:00:00 | 00:00:00 | 00:00:00 | |
| DF3TZ-5 | 2026-09-01 05:07:23 | 47.83297 | 11.25297 | 95° | 88km/h | 8779m | 3.8m/s | -35.2°C | 83.5% | 333.7hPa | 2.9V | 00:00:00 | 00:00:00 | 00:00:00 | |
| OE5DXL-15 | 2026-09-01 05:07:22 | 47.83300 | 11.25264 | 97° | 86km/h | 8775m | 4.5m/s | -35.1°C | 90.9% | 333.9hPa | 2.9V | 00:00:00 | 00:00:00 | 00:00:00 | |
| OE5DRO-10 | 2026-09-01 05:07:21 | 47.83302 | 11.25231 | 98° | 86km/h | 8771m | 2.2m/s | -35.1°C | 91.6% | 334.1hPa | 2.9V | 00:00:00 | 00:00:00 | 00:00:00 | |
| DO3MHA-11 | 2026-09-01 05:07:20 | 47.83305 | 11.25199 | 97° | 84km/h | 8768m | 3.7m/s | -35.1°C | 90.3% | 334.2hPa | 2.9V | 00:00:00 | 00:38:10 | 00:00:00 | |
| DG1MFX-10 | 2026-09-01 05:07:19 | 47.83305 | 11.25199 | 98° | 88km/h | 8768m | 3.8m/s | -35.1°C | 83.0% | 334.2hPa | 2.7V | 03:23:00 | 00:00:00 | 00:00:00 | |
| DO3MHA-11 | 2026-09-01 05:07:10 | 47.83322 | 11.24885 | 95° | 88km/h | 8729m | 4.2m/s | -34.7°C | 87.1% | 336.1hPa | 2.7V | 00:00:00 | 00:38:00 | 00:00:00 | |
| DL6DJ-15 | 2026-09-01 05:06:58 | 47.83341 | 11.24497 | 93° | 82km/h | 8681m | 3.8m/s | -34.3°C | 77.9% | 338.4hPa | 2.7V | 00:00:00 | 00:00:00 | 00:00:00 | |
| NBG1-10 | 2026-09-01 05:06:57 | 47.83342 | 11.24466 | 95° | 84km/h | 8677m | 3.9m/s | -34.2°C | 84.6% | 338.6hPa | 2.7V | 00:00:00 | 00:37:47 | 00:00:00 | |
| OE5DXL-15 | 2026-09-01 05:06:52 | 47.83352 | 11.24306 | 96° | 84km/h | 8659m | 4.1m/s | -34.1°C | 84.0% | 339.5hPa | 2.7V | 00:00:00 | 00:37:42 | 00:00:00 | |
| DO3MHA-12 | 2026-09-01 05:06:50 | 47.83356 | 11.24242 | 95° | 86km/h | 8651m | 3.4m/s | -34.0°C | 83.4% | 339.9hPa | 2.9V | 03:23:00 | 00:37:40 | 00:00:00 | |
| OE5DRO-10 | 2026-09-01 05:06:43 | 47.83367 | 11.24016 | 93° | 82km/h | 8621m | 3.4m/s | -33.8°C | 83.3% | 341.3hPa | 2.9V | 00:00:00 | 00:00:00 | 00:00:00 | |
| DO3MHA-11 | 2026-09-01 05:06:40 | 47.83371 | 11.23922 | 94° | 84km/h | 8609m | 3.6m/s | -33.7°C | 83.0% | 342.0hPa | 2.9V | 00:00:00 | 00:37:30 | 00:00:00 | |
| DG1MFX-10 | 2026-09-01 05:06:38 | 47.83372 | 11.23891 | 94° | 84km/h | 8604m | 5.2m/s | -33.7°C | 76.3% | 342.3hPa | 2.9V | 03:23:00 | 00:00:00 | 00:00:00 | |
| DB0UT-7 | 2026-09-01 05:06:33 | 47.83380 | 11.23703 | 95° | 80km/h | 8581m | 4.9m/s | -33.5°C | 81.4% | 343.3hPa | 2.9V | 00:00:00 | 00:00:00 | 00:00:00 | |
| DO3MHA-11 | 2026-09-01 05:06:30 | 47.83386 | 11.23612 | 96° | 82km/h | 8568m | 3.7m/s | -33.4°C | 81.2% | 344.0hPa | 2.9V | 00:00:00 | 00:37:20 | 00:00:00 | |
| DL6DJ-15 | 2026-09-01 05:06:27 | 47.83392 | 11.23520 | 95° | 82km/h | 8555m | 4.5m/s | -33.4°C | 74.8% | 344.7hPa | 2.9V | 00:00:00 | 00:00:00 | 00:00:00 | |
| NBG1-10 | 2026-09-01 05:06:24 | 47.83398 | 11.23426 | 95° | 80km/h | 8543m | 4.9m/s | -33.2°C | 80.2% | 345.2hPa | 2.9V | 03:23:00 | 00:37:14 | 00:00:00 | |
| OE5DXL-15 | 2026-09-01 05:06:22 | 47.83401 | 11.23364 | 94° | 80km/h | 8534m | 4.6m/s | -33.1°C | 80.2% | 345.7hPa | 2.9V | 03:23:00 | 00:00:00 | 00:00:00 | |
| DF3TZ-5 | 2026-09-01 05:06:21 | 47.83402 | 11.23333 | 93° | 80km/h | 8530m | 3.3m/s | -33.1°C | 74.7% | 345.9hPa | 2.9V | 00:00:00 | 00:00:00 | 00:00:00 | |
| DO3MHA-11 | 2026-09-01 05:06:20 | 47.83403 | 11.23302 | 93° | 80km/h | 8526m | 4.4m/s | -33.1°C | 80.3% | 346.0hPa | 2.9V | 03:23:00 | 00:37:10 | 00:00:00 | |
| DG1MFX-10 | 2026-09-01 05:06:18 | 47.83404 | 11.23272 | 94° | 80km/h | 8522m | 3.5m/s | -33.1°C | 74.1% | 346.3hPa | 2.9V | 03:24:00 | 00:00:00 | 00:00:00 | |
| DO3MHA-11 | 2026-09-01 05:06:10 | 47.83418 | 11.23002 | 94° | 80km/h | 8487m | 4.0m/s | -32.7°C | 75.4% | 348.0hPa | 2.9V | 00:00:00 | 00:37:00 | 00:00:00 | |
| DG1MJG | 2026-09-01 05:06:09 | 47.83418 | 11.23002 | 94° | 82km/h | 8487m | 4.0m/s | -32.8°C | 69.5% | 348.1hPa | 2.9V | 03:24:00 | 00:00:00 | 00:00:00 | |
| OE5DRO-10 | 2026-09-01 05:06:05 | 47.83422 | 11.22851 | 96° | 80km/h | 8468m | 3.3m/s | -32.5°C | 72.7% | 349.0hPa | 2.9V | 00:00:00 | 00:00:00 | 00:00:00 | |
| DB0UT-7 | 2026-09-01 05:06:03 | 47.83427 | 11.22792 | 99° | 80km/h | 8459m | 4.5m/s | -32.5°C | 72.7% | 349.3hPa | 2.9V | 00:00:00 | 00:36:53 | 00:00:00 | |
| DL6DJ-15 | 2026-09-01 05:05:56 | 47.83442 | 11.22586 | 92° | 78km/h | 8429m | 4.6m/s | -32.2°C | 61.0% | 350.9hPa | 2.7V | 00:00:00 | 00:00:00 | 00:00:00 | |
| OE5DXL-15 | 2026-09-01 05:05:52 | 47.83446 | 11.22464 | 94° | 80km/h | 8413m | 4.1m/s | -32.0°C | 63.1% | 351.6hPa | 2.7V | 00:00:00 | 00:00:00 | 00:00:00 | |
| NBG1-10 | 2026-09-01 05:05:51 | 47.83447 | 11.22434 | 94° | 82km/h | 8409m | 4.1m/s | -32.0°C | 62.4% | 351.9hPa | 2.7V | 00:00:00 | 00:36:41 | 00:00:00 | |
| DO3MHA-11 | 2026-09-01 05:05:50 | 47.83449 | 11.22404 | 94° | 80km/h | 8405m | 5.3m/s | -31.9°C | 61.9% | 352.1hPa | 2.7V | 00:00:00 | 00:36:40 | 00:00:00 | |
| OE5DRO-10 | 2026-09-01 05:05:46 | 47.83455 | 11.22286 | 96° | 80km/h | 8387m | 4.7m/s | -31.8°C | 61.2% | 352.9hPa | 2.9V | 03:24:00 | 00:00:00 | 00:00:00 | |
| DO3MHA-11 | 2026-09-01 05:05:40 | 47.83473 | 11.22106 | 96° | 80km/h | 8360m | 3.6m/s | -31.5°C | 59.7% | 354.3hPa | 2.9V | 03:24:00 | 00:36:30 | 00:00:00 | |
| DG1MJG | 2026-09-01 05:05:39 | 47.83473 | 11.22106 | 96° | 82km/h | 8360m | 3.7m/s | -31.6°C | 54.8% | 354.3hPa | 2.9V | 03:25:00 | 00:00:00 | 00:00:00 | |
| DB0UT-7 | 2026-09-01 05:05:33 | 47.83490 | 11.21899 | 96° | 82km/h | 8327m | 5.4m/s | -31.3°C | 57.3% | 355.9hPa | 2.9V | 00:00:00 | 00:00:00 | 00:00:00 | |
| DG1MFX-10 | 2026-09-01 05:05:31 | 47.83492 | 11.21868 | 97° | 80km/h | 8321m | 6.9m/s | -31.3°C | 52.6% | 356.3hPa | 2.9V | 03:25:00 | 00:00:00 | 00:00:00 | |
| DO3MHA-11 | 2026-09-01 05:05:30 | 47.83496 | 11.21807 | 98° | 84km/h | 8310m | 5.4m/s | -31.1°C | 57.6% | 356.8hPa | 2.9V | 00:00:00 | 00:36:20 | 00:00:00 | |
| OE5DRO-10 | 2026-09-01 05:05:27 | 47.83505 | 11.21716 | 99° | 82km/h | 8296m | 4.1m/s | -31.0°C | 58.4% | 357.5hPa | 2.9V | 00:00:00 | 00:00:00 | 00:00:00 | |
| DL6DJ-15 | 2026-09-01 05:05:25 | 47.83511 | 11.21654 | 97° | 82km/h | 8288m | 4.7m/s | -31.0°C | 54.8% | 358.0hPa | 2.9V | 00:00:00 | 00:00:00 | 00:00:00 | |
| OE5DXL-15 | 2026-09-01 05:05:22 | 47.83520 | 11.21560 | 98° | 82km/h | 8276m | 3.8m/s | -30.8°C | 61.0% | 358.5hPa | 2.9V | 00:00:00 | 00:00:00 | 00:00:00 | |
| DO3MHA-11 | 2026-09-01 05:05:20 | 47.83525 | 11.21497 | 98° | 82km/h | 8267m | 3.4m/s | -30.7°C | 61.8% | 358.9hPa | 2.9V | 00:00:00 | 00:36:10 | 00:00:00 | |
| DF3TZ-5 | 2026-09-01 05:05:19 | 47.83528 | 11.21466 | 97° | 82km/h | 8263m | 4.7m/s | -30.8°C | 56.8% | 359.1hPa | 2.9V | 00:00:00 | 00:00:00 | 00:00:00 | |
| NBG1-10 | 2026-09-01 05:05:18 | 47.83531 | 11.21434 | 98° | 82km/h | 8259m | 3.8m/s | -30.7°C | 61.2% | 359.3hPa | 2.9V | 00:00:00 | 00:36:08 | 00:00:00 | |
| DO3MHA-11 | 2026-09-01 05:05:10 | 47.83555 | 11.21191 | 98° | 84km/h | 8227m | 5.4m/s | -30.5°C | 64.4% | 360.9hPa | 2.9V | 00:00:00 | 00:36:00 | 00:00:00 | |
| DG1MJG | 2026-09-01 05:05:09 | 47.83555 | 11.21191 | 99° | 84km/h | 8227m | 5.4m/s | -30.5°C | 59.5% | 361.0hPa | 2.9V | 03:25:00 | 00:00:00 | 00:00:00 | |
| OE5DRO-10 | 2026-09-01 05:05:08 | 47.83560 | 11.21128 | 97° | 82km/h | 8218m | 5.2m/s | -30.4°C | 66.7% | 361.4hPa | 2.9V | 00:00:00 | 00:00:00 | 00:00:00 | |
| DB0UT-7 | 2026-09-01 05:05:03 | 47.83569 | 11.20971 | 96° | 80km/h | 8198m | 1.8m/s | -30.3°C | 65.5% | 362.4hPa | 2.7V | 03:25:00 | 00:35:53 | 00:00:00 | |
| DL6DJ-15 | 2026-09-01 05:04:54 | 47.83589 | 11.20699 | 95° | 82km/h | 8162m | 4.6m/s | -30.0°C | 60.7% | 364.3hPa | 2.7V | 00:00:00 | 00:00:00 | 00:00:00 | |
| DF3TZ-5 | 2026-09-01 05:04:48 | 47.83600 | 11.20520 | 95° | 80km/h | 8137m | 4.6m/s | -29.8°C | 59.7% | 365.6hPa | 2.7V | 00:00:00 | 00:00:00 | 00:00:00 | |
| NBG1-10 | 2026-09-01 05:04:45 | 47.83605 | 11.20429 | 94° | 78km/h | 8124m | 4.1m/s | -29.6°C | 64.2% | 366.2hPa | 2.7V | 00:00:00 | 00:35:35 | 00:00:00 | |
| DO3MHA-12 | 2026-09-01 05:04:41 | 47.83611 | 11.20277 | 94° | 80km/h | 8106m | 4.6m/s | -29.5°C | 66.3% | 367.1hPa | 2.7V | 00:00:00 | 00:35:30 | 00:00:00 | |
| DO3MHA-11 | 2026-09-01 05:04:40 | 47.83611 | 11.20277 | 94° | 80km/h | 8106m | 4.6m/s | -29.5°C | 66.3% | 367.1hPa | 2.9V | 00:00:00 | 00:35:30 | 00:00:00 | |
| DG1MJG | 2026-09-01 05:04:39 | 47.83612 | 11.20247 | 94° | 82km/h | 8102m | 3.8m/s | -29.5°C | 61.8% | 367.4hPa | 2.9V | 03:26:00 | 00:00:00 | 00:00:00 | |
| DB0UT-7 | 2026-09-01 05:04:33 | 47.83618 | 11.20068 | 93° | 77km/h | 8077m | 3.8m/s | -29.2°C | 66.1% | 368.6hPa | 2.9V | 00:00:00 | 00:00:00 | 00:00:00 | |
| DO3MHA-11 | 2026-09-01 05:04:30 | 47.83621 | 11.19980 | 93° | 78km/h | 8065m | 4.2m/s | -29.1°C | 66.6% | 369.2hPa | 2.9V | 00:00:00 | 00:35:20 | 00:00:00 | |
| DG1MFX-10 | 2026-09-01 05:04:29 | 47.83621 | 11.19980 | 94° | 77km/h | 8065m | 4.2m/s | -29.2°C | 61.7% | 369.3hPa | 2.9V | 03:26:00 | 00:00:00 | 00:00:00 | |
| DL6DJ-15 | 2026-09-01 05:04:23 | 47.83626 | 11.19774 | 92° | 77km/h | 8036m | 4.3m/s | -28.9°C | 61.5% | 370.8hPa | 2.9V | 00:00:00 | 00:00:00 | 00:00:00 | |
| OE5DXL-15 | 2026-09-01 05:04:22 | 47.83627 | 11.19745 | 93° | 77km/h | 8032m | 3.7m/s | -28.8°C | 66.5% | 370.9hPa | 2.9V | 03:25:00 | 00:00:00 | 00:00:00 | |
| DO3MHA-11 | 2026-09-01 05:04:20 | 47.83629 | 11.19687 | 93° | 77km/h | 8024m | 3.9m/s | -28.8°C | 65.8% | 371.3hPa | 2.9V | 03:25:00 | 00:35:10 | 00:00:00 | |
| DF3TZ-5 | 2026-09-01 05:04:17 | 47.83633 | 11.19572 | 93° | 77km/h | 8007m | 4.2m/s | -28.6°C | 59.9% | 372.3hPa | 2.9V | 00:00:00 | 00:00:00 | 00:00:00 | |
| NBG1-10 | 2026-09-01 05:04:12 | 47.83636 | 11.19456 | 92° | 77km/h | 7990m | 2.9m/s | -28.4°C | 64.3% | 373.0hPa | 2.9V | 03:25:00 | 00:35:02 | 00:00:00 | |
| OE5DRO-10 | 2026-09-01 05:04:11 | 47.83637 | 11.19427 | 93° | 77km/h | 7987m | 4.0m/s | -28.4°C | 64.0% | 373.2hPa | 2.9V | 00:00:00 | 00:00:00 | 00:00:00 | |
| DO3MHA-11 | 2026-09-01 05:04:10 | 47.83638 | 11.19398 | 94° | 77km/h | 7983m | 3.6m/s | -28.4°C | 63.9% | 373.4hPa | 2.9V | 00:00:00 | 00:35:00 | 00:00:00 | |
| DG1MFX-10 | 2026-09-01 05:04:08 | 47.83639 | 11.19370 | 95° | 77km/h | 7980m | 2.9m/s | -28.4°C | 59.1% | 373.7hPa | 2.9V | 03:26:00 | 00:00:00 | 00:00:00 | |
| DB0UT-7 | 2026-09-01 05:04:03 | 47.83650 | 11.19199 | 96° | 77km/h | 7958m | 3.3m/s | -28.1°C | 63.4% | 374.8hPa | 2.9V | 00:00:00 | 00:34:53 | 00:00:00 | |
| DL6DJ-15 | 2026-09-01 05:03:52 | 47.83666 | 11.18882 | 93° | 75km/h | 7916m | 4.0m/s | -27.9°C | 49.2% | 377.0hPa | 2.9V | 00:00:00 | 00:00:00 | 00:00:00 | |
| DF3TZ-5 | 2026-09-01 05:03:46 | 47.83670 | 11.18681 | 91° | 75km/h | 7887m | 3.6m/s | -27.6°C | 44.6% | 378.6hPa | 2.9V | 00:00:00 | 00:00:00 | 00:00:00 | |
| DO3MHA-11 | 2026-09-01 05:03:40 | 47.83673 | 11.18535 | 93° | 78km/h | 7867m | 4.9m/s | -27.4°C | 47.7% | 379.5hPa | 2.9V | 03:26:00 | 00:34:30 | 00:00:00 | |
| NBG1-10 | 2026-09-01 05:03:39 | 47.83674 | 11.18506 | 93° | 77km/h | 7862m | 4.0m/s | -27.4°C | 47.5% | 379.8hPa | 2.9V | 00:00:00 | 00:34:29 | 00:00:00 | |
| DG1MJG | 2026-09-01 05:03:37 | 47.83675 | 11.18477 | 94° | 77km/h | 7858m | 4.6m/s | -27.4°C | 42.7% | 380.0hPa | 2.9V | 03:26:00 | 00:00:00 | 00:00:00 | |
| DB0UT-7 | 2026-09-01 05:03:33 | 47.83678 | 11.18330 | 90° | 75km/h | 7840m | 3.7m/s | -27.2°C | 41.6% | 381.0hPa | 2.9V | 00:00:00 | 00:00:00 | 00:00:00 | |
| DO3MHA-11 | 2026-09-01 05:03:30 | 47.83677 | 11.18242 | 91° | 75km/h | 7827m | 4.5m/s | -27.1°C | 45.4% | 381.6hPa | 2.9V | 00:00:00 | 00:34:20 | 00:00:00 | |
| DG1MFX-10 | 2026-09-01 05:03:26 | 47.83678 | 11.18156 | 93° | 77km/h | 7816m | 3.6m/s | -27.1°C | 43.8% | 382.2hPa | 2.9V | 03:26:00 | 00:00:00 | 00:00:00 | |
| OE5DXL-15 | 2026-09-01 05:03:22 | 47.83682 | 11.18014 | 91° | 75km/h | 7796m | 4.7m/s | -26.9°C | 47.1% | 383.3hPa | 2.9V | 00:00:00 | 00:00:00 | 00:00:00 | |
| DL6DJ-15 | 2026-09-01 05:03:21 | 47.83682 | 11.17986 | 89° | 75km/h | 7791m | 3.6m/s | -26.9°C | 43.9% | 383.5hPa | 2.9V | 00:00:00 | 00:00:00 | 00:00:00 | |
| DO3MHA-11 | 2026-09-01 05:03:20 | 47.83681 | 11.17957 | 90° | 75km/h | 7787m | 4.8m/s | -26.8°C | 47.3% | 383.7hPa | 2.9V | 00:00:00 | 00:34:10 | 00:00:00 | |
| DF3TZ-5 | 2026-09-01 05:03:15 | 47.83680 | 11.17789 | 90° | 73km/h | 7765m | 3.9m/s | -26.7°C | 45.6% | 384.9hPa | 2.7V | 00:00:00 | 00:00:00 | 00:00:00 | |
| OE5DRO-10 | 2026-09-01 05:03:14 | 47.83680 | 11.17788 | 91° | 73km/h | 7765m | 3.9m/s | -26.6°C | 49.2% | 384.9hPa | 2.7V | 03:26:00 | 00:00:00 | 00:00:00 | |
| DO3MHA-11 | 2026-09-01 05:03:10 | 47.83682 | 11.17676 | 92° | 73km/h | 7750m | 3.3m/s | -26.5°C | 48.4% | 385.7hPa | 2.9V | 00:00:00 | 00:34:00 | 00:00:00 | |
| NBG1-10 | 2026-09-01 05:03:06 | 47.83684 | 11.17564 | 93° | 73km/h | 7733m | 3.5m/s | -26.3°C | 47.3% | 386.6hPa | 2.9V | 00:00:00 | 00:33:56 | 00:00:00 | |
| DB0UT-7 | 2026-09-01 05:03:03 | 47.83686 | 11.17482 | 93° | 73km/h | 7722m | 3.2m/s | -26.2°C | 47.3% | 387.2hPa | 2.9V | 03:27:00 | 00:33:53 | 00:00:00 | |
| DL6DJ-15 | 2026-09-01 05:02:50 | 47.83694 | 11.17121 | 93° | 75km/h | 7671m | 3.3m/s | -25.8°C | 49.2% | 390.1hPa | 2.9V | 00:00:00 | 00:00:00 | 00:00:00 | |
| DG1MFX-10 | 2026-09-01 05:02:45 | 47.83697 | 11.17010 | 92° | 73km/h | 7654m | 3.9m/s | -25.7°C | 48.1% | 390.9hPa | 2.9V | 03:27:00 | 00:00:00 | 00:00:00 | |
| DF3TZ-5 | 2026-09-01 05:02:44 | 47.83698 | 11.16928 | 90° | 73km/h | 7642m | 4.0m/s | -25.6°C | 47.2% | 391.6hPa | 2.9V | 00:00:00 | 00:00:00 | 00:00:00 | |
| DO3MHA-11 | 2026-09-01 05:02:40 | 47.83699 | 11.16846 | 92° | 73km/h | 7631m | 3.7m/s | -25.4°C | 48.5% | 392.2hPa | 2.9V | 00:00:00 | 00:33:30 | 00:00:00 | |
| OE5DRO-10 | 2026-09-01 05:02:36 | 47.83700 | 11.16737 | 91° | 75km/h | 7615m | 4.6m/s | -25.3°C | 46.6% | 393.0hPa | 2.9V | 00:00:00 | 00:00:00 | 00:00:00 | |
| DG1MJG | 2026-09-01 05:02:35 | 47.83700 | 11.16737 | 91° | 73km/h | 7615m | 4.6m/s | -25.3°C | 43.3% | 393.0hPa | 2.9V | 03:27:00 | 00:00:00 | 00:00:00 | |
| DH7VM-15 | 2026-09-01 05:02:33 | 47.83701 | 11.16682 | 92° | 73km/h | 7607m | 4.6m/s | 0°C | 0% | 0hPa | 2.9V | 00:00:00 | 00:00:00 | 00:00:00 | |
| DG1MFX-10 | 2026-09-01 05:02:24 | 47.83707 | 11.16433 | 95° | 73km/h | 7572m | 3.7m/s | -25.0°C | 42.1% | 395.3hPa | 2.9V | 03:27:00 | 00:00:00 | 00:00:00 | |
| OE5DXL-15 | 2026-09-01 05:02:22 | 47.83711 | 11.16350 | 94° | 75km/h | 7560m | 4.2m/s | -24.8°C | 39.0% | 396.1hPa | 2.9V | 03:27:00 | 00:00:00 | 00:00:00 | |
| DO3MHA-11 | 2026-09-01 05:02:20 | 47.83712 | 11.16294 | 92° | 77km/h | 7552m | 3.9m/s | -24.7°C | 37.0% | 396.5hPa | 2.7V | 03:27:00 | 00:33:10 | 00:00:00 | |
| DL6DJ-15 | 2026-09-01 05:02:19 | 47.83713 | 11.16265 | 91° | 77km/h | 7548m | 3.1m/s | -24.8°C | 33.5% | 396.7hPa | 2.9V | 00:00:00 | 00:00:00 | 00:00:00 | |
| OE5DRO-10 | 2026-09-01 05:02:17 | 47.83713 | 11.16206 | 91° | 75km/h | 7542m | 3.0m/s | -24.6°C | 36.1% | 397.0hPa | 2.9V | 00:00:00 | 00:00:00 | 00:00:00 | |
| DF3TZ-5 | 2026-09-01 05:02:13 | 47.83715 | 11.16063 | 91° | 73km/h | 7522m | 4.7m/s | -24.5°C | -1.0% | 398.1hPa | 2.9V | 00:00:00 | 00:00:00 | 00:00:00 | |
| DO3MHA-11 | 2026-09-01 05:02:10 | 47.83717 | 11.16008 | 94° | 73km/h | 7514m | 3.9m/s | -24.4°C | 43.1% | 398.5hPa | 2.9V | 00:00:00 | 00:33:00 | 00:00:00 | |
| DG1MFX-10 | 2026-09-01 05:02:04 | 47.83718 | 11.15845 | 89° | 75km/h | 7491m | 3.2m/s | -24.3°C | 34.4% | 399.8hPa | 2.9V | 03:28:00 | 00:00:00 | 00:00:00 | |
| DB0UT-7 | 2026-09-01 05:02:03 | 47.83718 | 11.15817 | 90° | 73km/h | 7487m | 4.9m/s | -24.3°C | 36.7% | 400.0hPa | 2.9V | 00:00:00 | 00:32:53 | 00:00:00 | |
| DL6DJ-15 | 2026-09-01 05:01:48 | 47.83721 | 11.15379 | 89° | 71km/h | 7425m | 4.8m/s | -23.7°C | 32.9% | 403.5hPa | 2.9V | 00:00:00 | 00:00:00 | 00:00:00 | |
| DF3TZ-5 | 2026-09-01 05:01:42 | 47.83721 | 11.15217 | 89° | 71km/h | 7398m | 5.0m/s | -23.5°C | -1.0% | -1.0hPa | 2.9V | 00:00:00 | 00:00:00 | 00:00:00 | |
| DO3MHA-11 | 2026-09-01 05:01:40 | 47.83721 | 11.15190 | 91° | 73km/h | 7393m | 4.1m/s | -23.4°C | 34.6% | 405.2hPa | 2.9V | 03:28:00 | 00:32:30 | 00:00:00 | |
| OE5DRO-10 | 2026-09-01 05:01:39 | 47.83721 | 11.15164 | 91° | 73km/h | 7389m | 4.1m/s | -23.3°C | 34.5% | 405.4hPa | 2.9V | 00:00:00 | 00:00:00 | 00:00:00 | |
| DB0UT-7 | 2026-09-01 05:01:33 | 47.83725 | 11.15000 | 93° | 71km/h | 7365m | 3.6m/s | -23.1°C | 32.8% | 406.8hPa | 2.9V | 00:00:00 | 00:00:00 | 00:00:00 | |
| DO3MHA-11 | 2026-09-01 05:01:30 | 47.83728 | 11.14918 | 92° | 73km/h | 7353m | 4.7m/s | -23.0°C | 32.0% | 407.5hPa | 2.9V | 00:00:00 | 00:32:20 | 00:00:00 | |
| NBG1-10 | 2026-09-01 05:01:24 | 47.83731 | 11.14754 | 94° | 71km/h | 7330m | 3.8m/s | -22.8°C | 26.8% | 408.7hPa | 2.9V | 00:00:00 | 00:32:14 | 00:00:00 | |
| OE5DXL-15 | 2026-09-01 05:01:22 | 47.83734 | 11.14698 | 95° | 71km/h | 7323m | 3.6m/s | -22.8°C | 24.4% | 409.1hPa | 2.9V | 00:00:00 | 00:00:00 | 00:00:00 | |
| DO3MHA-11 | 2026-09-01 05:01:20 | 47.83737 | 11.14642 | 96° | 69km/h | 7315m | 3.7m/s | -22.7°C | 22.7% | 409.6hPa | 2.9V | 00:00:00 | 00:32:10 | 00:00:00 | |
| DL6DJ-15 | 2026-09-01 05:01:17 | 47.83743 | 11.14508 | 92° | 69km/h | 7297m | 3.5m/s | -22.6°C | 20.7% | 410.6hPa | 2.9V | 00:00:00 | 00:00:00 | 00:00:00 | |
| DO3MHA-11 | 2026-09-01 05:01:10 | 47.83747 | 11.14380 | 95° | 71km/h | 7277m | 3.7m/s | -22.4°C | 23.7% | 411.8hPa | 2.9V | 00:00:00 | 00:32:00 | 00:00:00 | |
| DB0UT-7 | 2026-09-01 05:01:03 | 47.83759 | 11.14194 | 95° | 71km/h | 7245m | 4.4m/s | -22.1°C | 26.4% | 413.5hPa | 2.9V | 03:29:00 | 00:31:53 | 00:00:00 | |
| DG1MFX-10 | 2026-09-01 05:01:02 | 47.83759 | 11.14194 | 96° | 71km/h | 7245m | 4.5m/s | -22.2°C | 24.5% | 413.5hPa | 2.9V | 03:29:00 | 00:00:00 | 00:00:00 | |
| DL6DJ-15 | 2026-09-01 05:00:46 | 47.83782 | 11.13720 | 94° | 75km/h | 7175m | 3.0m/s | -21.6°C | 22.4% | 417.3hPa | 2.9V | 00:00:00 | 00:00:00 | 00:00:00 | |
| DH7VM-15 | 2026-09-01 05:00:43 | 47.83784 | 11.13692 | 97° | 77km/h | 7171m | 4.6m/s | 0°C | 0% | 0hPa | 2.9V | 00:00:00 | 00:00:00 | 00:00:00 | |
| OE5DRO-10 | 2026-09-01 05:00:42 | 47.83788 | 11.13634 | 96° | 73km/h | 7164m | 3.8m/s | -21.5°C | 23.7% | 417.9hPa | 2.9V | 03:29:00 | 00:00:00 | 00:00:00 | |
| DG1MFX-10 | 2026-09-01 05:00:41 | 47.83788 | 11.13634 | 97° | 77km/h | 7164m | 3.8m/s | -21.5°C | 22.0% | 418.0hPa | 2.9V | 03:29:00 | 00:00:00 | 00:00:00 | |
| DO3MHA-12 | 2026-09-01 05:00:40 | 47.83791 | 11.13577 | 93° | 73km/h | 7157m | 3.5m/s | -21.4°C | 23.6% | 418.3hPa | 2.9V | 00:00:00 | 00:31:30 | 00:00:00 | |
| DG1MJG | 2026-09-01 05:00:33 | 47.83792 | 11.13414 | 93° | 69km/h | 7134m | 3.1m/s | -21.2°C | 21.9% | 419.8hPa | 2.9V | 03:30:00 | 00:00:00 | 00:00:00 | |
| DO3MHA-11 | 2026-09-01 05:00:30 | 47.83793 | 11.13306 | 91° | 73km/h | 7119m | 4.3m/s | -21.1°C | 21.7% | 420.5hPa | 2.9V | 00:00:00 | 00:31:20 | 00:00:00 | |
| OE5DRO-10 | 2026-09-01 05:00:23 | 47.83792 | 11.13117 | 91° | 75km/h | 7093m | 4.2m/s | -20.9°C | 17.2% | 422.0hPa | 2.9V | 00:00:00 | 00:00:00 | 00:00:00 | |
| OE5DXL-15 | 2026-09-01 05:00:22 | 47.83792 | 11.13089 | 91° | 75km/h | 7089m | 3.3m/s | -20.8°C | 17.2% | 422.2hPa | 2.9V | 03:29:00 | 00:00:00 | 00:00:00 | |
| DO3MHA-12 | 2026-09-01 05:00:20 | 47.83793 | 11.13033 | 92° | 75km/h | 7081m | 3.0m/s | -20.8°C | 17.4% | 422.7hPa | 2.9V | 00:00:00 | 00:31:10 | 00:00:00 | |
| NBG1-10 | 2026-09-01 05:00:18 | 47.83793 | 11.12976 | 90° | 73km/h | 7073m | 3.8m/s | -20.7°C | 17.2% | 423.1hPa | 2.9V | 00:00:00 | 00:31:08 | 00:00:00 | |
| DL6DJ-15 | 2026-09-01 05:00:14 | 47.83790 | 11.12865 | 86° | 71km/h | 7057m | 4.3m/s | -20.6°C | 15.7% | 424.0hPa | 2.9V | 00:00:00 | 00:00:00 | 00:00:00 | |
| DO3MHA-11 | 2026-09-01 05:00:10 | 47.83788 | 11.12755 | 90° | 75km/h | 7044m | 3.0m/s | -20.4°C | 16.9% | 424.9hPa | 2.9V | 00:00:00 | 00:31:00 | 00:00:00 | |
| OE5DRO-10 | 2026-09-01 05:00:04 | 47.83787 | 11.12586 | 90° | 73km/h | 7020m | 3.3m/s | -20.2°C | 16.8% | 426.1hPa | 2.9V | 00:00:00 | 00:00:00 | 00:00:00 | |
| DO3MHA-12 | 2026-09-01 05:00:00 | 47.83786 | 11.12473 | 89° | 73km/h | 7005m | 3.0m/s | -20.1°C | 17.4% | 427.0hPa | 2.9V | 00:00:00 | 00:30:50 | 00:00:00 | |
| OE5DXL-15 | 2026-09-01 04:59:52 | 47.83782 | 11.12253 | 89° | 73km/h | 6974m | 4.0m/s | -19.9°C | 26.9% | 428.8hPa | 2.9V | 00:00:00 | 00:00:00 | 00:00:00 | |
| DO3MHA-11 | 2026-09-01 04:59:50 | 47.83781 | 11.12197 | 89° | 73km/h | 6967m | 3.8m/s | -19.8°C | 26.8% | 429.2hPa | 2.9V | 00:00:00 | 00:30:40 | 00:00:00 | |
| OE5DRO-10 | 2026-09-01 04:59:45 | 47.83780 | 11.12060 | 90° | 73km/h | 6948m | 3.1m/s | -19.7°C | 25.5% | 430.4hPa | 2.9V | 00:00:00 | 00:00:00 | 00:00:00 | |
| NBG1-10 | 2026-09-01 04:59:44 | 47.83779 | 11.12032 | 90° | 73km/h | 6944m | 4.4m/s | -19.7°C | 25.6% | 430.6hPa | 2.9V | 03:30:00 | 00:30:34 | 00:00:00 | |
| DL6DJ-15 | 2026-09-01 04:59:43 | 47.83779 | 11.12005 | 89° | 73km/h | 6940m | 2.7m/s | -19.7°C | 24.0% | 430.8hPa | 2.9V | 00:00:00 | 00:00:00 | 00:00:00 | |
| DO3MHA-11 | 2026-09-01 04:59:40 | 47.83780 | 11.11920 | 93° | 75km/h | 6930m | 4.3m/s | -19.6°C | 25.4% | 431.5hPa | 2.9V | 03:30:00 | 00:30:30 | 00:00:00 | |
| DG1MFX-10 | 2026-09-01 04:59:38 | 47.83781 | 11.11891 | 93° | 77km/h | 6926m | 3.4m/s | -19.6°C | 22.7% | 431.7hPa | 2.9V | 03:31:00 | 00:00:00 | 00:00:00 | |
| DB0UT-7 | 2026-09-01 04:59:33 | 47.83785 | 11.11722 | 91° | 71km/h | 6904m | 3.8m/s | -19.4°C | 24.2% | 433.0hPa | 2.9V | 00:00:00 | 00:00:00 | 00:00:00 | |
| DG1MJG | 2026-09-01 04:59:32 | 47.83785 | 11.11722 | 92° | 73km/h | 6904m | 3.9m/s | -19.4°C | 22.6% | 433.1hPa | 2.9V | 03:31:00 | 00:00:00 | 00:00:00 | |
| DO3MHA-11 | 2026-09-01 04:59:30 | 47.83785 | 11.11641 | 91° | 71km/h | 6892m | 4.1m/s | -19.3°C | 23.9% | 433.6hPa | 2.9V | 00:00:00 | 00:30:20 | 00:00:00 | |
| OE5DRO-10 | 2026-09-01 04:59:26 | 47.83786 | 11.11534 | 92° | 71km/h | 6877m | 5.3m/s | -19.1°C | 23.4% | 434.5hPa | 2.9V | 03:30:00 | 00:00:00 | 00:00:00 | |
| OE5DXL-15 | 2026-09-01 04:59:22 | 47.83788 | 11.11427 | 93° | 71km/h | 6861m | 3.7m/s | -19.0°C | 23.2% | 435.6hPa | 2.9V | 00:00:00 | 00:00:00 | 00:00:00 | |
| DO3MHA-11 | 2026-09-01 04:59:20 | 47.83789 | 11.11374 | 91° | 69km/h | 6854m | 3.5m/s | -18.9°C | 23.0% | 436.0hPa | 2.9V | 00:00:00 | 00:30:10 | 00:00:00 | |
| DG1MFX-10 | 2026-09-01 04:59:17 | 47.83790 | 11.11319 | 93° | 71km/h | 6847m | 3.6m/s | -18.9°C | 21.2% | 436.5hPa | 2.9V | 03:31:00 | 00:00:00 | 00:00:00 | |
| DL6DJ-15 | 2026-09-01 04:59:12 | 47.83795 | 11.11163 | 91° | 68km/h | 6823m | 3.2m/s | -18.7°C | 20.4% | 437.8hPa | 2.9V | 00:00:00 | 00:00:00 | 00:00:00 | |
| NBG1-10 | 2026-09-01 04:59:11 | 47.83795 | 11.11137 | 93° | 71km/h | 6819m | 4.5m/s | -18.6°C | 21.5% | 438.0hPa | 2.9V | 00:00:00 | 00:30:01 | 00:00:00 | |
| DO3MHA-11 | 2026-09-01 04:59:10 | 47.83796 | 11.11111 | 93° | 73km/h | 6815m | 3.4m/s | -18.5°C | 21.5% | 438.2hPa | 2.9V | 00:00:00 | 00:30:00 | 00:00:00 | |
| OE5DRO-10 | 2026-09-01 04:59:07 | 47.83797 | 11.11029 | 92° | 71km/h | 6803m | 4.9m/s | -18.5°C | 21.3% | 438.9hPa | 2.9V | 00:00:00 | 00:00:00 | 00:00:00 | |
| DB0UT-7 | 2026-09-01 04:59:03 | 47.83801 | 11.10918 | 96° | 71km/h | 6788m | 3.9m/s | -18.4°C | 26.8% | 439.7hPa | 2.9V | 03:31:00 | 00:29:53 | 00:00:00 | |
| DG1MJG | 2026-09-01 04:59:02 | 47.83801 | 11.10918 | 96° | 71km/h | 6788m | 3.9m/s | -18.5°C | 25.1% | 439.8hPa | 2.9V | 03:31:00 | 00:00:00 | 00:00:00 | |
| DO3MHA-11 | 2026-09-01 04:59:00 | 47.83808 | 11.10838 | 98° | 71km/h | 6775m | 4.2m/s | -18.4°C | 27.0% | 440.4hPa | 2.9V | 03:31:00 | 00:29:50 | 00:00:00 | |
| DG1MFX-10 | 2026-09-01 04:58:57 | 47.83813 | 11.10784 | 98° | 75km/h | 6767m | 5.8m/s | -18.3°C | 24.8% | 441.0hPa | 2.9V | 03:31:00 | 00:00:00 | 00:00:00 | |
| OE5DXL-15 | 2026-09-01 04:58:52 | 47.83817 | 11.10622 | 91° | 69km/h | 6740m | 4.2m/s | -18.1°C | 24.6% | 442.6hPa | 2.9V | 00:00:00 | 00:00:00 | 00:00:00 | |
| DO3MHA-11 | 2026-09-01 04:58:50 | 47.83819 | 11.10570 | 94° | 71km/h | 6732m | 4.0m/s | -18.0°C | 26.5% | 443.0hPa | 2.9V | 00:00:00 | 00:29:40 | 00:00:00 | |
| OE5DRO-10 | 2026-09-01 04:58:48 | 47.83821 | 11.10518 | 95° | 69km/h | 6724m | 3.3m/s | -18.0°C | 28.3% | 443.4hPa | 2.9V | 00:00:00 | 00:00:00 | 00:00:00 | |
| DL6DJ-15 | 2026-09-01 04:58:41 | 47.83828 | 11.10332 | 92° | 68km/h | 6694m | 5.0m/s | -17.8°C | 26.0% | 445.2hPa | 2.9V | 00:00:00 | 00:00:00 | 00:00:00 | |
| DO3MHA-11 | 2026-09-01 04:58:40 | 47.83828 | 11.10306 | 93° | 69km/h | 6690m | 3.0m/s | -17.7°C | 27.7% | 445.4hPa | 2.9V | 00:00:00 | 00:29:30 | 00:00:00 | |
| DG1MFX-10 | 2026-09-01 04:58:36 | 47.83830 | 11.10229 | 91° | 68km/h | 6679m | 4.7m/s | -17.7°C | 26.5% | 446.3hPa | 2.9V | 00:00:00 | 00:00:00 | 00:00:00 | |
| DB0UT-7 | 2026-09-01 04:58:33 | 47.83830 | 11.10125 | 92° | 69km/h | 6665m | 3.0m/s | 0°C | 0% | 0hPa | 2.9V | 00:00:00 | 00:00:00 | 00:00:00 | |
| DG1MJG | 2026-09-01 04:58:32 | 47.83830 | 11.10125 | 92° | 69km/h | 6665m | 3.1m/s | -17.6°C | 28.2% | 447.0hPa | 2.9V | 03:31:00 | 00:00:00 | 00:00:00 | |
| DO3MHA-11 | 2026-09-01 04:58:30 | 47.83831 | 11.10046 | 91° | 71km/h | 6653m | 4.7m/s | -17.5°C | 33.8% | 447.8hPa | 2.9V | 00:00:00 | 00:29:20 | 00:00:00 | |
| OE5DRO-10 | 2026-09-01 04:58:29 | 47.83831 | 11.10020 | 91° | 71km/h | 6649m | 3.7m/s | -17.5°C | 34.0% | 447.9hPa | 2.9V | 00:00:00 | 00:00:00 | 00:00:00 | |
| OE5DXL-15 | 2026-09-01 04:58:22 | 47.83830 | 11.09834 | 90° | 69km/h | 6621m | 3.6m/s | -17.3°C | 34.5% | 449.7hPa | 2.7V | 03:31:00 | 00:00:00 | 00:00:00 | |
| DO3MHA-11 | 2026-09-01 04:58:20 | 47.83829 | 11.09780 | 89° | 69km/h | 6613m | 3.8m/s | -17.2°C | 34.3% | 450.2hPa | 2.7V | 03:31:00 | 00:29:10 | 00:00:00 | |
| DG1MFX-10 | 2026-09-01 04:58:16 | 47.83828 | 11.09702 | 90° | 69km/h | 6600m | 4.6m/s | -17.1°C | 32.0% | 450.9hPa | 2.9V | 00:00:00 | 00:00:00 | 00:00:00 | |
| OE5DRO-10 | 2026-09-01 04:58:10 | 47.83830 | 11.09517 | 90° | 69km/h | 6573m | 3.5m/s | -16.8°C | 34.1% | 452.5hPa | 2.9V | 03:31:00 | 00:00:00 | 00:00:00 | |
| NBG1-10 | 2026-09-01 04:58:05 | 47.83827 | 11.09388 | 87° | 69km/h | 6554m | 4.7m/s | -16.7°C | 34.4% | 453.7hPa | 2.9V | 00:00:00 | 00:28:55 | 00:00:00 | |
| DB0UT-7 | 2026-09-01 04:58:03 | 47.83825 | 11.09337 | 88° | 68km/h | 6546m | 4.5m/s | 0°C | 0% | 0hPa | 2.9V | 00:00:00 | 00:28:53 | 00:00:00 | |
| DG1MJG | 2026-09-01 04:58:01 | 47.83824 | 11.09311 | 89° | 69km/h | 6542m | 2.8m/s | -16.6°C | 32.8% | 454.4hPa | 2.9V | 03:32:00 | 00:00:00 | 00:00:00 | |
| DO3MHA-12 | 2026-09-01 04:58:00 | 47.83823 | 11.09258 | 90° | 71km/h | 6536m | 3.0m/s | -16.5°C | 34.7% | 454.8hPa | 2.9V | 00:00:00 | 00:28:50 | 00:00:00 | |
| OE5DXL-15 | 2026-09-01 04:57:52 | 47.83822 | 11.09044 | 89° | 69km/h | 6504m | 4.0m/s | -16.2°C | 34.3% | 456.7hPa | 2.9V | 00:00:00 | 00:00:00 | 00:00:00 | |
| OE5DRO-10 | 2026-09-01 04:57:51 | 47.83822 | 11.09019 | 89° | 69km/h | 6500m | 4.2m/s | -16.2°C | 34.2% | 457.0hPa | 2.9V | 00:00:00 | 00:00:00 | 00:00:00 | |
| DO3MHA-11 | 2026-09-01 04:57:50 | 47.83821 | 11.08994 | 88° | 69km/h | 6496m | 3.2m/s | -16.1°C | 34.2% | 457.2hPa | 2.9V | 00:00:00 | 00:28:40 | 00:00:00 | |
| DG1MFX-10 | 2026-09-01 04:57:45 | 47.83818 | 11.08892 | 90° | 68km/h | 6482m | 5.4m/s | -16.1°C | 30.8% | 458.2hPa | 2.9V | 03:32:00 | 00:00:00 | 00:00:00 | |
| DO3MHA-11 | 2026-09-01 04:57:40 | 47.83813 | 11.08734 | 85° | 68km/h | 6455m | 2.8m/s | -15.9°C | 32.5% | 459.7hPa | 2.9V | 03:32:00 | 00:28:30 | 00:00:00 | |
| DL6DJ-15 | 2026-09-01 04:57:39 | 47.83811 | 11.08708 | 85° | 69km/h | 6452m | 4.1m/s | -15.9°C | 30.5% | 459.9hPa | 2.9V | 00:00:00 | 00:00:00 | 00:00:00 | |
| NBG1-10 | 2026-09-01 04:57:32 | 47.83803 | 11.08530 | 89° | 69km/h | 6426m | 3.3m/s | -15.6°C | 31.3% | 461.5hPa | 2.9V | 03:32:00 | 00:28:22 | 00:00:00 | |
| DO3MHA-11 | 2026-09-01 04:57:30 | 47.83802 | 11.08480 | 88° | 69km/h | 6419m | 2.9m/s | -15.6°C | 31.1% | 461.9hPa | 2.9V | 00:00:00 | 00:28:20 | 00:00:00 | |
| DG1MFX-10 | 2026-09-01 04:57:24 | 47.83796 | 11.08349 | 89° | 71km/h | 6399m | 4.0m/s | -15.5°C | 28.7% | 463.2hPa | 2.9V | 03:32:00 | 00:00:00 | 00:00:00 | |
| OE5DXL-15 | 2026-09-01 04:57:22 | 47.83795 | 11.08271 | 91° | 69km/h | 6387m | 3.0m/s | -15.3°C | 30.1% | 463.8hPa | 2.9V | 00:00:00 | 00:00:00 | 00:00:00 | |
| DO3MHA-12 | 2026-09-01 04:57:20 | 47.83795 | 11.08221 | 90° | 69km/h | 6380m | 4.5m/s | -15.2°C | 30.1% | 464.2hPa | 2.9V | 00:00:00 | 00:28:10 | 00:00:00 | |
| OE5DRO-10 | 2026-09-01 04:57:13 | 47.83792 | 11.08038 | 90° | 69km/h | 6350m | 3.6m/s | -15.1°C | 34.3% | 466.2hPa | 2.9V | 00:00:00 | 00:00:00 | 00:00:00 | |
| DO3MHA-12 | 2026-09-01 04:57:10 | 47.83794 | 11.07961 | 95° | 69km/h | 6338m | 3.0m/s | -15.0°C | 33.8% | 466.8hPa | 2.9V | 00:00:00 | 00:28:00 | 00:00:00 | |
| DL6DJ-15 | 2026-09-01 04:57:08 | 47.83798 | 11.07859 | 92° | 68km/h | 6323m | 3.6m/s | -15.0°C | 34.2% | 467.9hPa | 2.9V | 00:00:00 | 00:00:00 | 00:00:00 | |
| DG1MFX-10 | 2026-09-01 04:57:04 | 47.83799 | 11.07833 | 93° | 68km/h | 6319m | 4.2m/s | -14.9°C | 34.4% | 468.1hPa | 2.9V | 00:00:00 | 00:00:00 | 00:00:00 | |
| DO3MHA-11 | 2026-09-01 04:57:00 | 47.83798 | 11.07703 | 88° | 68km/h | 6301m | 3.3m/s | -14.8°C | 39.4% | 469.2hPa | 2.9V | 03:33:00 | 00:27:50 | 00:00:00 | |
| NBG1-10 | 2026-09-01 04:56:59 | 47.83797 | 11.07677 | 89° | 68km/h | 6297m | 3.3m/s | -14.8°C | 39.7% | 469.4hPa | 2.9V | 00:00:00 | 00:27:49 | 00:00:00 | |
| OE5DRO-10 | 2026-09-01 04:56:54 | 47.83798 | 11.07549 | 93° | 66km/h | 6279m | 3.5m/s | 0°C | 0% | 0hPa | 2.9V | 03:33:00 | 00:00:00 | 00:00:00 | |
| OE5DXL-15 | 2026-09-01 04:56:52 | 47.83799 | 11.07498 | 93° | 66km/h | 6272m | 3.3m/s | -14.6°C | 40.5% | 471.1hPa | 2.9V | 00:00:00 | 00:00:00 | 00:00:00 | |
| DO3MHA-11 | 2026-09-01 04:56:50 | 47.83801 | 11.07446 | 93° | 64km/h | 6263m | 3.7m/s | -14.6°C | 41.7% | 471.5hPa | 2.9V | 00:00:00 | 00:27:40 | 00:00:00 | |
| DG1MFX-10 | 2026-09-01 04:56:44 | 47.83806 | 11.07323 | 94° | 62km/h | 6243m | 5.2m/s | -14.4°C | 39.1% | 472.8hPa | 2.9V | 00:00:00 | 00:00:00 | 00:00:00 | |
| DB0UT-7 | 2026-09-01 04:56:38 | 47.83814 | 11.07153 | 95° | 66km/h | 6215m | 4.0m/s | 0°C | 0% | 0hPa | 2.9V | 00:00:00 | 00:00:00 | 00:00:00 | |
| OE5DRO-10 | 2026-09-01 04:56:35 | 47.83818 | 11.07076 | 92° | 66km/h | 6202m | 4.8m/s | 0°C | 0% | 0hPa | 2.9V | 00:00:00 | 00:00:00 | 00:00:00 | |
| DO3MHA-11 | 2026-09-01 04:56:30 | 47.83823 | 11.06949 | 97° | 64km/h | 6180m | 4.2m/s | -13.9°C | 39.7% | 476.6hPa | 2.9V | 00:00:00 | 00:27:20 | 00:00:00 | |
| DG1MJG | 2026-09-01 04:56:29 | 47.83823 | 11.06949 | 98° | 66km/h | 6180m | 4.3m/s | -14.0°C | 37.8% | 476.6hPa | 2.9V | 03:33:00 | 00:00:00 | 00:00:00 | |
| DG1MFX-10 | 2026-09-01 04:56:23 | 47.83833 | 11.06809 | 99° | 62km/h | 6153m | 3.3m/s | -13.9°C | 40.0% | 478.5hPa | 2.9V | 00:00:00 | 00:00:00 | 00:00:00 | |
| OE5DXL-15 | 2026-09-01 04:56:22 | 47.83838 | 11.06761 | 101° | 66km/h | 6145m | 3.9m/s | -13.8°C | 41.8% | 478.9hPa | 2.9V | 03:33:00 | 00:00:00 | 00:00:00 | |
| DO3MHA-11 | 2026-09-01 04:56:20 | 47.83845 | 11.06711 | 101° | 64km/h | 6137m | 4.4m/s | -13.7°C | 41.4% | 479.4hPa | 2.9V | 03:33:00 | 00:27:10 | 00:00:00 | |
| OE5DRO-10 | 2026-09-01 04:56:16 | 47.83856 | 11.06612 | 98° | 66km/h | 6121m | 4.8m/s | 0°C | 0% | 0hPa | 2.9V | 00:00:00 | 00:00:00 | 00:00:00 | |
| DO3MHA-11 | 2026-09-01 04:56:10 | 47.83869 | 11.06473 | 100° | 64km/h | 6097m | 3.3m/s | -13.4°C | 35.7% | 481.9hPa | 2.9V | 00:00:00 | 00:27:00 | 00:00:00 | |
| DB0UT-7 | 2026-09-01 04:56:08 | 47.83875 | 11.06426 | 102° | 66km/h | 6089m | 3.4m/s | 0°C | 0% | 0hPa | 2.9V | 00:00:00 | 00:26:58 | 00:00:00 | |
| DL6DJ-15 | 2026-09-01 04:56:06 | 47.83908 | 11.06054 | 96° | 64km/h | 6025m | 3.9m/s | -12.8°C | 32.4% | 486.5hPa | 2.9V | 00:00:00 | 00:00:00 | 00:00:00 | |
| DO3MHA-11 | 2026-09-01 04:56:00 | 47.83892 | 11.06231 | 96° | 68km/h | 6054m | 4.4m/s | -13.0°C | 36.1% | 484.7hPa | 2.9V | 00:00:00 | 00:26:50 | 00:00:00 | |
| DG1MFX-10 | 2026-09-01 04:55:59 | 47.83892 | 11.06231 | 97° | 68km/h | 6054m | 4.5m/s | -13.1°C | 34.4% | 484.8hPa | 2.9V | 00:00:00 | 00:00:00 | 00:00:00 | |
| DG1MJG | 2026-09-01 04:55:58 | 47.83894 | 11.06206 | 97° | 68km/h | 6049m | 5.1m/s | -13.0°C | 34.1% | 485.1hPa | 2.9V | 03:34:00 | 00:00:00 | 00:00:00 | |
| NBG1-10 | 2026-09-01 04:55:53 | 47.83908 | 11.06054 | 97° | 64km/h | 6025m | 3.8m/s | -12.8°C | 34.0% | 486.5hPa | 2.9V | 00:00:00 | 00:26:43 | 00:00:00 | |
| OE5DXL-15 | 2026-09-01 04:55:52 | 47.83910 | 11.06030 | 95° | 64km/h | 6021m | 4.2m/s | -12.8°C | 33.4% | 486.6hPa | 2.9V | 00:00:00 | 00:00:00 | 00:00:00 | |
| DO3MHA-11 | 2026-09-01 04:55:50 | 47.83912 | 11.05982 | 95° | 66km/h | 6012m | 3.4m/s | -12.7°C | 34.0% | 487.3hPa | 2.9V | 00:00:00 | 00:26:40 | 00:00:00 | |
| DO3MHA-11 | 2026-09-01 04:55:40 | 47.83928 | 11.05736 | 97° | 66km/h | 5971m | 3.8m/s | -12.4°C | 34.4% | 489.9hPa | 2.9V | 03:34:00 | 00:26:30 | 00:00:00 | |
| DG1MFX-10 | 2026-09-01 04:55:39 | 47.83928 | 11.05736 | 97° | 66km/h | 5971m | 3.8m/s | -12.4°C | 32.8% | 490.0hPa | 2.9V | 00:00:00 | 00:00:00 | 00:00:00 | |
| OE5DRO-10 | 2026-09-01 04:55:33 | 47.83941 | 11.05561 | 95° | 64km/h | 5944m | 3.4m/s | 0°C | 0% | 0hPa | 2.9V | 03:34:00 | 00:00:00 | 00:00:00 | |
| DO3MHA-11 | 2026-09-01 04:55:30 | 47.83946 | 11.05490 | 97° | 62km/h | 5932m | 4.2m/s | -12.2°C | 36.1% | 492.4hPa | 2.9V | 00:00:00 | 00:26:20 | 00:00:00 | |
| DG1MJG | 2026-09-01 04:55:28 | 47.83948 | 11.05466 | 98° | 64km/h | 5928m | 4.5m/s | -12.3°C | 33.7% | 492.8hPa | 2.9V | 03:35:00 | 00:00:00 | 00:00:00 | |
| OE5DXL-15 | 2026-09-01 04:55:22 | 47.83962 | 11.05303 | 99° | 60km/h | 5899m | 4.5m/s | -12.0°C | 34.5% | 494.6hPa | 2.9V | 00:00:00 | 00:00:00 | 00:00:00 | |
| DB0ND-19 | 2026-09-01 04:55:20 | 47.83971 | 11.05209 | 98° | 62km/h | 5881m | 3.8m/s | -12.0°C | 32.2% | -1.0hPa | 2.9V | 00:00:00 | 00:00:00 | 00:00:00 | |
| DO3MHA-11 | 2026-09-01 04:55:10 | 47.83987 | 11.05023 | 98° | 60km/h | 5846m | 3.9m/s | -11.8°C | 39.8% | 498.1hPa | 2.9V | 00:00:00 | 00:26:00 | 00:00:00 | |
| DG1MFX-10 | 2026-09-01 04:55:08 | 47.83989 | 11.05000 | 99° | 60km/h | 5842m | 4.1m/s | -11.8°C | 36.6% | 498.4hPa | 2.9V | 03:35:00 | 00:00:00 | 00:00:00 | |
| DL6DJ-15 | 2026-09-01 04:55:04 | 47.84003 | 11.04889 | 101° | 58km/h | 5822m | 4.5m/s | -11.7°C | 29.7% | 499.7hPa | 2.9V | 00:00:00 | 00:00:00 | 00:00:00 | |
| DB0ND-19 | 2026-09-01 04:54:49 | 47.84045 | 11.04558 | 100° | 55km/h | 5754m | 4.7m/s | -11.2°C | -1.0% | -1.0hPa | 2.9V | 00:00:00 | 00:00:00 | 00:00:00 | |
| NBG1-10 | 2026-09-01 04:54:47 | 47.84047 | 11.04537 | 99° | 58km/h | 5749m | 3.8m/s | -11.1°C | 27.4% | 504.4hPa | 2.9V | 00:00:00 | 00:25:37 | 00:00:00 | |
| DO3MHA-11 | 2026-09-01 04:54:41 | 47.84058 | 11.04388 | 98° | 58km/h | 5719m | 5.1m/s | -10.9°C | 26.5% | 506.3hPa | 2.9V | 00:00:00 | 00:25:30 | 00:00:00 | |
| DL6DJ-15 | 2026-09-01 04:54:33 | 47.84066 | 11.04216 | 92° | 57km/h | 5682m | 4.8m/s | -10.6°C | 24.5% | 508.7hPa | 2.9V | 00:00:00 | 00:00:00 | 00:00:00 | |
| DO3MHA-11 | 2026-09-01 04:54:30 | 47.84067 | 11.04171 | 96° | 58km/h | 5674m | 3.0m/s | -10.5°C | 25.7% | 509.3hPa | 2.9V | 00:00:00 | 00:25:20 | 00:00:00 | |
| DG1MFX-10 | 2026-09-01 04:54:27 | 47.84071 | 11.04128 | 99° | 57km/h | 5666m | 3.8m/s | -10.5°C | 24.4% | 510.0hPa | 2.9V | 00:00:00 | 00:00:00 | 00:00:00 | |
| DG1MJG | 2026-09-01 04:54:26 | 47.84073 | 11.04106 | 97° | 58km/h | 5662m | 4.4m/s | -10.5°C | 24.3% | 510.2hPa | 2.9V | 03:36:00 | 00:00:00 | 00:00:00 | |
| OE5DXL-15 | 2026-09-01 04:54:22 | 47.84079 | 11.03995 | 94° | 58km/h | 5637m | 4.7m/s | -10.2°C | 25.2% | 511.7hPa | 2.9V | 03:35:00 | 00:00:00 | 00:00:00 | |
| DO3MHA-11 | 2026-09-01 04:54:20 | 47.84081 | 11.03950 | 93° | 58km/h | 5627m | 5.1m/s | -10.2°C | 25.1% | 512.3hPa | 2.9V | 03:35:00 | 00:25:10 | 00:00:00 | |
| NBG1-10 | 2026-09-01 04:54:14 | 47.84083 | 11.03814 | 91° | 58km/h | 5602m | 4.9m/s | -10.1°C | 24.0% | 514.0hPa | 2.9V | 00:00:00 | 00:25:04 | 00:00:00 | |
| DO3MHA-12 | 2026-09-01 04:54:11 | 47.84086 | 11.03729 | 92° | 57km/h | 5585m | 5.0m/s | -10.0°C | 22.0% | 515.1hPa | 2.9V | 03:35:00 | 00:25:00 | 00:00:00 | |
| DO3MHA-11 | 2026-09-01 04:54:10 | 47.84086 | 11.03729 | 92° | 57km/h | 5585m | 5.0m/s | -10.0°C | 22.0% | 515.1hPa | 2.9V | 00:00:00 | 00:25:00 | 00:00:00 | |
| DG1MFX-10 | 2026-09-01 04:54:06 | 47.84085 | 11.03668 | 89° | 53km/h | 5571m | 5.2m/s | -10.0°C | 20.0% | 516.3hPa | 2.9V | 00:00:00 | 00:00:00 | 00:00:00 | |
| DL6DJ-15 | 2026-09-01 04:54:02 | 47.84084 | 11.03537 | 88° | 60km/h | 5542m | 4.3m/s | -9.8°C | 16.4% | 518.2hPa | 2.9V | 00:00:00 | 00:00:00 | 00:00:00 | |
| DO3MHA-11 | 2026-09-01 04:54:00 | 47.84084 | 11.03515 | 90° | 60km/h | 5538m | 3.9m/s | -9.8°C | 17.8% | 518.5hPa | 2.9V | 00:00:00 | 00:24:50 | 00:00:00 | |
| DG1MJG | 2026-09-01 04:53:56 | 47.84084 | 11.03449 | 92° | 58km/h | 5525m | 4.3m/s | -9.8°C | 18.4% | 519.3hPa | 2.9V | 03:36:00 | 00:00:00 | 00:00:00 | |
| OE5DXL-15 | 2026-09-01 04:53:52 | 47.84084 | 11.03337 | 90° | 60km/h | 5500m | 4.3m/s | -9.6°C | 21.8% | 520.9hPa | 2.9V | 00:00:00 | 00:00:00 | 00:00:00 | |
| DO3MHA-11 | 2026-09-01 04:53:50 | 47.84083 | 11.03291 | 89° | 62km/h | 5492m | 4.5m/s | -9.6°C | 21.4% | 521.6hPa | 2.9V | 00:00:00 | 00:24:40 | 00:00:00 | |
| NBG1-10 | 2026-09-01 04:53:41 | 47.84075 | 11.03084 | 84° | 58km/h | 5453m | 4.8m/s | -9.3°C | 18.1% | 524.2hPa | 2.9V | 00:00:00 | 00:24:31 | 00:00:00 | |
| DO3MHA-11 | 2026-09-01 04:53:40 | 47.84073 | 11.03061 | 85° | 62km/h | 5448m | 4.7m/s | -9.2°C | 18.1% | 524.4hPa | 2.9V | 03:36:00 | 00:24:30 | 00:00:00 | |
| DL6DJ-15 | 2026-09-01 04:53:31 | 47.84061 | 11.02832 | 84° | 60km/h | 5403m | 4.2m/s | -9.0°C | 13.5% | 527.6hPa | 2.9V | 00:00:00 | 00:00:00 | 00:00:00 | |
| DO3MHA-11 | 2026-09-01 04:53:30 | 47.84061 | 11.02832 | 85° | 58km/h | 5404m | 4.2m/s | -9.0°C | 14.1% | 527.5hPa | 2.9V | 00:00:00 | 00:24:20 | 00:00:00 | |
| DG1MFX-10 | 2026-09-01 04:53:26 | 47.84057 | 11.02766 | 86° | 58km/h | 5389m | 5.1m/s | -8.9°C | 12.7% | 528.6hPa | 2.9V | 00:00:00 | 00:00:00 | 00:00:00 | |
| DG1MJG | 2026-09-01 04:53:25 | 47.84055 | 11.02745 | 86° | 57km/h | 5384m | 5.7m/s | -8.9°C | 12.8% | 528.8hPa | 2.9V | 03:37:00 | 00:00:00 | 00:00:00 | |
| OE5DXL-15 | 2026-09-01 04:53:22 | 47.84050 | 11.02659 | 85° | 57km/h | 5365m | 4.8m/s | -8.7°C | 13.5% | 530.0hPa | 2.9V | 00:00:00 | 00:00:00 | 00:00:00 | |
| DO3MHA-11 | 2026-09-01 04:53:20 | 47.84047 | 11.02616 | 83° | 58km/h | 5357m | 3.5m/s | -8.6°C | 13.0% | 530.6hPa | 2.7V | 00:00:00 | 00:24:10 | 00:00:00 | |
| DO3MHA-11 | 2026-09-01 04:53:10 | 47.84029 | 11.02399 | 85° | 55km/h | 5310m | 4.3m/s | -8.3°C | 13.0% | 533.6hPa | 2.9V | 00:00:00 | 00:24:00 | 00:00:00 | |
| NBG1-10 | 2026-09-01 04:53:08 | 47.84026 | 11.02358 | 86° | 57km/h | 5302m | 4.3m/s | -8.2°C | 12.7% | 534.3hPa | 2.9V | 03:36:00 | 00:23:58 | 00:00:00 | |
| DG1MFX-10 | 2026-09-01 04:53:03 | 47.84020 | 11.02276 | 85° | 57km/h | 5284m | 3.7m/s | -8.1°C | 11.8% | 535.6hPa | 2.9V | 00:00:00 | 00:00:00 | 00:00:00 | |
| DL6DJ-15 | 2026-09-01 04:52:59 | 47.84016 | 11.02169 | 88° | 57km/h | 5263m | 3.7m/s | -8.0°C | 11.7% | 537.1hPa | 2.9V | 00:00:00 | 00:00:00 | 00:00:00 | |
| DG1MJG | 2026-09-01 04:52:55 | 47.84014 | 11.02105 | 88° | 57km/h | 5250m | 3.6m/s | -7.9°C | 10.8% | 538.1hPa | 2.9V | 03:37:00 | 00:00:00 | 00:00:00 | |
| OE5DXL-15 | 2026-09-01 04:52:52 | 47.84011 | 11.02020 | 87° | 57km/h | 5233m | 3.5m/s | -7.8°C | 7.7% | 539.3hPa | 2.9V | 00:00:00 | 00:00:00 | 00:00:00 | |
| DO3MHA-11 | 2026-09-01 04:52:50 | 47.84009 | 11.01978 | 88° | 58km/h | 5224m | 3.4m/s | -7.7°C | 6.8% | 539.9hPa | 2.9V | 00:00:00 | 00:23:40 | 00:00:00 | |
| DO3MHA-11 | 2026-09-01 04:52:40 | 47.84006 | 11.01761 | 93° | 57km/h | 5182m | 4.4m/s | -7.5°C | 3.0% | 542.9hPa | 2.9V | 00:00:00 | 00:23:30 | 00:00:00 | |
| DG1MFX-10 | 2026-09-01 04:52:38 | 47.84007 | 11.01740 | 95° | 57km/h | 5177m | 4.7m/s | -7.5°C | 2.8% | 543.4hPa | 2.9V | 03:37:00 | 00:00:00 | 00:00:00 | |
| DO3MHA-11 | 2026-09-01 04:52:30 | 47.84007 | 11.01547 | 93° | 57km/h | 5136m | 4.2m/s | -7.1°C | 2.6% | 546.2hPa | 2.9V | 00:00:00 | 00:23:20 | 00:00:00 | |
| DL6DJ-15 | 2026-09-01 04:52:29 | 47.84008 | 11.01504 | 93° | 57km/h | 5126m | 4.4m/s | -7.1°C | 2.4% | 546.9hPa | 2.9V | 00:00:00 | 00:00:00 | 00:00:00 | |
| DG1MJG | 2026-09-01 04:52:24 | 47.84014 | 11.01438 | 99° | 58km/h | 5112m | 5.1m/s | -7.1°C | 2.3% | 547.9hPa | 2.9V | 03:37:00 | 00:00:00 | 00:00:00 | |
| OE5DXL-15 | 2026-09-01 04:52:22 | 47.84017 | 11.01375 | 91° | 53km/h | 5099m | 4.4m/s | -7.0°C | 2.5% | 548.6hPa | 2.9V | 03:37:00 | 00:00:00 | 00:00:00 | |
| DO3MHA-11 | 2026-09-01 04:52:20 | 47.84017 | 11.01337 | 87° | 51km/h | 5091m | 5.0m/s | -6.9°C | 2.5% | 549.4hPa | 2.9V | 03:37:00 | 00:23:10 | 00:00:00 | |
| DG1MFX-10 | 2026-09-01 04:52:15 | 47.84013 | 11.01261 | 88° | 51km/h | 5071m | 4.8m/s | -6.8°C | 2.3% | 550.8hPa | 2.9V | 03:37:00 | 00:00:00 | 00:00:00 | |
| DO3MHA-11 | 2026-09-01 04:52:10 | 47.84014 | 11.01141 | 90° | 53km/h | 5035m | 5.7m/s | -6.6°C | 2.5% | 553.2hPa | 2.9V | 00:00:00 | 00:23:00 | 00:00:00 | |
| DL6DJ-15 | 2026-09-01 04:51:57 | 47.84028 | 11.00883 | 92° | 53km/h | 4962m | 6.2m/s | -6.1°C | 2.9% | 558.4hPa | 2.9V | 00:00:00 | 00:00:00 | 00:00:00 | |
| DG1MFX-10 | 2026-09-01 04:51:55 | 47.84029 | 11.00863 | 93° | 53km/h | 4956m | 6.4m/s | -6.1°C | 2.8% | 558.9hPa | 2.9V | 03:38:00 | 00:00:00 | 00:00:00 | |
| OE5DXL-15 | 2026-09-01 04:51:52 | 47.84026 | 11.00777 | 89° | 53km/h | 4929m | 8.0m/s | -6.0°C | 3.0% | 560.5hPa | 2.9V | 00:00:00 | 00:00:00 | 00:00:00 | |
| DO3MHA-11 | 2026-09-01 04:51:50 | 47.84027 | 11.00734 | 93° | 55km/h | 4916m | 6.4m/s | -5.9°C | 3.0% | 561.4hPa | 2.9V | 00:00:00 | 00:22:40 | 00:00:00 | |
| DO3MHA-12 | 2026-09-01 04:51:40 | 47.84020 | 11.00530 | 88° | 53km/h | 4868m | 3.7m/s | -5.5°C | 2.9% | 565.0hPa | 2.9V | 00:00:00 | 00:22:30 | 00:00:00 | |
| DG1MFX-10 | 2026-09-01 04:51:35 | 47.84018 | 11.00449 | 89° | 53km/h | 4850m | 3.8m/s | -5.5°C | 2.7% | 566.4hPa | 2.9V | 03:38:00 | 00:00:00 | 00:00:00 | |
| DO3MHA-12 | 2026-09-01 04:51:32 | 47.84018 | 11.00330 | 91° | 53km/h | 4824m | 4.4m/s | -5.2°C | 2.9% | 568.3hPa | 2.9V | 03:38:00 | 00:22:20 | 00:00:00 | |
| DO3MHA-11 | 2026-09-01 04:51:31 | 47.84018 | 11.00330 | 91° | 53km/h | 4824m | 4.4m/s | -5.2°C | 2.9% | 568.3hPa | 2.9V | 00:00:00 | 00:22:20 | 00:00:00 | |
| NBG1-10 | 2026-09-01 04:51:29 | 47.84018 | 11.00310 | 92° | 53km/h | 4819m | 5.6m/s | -5.2°C | 2.9% | 568.6hPa | 2.9V | 00:00:00 | 00:22:19 | 00:00:00 | |
| DL6DJ-15 | 2026-09-01 04:51:26 | 47.84017 | 11.00252 | 86° | 51km/h | 4805m | 3.8m/s | -5.1°C | 2.8% | 569.8hPa | 2.9V | 00:00:00 | 00:00:00 | 00:00:00 | |
| OE5DXL-15 | 2026-09-01 04:51:22 | 47.84015 | 11.00172 | 90° | 55km/h | 4787m | 4.1m/s | -5.0°C | 3.1% | 571.0hPa | 2.9V | 00:00:00 | 00:00:00 | 00:00:00 | |
| DO3MHA-11 | 2026-09-01 04:51:20 | 47.84016 | 11.00131 | 94° | 51km/h | 4778m | 4.2m/s | -4.9°C | 3.3% | 571.5hPa | 2.9V | 00:00:00 | 00:22:10 | 00:00:00 | |
| DG1MFX-10 | 2026-09-01 04:51:15 | 47.84018 | 11.00050 | 93° | 51km/h | 4759m | 6.4m/s | 0°C | 0% | 572.9hPa | 2.9V | 03:38:00 | 00:00:00 | 00:00:00 | |
| DO3MHA-11 | 2026-09-01 04:51:10 | 47.84018 | 10.99937 | 91° | 55km/h | 4731m | 3.6m/s | -4.7°C | 3.3% | 574.9hPa | 2.9V | 00:00:00 | 00:22:00 | 00:00:00 | |
| DL6DJ-15 | 2026-09-01 04:50:55 | 47.84027 | 10.99625 | 90° | 55km/h | 4666m | 4.1m/s | -4.4°C | 3.2% | 579.8hPa | 2.9V | 00:00:00 | 00:00:00 | 00:00:00 | |
| DG1MFX-10 | 2026-09-01 04:50:54 | 47.84027 | 10.99625 | 91° | 55km/h | 4666m | 4.1m/s | 0°C | 0% | 0hPa | 2.9V | 00:00:00 | 00:00:00 | 00:00:00 | |
| OE5DXL-15 | 2026-09-01 04:50:52 | 47.84027 | 10.99564 | 90° | 57km/h | 4652m | 4.5m/s | -4.4°C | 3.2% | 580.7hPa | 2.9V | 00:00:00 | 00:00:00 | 00:00:00 | |
| DG1MJG | 2026-09-01 04:50:51 | 47.84027 | 10.99564 | 90° | 53km/h | 4652m | 4.6m/s | -4.4°C | 3.0% | 580.8hPa | 2.9V | 03:39:00 | 00:00:00 | 00:00:00 | |
| DO3MHA-11 | 2026-09-01 04:50:50 | 47.84026 | 10.99524 | 91° | 57km/h | 4643m | 4.7m/s | -4.4°C | 3.1% | 581.3hPa | 2.9V | 00:00:00 | 00:21:40 | 00:00:00 | |
| DO3MHA-11 | 2026-09-01 04:50:40 | 47.84030 | 10.99311 | 88° | 57km/h | 4599m | 4.7m/s | -4.1°C | 2.9% | 584.5hPa | 2.9V | 00:00:00 | 00:21:30 | 00:00:00 | |
| DB0NH | 2026-09-01 04:50:36 | 47.84025 | 10.99232 | 82° | 57km/h | 4580m | 5.2m/s | 0°C | 0% | 0hPa | 2.9V | 00:00:00 | 00:21:26 | 00:00:00 | |
| DG1MFX-10 | 2026-09-01 04:50:33 | 47.84022 | 10.99192 | 89° | 57km/h | 4571m | 5.8m/s | 0°C | 0% | 0hPa | 2.9V | 00:00:00 | 00:00:00 | 00:00:00 | |
| DO3MHA-11 | 2026-09-01 04:50:30 | 47.84023 | 10.99095 | 91° | 58km/h | 4546m | 6.6m/s | -3.8°C | 2.7% | 588.3hPa | 2.9V | 00:00:00 | 00:21:20 | 00:00:00 | |
| DL6DJ-15 | 2026-09-01 04:50:24 | 47.84019 | 10.98961 | 92° | 53km/h | 4510m | 6.9m/s | -4.0°C | 2.7% | 591.1hPa | 2.9V | 00:00:00 | 00:00:00 | 00:00:00 | |
| NBG1-10 | 2026-09-01 04:50:23 | 47.84019 | 10.98940 | 93° | 57km/h | 4504m | 6.5m/s | -3.9°C | 2.8% | 591.6hPa | 2.9V | 00:00:00 | 00:21:13 | 00:00:00 | |
| OE5DXL-15 | 2026-09-01 04:50:22 | 47.84020 | 10.98920 | 93° | 57km/h | 4498m | 4.8m/s | -4.0°C | 2.8% | 592.0hPa | 2.9V | 03:39:00 | 00:00:00 | 00:00:00 | |
| DG1MJG | 2026-09-01 04:50:21 | 47.84020 | 10.98920 | 93° | 55km/h | 4498m | 4.9m/s | -4.0°C | 2.7% | 592.0hPa | 2.9V | 03:40:00 | 00:00:00 | 00:00:00 | |
| DO3MHA-11 | 2026-09-01 04:50:20 | 47.84021 | 10.98880 | 92° | 55km/h | 4488m | 3.4m/s | -4.0°C | 2.9% | 592.8hPa | 2.9V | 03:39:00 | 00:21:10 | 00:00:00 | |
| DO3MHA-11 | 2026-09-01 04:50:10 | 47.84020 | 10.98670 | 93° | 60km/h | 4448m | 4.2m/s | -4.0°C | 3.2% | 595.9hPa | 2.9V | 00:00:00 | 00:21:00 | 00:00:00 | |
| DL6DJ-15 | 2026-09-01 04:49:53 | 47.84031 | 10.98296 | 92° | 57km/h | 4374m | 5.5m/s | -4.3°C | -1.0% | 601.6hPa | 2.9V | 00:00:00 | 00:00:00 | 00:00:00 | |
| OE5DXL-15 | 2026-09-01 04:49:52 | 47.84031 | 10.98275 | 91° | 57km/h | 4370m | 3.7m/s | -4.2°C | 4.7% | 602.0hPa | 2.9V | 00:00:00 | 00:00:00 | 00:00:00 | |
| DO3MHA-11 | 2026-09-01 04:49:50 | 47.84031 | 10.98233 | 89° | 53km/h | 4361m | 4.5m/s | -4.1°C | 4.7% | 602.5hPa | 2.9V | 00:00:00 | 00:20:40 | 00:00:00 | |
| DO3MHA-11 | 2026-09-01 04:49:40 | 47.84030 | 10.98034 | 91° | 57km/h | 4323m | 4.7m/s | -5.1°C | 7.2% | 605.7hPa | 2.9V | 03:40:00 | 00:20:30 | 00:00:00 | |
| DB0NH | 2026-09-01 04:49:31 | 47.84030 | 10.97842 | 89° | 58km/h | 4286m | 3.6m/s | 0°C | 0% | 0hPa | 2.9V | 00:00:00 | 00:20:21 | 00:00:00 | |
| DO3MHA-11 | 2026-09-01 04:49:30 | 47.84030 | 10.97821 | 91° | 62km/h | 4283m | 3.0m/s | -5.7°C | 34.8% | 608.8hPa | 2.9V | 00:00:00 | 00:20:20 | 00:00:00 | |
| OE5DXL-15 | 2026-09-01 04:49:23 | 47.84029 | 10.97633 | 90° | 62km/h | 4252m | 4.8m/s | -5.7°C | 36.7% | 611.2hPa | 2.9V | 00:00:00 | 00:00:00 | 00:00:00 | |
| DO3MHA-11 | 2026-09-01 04:49:20 | 47.84028 | 10.97585 | 87° | 58km/h | 4243m | 4.8m/s | -5.6°C | 37.5% | 611.9hPa | 2.9V | 00:00:00 | 00:20:10 | 00:00:00 | |
| DG1MFX-10 | 2026-09-01 04:49:18 | 47.84027 | 10.97562 | 84° | 60km/h | 4239m | 4.3m/s | 0°C | 0% | 0hPa | 2.9V | 00:00:00 | 00:00:00 | 00:00:00 | |
| NBG1-10 | 2026-09-01 04:49:16 | 47.84018 | 10.97495 | 81° | 60km/h | 4225m | 4.9m/s | -5.5°C | 38.7% | 613.3hPa | 2.9V | 00:00:00 | 00:20:06 | 00:00:00 | |
| DO3MHA-11 | 2026-09-01 04:49:10 | 47.84018 | 10.97363 | 96° | 64km/h | 4199m | 4.0m/s | -5.3°C | 38.5% | 615.3hPa | 2.9V | 00:00:00 | 00:20:00 | 00:00:00 | |
| DO3MHA-11 | 2026-09-01 04:49:00 | 47.84026 | 10.97128 | 81° | 64km/h | 4153m | 6.0m/s | -5.0°C | 40.1% | 619.0hPa | 2.9V | 03:41:00 | 00:19:50 | 00:00:00 | |
| OE5DXL-15 | 2026-09-01 04:48:52 | 47.84015 | 10.96936 | 88° | 60km/h | 4110m | 6.3m/s | -4.6°C | 39.4% | 622.3hPa | 2.9V | 00:00:00 | 00:00:00 | 00:00:00 | |
| DO3MHA-11 | 2026-09-01 04:48:50 | 47.84014 | 10.96890 | 89° | 62km/h | 4099m | 4.8m/s | -4.5°C | 39.8% | 623.2hPa | 2.9V | 00:00:00 | 00:19:40 | 00:00:00 | |
| DO3MHA-11 | 2026-09-01 04:48:40 | 47.84008 | 10.96657 | 87° | 58km/h | 4057m | 3.1m/s | -4.2°C | 39.1% | 626.6hPa | 2.9V | 00:00:00 | 00:19:30 | 00:00:00 | |
| DB0ND-19 | 2026-09-01 04:48:36 | 47.84003 | 10.96374 | 91° | 57km/h | 4006m | 3.7m/s | 0°C | -1.0% | -1.0hPa | 2.9V | 00:00:00 | 00:00:00 | 00:00:00 | |
| OE5DXL-15 | 2026-09-01 04:48:22 | 47.84000 | 10.96263 | 87° | 57km/h | 3986m | 4.6m/s | -3.7°C | 37.7% | 632.4hPa | 2.9V | 03:41:00 | 00:00:00 | 00:00:00 | |
| DO3MHA-11 | 2026-09-01 04:48:20 | 47.84000 | 10.96220 | 91° | 57km/h | 3978m | 4.0m/s | -3.7°C | 37.7% | 632.9hPa | 2.9V | 03:41:00 | 00:19:10 | 00:00:00 | |
| DG1MJG | 2026-09-01 04:48:19 | 47.84000 | 10.96220 | 91° | 58km/h | 3978m | 4.1m/s | -3.7°C | 36.7% | 632.9hPa | 2.9V | 03:42:00 | 00:00:00 | 00:00:00 | |
| DO3MHA-11 | 2026-09-01 04:48:10 | 47.84001 | 10.96004 | 90° | 55km/h | 3941m | 3.8m/s | -3.4°C | 37.7% | 635.8hPa | 2.9V | 00:00:00 | 00:19:00 | 00:00:00 | |
| DB0ND-19 | 2026-09-01 04:48:05 | 47.83998 | 10.95881 | 88° | 55km/h | 3918m | 4.3m/s | 0°C | -1.0% | -1.0hPa | 2.9V | 00:00:00 | 00:00:00 | 00:00:00 | |
| DO3MHA-11 | 2026-09-01 04:48:00 | 47.84001 | 10.95795 | 98° | 57km/h | 3903m | 4.4m/s | -3.1°C | 35.4% | 638.9hPa | 2.9V | 00:00:00 | 00:18:50 | 00:00:00 | |
| OE5DXL-15 | 2026-09-01 04:47:52 | 47.84009 | 10.95627 | 84° | 55km/h | 3867m | 7.9m/s | -2.8°C | 34.8% | 641.9hPa | 2.9V | 00:00:00 | 00:00:00 | 00:00:00 | |
| DO3MHA-11 | 2026-09-01 04:47:50 | 47.84008 | 10.95586 | 91° | 53km/h | 3854m | 5.6m/s | -2.7°C | 34.4% | 642.8hPa | 2.9V | 00:00:00 | 00:18:40 | 00:00:00 | |
| DG1MJG | 2026-09-01 04:47:49 | 47.84008 | 10.95586 | 91° | 55km/h | 3854m | 5.6m/s | -2.7°C | 33.5% | 642.9hPa | 2.9V | 03:43:00 | 00:00:00 | 00:00:00 | |
| NBG1-10 | 2026-09-01 04:47:37 | 47.84010 | 10.95329 | 91° | 55km/h | 3797m | 3.4m/s | -2.2°C | 32.9% | 647.3hPa | 2.9V | 00:00:00 | 00:18:27 | 00:00:00 | |
| DG1MFX-10 | 2026-09-01 04:47:33 | 47.84011 | 10.95274 | 93° | 49km/h | 3786m | 3.8m/s | 0°C | 0% | 0hPa | 2.9V | 00:00:00 | 00:00:00 | 00:00:00 | |
| DO3MHA-11 | 2026-09-01 04:47:30 | 47.84012 | 10.95195 | 89° | 58km/h | 3771m | 4.2m/s | -2.0°C | 33.0% | 649.6hPa | 2.9V | 00:00:00 | 00:18:20 | 00:00:00 | |
| OE5DXL-15 | 2026-09-01 04:47:22 | 47.84019 | 10.95019 | 98° | 55km/h | 3739m | 4.4m/s | -1.8°C | 32.8% | 652.3hPa | 2.9V | 00:00:00 | 00:00:00 | 00:00:00 | |
| DO3MHA-11 | 2026-09-01 04:47:20 | 47.84021 | 10.94980 | 92° | 55km/h | 3727m | 6.5m/s | -1.8°C | 35.5% | 653.3hPa | 2.9V | 00:00:00 | 00:18:10 | 00:00:00 | |
| DG1MJG | 2026-09-01 04:47:18 | 47.84021 | 10.94960 | 92° | 53km/h | 3722m | 5.5m/s | -1.8°C | 34.8% | 653.8hPa | 2.9V | 03:43:00 | 00:00:00 | 00:00:00 | |
| DO3MHA-11 | 2026-09-01 04:47:10 | 47.84009 | 10.94777 | 85° | 57km/h | 3684m | 2.5m/s | -1.6°C | 38.2% | 656.8hPa | 2.9V | 00:00:00 | 00:18:00 | 00:00:00 | |
| NBG1-10 | 2026-09-01 04:47:04 | 47.84006 | 10.94650 | 86° | 55km/h | 3647m | 5.6m/s | -1.4°C | 37.2% | 659.9hPa | 2.9V | 00:00:00 | 00:17:54 | 00:00:00 | |
| DO3MHA-11 | 2026-09-01 04:47:00 | 47.84006 | 10.94568 | 97° | 53km/h | 3626m | 3.2m/s | -1.2°C | 37.2% | 661.8hPa | 2.9V | 03:43:00 | 00:17:50 | 00:00:00 | |
| OE5DXL-15 | 2026-09-01 04:46:52 | 47.84012 | 10.94406 | 86° | 53km/h | 3594m | 4.4m/s | -1.2°C | 38.0% | 664.7hPa | 2.9V | 00:00:00 | 00:00:00 | 00:00:00 | |
| DO3MHA-11 | 2026-09-01 04:46:50 | 47.84010 | 10.94366 | 86° | 55km/h | 3585m | 3.6m/s | -1.2°C | 39.5% | 665.4hPa | 2.9V | 00:00:00 | 00:17:40 | 00:00:00 | |
| DG1MJG | 2026-09-01 04:46:47 | 47.84008 | 10.94325 | 84° | 53km/h | 3576m | 3.8m/s | -1.2°C | 38.7% | 666.1hPa | 2.9V | 03:43:00 | 00:00:00 | 00:00:00 | |
| DO3MHA-11 | 2026-09-01 04:46:40 | 47.84005 | 10.94162 | 92° | 55km/h | 3543m | 3.9m/s | -1.2°C | 42.1% | 668.9hPa | 2.9V | 00:00:00 | 00:17:30 | 00:00:00 | |
| NBG1-10 | 2026-09-01 04:46:31 | 47.83994 | 10.93979 | 81° | 49km/h | 3500m | 4.8m/s | -1.7°C | 51.4% | 672.3hPa | 2.9V | 03:43:00 | 00:17:21 | 00:00:00 | |
| DO3MHA-11 | 2026-09-01 04:46:30 | 47.83992 | 10.93962 | 83° | 47km/h | 3494m | 7.0m/s | -1.7°C | 51.7% | 672.7hPa | 2.9V | 00:00:00 | 00:17:20 | 00:00:00 | |
| OE5DXL-15 | 2026-09-01 04:46:22 | 47.83977 | 10.93825 | 80° | 49km/h | 3452m | 2.8m/s | -2.7°C | 71.5% | 676.2hPa | 2.9V | 03:43:00 | 00:00:00 | 00:00:00 | |
| DO3MHA-11 | 2026-09-01 04:46:20 | 47.83973 | 10.93787 | 83° | 53km/h | 3445m | 4.6m/s | -2.8°C | 74.4% | 676.9hPa | 2.9V | 03:43:00 | 00:17:10 | 00:00:00 | |
| DG1MJG | 2026-09-01 04:46:16 | 47.83966 | 10.93724 | 78° | 55km/h | 3433m | 4.2m/s | -3.0°C | 76.4% | 678.0hPa | 2.9V | 03:43:00 | 00:00:00 | 00:00:00 | |
| DO3MHA-11 | 2026-09-01 04:46:10 | 47.83957 | 10.93593 | 78° | 53km/h | 3398m | 4.4m/s | -2.9°C | 79.9% | 681.1hPa | 2.9V | 00:00:00 | 00:17:00 | 00:00:00 | |
| DO3MHA-11 | 2026-09-01 04:46:00 | 47.83927 | 10.93401 | 74° | 47km/h | 3348m | 5.7m/s | -2.6°C | 79.7% | 685.3hPa | 2.9V | 00:00:00 | 00:16:50 | 00:00:00 | |
| OE5DXL-15 | 2026-09-01 04:45:52 | 47.83909 | 10.93269 | 74° | 51km/h | 3307m | 6.3m/s | -2.4°C | 82.9% | 688.9hPa | 2.9V | 00:00:00 | 00:00:00 | 00:00:00 | |
| DO3MHA-11 | 2026-09-01 04:45:50 | 47.83900 | 10.93227 | 73° | 55km/h | 3291m | 9.2m/s | -2.3°C | 85.3% | 690.2hPa | 2.9V | 00:00:00 | 00:16:40 | 00:00:00 | |
| NBG1-10 | 2026-09-01 04:45:48 | 47.83891 | 10.93184 | 75° | 49km/h | 3278m | 5.7m/s | -2.2°C | 87.0% | 691.5hPa | 2.9V | 00:00:00 | 00:16:38 | 00:00:00 | |
| DG1MJG | 2026-09-01 04:45:45 | 47.83884 | 10.93142 | 81° | 57km/h | 3268m | 6.3m/s | -2.2°C | 85.8% | 692.5hPa | 2.9V | 03:44:00 | 00:00:00 | 00:00:00 | |
| DO3MHA-11 | 2026-09-01 04:45:40 | 47.83864 | 10.93035 | 61° | 49km/h | 3237m | 6.0m/s | -2.0°C | 90.3% | 695.0hPa | 2.9V | 03:44:00 | 00:16:30 | 00:00:00 | |
| DO3MHA-12 | 2026-09-01 04:45:30 | 47.83823 | 10.92856 | 76° | 47km/h | 3180m | 4.7m/s | -1.5°C | 88.5% | 699.8hPa | 2.9V | 03:44:00 | 00:16:20 | 00:00:00 | |
| OE5DXL-15 | 2026-09-01 04:45:22 | 47.83797 | 10.92721 | 80° | 47km/h | 3150m | 3.9m/s | 0°C | 0% | 0hPa | 2.9V | 00:00:00 | 00:00:00 | 00:00:00 | |
| DO3MHA-11 | 2026-09-01 04:45:20 | 47.83794 | 10.92686 | 84° | 47km/h | 3142m | 4.7m/s | -1.2°C | 85.5% | 703.2hPa | 2.9V | 00:00:00 | 00:16:10 | 00:00:00 | |
| DG1MJG | 2026-09-01 04:45:14 | 47.83780 | 10.92587 | 75° | 46km/h | 3119m | 8.1m/s | -1.0°C | 82.4% | 705.3hPa | 2.9V | 03:45:00 | 00:00:00 | 00:00:00 | |
| DO3MHA-11 | 2026-09-01 04:45:10 | 47.83770 | 10.92510 | 83° | 53km/h | 3084m | 7.7m/s | -0.8°C | 83.0% | 708.3hPa | 2.9V | 00:00:00 | 00:16:00 | 00:00:00 | |
| DO3MHA-11 | 2026-09-01 04:45:00 | 47.83758 | 10.92314 | 75° | 44km/h | 3022m | 5.0m/s | -0.2°C | 80.6% | 713.8hPa | 2.9V | 03:45:00 | 00:15:50 | 00:00:00 | |
| NBG1-10 | 2026-09-01 04:44:54 | 47.83737 | 10.92226 | 82° | 46km/h | 2989m | 5.0m/s | 0°C | 0% | 0hPa | 2.9V | 00:00:00 | 00:15:44 | 00:00:00 | |
| OE5DXL-15 | 2026-09-01 04:44:52 | 47.83736 | 10.92192 | 86° | 46km/h | 2979m | 6.1m/s | 0°C | 0% | 0hPa | 2.9V | 00:00:00 | 00:15:42 | 00:00:00 | |
| DO3MHA-11 | 2026-09-01 04:44:50 | 47.83731 | 10.92155 | 75° | 44km/h | 2966m | 6.2m/s | 0.2°C | 78.9% | 719.0hPa | 2.9V | 00:00:00 | 00:15:40 | 00:00:00 | |
| DG1MJG | 2026-09-01 04:44:44 | 47.83720 | 10.92081 | 92° | 42km/h | 2938m | 6.0m/s | 0.5°C | 76.8% | 721.5hPa | 2.9V | 03:45:00 | 00:00:00 | 00:00:00 | |
| DO3MHA-11 | 2026-09-01 04:44:40 | 47.83715 | 10.91991 | 79° | 46km/h | 2914m | 4.9m/s | 0.7°C | 77.9% | 723.8hPa | 2.9V | 00:00:00 | 00:15:30 | 00:00:00 | |
| DO3MHA-11 | 2026-09-01 04:44:30 | 47.83701 | 10.91824 | 75° | 47km/h | 2857m | 6.3m/s | 1.2°C | 75.4% | 728.7hPa | 2.9V | 00:00:00 | 00:15:20 | 00:00:00 | |
| OE5DXL-15 | 2026-09-01 04:44:22 | 47.83701 | 10.91680 | 90° | 37km/h | 2810m | 6.3m/s | 0°C | 0% | 0hPa | 2.9V | 00:00:00 | 00:00:00 | 00:00:00 | |
| NBG1-10 | 2026-09-01 04:44:21 | 47.83701 | 10.91665 | 88° | 40km/h | 2804m | 5.5m/s | 0°C | 0% | 0hPa | 2.9V | 00:00:00 | 00:15:11 | 00:00:00 | |
| DO3MHA-11 | 2026-09-01 04:44:20 | 47.83700 | 10.91651 | 82° | 40km/h | 2799m | 5.3m/s | 1.7°C | 73.3% | 733.9hPa | 2.9V | 03:45:00 | 00:15:10 | 00:00:00 | |
| DG1MJG | 2026-09-01 04:44:14 | 47.83689 | 10.91585 | 88° | 42km/h | 2770m | 5.8m/s | 2.0°C | 72.3% | 736.6hPa | 2.9V | 03:46:00 | 00:00:00 | 00:00:00 | |
| DO3MHA-11 | 2026-09-01 04:44:10 | 47.83682 | 10.91501 | 71° | 37km/h | 2739m | 5.0m/s | 2.2°C | 72.4% | 739.3hPa | 2.9V | 00:00:00 | 00:15:00 | 00:00:00 | |
| DO3MHA-11 | 2026-09-01 04:44:00 | 47.83675 | 10.91366 | 97° | 46km/h | 2683m | 4.2m/s | 2.7°C | 70.5% | 744.5hPa | 2.9V | 00:00:00 | 00:14:50 | 00:00:00 | |
| DO3MHA-12 | 2026-09-01 04:43:51 | 47.83680 | 10.91196 | 100° | 42km/h | 2633m | 6.2m/s | 3.2°C | 69.8% | 749.1hPa | 2.9V | 00:00:00 | 00:14:40 | 00:00:00 | |
| DO3MHA-11 | 2026-09-01 04:43:50 | 47.83680 | 10.91196 | 100° | 42km/h | 2633m | 6.2m/s | 3.2°C | 69.8% | 749.1hPa | 2.9V | 00:00:00 | 00:14:40 | 00:00:00 | |
| NBG1-10 | 2026-09-01 04:43:48 | 47.83682 | 10.91171 | 96° | 42km/h | 2621m | 5.2m/s | 0°C | 0% | 0hPa | 2.9V | 00:00:00 | 00:14:38 | 00:00:00 | |
| DG1MJG | 2026-09-01 04:43:43 | 47.83675 | 10.91112 | 77° | 49km/h | 2598m | 7.1m/s | 3.5°C | 69.0% | 752.4hPa | 2.9V | 03:46:00 | 00:00:00 | 00:00:00 | |
| DO3MHA-11 | 2026-09-01 04:43:40 | 47.83668 | 10.91044 | 84° | 40km/h | 2573m | 4.9m/s | 3.6°C | 69.2% | 754.7hPa | 2.9V | 03:46:00 | 00:14:30 | 00:00:00 | |
| DO3MHA-11 | 2026-09-01 04:43:30 | 47.83651 | 10.90897 | 87° | 42km/h | 2529m | 3.4m/s | 4.0°C | 69.1% | 758.8hPa | 2.9V | 00:00:00 | 00:14:20 | 00:00:00 | |
| DO3MHA-11 | 2026-09-01 04:43:20 | 47.83642 | 10.90739 | 75° | 47km/h | 2481m | 4.7m/s | 4.2°C | 77.5% | 763.3hPa | 2.9V | 00:00:00 | 00:14:10 | 00:00:00 | |
| DG1MJG | 2026-09-01 04:43:12 | 47.83622 | 10.90614 | 82° | 46km/h | 2443m | 4.9m/s | 4.5°C | 77.7% | 766.9hPa | 2.9V | 03:47:00 | 00:00:00 | 00:00:00 | |
| DO3MHA-11 | 2026-09-01 04:43:10 | 47.83619 | 10.90569 | 79° | 37km/h | 2429m | 6.6m/s | 4.6°C | 78.2% | 768.3hPa | 2.9V | 00:00:00 | 00:14:00 | 00:00:00 | |
| DO3MHA-11 | 2026-09-01 04:43:00 | 47.83593 | 10.90437 | 88° | 37km/h | 2373m | 2.9m/s | 4.9°C | 79.1% | 773.6hPa | 2.9V | 03:47:00 | 00:13:50 | 00:00:00 | |
| DO3MHA-11 | 2026-09-01 04:42:50 | 47.83575 | 10.90301 | 71° | 37km/h | 2323m | 4.4m/s | 5.3°C | 77.9% | 778.3hPa | 2.9V | 00:00:00 | 00:13:40 | 00:00:00 | |
| DG1MJG | 2026-09-01 04:42:41 | 47.83541 | 10.90209 | 63° | 40km/h | 2291m | 4.3m/s | 5.6°C | 76.3% | 781.3hPa | 2.9V | 03:48:00 | 00:00:00 | 00:00:00 | |
| DO3MHA-11 | 2026-09-01 04:42:40 | 47.83533 | 10.90180 | 74° | 38km/h | 2280m | 6.3m/s | 5.6°C | 77.9% | 782.2hPa | 2.9V | 00:00:00 | 00:13:30 | 00:00:00 | |
| DO3MHA-11 | 2026-09-01 04:42:30 | 47.83525 | 10.90040 | 70° | 40km/h | 2219m | 6.9m/s | 6.1°C | 76.6% | 788.1hPa | 2.9V | 00:00:00 | 00:13:20 | 00:00:00 | |
| DO3MHA-11 | 2026-09-01 04:42:20 | 47.83489 | 10.89904 | 80° | 33km/h | 2168m | 7.7m/s | 6.5°C | 76.3% | 792.9hPa | 2.9V | 03:47:00 | 00:13:10 | 00:00:00 | |
| DO3MHA-11 | 2026-09-01 04:42:10 | 47.83463 | 10.89786 | 76° | 35km/h | 2109m | 5.5m/s | 6.9°C | 75.6% | 798.7hPa | 2.9V | 00:00:00 | 00:13:00 | 00:00:00 | |
| DO3MHA-11 | 2026-09-01 04:42:00 | 47.83442 | 10.89657 | 88° | 35km/h | 2056m | 5.4m/s | 7.3°C | 74.0% | 803.9hPa | 2.9V | 00:00:00 | 00:12:50 | 00:00:00 | |
| DO3MHA-12 | 2026-09-01 04:41:50 | 47.83428 | 10.89530 | 90° | 37km/h | 2001m | 5.1m/s | 7.6°C | 77.1% | 809.3hPa | 2.9V | 00:00:00 | 00:12:40 | 00:00:00 | |
| DO3MHA-11 | 2026-09-01 04:41:50 | 47.83428 | 10.89530 | 90° | 37km/h | 2001m | 5.1m/s | 7.6°C | 77.1% | 809.3hPa | 2.9V | 00:00:00 | 00:12:40 | 00:00:00 | |
| DG1MJG | 2026-09-01 04:41:40 | 47.83414 | 10.89412 | 77° | 38km/h | 1951m | 7.1m/s | 7.9°C | 75.9% | 814.3hPa | 2.9V | 03:48:00 | 00:00:00 | 00:00:00 | |
| DO3MHA-12 | 2026-09-01 04:41:40 | 47.83411 | 10.89399 | 73° | 35km/h | 1945m | 5.7m/s | 7.9°C | 76.9% | 814.9hPa | 2.9V | 00:00:00 | 00:12:30 | 00:00:00 | |
| DO3MHA-11 | 2026-09-01 04:41:40 | 47.83411 | 10.89399 | 73° | 35km/h | 1945m | 5.7m/s | 7.9°C | 76.9% | 814.9hPa | 2.9V | 03:48:00 | 00:12:30 | 00:00:00 | |
| DO3MHA-12 | 2026-09-01 04:41:30 | 47.83399 | 10.89271 | 71° | 37km/h | 1892m | 5.6m/s | 8.3°C | 75.8% | 820.3hPa | 2.9V | 03:48:00 | 00:12:20 | 00:00:00 | |
| DO3MHA-11 | 2026-09-01 04:41:30 | 47.83399 | 10.89271 | 71° | 37km/h | 1892m | 5.6m/s | 8.3°C | 75.8% | 820.3hPa | 2.9V | 00:00:00 | 00:12:20 | 00:00:00 | |
| DO3MHA-12 | 2026-09-01 04:41:20 | 47.83380 | 10.89140 | 105° | 35km/h | 1839m | 4.8m/s | 8.6°C | 74.1% | 825.6hPa | 2.9V | 00:00:00 | 00:12:10 | 00:00:00 | |
| DO3MHA-11 | 2026-09-01 04:41:20 | 47.83380 | 10.89140 | 105° | 35km/h | 1839m | 4.8m/s | 8.6°C | 74.1% | 825.6hPa | 2.9V | 00:00:00 | 00:12:10 | 00:00:00 | |
| DG1MJG | 2026-09-01 04:41:10 | 47.83366 | 10.89026 | 76° | 38km/h | 1788m | 4.4m/s | 8.9°C | 70.4% | 830.8hPa | 2.9V | 03:48:00 | 00:00:00 | 00:00:00 | |
| DO3MHA-12 | 2026-09-01 04:41:10 | 47.83365 | 10.89012 | 84° | 37km/h | 1783m | 5.1m/s | 8.9°C | 71.1% | 831.2hPa | 2.9V | 00:00:00 | 00:12:00 | 00:00:00 | |
| DO3MHA-11 | 2026-09-01 04:41:10 | 47.83365 | 10.89012 | 84° | 37km/h | 1783m | 5.1m/s | 8.9°C | 71.1% | 831.2hPa | 0V | 00:00:00 | 00:12:00 | 00:00:00 | |
| DO3MHA-12 | 2026-09-01 04:41:00 | 47.83354 | 10.88882 | 68° | 33km/h | 1728m | 4.5m/s | 9.1°C | 85.1% | 836.8hPa | 0V | 00:00:00 | 00:11:50 | 00:00:00 | |
| DO3MHA-11 | 2026-09-01 04:41:00 | 47.83354 | 10.88882 | 68° | 33km/h | 1728m | 4.5m/s | 0°C | 0% | 0hPa | 0V | 00:00:00 | 00:11:50 | 00:00:00 | |
| DO3MHA-12 | 2026-09-01 04:40:50 | 47.83352 | 10.88758 | 77° | 31km/h | 1669m | 5.4m/s | 0°C | 0% | 0hPa | 0V | 03:49:00 | 00:11:40 | 00:00:00 | |
| DO3MHA-11 | 2026-09-01 04:40:50 | 47.83352 | 10.88758 | 77° | 31km/h | 1669m | 5.4m/s | 0°C | 0% | 0hPa | 0V | 00:00:00 | 00:11:40 | 00:00:00 | |
| DG1MJG | 2026-09-01 04:40:40 | 47.83344 | 10.88655 | 82° | 35km/h | 1616m | 6.0m/s | 10.0°C | 0% | 0hPa | 0V | 03:49:00 | 00:00:00 | 00:00:00 | |
| DO3MHA-12 | 2026-09-01 04:40:40 | 47.83342 | 10.88643 | 74° | 29km/h | 1611m | 4.6m/s | 0°C | 0% | 0hPa | 0V | 00:00:00 | 00:11:30 | 00:00:00 | |
| DO3MHA-11 | 2026-09-01 04:40:40 | 47.83342 | 10.88643 | 74° | 29km/h | 1611m | 4.6m/s | 0°C | 0% | 0hPa | 0V | 00:00:00 | 00:11:30 | 00:00:00 | |
| DO3MHA-12 | 2026-09-01 04:40:30 | 47.83330 | 10.88534 | 81° | 31km/h | 1556m | 5.7m/s | 0°C | 0% | 0hPa | 0V | 00:00:00 | 00:11:20 | 00:00:00 | |
| DO3MHA-11 | 2026-09-01 04:40:30 | 47.83330 | 10.88534 | 81° | 31km/h | 1556m | 5.7m/s | 0°C | 0% | 0hPa | 0V | 00:00:00 | 00:11:20 | 00:00:00 |